<?xml version="1.0" encoding="UTF-8" standalone="no" ?>
<gpx xmlns="http://www.topografix.com/GPX/1/1" xmlns:xsi="http://www.w3.org/2001/XMLSchema-instance" xsi:schemaLocation="http://www.topografix.com/GPX/1/1 http://www.topografix.com/GPX/1/1/gpx.xsd" version="1.1" creator="VisuGPX - https://www.visugpx.com">
  <metadata>
    <name>Ariège 95km 2650D+</name>
  </metadata>
  <trk>
    <name><![CDATA[11753106-Autour de Seix 3]]></name>
    <trkseg>
      <trkpt lat="42.86921" lon="1.20619">
        <ele>505</ele>
        <time>2020-07-27T09:18:21Z</time>
      </trkpt>
      <trkpt lat="42.8686" lon="1.20757">
        <ele>504</ele>
        <time>2020-07-27T09:18:42Z</time>
      </trkpt>
      <trkpt lat="42.86834" lon="1.20815">
        <ele>508</ele>
        <time>2020-07-27T09:18:51Z</time>
      </trkpt>
      <trkpt lat="42.8683" lon="1.20828">
        <ele>509</ele>
        <time>2020-07-27T09:18:53Z</time>
      </trkpt>
      <trkpt lat="42.86827" lon="1.20826">
        <ele>509</ele>
        <time>2020-07-27T09:18:53Z</time>
      </trkpt>
      <trkpt lat="42.86821" lon="1.20825">
        <ele>509</ele>
        <time>2020-07-27T09:18:54Z</time>
      </trkpt>
      <trkpt lat="42.86816" lon="1.20829">
        <ele>510</ele>
        <time>2020-07-27T09:18:55Z</time>
      </trkpt>
      <trkpt lat="42.86814" lon="1.20831">
        <ele>510</ele>
        <time>2020-07-27T09:18:56Z</time>
      </trkpt>
      <trkpt lat="42.86812" lon="1.20837">
        <ele>511</ele>
        <time>2020-07-27T09:18:57Z</time>
      </trkpt>
      <trkpt lat="42.86813" lon="1.20846">
        <ele>512</ele>
        <time>2020-07-27T09:18:58Z</time>
      </trkpt>
      <trkpt lat="42.86817" lon="1.20853">
        <ele>513</ele>
        <time>2020-07-27T09:18:59Z</time>
      </trkpt>
      <trkpt lat="42.86826" lon="1.20855">
        <ele>512</ele>
        <time>2020-07-27T09:19:01Z</time>
      </trkpt>
      <trkpt lat="42.86831" lon="1.20852">
        <ele>511</ele>
        <time>2020-07-27T09:19:02Z</time>
      </trkpt>
      <trkpt lat="42.86831" lon="1.2085">
        <ele>511</ele>
        <time>2020-07-27T09:19:02Z</time>
      </trkpt>
      <trkpt lat="42.86842" lon="1.20862">
        <ele>511</ele>
        <time>2020-07-27T09:19:04Z</time>
      </trkpt>
      <trkpt lat="42.86858" lon="1.20878">
        <ele>511</ele>
        <time>2020-07-27T09:19:08Z</time>
      </trkpt>
      <trkpt lat="42.86901" lon="1.20905">
        <ele>508</ele>
        <time>2020-07-27T09:19:16Z</time>
      </trkpt>
      <trkpt lat="42.8694" lon="1.20937">
        <ele>508</ele>
        <time>2020-07-27T09:19:24Z</time>
      </trkpt>
      <trkpt lat="42.8697" lon="1.20979">
        <ele>510</ele>
        <time>2020-07-27T09:19:32Z</time>
      </trkpt>
      <trkpt lat="42.87003" lon="1.21016">
        <ele>510</ele>
        <time>2020-07-27T09:19:40Z</time>
      </trkpt>
      <trkpt lat="42.87025" lon="1.21033">
        <ele>509</ele>
        <time>2020-07-27T09:19:44Z</time>
      </trkpt>
      <trkpt lat="42.87051" lon="1.21047">
        <ele>507</ele>
        <time>2020-07-27T09:19:49Z</time>
      </trkpt>
      <trkpt lat="42.871" lon="1.21076">
        <ele>505</ele>
        <time>2020-07-27T09:19:59Z</time>
      </trkpt>
      <trkpt lat="42.87109" lon="1.21081">
        <ele>506</ele>
        <time>2020-07-27T09:20:00Z</time>
      </trkpt>
      <trkpt lat="42.87199" lon="1.21121">
        <ele>506</ele>
        <time>2020-07-27T09:20:17Z</time>
      </trkpt>
      <trkpt lat="42.87222" lon="1.21133">
        <ele>506</ele>
        <time>2020-07-27T09:20:22Z</time>
      </trkpt>
      <trkpt lat="42.87228" lon="1.21133">
        <ele>505</ele>
        <time>2020-07-27T09:20:23Z</time>
      </trkpt>
      <trkpt lat="42.87254" lon="1.21133">
        <ele>504</ele>
        <time>2020-07-27T09:20:27Z</time>
      </trkpt>
      <trkpt lat="42.87257" lon="1.21133">
        <ele>503</ele>
        <time>2020-07-27T09:20:28Z</time>
      </trkpt>
      <trkpt lat="42.87261" lon="1.21133">
        <ele>503</ele>
        <time>2020-07-27T09:20:29Z</time>
      </trkpt>
      <trkpt lat="42.87287" lon="1.21133">
        <ele>502</ele>
        <time>2020-07-27T09:20:33Z</time>
      </trkpt>
      <trkpt lat="42.87318" lon="1.21138">
        <ele>501</ele>
        <time>2020-07-27T09:20:39Z</time>
      </trkpt>
      <trkpt lat="42.87507" lon="1.21249">
        <ele>500</ele>
        <time>2020-07-27T09:21:15Z</time>
      </trkpt>
      <trkpt lat="42.87513" lon="1.21253">
        <ele>500</ele>
        <time>2020-07-27T09:21:17Z</time>
      </trkpt>
      <trkpt lat="42.87535" lon="1.21266">
        <ele>501</ele>
        <time>2020-07-27T09:21:21Z</time>
      </trkpt>
      <trkpt lat="42.87542" lon="1.2127">
        <ele>501</ele>
        <time>2020-07-27T09:21:22Z</time>
      </trkpt>
      <trkpt lat="42.87676" lon="1.21349">
        <ele>499</ele>
        <time>2020-07-27T09:21:48Z</time>
      </trkpt>
      <trkpt lat="42.87722" lon="1.21376">
        <ele>498</ele>
        <time>2020-07-27T09:21:57Z</time>
      </trkpt>
      <trkpt lat="42.87828" lon="1.2144">
        <ele>494</ele>
        <time>2020-07-27T09:22:18Z</time>
      </trkpt>
      <trkpt lat="42.87836" lon="1.21444">
        <ele>494</ele>
        <time>2020-07-27T09:22:19Z</time>
      </trkpt>
      <trkpt lat="42.87865" lon="1.21461">
        <ele>494</ele>
        <time>2020-07-27T09:22:25Z</time>
      </trkpt>
      <trkpt lat="42.87953" lon="1.21513">
        <ele>494</ele>
        <time>2020-07-27T09:22:42Z</time>
      </trkpt>
      <trkpt lat="42.87987" lon="1.21535">
        <ele>495</ele>
        <time>2020-07-27T09:22:49Z</time>
      </trkpt>
      <trkpt lat="42.87998" lon="1.21542">
        <ele>495</ele>
        <time>2020-07-27T09:22:51Z</time>
      </trkpt>
      <trkpt lat="42.87997" lon="1.21547">
        <ele>496</ele>
        <time>2020-07-27T09:22:51Z</time>
      </trkpt>
      <trkpt lat="42.87996" lon="1.21553">
        <ele>496</ele>
        <time>2020-07-27T09:22:52Z</time>
      </trkpt>
      <trkpt lat="42.87998" lon="1.2156">
        <ele>497</ele>
        <time>2020-07-27T09:22:53Z</time>
      </trkpt>
      <trkpt lat="42.88" lon="1.21565">
        <ele>497</ele>
        <time>2020-07-27T09:22:54Z</time>
      </trkpt>
      <trkpt lat="42.88004" lon="1.21569">
        <ele>497</ele>
        <time>2020-07-27T09:22:55Z</time>
      </trkpt>
      <trkpt lat="42.88012" lon="1.2157">
        <ele>497</ele>
        <time>2020-07-27T09:22:56Z</time>
      </trkpt>
      <trkpt lat="42.88018" lon="1.21567">
        <ele>497</ele>
        <time>2020-07-27T09:22:57Z</time>
      </trkpt>
      <trkpt lat="42.88022" lon="1.21561">
        <ele>497</ele>
        <time>2020-07-27T09:22:58Z</time>
      </trkpt>
      <trkpt lat="42.88023" lon="1.21559">
        <ele>497</ele>
        <time>2020-07-27T09:22:59Z</time>
      </trkpt>
      <trkpt lat="42.88027" lon="1.2156">
        <ele>497</ele>
        <time>2020-07-27T09:22:59Z</time>
      </trkpt>
      <trkpt lat="42.88076" lon="1.21578">
        <ele>499</ele>
        <time>2020-07-27T09:23:09Z</time>
      </trkpt>
      <trkpt lat="42.88111" lon="1.21585">
        <ele>500</ele>
        <time>2020-07-27T09:23:15Z</time>
      </trkpt>
      <trkpt lat="42.88154" lon="1.21587">
        <ele>500</ele>
        <time>2020-07-27T09:23:22Z</time>
      </trkpt>
      <trkpt lat="42.88233" lon="1.21571">
        <ele>500</ele>
        <time>2020-07-27T09:23:37Z</time>
      </trkpt>
      <trkpt lat="42.88479" lon="1.21509">
        <ele>492</ele>
        <time>2020-07-27T09:24:21Z</time>
      </trkpt>
      <trkpt lat="42.88517" lon="1.21504">
        <ele>491</ele>
        <time>2020-07-27T09:24:28Z</time>
      </trkpt>
      <trkpt lat="42.88623" lon="1.21497">
        <ele>490</ele>
        <time>2020-07-27T09:24:47Z</time>
      </trkpt>
      <trkpt lat="42.88729" lon="1.21491">
        <ele>491</ele>
        <time>2020-07-27T09:25:06Z</time>
      </trkpt>
      <trkpt lat="42.88939" lon="1.21481">
        <ele>485</ele>
        <time>2020-07-27T09:25:43Z</time>
      </trkpt>
      <trkpt lat="42.89056" lon="1.21475">
        <ele>483</ele>
        <time>2020-07-27T09:26:04Z</time>
      </trkpt>
      <trkpt lat="42.89149" lon="1.21474">
        <ele>486</ele>
        <time>2020-07-27T09:26:21Z</time>
      </trkpt>
      <trkpt lat="42.89176" lon="1.21483">
        <ele>488</ele>
        <time>2020-07-27T09:26:25Z</time>
      </trkpt>
      <trkpt lat="42.89272" lon="1.21527">
        <ele>490</ele>
        <time>2020-07-27T09:26:43Z</time>
      </trkpt>
      <trkpt lat="42.89303" lon="1.21539">
        <ele>488</ele>
        <time>2020-07-27T09:26:49Z</time>
      </trkpt>
      <trkpt lat="42.89333" lon="1.21544">
        <ele>485</ele>
        <time>2020-07-27T09:26:55Z</time>
      </trkpt>
      <trkpt lat="42.89366" lon="1.21544">
        <ele>487</ele>
        <time>2020-07-27T09:27:00Z</time>
      </trkpt>
      <trkpt lat="42.89397" lon="1.2154">
        <ele>488</ele>
        <time>2020-07-27T09:27:06Z</time>
      </trkpt>
      <trkpt lat="42.89612" lon="1.21501">
        <ele>483</ele>
        <time>2020-07-27T09:27:45Z</time>
      </trkpt>
      <trkpt lat="42.89827" lon="1.21459">
        <ele>481</ele>
        <time>2020-07-27T09:28:23Z</time>
      </trkpt>
      <trkpt lat="42.89934" lon="1.21438">
        <ele>479</ele>
        <time>2020-07-27T09:28:42Z</time>
      </trkpt>
      <trkpt lat="42.89952" lon="1.21434">
        <ele>478</ele>
        <time>2020-07-27T09:28:46Z</time>
      </trkpt>
      <trkpt lat="42.89937" lon="1.21391">
        <ele>475</ele>
        <time>2020-07-27T09:28:52Z</time>
      </trkpt>
      <trkpt lat="42.89934" lon="1.21438">
        <ele>479</ele>
        <time>2020-07-27T09:28:58Z</time>
      </trkpt>
      <trkpt lat="42.89952" lon="1.21434">
        <ele>478</ele>
        <time>2020-07-27T09:29:01Z</time>
      </trkpt>
      <trkpt lat="42.89969" lon="1.2143">
        <ele>477</ele>
        <time>2020-07-27T09:29:04Z</time>
      </trkpt>
      <trkpt lat="42.90028" lon="1.21405">
        <ele>474</ele>
        <time>2020-07-27T09:29:15Z</time>
      </trkpt>
      <trkpt lat="42.90088" lon="1.21362">
        <ele>472</ele>
        <time>2020-07-27T09:29:27Z</time>
      </trkpt>
      <trkpt lat="42.90168" lon="1.21289">
        <ele>472</ele>
        <time>2020-07-27T09:29:45Z</time>
      </trkpt>
      <trkpt lat="42.9019" lon="1.21268">
        <ele>474</ele>
        <time>2020-07-27T09:29:49Z</time>
      </trkpt>
      <trkpt lat="42.90263" lon="1.21179">
        <ele>476</ele>
        <time>2020-07-27T09:30:07Z</time>
      </trkpt>
      <trkpt lat="42.90292" lon="1.21151">
        <ele>480</ele>
        <time>2020-07-27T09:30:13Z</time>
      </trkpt>
      <trkpt lat="42.90334" lon="1.21126">
        <ele>484</ele>
        <time>2020-07-27T09:30:21Z</time>
      </trkpt>
      <trkpt lat="42.90376" lon="1.21112">
        <ele>487</ele>
        <time>2020-07-27T09:30:29Z</time>
      </trkpt>
      <trkpt lat="42.9043" lon="1.2111">
        <ele>490</ele>
        <time>2020-07-27T09:30:39Z</time>
      </trkpt>
      <trkpt lat="42.90486" lon="1.21123">
        <ele>490</ele>
        <time>2020-07-27T09:30:49Z</time>
      </trkpt>
      <trkpt lat="42.90534" lon="1.21153">
        <ele>488</ele>
        <time>2020-07-27T09:30:58Z</time>
      </trkpt>
      <trkpt lat="42.90574" lon="1.21198">
        <ele>486</ele>
        <time>2020-07-27T09:31:07Z</time>
      </trkpt>
      <trkpt lat="42.90648" lon="1.21316">
        <ele>485</ele>
        <time>2020-07-27T09:31:27Z</time>
      </trkpt>
      <trkpt lat="42.90685" lon="1.2136">
        <ele>482</ele>
        <time>2020-07-27T09:31:36Z</time>
      </trkpt>
      <trkpt lat="42.90702" lon="1.21373">
        <ele>484</ele>
        <time>2020-07-27T09:31:40Z</time>
      </trkpt>
      <trkpt lat="42.90721" lon="1.21384">
        <ele>485</ele>
        <time>2020-07-27T09:31:43Z</time>
      </trkpt>
      <trkpt lat="42.90736" lon="1.21386">
        <ele>484</ele>
        <time>2020-07-27T09:31:46Z</time>
      </trkpt>
      <trkpt lat="42.90754" lon="1.21383">
        <ele>482</ele>
        <time>2020-07-27T09:31:49Z</time>
      </trkpt>
      <trkpt lat="42.90791" lon="1.21368">
        <ele>477</ele>
        <time>2020-07-27T09:31:56Z</time>
      </trkpt>
      <trkpt lat="42.90809" lon="1.21366">
        <ele>476</ele>
        <time>2020-07-27T09:31:59Z</time>
      </trkpt>
      <trkpt lat="42.90823" lon="1.21368">
        <ele>476</ele>
        <time>2020-07-27T09:32:02Z</time>
      </trkpt>
      <trkpt lat="42.90847" lon="1.21378">
        <ele>476</ele>
        <time>2020-07-27T09:32:06Z</time>
      </trkpt>
      <trkpt lat="42.9087" lon="1.21397">
        <ele>476</ele>
        <time>2020-07-27T09:32:11Z</time>
      </trkpt>
      <trkpt lat="42.90885" lon="1.21432">
        <ele>475</ele>
        <time>2020-07-27T09:32:16Z</time>
      </trkpt>
      <trkpt lat="42.90891" lon="1.21451">
        <ele>476</ele>
        <time>2020-07-27T09:32:19Z</time>
      </trkpt>
      <trkpt lat="42.9089" lon="1.21455">
        <ele>476</ele>
        <time>2020-07-27T09:32:20Z</time>
      </trkpt>
      <trkpt lat="42.90886" lon="1.21478">
        <ele>479</ele>
        <time>2020-07-27T09:32:23Z</time>
      </trkpt>
      <trkpt lat="42.90889" lon="1.21493">
        <ele>479</ele>
        <time>2020-07-27T09:32:25Z</time>
      </trkpt>
      <trkpt lat="42.90894" lon="1.21499">
        <ele>478</ele>
        <time>2020-07-27T09:32:26Z</time>
      </trkpt>
      <trkpt lat="42.90892" lon="1.21505">
        <ele>478</ele>
        <time>2020-07-27T09:32:27Z</time>
      </trkpt>
      <trkpt lat="42.90889" lon="1.2152">
        <ele>480</ele>
        <time>2020-07-27T09:32:29Z</time>
      </trkpt>
      <trkpt lat="42.90877" lon="1.21565">
        <ele>483</ele>
        <time>2020-07-27T09:32:35Z</time>
      </trkpt>
      <trkpt lat="42.90784" lon="1.2173">
        <ele>488</ele>
        <time>2020-07-27T09:33:02Z</time>
      </trkpt>
      <trkpt lat="42.90758" lon="1.21775">
        <ele>484</ele>
        <time>2020-07-27T09:33:10Z</time>
      </trkpt>
      <trkpt lat="42.90735" lon="1.21804">
        <ele>482</ele>
        <time>2020-07-27T09:33:15Z</time>
      </trkpt>
      <trkpt lat="42.9071" lon="1.21828">
        <ele>479</ele>
        <time>2020-07-27T09:33:21Z</time>
      </trkpt>
      <trkpt lat="42.90625" lon="1.21887">
        <ele>479</ele>
        <time>2020-07-27T09:33:38Z</time>
      </trkpt>
      <trkpt lat="42.90596" lon="1.21912">
        <ele>473</ele>
        <time>2020-07-27T09:33:44Z</time>
      </trkpt>
      <trkpt lat="42.90462" lon="1.22044">
        <ele>490</ele>
        <time>2020-07-27T09:34:13Z</time>
      </trkpt>
      <trkpt lat="42.90435" lon="1.22067">
        <ele>493</ele>
        <time>2020-07-27T09:34:19Z</time>
      </trkpt>
      <trkpt lat="42.90403" lon="1.221">
        <ele>495</ele>
        <time>2020-07-27T09:34:26Z</time>
      </trkpt>
      <trkpt lat="42.90361" lon="1.22151">
        <ele>494</ele>
        <time>2020-07-27T09:34:36Z</time>
      </trkpt>
      <trkpt lat="42.90334" lon="1.22181">
        <ele>492</ele>
        <time>2020-07-27T09:34:42Z</time>
      </trkpt>
      <trkpt lat="42.903" lon="1.22212">
        <ele>499</ele>
        <time>2020-07-27T09:34:49Z</time>
      </trkpt>
      <trkpt lat="42.90271" lon="1.22245">
        <ele>499</ele>
        <time>2020-07-27T09:34:56Z</time>
      </trkpt>
      <trkpt lat="42.90239" lon="1.22295">
        <ele>494</ele>
        <time>2020-07-27T09:35:05Z</time>
      </trkpt>
      <trkpt lat="42.90134" lon="1.22468">
        <ele>499</ele>
        <time>2020-07-27T09:35:34Z</time>
      </trkpt>
      <trkpt lat="42.90113" lon="1.22497">
        <ele>503</ele>
        <time>2020-07-27T09:35:39Z</time>
      </trkpt>
      <trkpt lat="42.90092" lon="1.2252">
        <ele>509</ele>
        <time>2020-07-27T09:35:44Z</time>
      </trkpt>
      <trkpt lat="42.90084" lon="1.2254">
        <ele>510</ele>
        <time>2020-07-27T09:35:47Z</time>
      </trkpt>
      <trkpt lat="42.90081" lon="1.22569">
        <ele>508</ele>
        <time>2020-07-27T09:35:51Z</time>
      </trkpt>
      <trkpt lat="42.90083" lon="1.22615">
        <ele>507</ele>
        <time>2020-07-27T09:35:57Z</time>
      </trkpt>
      <trkpt lat="42.9009" lon="1.22663">
        <ele>508</ele>
        <time>2020-07-27T09:36:03Z</time>
      </trkpt>
      <trkpt lat="42.90098" lon="1.22704">
        <ele>509</ele>
        <time>2020-07-27T09:36:09Z</time>
      </trkpt>
      <trkpt lat="42.90112" lon="1.22762">
        <ele>509</ele>
        <time>2020-07-27T09:36:17Z</time>
      </trkpt>
      <trkpt lat="42.90129" lon="1.22803">
        <ele>502</ele>
        <time>2020-07-27T09:36:23Z</time>
      </trkpt>
      <trkpt lat="42.90154" lon="1.22846">
        <ele>491</ele>
        <time>2020-07-27T09:36:30Z</time>
      </trkpt>
      <trkpt lat="42.90159" lon="1.22865">
        <ele>489</ele>
        <time>2020-07-27T09:36:33Z</time>
      </trkpt>
      <trkpt lat="42.9016" lon="1.22889">
        <ele>488</ele>
        <time>2020-07-27T09:36:36Z</time>
      </trkpt>
      <trkpt lat="42.90155" lon="1.22911">
        <ele>488</ele>
        <time>2020-07-27T09:36:39Z</time>
      </trkpt>
      <trkpt lat="42.90147" lon="1.22928">
        <ele>489</ele>
        <time>2020-07-27T09:36:42Z</time>
      </trkpt>
      <trkpt lat="42.90135" lon="1.22942">
        <ele>490</ele>
        <time>2020-07-27T09:36:44Z</time>
      </trkpt>
      <trkpt lat="42.90117" lon="1.22948">
        <ele>491</ele>
        <time>2020-07-27T09:36:48Z</time>
      </trkpt>
      <trkpt lat="42.90066" lon="1.2295">
        <ele>495</ele>
        <time>2020-07-27T09:36:57Z</time>
      </trkpt>
      <trkpt lat="42.90045" lon="1.22955">
        <ele>495</ele>
        <time>2020-07-27T09:37:00Z</time>
      </trkpt>
      <trkpt lat="42.90023" lon="1.22967">
        <ele>494</ele>
        <time>2020-07-27T09:37:05Z</time>
      </trkpt>
      <trkpt lat="42.89957" lon="1.23033">
        <ele>497</ele>
        <time>2020-07-27T09:37:19Z</time>
      </trkpt>
      <trkpt lat="42.89934" lon="1.23062">
        <ele>502</ele>
        <time>2020-07-27T09:37:25Z</time>
      </trkpt>
      <trkpt lat="42.89922" lon="1.23085">
        <ele>504</ele>
        <time>2020-07-27T09:37:29Z</time>
      </trkpt>
      <trkpt lat="42.8991" lon="1.23118">
        <ele>506</ele>
        <time>2020-07-27T09:37:33Z</time>
      </trkpt>
      <trkpt lat="42.89904" lon="1.23151">
        <ele>507</ele>
        <time>2020-07-27T09:37:38Z</time>
      </trkpt>
      <trkpt lat="42.89907" lon="1.23185">
        <ele>506</ele>
        <time>2020-07-27T09:37:42Z</time>
      </trkpt>
      <trkpt lat="42.89916" lon="1.23217">
        <ele>505</ele>
        <time>2020-07-27T09:37:47Z</time>
      </trkpt>
      <trkpt lat="42.89969" lon="1.23346">
        <ele>504</ele>
        <time>2020-07-27T09:38:06Z</time>
      </trkpt>
      <trkpt lat="42.90009" lon="1.23429">
        <ele>505</ele>
        <time>2020-07-27T09:38:19Z</time>
      </trkpt>
      <trkpt lat="42.90049" lon="1.23503">
        <ele>507</ele>
        <time>2020-07-27T09:38:31Z</time>
      </trkpt>
      <trkpt lat="42.90088" lon="1.23563">
        <ele>506</ele>
        <time>2020-07-27T09:38:41Z</time>
      </trkpt>
      <trkpt lat="42.90128" lon="1.23613">
        <ele>509</ele>
        <time>2020-07-27T09:38:51Z</time>
      </trkpt>
      <trkpt lat="42.90168" lon="1.23655">
        <ele>509</ele>
        <time>2020-07-27T09:39:00Z</time>
      </trkpt>
      <trkpt lat="42.90199" lon="1.23687">
        <ele>513</ele>
        <time>2020-07-27T09:39:07Z</time>
      </trkpt>
      <trkpt lat="42.90208" lon="1.237">
        <ele>514</ele>
        <time>2020-07-27T09:39:09Z</time>
      </trkpt>
      <trkpt lat="42.90222" lon="1.23721">
        <ele>514</ele>
        <time>2020-07-27T09:39:13Z</time>
      </trkpt>
      <trkpt lat="42.90231" lon="1.23749">
        <ele>512</ele>
        <time>2020-07-27T09:39:17Z</time>
      </trkpt>
      <trkpt lat="42.90235" lon="1.23776">
        <ele>511</ele>
        <time>2020-07-27T09:39:21Z</time>
      </trkpt>
      <trkpt lat="42.90236" lon="1.23811">
        <ele>511</ele>
        <time>2020-07-27T09:39:25Z</time>
      </trkpt>
      <trkpt lat="42.90232" lon="1.23846">
        <ele>512</ele>
        <time>2020-07-27T09:39:30Z</time>
      </trkpt>
      <trkpt lat="42.90218" lon="1.23885">
        <ele>514</ele>
        <time>2020-07-27T09:39:35Z</time>
      </trkpt>
      <trkpt lat="42.90208" lon="1.23896">
        <ele>515</ele>
        <time>2020-07-27T09:39:38Z</time>
      </trkpt>
      <trkpt lat="42.9017" lon="1.23914">
        <ele>517</ele>
        <time>2020-07-27T09:39:45Z</time>
      </trkpt>
      <trkpt lat="42.90151" lon="1.23931">
        <ele>521</ele>
        <time>2020-07-27T09:39:49Z</time>
      </trkpt>
      <trkpt lat="42.90142" lon="1.23969">
        <ele>520</ele>
        <time>2020-07-27T09:39:54Z</time>
      </trkpt>
      <trkpt lat="42.9014" lon="1.24009">
        <ele>517</ele>
        <time>2020-07-27T09:39:59Z</time>
      </trkpt>
      <trkpt lat="42.90146" lon="1.24047">
        <ele>514</ele>
        <time>2020-07-27T09:40:04Z</time>
      </trkpt>
      <trkpt lat="42.90156" lon="1.24093">
        <ele>512</ele>
        <time>2020-07-27T09:40:11Z</time>
      </trkpt>
      <trkpt lat="42.90179" lon="1.24144">
        <ele>516</ele>
        <time>2020-07-27T09:40:18Z</time>
      </trkpt>
      <trkpt lat="42.90213" lon="1.24184">
        <ele>520</ele>
        <time>2020-07-27T09:40:26Z</time>
      </trkpt>
      <trkpt lat="42.90288" lon="1.24237">
        <ele>521</ele>
        <time>2020-07-27T09:40:41Z</time>
      </trkpt>
      <trkpt lat="42.90374" lon="1.24279">
        <ele>519</ele>
        <time>2020-07-27T09:40:58Z</time>
      </trkpt>
      <trkpt lat="42.90394" lon="1.243">
        <ele>517</ele>
        <time>2020-07-27T09:41:02Z</time>
      </trkpt>
      <trkpt lat="42.9041" lon="1.24325">
        <ele>511</ele>
        <time>2020-07-27T09:41:06Z</time>
      </trkpt>
      <trkpt lat="42.90421" lon="1.24356">
        <ele>510</ele>
        <time>2020-07-27T09:41:11Z</time>
      </trkpt>
      <trkpt lat="42.90434" lon="1.24409">
        <ele>515</ele>
        <time>2020-07-27T09:41:18Z</time>
      </trkpt>
      <trkpt lat="42.90442" lon="1.24431">
        <ele>516</ele>
        <time>2020-07-27T09:41:21Z</time>
      </trkpt>
      <trkpt lat="42.90483" lon="1.24481">
        <ele>510</ele>
        <time>2020-07-27T09:41:31Z</time>
      </trkpt>
      <trkpt lat="42.90493" lon="1.24498">
        <ele>508</ele>
        <time>2020-07-27T09:41:34Z</time>
      </trkpt>
      <trkpt lat="42.90496" lon="1.24521">
        <ele>508</ele>
        <time>2020-07-27T09:41:37Z</time>
      </trkpt>
      <trkpt lat="42.90495" lon="1.24542">
        <ele>509</ele>
        <time>2020-07-27T09:41:40Z</time>
      </trkpt>
      <trkpt lat="42.90486" lon="1.24575">
        <ele>513</ele>
        <time>2020-07-27T09:41:44Z</time>
      </trkpt>
      <trkpt lat="42.90484" lon="1.24606">
        <ele>514</ele>
        <time>2020-07-27T09:41:48Z</time>
      </trkpt>
      <trkpt lat="42.9049" lon="1.24632">
        <ele>511</ele>
        <time>2020-07-27T09:41:52Z</time>
      </trkpt>
      <trkpt lat="42.90501" lon="1.24658">
        <ele>506</ele>
        <time>2020-07-27T09:41:56Z</time>
      </trkpt>
      <trkpt lat="42.90514" lon="1.2469">
        <ele>507</ele>
        <time>2020-07-27T09:42:01Z</time>
      </trkpt>
      <trkpt lat="42.90529" lon="1.2473">
        <ele>508</ele>
        <time>2020-07-27T09:42:07Z</time>
      </trkpt>
      <trkpt lat="42.90538" lon="1.24763">
        <ele>508</ele>
        <time>2020-07-27T09:42:11Z</time>
      </trkpt>
      <trkpt lat="42.90565" lon="1.24855">
        <ele>505</ele>
        <time>2020-07-27T09:42:24Z</time>
      </trkpt>
      <trkpt lat="42.90581" lon="1.24909">
        <ele>504</ele>
        <time>2020-07-27T09:42:32Z</time>
      </trkpt>
      <trkpt lat="42.90589" lon="1.24922">
        <ele>504</ele>
        <time>2020-07-27T09:42:34Z</time>
      </trkpt>
      <trkpt lat="42.90601" lon="1.24929">
        <ele>505</ele>
        <time>2020-07-27T09:42:36Z</time>
      </trkpt>
      <trkpt lat="42.90613" lon="1.24931">
        <ele>504</ele>
        <time>2020-07-27T09:42:38Z</time>
      </trkpt>
      <trkpt lat="42.90755" lon="1.24917">
        <ele>504</ele>
        <time>2020-07-27T09:43:04Z</time>
      </trkpt>
      <trkpt lat="42.90768" lon="1.24919">
        <ele>504</ele>
        <time>2020-07-27T09:43:06Z</time>
      </trkpt>
      <trkpt lat="42.9078" lon="1.24925">
        <ele>505</ele>
        <time>2020-07-27T09:43:08Z</time>
      </trkpt>
      <trkpt lat="42.90792" lon="1.24934">
        <ele>506</ele>
        <time>2020-07-27T09:43:11Z</time>
      </trkpt>
      <trkpt lat="42.90823" lon="1.24965">
        <ele>509</ele>
        <time>2020-07-27T09:43:18Z</time>
      </trkpt>
      <trkpt lat="42.90894" lon="1.25038">
        <ele>516</ele>
        <time>2020-07-27T09:43:33Z</time>
      </trkpt>
      <trkpt lat="42.90915" lon="1.25061">
        <ele>517</ele>
        <time>2020-07-27T09:43:38Z</time>
      </trkpt>
      <trkpt lat="42.90989" lon="1.25128">
        <ele>524</ele>
        <time>2020-07-27T09:43:54Z</time>
      </trkpt>
      <trkpt lat="42.91005" lon="1.25149">
        <ele>526</ele>
        <time>2020-07-27T09:43:58Z</time>
      </trkpt>
      <trkpt lat="42.91055" lon="1.25221">
        <ele>533</ele>
        <time>2020-07-27T09:44:11Z</time>
      </trkpt>
      <trkpt lat="42.91135" lon="1.2532">
        <ele>534</ele>
        <time>2020-07-27T09:44:30Z</time>
      </trkpt>
      <trkpt lat="42.91161" lon="1.25346">
        <ele>526</ele>
        <time>2020-07-27T09:44:36Z</time>
      </trkpt>
      <trkpt lat="42.9117" lon="1.25366">
        <ele>526</ele>
        <time>2020-07-27T09:44:39Z</time>
      </trkpt>
      <trkpt lat="42.91172" lon="1.2538">
        <ele>527</ele>
        <time>2020-07-27T09:44:41Z</time>
      </trkpt>
      <trkpt lat="42.91163" lon="1.25447">
        <ele>541</ele>
        <time>2020-07-27T09:44:50Z</time>
      </trkpt>
      <trkpt lat="42.91163" lon="1.25458">
        <ele>545</ele>
        <time>2020-07-27T09:44:51Z</time>
      </trkpt>
      <trkpt lat="42.91167" lon="1.25475">
        <ele>547</ele>
        <time>2020-07-27T09:44:53Z</time>
      </trkpt>
      <trkpt lat="42.91176" lon="1.25485">
        <ele>548</ele>
        <time>2020-07-27T09:44:55Z</time>
      </trkpt>
      <trkpt lat="42.91188" lon="1.25493">
        <ele>547</ele>
        <time>2020-07-27T09:44:58Z</time>
      </trkpt>
      <trkpt lat="42.91202" lon="1.25498">
        <ele>545</ele>
        <time>2020-07-27T09:45:00Z</time>
      </trkpt>
      <trkpt lat="42.91217" lon="1.25498">
        <ele>541</ele>
        <time>2020-07-27T09:45:03Z</time>
      </trkpt>
      <trkpt lat="42.91256" lon="1.25471">
        <ele>529</ele>
        <time>2020-07-27T09:45:11Z</time>
      </trkpt>
      <trkpt lat="42.91271" lon="1.25455">
        <ele>527</ele>
        <time>2020-07-27T09:45:14Z</time>
      </trkpt>
      <trkpt lat="42.91282" lon="1.25447">
        <ele>527</ele>
        <time>2020-07-27T09:45:16Z</time>
      </trkpt>
      <trkpt lat="42.91297" lon="1.25444">
        <ele>528</ele>
        <time>2020-07-27T09:45:19Z</time>
      </trkpt>
      <trkpt lat="42.91306" lon="1.25449">
        <ele>530</ele>
        <time>2020-07-27T09:45:21Z</time>
      </trkpt>
      <trkpt lat="42.91313" lon="1.25458">
        <ele>531</ele>
        <time>2020-07-27T09:45:23Z</time>
      </trkpt>
      <trkpt lat="42.91353" lon="1.25536">
        <ele>537</ele>
        <time>2020-07-27T09:45:35Z</time>
      </trkpt>
      <trkpt lat="42.91369" lon="1.25555">
        <ele>536</ele>
        <time>2020-07-27T09:45:39Z</time>
      </trkpt>
      <trkpt lat="42.91374" lon="1.25566">
        <ele>535</ele>
        <time>2020-07-27T09:45:40Z</time>
      </trkpt>
      <trkpt lat="42.91374" lon="1.25578">
        <ele>535</ele>
        <time>2020-07-27T09:45:42Z</time>
      </trkpt>
      <trkpt lat="42.91364" lon="1.25616">
        <ele>538</ele>
        <time>2020-07-27T09:45:47Z</time>
      </trkpt>
      <trkpt lat="42.91358" lon="1.25658">
        <ele>538</ele>
        <time>2020-07-27T09:45:53Z</time>
      </trkpt>
      <trkpt lat="42.91356" lon="1.25683">
        <ele>539</ele>
        <time>2020-07-27T09:45:56Z</time>
      </trkpt>
      <trkpt lat="42.91358" lon="1.25716">
        <ele>541</ele>
        <time>2020-07-27T09:46:00Z</time>
      </trkpt>
      <trkpt lat="42.91403" lon="1.25816">
        <ele>540</ele>
        <time>2020-07-27T09:46:16Z</time>
      </trkpt>
      <trkpt lat="42.91407" lon="1.25834">
        <ele>540</ele>
        <time>2020-07-27T09:46:18Z</time>
      </trkpt>
      <trkpt lat="42.91412" lon="1.25853">
        <ele>538</ele>
        <time>2020-07-27T09:46:21Z</time>
      </trkpt>
      <trkpt lat="42.91413" lon="1.25873">
        <ele>537</ele>
        <time>2020-07-27T09:46:23Z</time>
      </trkpt>
      <trkpt lat="42.91411" lon="1.25888">
        <ele>537</ele>
        <time>2020-07-27T09:46:25Z</time>
      </trkpt>
      <trkpt lat="42.91406" lon="1.25901">
        <ele>538</ele>
        <time>2020-07-27T09:46:27Z</time>
      </trkpt>
      <trkpt lat="42.91395" lon="1.25921">
        <ele>542</ele>
        <time>2020-07-27T09:46:31Z</time>
      </trkpt>
      <trkpt lat="42.91376" lon="1.25946">
        <ele>548</ele>
        <time>2020-07-27T09:46:35Z</time>
      </trkpt>
      <trkpt lat="42.91365" lon="1.25967">
        <ele>552</ele>
        <time>2020-07-27T09:46:39Z</time>
      </trkpt>
      <trkpt lat="42.9136" lon="1.2599">
        <ele>553</ele>
        <time>2020-07-27T09:46:42Z</time>
      </trkpt>
      <trkpt lat="42.9136" lon="1.26008">
        <ele>554</ele>
        <time>2020-07-27T09:46:44Z</time>
      </trkpt>
      <trkpt lat="42.91365" lon="1.26028">
        <ele>554</ele>
        <time>2020-07-27T09:46:47Z</time>
      </trkpt>
      <trkpt lat="42.91387" lon="1.26073">
        <ele>550</ele>
        <time>2020-07-27T09:46:54Z</time>
      </trkpt>
      <trkpt lat="42.91396" lon="1.26115">
        <ele>547</ele>
        <time>2020-07-27T09:47:00Z</time>
      </trkpt>
      <trkpt lat="42.91398" lon="1.26143">
        <ele>547</ele>
        <time>2020-07-27T09:47:03Z</time>
      </trkpt>
      <trkpt lat="42.91392" lon="1.26172">
        <ele>550</ele>
        <time>2020-07-27T09:47:07Z</time>
      </trkpt>
      <trkpt lat="42.91382" lon="1.26204">
        <ele>554</ele>
        <time>2020-07-27T09:47:12Z</time>
      </trkpt>
      <trkpt lat="42.91343" lon="1.26306">
        <ele>565</ele>
        <time>2020-07-27T09:47:27Z</time>
      </trkpt>
      <trkpt lat="42.91337" lon="1.26328">
        <ele>566</ele>
        <time>2020-07-27T09:47:30Z</time>
      </trkpt>
      <trkpt lat="42.91336" lon="1.26347">
        <ele>569</ele>
        <time>2020-07-27T09:47:32Z</time>
      </trkpt>
      <trkpt lat="42.91337" lon="1.26365">
        <ele>572</ele>
        <time>2020-07-27T09:47:35Z</time>
      </trkpt>
      <trkpt lat="42.91342" lon="1.26378">
        <ele>573</ele>
        <time>2020-07-27T09:47:37Z</time>
      </trkpt>
      <trkpt lat="42.91347" lon="1.26385">
        <ele>572</ele>
        <time>2020-07-27T09:47:38Z</time>
      </trkpt>
      <trkpt lat="42.91382" lon="1.26404">
        <ele>562</ele>
        <time>2020-07-27T09:47:45Z</time>
      </trkpt>
      <trkpt lat="42.91433" lon="1.2642">
        <ele>548</ele>
        <time>2020-07-27T09:47:54Z</time>
      </trkpt>
      <trkpt lat="42.91455" lon="1.26419">
        <ele>545</ele>
        <time>2020-07-27T09:47:58Z</time>
      </trkpt>
      <trkpt lat="42.91517" lon="1.2641">
        <ele>548</ele>
        <time>2020-07-27T09:48:09Z</time>
      </trkpt>
      <trkpt lat="42.91532" lon="1.26414">
        <ele>550</ele>
        <time>2020-07-27T09:48:12Z</time>
      </trkpt>
      <trkpt lat="42.91542" lon="1.26428">
        <ele>552</ele>
        <time>2020-07-27T09:48:14Z</time>
      </trkpt>
      <trkpt lat="42.91544" lon="1.26436">
        <ele>552</ele>
        <time>2020-07-27T09:48:15Z</time>
      </trkpt>
      <trkpt lat="42.91543" lon="1.26446">
        <ele>552</ele>
        <time>2020-07-27T09:48:17Z</time>
      </trkpt>
      <trkpt lat="42.91531" lon="1.26479">
        <ele>549</ele>
        <time>2020-07-27T09:48:21Z</time>
      </trkpt>
      <trkpt lat="42.91498" lon="1.26537">
        <ele>539</ele>
        <time>2020-07-27T09:48:31Z</time>
      </trkpt>
      <trkpt lat="42.91475" lon="1.26576">
        <ele>542</ele>
        <time>2020-07-27T09:48:37Z</time>
      </trkpt>
      <trkpt lat="42.91466" lon="1.26588">
        <ele>544</ele>
        <time>2020-07-27T09:48:40Z</time>
      </trkpt>
      <trkpt lat="42.91456" lon="1.266">
        <ele>547</ele>
        <time>2020-07-27T09:48:42Z</time>
      </trkpt>
      <trkpt lat="42.91361" lon="1.2668">
        <ele>551</ele>
        <time>2020-07-27T09:49:02Z</time>
      </trkpt>
      <trkpt lat="42.91348" lon="1.26693">
        <ele>552</ele>
        <time>2020-07-27T09:49:05Z</time>
      </trkpt>
      <trkpt lat="42.91308" lon="1.26722">
        <ele>556</ele>
        <time>2020-07-27T09:49:13Z</time>
      </trkpt>
      <trkpt lat="42.91293" lon="1.26738">
        <ele>555</ele>
        <time>2020-07-27T09:49:16Z</time>
      </trkpt>
      <trkpt lat="42.91199" lon="1.26859">
        <ele>552</ele>
        <time>2020-07-27T09:49:39Z</time>
      </trkpt>
      <trkpt lat="42.91167" lon="1.26888">
        <ele>548</ele>
        <time>2020-07-27T09:49:46Z</time>
      </trkpt>
      <trkpt lat="42.91156" lon="1.26896">
        <ele>550</ele>
        <time>2020-07-27T09:49:48Z</time>
      </trkpt>
      <trkpt lat="42.91115" lon="1.26914">
        <ele>558</ele>
        <time>2020-07-27T09:49:56Z</time>
      </trkpt>
      <trkpt lat="42.91096" lon="1.26924">
        <ele>561</ele>
        <time>2020-07-27T09:50:00Z</time>
      </trkpt>
      <trkpt lat="42.91082" lon="1.2694">
        <ele>561</ele>
        <time>2020-07-27T09:50:03Z</time>
      </trkpt>
      <trkpt lat="42.91074" lon="1.26958">
        <ele>563</ele>
        <time>2020-07-27T09:50:06Z</time>
      </trkpt>
      <trkpt lat="42.91072" lon="1.2697">
        <ele>561</ele>
        <time>2020-07-27T09:50:07Z</time>
      </trkpt>
      <trkpt lat="42.9107" lon="1.26991">
        <ele>557</ele>
        <time>2020-07-27T09:50:10Z</time>
      </trkpt>
      <trkpt lat="42.91073" lon="1.27067">
        <ele>548</ele>
        <time>2020-07-27T09:50:20Z</time>
      </trkpt>
      <trkpt lat="42.91069" lon="1.27116">
        <ele>548</ele>
        <time>2020-07-27T09:50:26Z</time>
      </trkpt>
      <trkpt lat="42.9106" lon="1.27145">
        <ele>549</ele>
        <time>2020-07-27T09:50:30Z</time>
      </trkpt>
      <trkpt lat="42.91054" lon="1.27155">
        <ele>549</ele>
        <time>2020-07-27T09:50:32Z</time>
      </trkpt>
      <trkpt lat="42.91045" lon="1.27166">
        <ele>549</ele>
        <time>2020-07-27T09:50:34Z</time>
      </trkpt>
      <trkpt lat="42.91032" lon="1.27174">
        <ele>551</ele>
        <time>2020-07-27T09:50:37Z</time>
      </trkpt>
      <trkpt lat="42.91019" lon="1.27179">
        <ele>552</ele>
        <time>2020-07-27T09:50:39Z</time>
      </trkpt>
      <trkpt lat="42.90968" lon="1.27186">
        <ele>552</ele>
        <time>2020-07-27T09:50:48Z</time>
      </trkpt>
      <trkpt lat="42.90941" lon="1.27183">
        <ele>552</ele>
        <time>2020-07-27T09:50:53Z</time>
      </trkpt>
      <trkpt lat="42.90907" lon="1.27176">
        <ele>556</ele>
        <time>2020-07-27T09:50:59Z</time>
      </trkpt>
      <trkpt lat="42.90891" lon="1.27175">
        <ele>561</ele>
        <time>2020-07-27T09:51:02Z</time>
      </trkpt>
      <trkpt lat="42.9088" lon="1.27178">
        <ele>564</ele>
        <time>2020-07-27T09:51:04Z</time>
      </trkpt>
      <trkpt lat="42.9087" lon="1.27185">
        <ele>566</ele>
        <time>2020-07-27T09:51:06Z</time>
      </trkpt>
      <trkpt lat="42.9086" lon="1.27196">
        <ele>567</ele>
        <time>2020-07-27T09:51:08Z</time>
      </trkpt>
      <trkpt lat="42.90852" lon="1.27206">
        <ele>567</ele>
        <time>2020-07-27T09:51:10Z</time>
      </trkpt>
      <trkpt lat="42.90845" lon="1.27219">
        <ele>566</ele>
        <time>2020-07-27T09:51:12Z</time>
      </trkpt>
      <trkpt lat="42.90839" lon="1.27242">
        <ele>563</ele>
        <time>2020-07-27T09:51:16Z</time>
      </trkpt>
      <trkpt lat="42.90837" lon="1.27258">
        <ele>560</ele>
        <time>2020-07-27T09:51:18Z</time>
      </trkpt>
      <trkpt lat="42.90836" lon="1.27298">
        <ele>556</ele>
        <time>2020-07-27T09:51:23Z</time>
      </trkpt>
      <trkpt lat="42.90839" lon="1.27315">
        <ele>554</ele>
        <time>2020-07-27T09:51:25Z</time>
      </trkpt>
      <trkpt lat="42.90851" lon="1.27351">
        <ele>551</ele>
        <time>2020-07-27T09:51:30Z</time>
      </trkpt>
      <trkpt lat="42.9085" lon="1.27364">
        <ele>551</ele>
        <time>2020-07-27T09:51:32Z</time>
      </trkpt>
      <trkpt lat="42.90846" lon="1.27375">
        <ele>552</ele>
        <time>2020-07-27T09:51:34Z</time>
      </trkpt>
      <trkpt lat="42.90791" lon="1.27423">
        <ele>576</ele>
        <time>2020-07-27T09:51:45Z</time>
      </trkpt>
      <trkpt lat="42.90785" lon="1.27441">
        <ele>580</ele>
        <time>2020-07-27T09:51:48Z</time>
      </trkpt>
      <trkpt lat="42.90783" lon="1.27459">
        <ele>581</ele>
        <time>2020-07-27T09:51:50Z</time>
      </trkpt>
      <trkpt lat="42.90783" lon="1.27476">
        <ele>581</ele>
        <time>2020-07-27T09:51:52Z</time>
      </trkpt>
      <trkpt lat="42.90787" lon="1.27497">
        <ele>579</ele>
        <time>2020-07-27T09:51:55Z</time>
      </trkpt>
      <trkpt lat="42.90794" lon="1.27515">
        <ele>579</ele>
        <time>2020-07-27T09:51:58Z</time>
      </trkpt>
      <trkpt lat="42.90809" lon="1.27537">
        <ele>576</ele>
        <time>2020-07-27T09:52:02Z</time>
      </trkpt>
      <trkpt lat="42.90827" lon="1.27554">
        <ele>570</ele>
        <time>2020-07-27T09:52:06Z</time>
      </trkpt>
      <trkpt lat="42.90852" lon="1.27565">
        <ele>566</ele>
        <time>2020-07-27T09:52:10Z</time>
      </trkpt>
      <trkpt lat="42.90874" lon="1.27571">
        <ele>564</ele>
        <time>2020-07-27T09:52:14Z</time>
      </trkpt>
      <trkpt lat="42.90891" lon="1.27583">
        <ele>563</ele>
        <time>2020-07-27T09:52:18Z</time>
      </trkpt>
      <trkpt lat="42.90897" lon="1.27592">
        <ele>562</ele>
        <time>2020-07-27T09:52:19Z</time>
      </trkpt>
      <trkpt lat="42.90906" lon="1.27614">
        <ele>561</ele>
        <time>2020-07-27T09:52:23Z</time>
      </trkpt>
      <trkpt lat="42.90909" lon="1.27646">
        <ele>560</ele>
        <time>2020-07-27T09:52:27Z</time>
      </trkpt>
      <trkpt lat="42.90907" lon="1.27663">
        <ele>560</ele>
        <time>2020-07-27T09:52:29Z</time>
      </trkpt>
      <trkpt lat="42.90895" lon="1.27706">
        <ele>564</ele>
        <time>2020-07-27T09:52:35Z</time>
      </trkpt>
      <trkpt lat="42.90885" lon="1.27739">
        <ele>567</ele>
        <time>2020-07-27T09:52:40Z</time>
      </trkpt>
      <trkpt lat="42.9087" lon="1.2778">
        <ele>570</ele>
        <time>2020-07-27T09:52:46Z</time>
      </trkpt>
      <trkpt lat="42.90839" lon="1.27841">
        <ele>565</ele>
        <time>2020-07-27T09:52:55Z</time>
      </trkpt>
      <trkpt lat="42.90775" lon="1.27978">
        <ele>579</ele>
        <time>2020-07-27T09:53:17Z</time>
      </trkpt>
      <trkpt lat="42.90771" lon="1.28001">
        <ele>578</ele>
        <time>2020-07-27T09:53:20Z</time>
      </trkpt>
      <trkpt lat="42.90769" lon="1.28019">
        <ele>584</ele>
        <time>2020-07-27T09:53:22Z</time>
      </trkpt>
      <trkpt lat="42.9077" lon="1.28032">
        <ele>588</ele>
        <time>2020-07-27T09:53:24Z</time>
      </trkpt>
      <trkpt lat="42.90779" lon="1.28053">
        <ele>590</ele>
        <time>2020-07-27T09:53:27Z</time>
      </trkpt>
      <trkpt lat="42.90788" lon="1.28063">
        <ele>588</ele>
        <time>2020-07-27T09:53:29Z</time>
      </trkpt>
      <trkpt lat="42.90802" lon="1.28074">
        <ele>583</ele>
        <time>2020-07-27T09:53:32Z</time>
      </trkpt>
      <trkpt lat="42.9082" lon="1.28082">
        <ele>573</ele>
        <time>2020-07-27T09:53:35Z</time>
      </trkpt>
      <trkpt lat="42.90874" lon="1.28092">
        <ele>567</ele>
        <time>2020-07-27T09:53:45Z</time>
      </trkpt>
      <trkpt lat="42.90971" lon="1.28103">
        <ele>567</ele>
        <time>2020-07-27T09:54:02Z</time>
      </trkpt>
      <trkpt lat="42.90997" lon="1.28108">
        <ele>567</ele>
        <time>2020-07-27T09:54:07Z</time>
      </trkpt>
      <trkpt lat="42.91027" lon="1.2813">
        <ele>571</ele>
        <time>2020-07-27T09:54:13Z</time>
      </trkpt>
      <trkpt lat="42.91044" lon="1.28144">
        <ele>572</ele>
        <time>2020-07-27T09:54:16Z</time>
      </trkpt>
      <trkpt lat="42.91048" lon="1.28153">
        <ele>571</ele>
        <time>2020-07-27T09:54:18Z</time>
      </trkpt>
      <trkpt lat="42.91053" lon="1.2818">
        <ele>572</ele>
        <time>2020-07-27T09:54:21Z</time>
      </trkpt>
      <trkpt lat="42.91057" lon="1.28218">
        <ele>574</ele>
        <time>2020-07-27T09:54:26Z</time>
      </trkpt>
      <trkpt lat="42.9104" lon="1.28313">
        <ele>586</ele>
        <time>2020-07-27T09:54:39Z</time>
      </trkpt>
      <trkpt lat="42.91025" lon="1.28462">
        <ele>581</ele>
        <time>2020-07-27T09:54:59Z</time>
      </trkpt>
      <trkpt lat="42.91013" lon="1.28541">
        <ele>574</ele>
        <time>2020-07-27T09:55:09Z</time>
      </trkpt>
      <trkpt lat="42.90993" lon="1.2862">
        <ele>570</ele>
        <time>2020-07-27T09:55:20Z</time>
      </trkpt>
      <trkpt lat="42.90914" lon="1.28869">
        <ele>577</ele>
        <time>2020-07-27T09:55:56Z</time>
      </trkpt>
      <trkpt lat="42.90899" lon="1.28914">
        <ele>581</ele>
        <time>2020-07-27T09:56:02Z</time>
      </trkpt>
      <trkpt lat="42.90885" lon="1.28949">
        <ele>587</ele>
        <time>2020-07-27T09:56:07Z</time>
      </trkpt>
      <trkpt lat="42.9087" lon="1.29024">
        <ele>587</ele>
        <time>2020-07-27T09:56:17Z</time>
      </trkpt>
      <trkpt lat="42.90852" lon="1.29096">
        <ele>588</ele>
        <time>2020-07-27T09:56:27Z</time>
      </trkpt>
      <trkpt lat="42.90834" lon="1.29133">
        <ele>584</ele>
        <time>2020-07-27T09:56:33Z</time>
      </trkpt>
      <trkpt lat="42.90798" lon="1.29186">
        <ele>591</ele>
        <time>2020-07-27T09:56:42Z</time>
      </trkpt>
      <trkpt lat="42.90782" lon="1.29205">
        <ele>593</ele>
        <time>2020-07-27T09:56:46Z</time>
      </trkpt>
      <trkpt lat="42.90739" lon="1.29225">
        <ele>590</ele>
        <time>2020-07-27T09:56:54Z</time>
      </trkpt>
      <trkpt lat="42.90689" lon="1.29238">
        <ele>586</ele>
        <time>2020-07-27T09:57:03Z</time>
      </trkpt>
      <trkpt lat="42.90668" lon="1.29237">
        <ele>585</ele>
        <time>2020-07-27T09:57:07Z</time>
      </trkpt>
      <trkpt lat="42.90601" lon="1.29216">
        <ele>587</ele>
        <time>2020-07-27T09:57:19Z</time>
      </trkpt>
      <trkpt lat="42.90566" lon="1.2921">
        <ele>588</ele>
        <time>2020-07-27T09:57:26Z</time>
      </trkpt>
      <trkpt lat="42.90493" lon="1.29212">
        <ele>590</ele>
        <time>2020-07-27T09:57:39Z</time>
      </trkpt>
      <trkpt lat="42.90401" lon="1.29168">
        <ele>606</ele>
        <time>2020-07-27T09:57:56Z</time>
      </trkpt>
      <trkpt lat="42.90361" lon="1.29163">
        <ele>615</ele>
        <time>2020-07-27T09:58:03Z</time>
      </trkpt>
      <trkpt lat="42.90344" lon="1.29169">
        <ele>616</ele>
        <time>2020-07-27T09:58:06Z</time>
      </trkpt>
      <trkpt lat="42.90332" lon="1.29179">
        <ele>616</ele>
        <time>2020-07-27T09:58:09Z</time>
      </trkpt>
      <trkpt lat="42.90324" lon="1.29194">
        <ele>616</ele>
        <time>2020-07-27T09:58:11Z</time>
      </trkpt>
      <trkpt lat="42.90318" lon="1.2921">
        <ele>616</ele>
        <time>2020-07-27T09:58:13Z</time>
      </trkpt>
      <trkpt lat="42.90316" lon="1.29226">
        <ele>613</ele>
        <time>2020-07-27T09:58:16Z</time>
      </trkpt>
      <trkpt lat="42.90319" lon="1.29248">
        <ele>605</ele>
        <time>2020-07-27T09:58:19Z</time>
      </trkpt>
      <trkpt lat="42.90335" lon="1.29317">
        <ele>597</ele>
        <time>2020-07-27T09:58:28Z</time>
      </trkpt>
      <trkpt lat="42.90359" lon="1.29396">
        <ele>596</ele>
        <time>2020-07-27T09:58:39Z</time>
      </trkpt>
      <trkpt lat="42.90359" lon="1.29427">
        <ele>595</ele>
        <time>2020-07-27T09:58:43Z</time>
      </trkpt>
      <trkpt lat="42.90351" lon="1.2946">
        <ele>594</ele>
        <time>2020-07-27T09:58:48Z</time>
      </trkpt>
      <trkpt lat="42.90333" lon="1.29513">
        <ele>588</ele>
        <time>2020-07-27T09:58:55Z</time>
      </trkpt>
      <trkpt lat="42.90311" lon="1.29587">
        <ele>594</ele>
        <time>2020-07-27T09:59:06Z</time>
      </trkpt>
      <trkpt lat="42.90304" lon="1.29606">
        <ele>595</ele>
        <time>2020-07-27T09:59:08Z</time>
      </trkpt>
      <trkpt lat="42.90262" lon="1.29643">
        <ele>594</ele>
        <time>2020-07-27T09:59:17Z</time>
      </trkpt>
      <trkpt lat="42.90228" lon="1.29669">
        <ele>590</ele>
        <time>2020-07-27T09:59:24Z</time>
      </trkpt>
      <trkpt lat="42.90217" lon="1.29685">
        <ele>591</ele>
        <time>2020-07-27T09:59:27Z</time>
      </trkpt>
      <trkpt lat="42.90198" lon="1.29732">
        <ele>593</ele>
        <time>2020-07-27T09:59:34Z</time>
      </trkpt>
      <trkpt lat="42.90183" lon="1.29777">
        <ele>594</ele>
        <time>2020-07-27T09:59:41Z</time>
      </trkpt>
      <trkpt lat="42.90158" lon="1.2989">
        <ele>592</ele>
        <time>2020-07-27T09:59:56Z</time>
      </trkpt>
      <trkpt lat="42.90135" lon="1.30027">
        <ele>596</ele>
        <time>2020-07-27T10:00:14Z</time>
      </trkpt>
      <trkpt lat="42.90128" lon="1.30084">
        <ele>594</ele>
        <time>2020-07-27T10:00:22Z</time>
      </trkpt>
      <trkpt lat="42.90113" lon="1.30125">
        <ele>593</ele>
        <time>2020-07-27T10:00:28Z</time>
      </trkpt>
      <trkpt lat="42.90109" lon="1.30139">
        <ele>591</ele>
        <time>2020-07-27T10:00:30Z</time>
      </trkpt>
      <trkpt lat="42.90103" lon="1.30185">
        <ele>589</ele>
        <time>2020-07-27T10:00:36Z</time>
      </trkpt>
      <trkpt lat="42.90097" lon="1.30203">
        <ele>589</ele>
        <time>2020-07-27T10:00:38Z</time>
      </trkpt>
      <trkpt lat="42.90087" lon="1.30221">
        <ele>587</ele>
        <time>2020-07-27T10:00:41Z</time>
      </trkpt>
      <trkpt lat="42.90055" lon="1.30262">
        <ele>590</ele>
        <time>2020-07-27T10:00:49Z</time>
      </trkpt>
      <trkpt lat="42.90043" lon="1.30288">
        <ele>591</ele>
        <time>2020-07-27T10:00:53Z</time>
      </trkpt>
      <trkpt lat="42.90034" lon="1.30311">
        <ele>590</ele>
        <time>2020-07-27T10:00:57Z</time>
      </trkpt>
      <trkpt lat="42.90012" lon="1.30397">
        <ele>589</ele>
        <time>2020-07-27T10:01:08Z</time>
      </trkpt>
      <trkpt lat="42.90006" lon="1.30451">
        <ele>588</ele>
        <time>2020-07-27T10:01:16Z</time>
      </trkpt>
      <trkpt lat="42.90007" lon="1.30476">
        <ele>589</ele>
        <time>2020-07-27T10:01:19Z</time>
      </trkpt>
      <trkpt lat="42.90011" lon="1.30497">
        <ele>591</ele>
        <time>2020-07-27T10:01:22Z</time>
      </trkpt>
      <trkpt lat="42.90024" lon="1.30546">
        <ele>599</ele>
        <time>2020-07-27T10:01:28Z</time>
      </trkpt>
      <trkpt lat="42.90023" lon="1.30559">
        <ele>599</ele>
        <time>2020-07-27T10:01:30Z</time>
      </trkpt>
      <trkpt lat="42.90019" lon="1.30582">
        <ele>597</ele>
        <time>2020-07-27T10:01:33Z</time>
      </trkpt>
      <trkpt lat="42.89988" lon="1.30687">
        <ele>592</ele>
        <time>2020-07-27T10:01:48Z</time>
      </trkpt>
      <trkpt lat="42.89985" lon="1.30706">
        <ele>592</ele>
        <time>2020-07-27T10:01:51Z</time>
      </trkpt>
      <trkpt lat="42.89984" lon="1.30726">
        <ele>592</ele>
        <time>2020-07-27T10:01:53Z</time>
      </trkpt>
      <trkpt lat="42.8999" lon="1.30765">
        <ele>591</ele>
        <time>2020-07-27T10:01:58Z</time>
      </trkpt>
      <trkpt lat="42.89991" lon="1.30781">
        <ele>591</ele>
        <time>2020-07-27T10:02:00Z</time>
      </trkpt>
      <trkpt lat="42.89989" lon="1.30796">
        <ele>591</ele>
        <time>2020-07-27T10:02:02Z</time>
      </trkpt>
      <trkpt lat="42.89983" lon="1.30812">
        <ele>590</ele>
        <time>2020-07-27T10:02:05Z</time>
      </trkpt>
      <trkpt lat="42.89973" lon="1.30829">
        <ele>589</ele>
        <time>2020-07-27T10:02:08Z</time>
      </trkpt>
      <trkpt lat="42.89961" lon="1.30843">
        <ele>588</ele>
        <time>2020-07-27T10:02:10Z</time>
      </trkpt>
      <trkpt lat="42.8993" lon="1.30873">
        <ele>585</ele>
        <time>2020-07-27T10:02:17Z</time>
      </trkpt>
      <trkpt lat="42.89922" lon="1.30884">
        <ele>584</ele>
        <time>2020-07-27T10:02:19Z</time>
      </trkpt>
      <trkpt lat="42.89915" lon="1.30898">
        <ele>583</ele>
        <time>2020-07-27T10:02:21Z</time>
      </trkpt>
      <trkpt lat="42.89908" lon="1.30919">
        <ele>584</ele>
        <time>2020-07-27T10:02:24Z</time>
      </trkpt>
      <trkpt lat="42.89889" lon="1.31">
        <ele>585</ele>
        <time>2020-07-27T10:02:35Z</time>
      </trkpt>
      <trkpt lat="42.89874" lon="1.31086">
        <ele>585</ele>
        <time>2020-07-27T10:02:47Z</time>
      </trkpt>
      <trkpt lat="42.89868" lon="1.31106">
        <ele>586</ele>
        <time>2020-07-27T10:02:50Z</time>
      </trkpt>
      <trkpt lat="42.89868" lon="1.31108">
        <ele>586</ele>
        <time>2020-07-27T10:02:50Z</time>
      </trkpt>
      <trkpt lat="42.89857" lon="1.31157">
        <ele>586</ele>
        <time>2020-07-27T10:02:57Z</time>
      </trkpt>
      <trkpt lat="42.8985" lon="1.31191">
        <ele>586</ele>
        <time>2020-07-27T10:03:01Z</time>
      </trkpt>
      <trkpt lat="42.89842" lon="1.31226">
        <ele>586</ele>
        <time>2020-07-27T10:03:06Z</time>
      </trkpt>
      <trkpt lat="42.89849" lon="1.31235">
        <ele>586</ele>
        <time>2020-07-27T10:03:08Z</time>
      </trkpt>
      <trkpt lat="42.8985" lon="1.31258">
        <ele>586</ele>
        <time>2020-07-27T10:03:11Z</time>
      </trkpt>
      <trkpt lat="42.89853" lon="1.31301">
        <ele>587</ele>
        <time>2020-07-27T10:03:16Z</time>
      </trkpt>
      <trkpt lat="42.89861" lon="1.31333">
        <ele>588</ele>
        <time>2020-07-27T10:03:21Z</time>
      </trkpt>
      <trkpt lat="42.89867" lon="1.31369">
        <ele>589</ele>
        <time>2020-07-27T10:03:26Z</time>
      </trkpt>
      <trkpt lat="42.89871" lon="1.31412">
        <ele>590</ele>
        <time>2020-07-27T10:03:31Z</time>
      </trkpt>
      <trkpt lat="42.89882" lon="1.3145">
        <ele>591</ele>
        <time>2020-07-27T10:03:37Z</time>
      </trkpt>
      <trkpt lat="42.89929" lon="1.3144">
        <ele>597</ele>
        <time>2020-07-27T10:03:45Z</time>
      </trkpt>
      <trkpt lat="42.89933" lon="1.31442">
        <ele>599</ele>
        <time>2020-07-27T10:03:46Z</time>
      </trkpt>
      <trkpt lat="42.89935" lon="1.31447">
        <ele>599</ele>
        <time>2020-07-27T10:03:47Z</time>
      </trkpt>
      <trkpt lat="42.89937" lon="1.31471">
        <ele>600</ele>
        <time>2020-07-27T10:03:50Z</time>
      </trkpt>
      <trkpt lat="42.89939" lon="1.31547">
        <ele>604</ele>
        <time>2020-07-27T10:04:00Z</time>
      </trkpt>
      <trkpt lat="42.89943" lon="1.31601">
        <ele>608</ele>
        <time>2020-07-27T10:04:07Z</time>
      </trkpt>
      <trkpt lat="42.89945" lon="1.31614">
        <ele>610</ele>
        <time>2020-07-27T10:04:09Z</time>
      </trkpt>
      <trkpt lat="42.89948" lon="1.3162">
        <ele>611</ele>
        <time>2020-07-27T10:04:09Z</time>
      </trkpt>
      <trkpt lat="42.89953" lon="1.31623">
        <ele>613</ele>
        <time>2020-07-27T10:04:10Z</time>
      </trkpt>
      <trkpt lat="42.89959" lon="1.31622">
        <ele>616</ele>
        <time>2020-07-27T10:04:12Z</time>
      </trkpt>
      <trkpt lat="42.89965" lon="1.31615">
        <ele>618</ele>
        <time>2020-07-27T10:04:13Z</time>
      </trkpt>
      <trkpt lat="42.89975" lon="1.31596">
        <ele>621</ele>
        <time>2020-07-27T10:04:16Z</time>
      </trkpt>
      <trkpt lat="42.89977" lon="1.31584">
        <ele>621</ele>
        <time>2020-07-27T10:04:18Z</time>
      </trkpt>
      <trkpt lat="42.8998" lon="1.31546">
        <ele>620</ele>
        <time>2020-07-27T10:04:23Z</time>
      </trkpt>
      <trkpt lat="42.89983" lon="1.31529">
        <ele>620</ele>
        <time>2020-07-27T10:04:25Z</time>
      </trkpt>
      <trkpt lat="42.90001" lon="1.31468">
        <ele>624</ele>
        <time>2020-07-27T10:04:33Z</time>
      </trkpt>
      <trkpt lat="42.90006" lon="1.31411">
        <ele>624</ele>
        <time>2020-07-27T10:04:41Z</time>
      </trkpt>
      <trkpt lat="42.90005" lon="1.31386">
        <ele>623</ele>
        <time>2020-07-27T10:04:44Z</time>
      </trkpt>
      <trkpt lat="42.90009" lon="1.31363">
        <ele>624</ele>
        <time>2020-07-27T10:04:47Z</time>
      </trkpt>
      <trkpt lat="42.90025" lon="1.31319">
        <ele>632</ele>
        <time>2020-07-27T10:04:54Z</time>
      </trkpt>
      <trkpt lat="42.90025" lon="1.31312">
        <ele>632</ele>
        <time>2020-07-27T10:04:55Z</time>
      </trkpt>
      <trkpt lat="42.90021" lon="1.31308">
        <ele>630</ele>
        <time>2020-07-27T10:04:55Z</time>
      </trkpt>
      <trkpt lat="42.90011" lon="1.31303">
        <ele>625</ele>
        <time>2020-07-27T10:04:57Z</time>
      </trkpt>
      <trkpt lat="42.90008" lon="1.31296">
        <ele>624</ele>
        <time>2020-07-27T10:04:58Z</time>
      </trkpt>
      <trkpt lat="42.90008" lon="1.31284">
        <ele>625</ele>
        <time>2020-07-27T10:05:00Z</time>
      </trkpt>
      <trkpt lat="42.90014" lon="1.31229">
        <ele>630</ele>
        <time>2020-07-27T10:05:07Z</time>
      </trkpt>
      <trkpt lat="42.90015" lon="1.31191">
        <ele>631</ele>
        <time>2020-07-27T10:05:12Z</time>
      </trkpt>
      <trkpt lat="42.90043" lon="1.31055">
        <ele>642</ele>
        <time>2020-07-27T10:05:31Z</time>
      </trkpt>
      <trkpt lat="42.90057" lon="1.3096">
        <ele>640</ele>
        <time>2020-07-27T10:05:43Z</time>
      </trkpt>
      <trkpt lat="42.9007" lon="1.30933">
        <ele>642</ele>
        <time>2020-07-27T10:05:47Z</time>
      </trkpt>
      <trkpt lat="42.90089" lon="1.30918">
        <ele>648</ele>
        <time>2020-07-27T10:05:51Z</time>
      </trkpt>
      <trkpt lat="42.90127" lon="1.30914">
        <ele>658</ele>
        <time>2020-07-27T10:05:58Z</time>
      </trkpt>
      <trkpt lat="42.90173" lon="1.30898">
        <ele>664</ele>
        <time>2020-07-27T10:06:07Z</time>
      </trkpt>
      <trkpt lat="42.90207" lon="1.30879">
        <ele>664</ele>
        <time>2020-07-27T10:06:13Z</time>
      </trkpt>
      <trkpt lat="42.90238" lon="1.30857">
        <ele>661</ele>
        <time>2020-07-27T10:06:19Z</time>
      </trkpt>
      <trkpt lat="42.90282" lon="1.30854">
        <ele>671</ele>
        <time>2020-07-27T10:06:27Z</time>
      </trkpt>
      <trkpt lat="42.9031" lon="1.30833">
        <ele>670</ele>
        <time>2020-07-27T10:06:33Z</time>
      </trkpt>
      <trkpt lat="42.90329" lon="1.30811">
        <ele>667</ele>
        <time>2020-07-27T10:06:37Z</time>
      </trkpt>
      <trkpt lat="42.90347" lon="1.30797">
        <ele>662</ele>
        <time>2020-07-27T10:06:41Z</time>
      </trkpt>
      <trkpt lat="42.90359" lon="1.30798">
        <ele>662</ele>
        <time>2020-07-27T10:06:43Z</time>
      </trkpt>
      <trkpt lat="42.90374" lon="1.30806">
        <ele>665</ele>
        <time>2020-07-27T10:06:46Z</time>
      </trkpt>
      <trkpt lat="42.90385" lon="1.30822">
        <ele>671</ele>
        <time>2020-07-27T10:06:49Z</time>
      </trkpt>
      <trkpt lat="42.90418" lon="1.30861">
        <ele>687</ele>
        <time>2020-07-27T10:06:57Z</time>
      </trkpt>
      <trkpt lat="42.90459" lon="1.30893">
        <ele>697</ele>
        <time>2020-07-27T10:07:05Z</time>
      </trkpt>
      <trkpt lat="42.90487" lon="1.30901">
        <ele>698</ele>
        <time>2020-07-27T10:07:10Z</time>
      </trkpt>
      <trkpt lat="42.90543" lon="1.309">
        <ele>700</ele>
        <time>2020-07-27T10:07:20Z</time>
      </trkpt>
      <trkpt lat="42.90568" lon="1.30891">
        <ele>698</ele>
        <time>2020-07-27T10:07:25Z</time>
      </trkpt>
      <trkpt lat="42.90592" lon="1.30872">
        <ele>691</ele>
        <time>2020-07-27T10:07:30Z</time>
      </trkpt>
      <trkpt lat="42.90615" lon="1.30865">
        <ele>690</ele>
        <time>2020-07-27T10:07:34Z</time>
      </trkpt>
      <trkpt lat="42.9064" lon="1.30866">
        <ele>694</ele>
        <time>2020-07-27T10:07:38Z</time>
      </trkpt>
      <trkpt lat="42.90687" lon="1.30882">
        <ele>702</ele>
        <time>2020-07-27T10:07:47Z</time>
      </trkpt>
      <trkpt lat="42.90737" lon="1.30907">
        <ele>706</ele>
        <time>2020-07-27T10:07:56Z</time>
      </trkpt>
      <trkpt lat="42.90768" lon="1.30936">
        <ele>714</ele>
        <time>2020-07-27T10:08:03Z</time>
      </trkpt>
      <trkpt lat="42.90794" lon="1.30953">
        <ele>716</ele>
        <time>2020-07-27T10:08:08Z</time>
      </trkpt>
      <trkpt lat="42.9082" lon="1.30982">
        <ele>723</ele>
        <time>2020-07-27T10:08:14Z</time>
      </trkpt>
      <trkpt lat="42.90855" lon="1.30999">
        <ele>723</ele>
        <time>2020-07-27T10:08:21Z</time>
      </trkpt>
      <trkpt lat="42.909" lon="1.31027">
        <ele>724</ele>
        <time>2020-07-27T10:08:29Z</time>
      </trkpt>
      <trkpt lat="42.90984" lon="1.31133">
        <ele>740</ele>
        <time>2020-07-27T10:08:50Z</time>
      </trkpt>
      <trkpt lat="42.91034" lon="1.31166">
        <ele>744</ele>
        <time>2020-07-27T10:09:00Z</time>
      </trkpt>
      <trkpt lat="42.91096" lon="1.31196">
        <ele>750</ele>
        <time>2020-07-27T10:09:11Z</time>
      </trkpt>
      <trkpt lat="42.91176" lon="1.31207">
        <ele>747</ele>
        <time>2020-07-27T10:09:26Z</time>
      </trkpt>
      <trkpt lat="42.91217" lon="1.31209">
        <ele>744</ele>
        <time>2020-07-27T10:09:33Z</time>
      </trkpt>
      <trkpt lat="42.9123" lon="1.31215">
        <ele>746</ele>
        <time>2020-07-27T10:09:35Z</time>
      </trkpt>
      <trkpt lat="42.91237" lon="1.31224">
        <ele>749</ele>
        <time>2020-07-27T10:09:37Z</time>
      </trkpt>
      <trkpt lat="42.9116" lon="1.31235">
        <ele>763</ele>
        <time>2020-07-27T10:09:51Z</time>
      </trkpt>
      <trkpt lat="42.91103" lon="1.31231">
        <ele>766</ele>
        <time>2020-07-27T10:10:01Z</time>
      </trkpt>
      <trkpt lat="42.9116" lon="1.31235">
        <ele>763</ele>
        <time>2020-07-27T10:10:11Z</time>
      </trkpt>
      <trkpt lat="42.91237" lon="1.31224">
        <ele>749</ele>
        <time>2020-07-27T10:10:25Z</time>
      </trkpt>
      <trkpt lat="42.91241" lon="1.31229">
        <ele>751</ele>
        <time>2020-07-27T10:10:26Z</time>
      </trkpt>
      <trkpt lat="42.91269" lon="1.31258">
        <ele>757</ele>
        <time>2020-07-27T10:10:32Z</time>
      </trkpt>
      <trkpt lat="42.91287" lon="1.31271">
        <ele>758</ele>
        <time>2020-07-27T10:10:36Z</time>
      </trkpt>
      <trkpt lat="42.91318" lon="1.31299">
        <ele>760</ele>
        <time>2020-07-27T10:10:42Z</time>
      </trkpt>
      <trkpt lat="42.91335" lon="1.31321">
        <ele>763</ele>
        <time>2020-07-27T10:10:47Z</time>
      </trkpt>
      <trkpt lat="42.91349" lon="1.31378">
        <ele>779</ele>
        <time>2020-07-27T10:10:54Z</time>
      </trkpt>
      <trkpt lat="42.91356" lon="1.3139">
        <ele>782</ele>
        <time>2020-07-27T10:10:56Z</time>
      </trkpt>
      <trkpt lat="42.91367" lon="1.31393">
        <ele>779</ele>
        <time>2020-07-27T10:10:58Z</time>
      </trkpt>
      <trkpt lat="42.91384" lon="1.31389">
        <ele>773</ele>
        <time>2020-07-27T10:11:02Z</time>
      </trkpt>
      <trkpt lat="42.91393" lon="1.31389">
        <ele>770</ele>
        <time>2020-07-27T10:11:03Z</time>
      </trkpt>
      <trkpt lat="42.91435" lon="1.31422">
        <ele>772</ele>
        <time>2020-07-27T10:11:12Z</time>
      </trkpt>
      <trkpt lat="42.91469" lon="1.31454">
        <ele>775</ele>
        <time>2020-07-27T10:11:19Z</time>
      </trkpt>
      <trkpt lat="42.91477" lon="1.31465">
        <ele>778</ele>
        <time>2020-07-27T10:11:21Z</time>
      </trkpt>
      <trkpt lat="42.91485" lon="1.31484">
        <ele>784</ele>
        <time>2020-07-27T10:11:24Z</time>
      </trkpt>
      <trkpt lat="42.9149" lon="1.3149">
        <ele>785</ele>
        <time>2020-07-27T10:11:25Z</time>
      </trkpt>
      <trkpt lat="42.91498" lon="1.31493">
        <ele>784</ele>
        <time>2020-07-27T10:11:27Z</time>
      </trkpt>
      <trkpt lat="42.91518" lon="1.31494">
        <ele>778</ele>
        <time>2020-07-27T10:11:30Z</time>
      </trkpt>
      <trkpt lat="42.91526" lon="1.31498">
        <ele>778</ele>
        <time>2020-07-27T10:11:32Z</time>
      </trkpt>
      <trkpt lat="42.91544" lon="1.31513">
        <ele>778</ele>
        <time>2020-07-27T10:11:35Z</time>
      </trkpt>
      <trkpt lat="42.91579" lon="1.31548">
        <ele>783</ele>
        <time>2020-07-27T10:11:43Z</time>
      </trkpt>
      <trkpt lat="42.91588" lon="1.31549">
        <ele>781</ele>
        <time>2020-07-27T10:11:45Z</time>
      </trkpt>
      <trkpt lat="42.91601" lon="1.31545">
        <ele>776</ele>
        <time>2020-07-27T10:11:47Z</time>
      </trkpt>
      <trkpt lat="42.91609" lon="1.31547">
        <ele>775</ele>
        <time>2020-07-27T10:11:49Z</time>
      </trkpt>
      <trkpt lat="42.91615" lon="1.31551">
        <ele>775</ele>
        <time>2020-07-27T10:11:50Z</time>
      </trkpt>
      <trkpt lat="42.91623" lon="1.31562">
        <ele>778</ele>
        <time>2020-07-27T10:11:52Z</time>
      </trkpt>
      <trkpt lat="42.91639" lon="1.31596">
        <ele>785</ele>
        <time>2020-07-27T10:11:57Z</time>
      </trkpt>
      <trkpt lat="42.91647" lon="1.31655">
        <ele>795</ele>
        <time>2020-07-27T10:12:05Z</time>
      </trkpt>
      <trkpt lat="42.91648" lon="1.31706">
        <ele>803</ele>
        <time>2020-07-27T10:12:12Z</time>
      </trkpt>
      <trkpt lat="42.91646" lon="1.31719">
        <ele>806</ele>
        <time>2020-07-27T10:12:13Z</time>
      </trkpt>
      <trkpt lat="42.91633" lon="1.31754">
        <ele>816</ele>
        <time>2020-07-27T10:12:18Z</time>
      </trkpt>
      <trkpt lat="42.9163" lon="1.31767">
        <ele>822</ele>
        <time>2020-07-27T10:12:20Z</time>
      </trkpt>
      <trkpt lat="42.91632" lon="1.31773">
        <ele>823</ele>
        <time>2020-07-27T10:12:21Z</time>
      </trkpt>
      <trkpt lat="42.91637" lon="1.31774">
        <ele>821</ele>
        <time>2020-07-27T10:12:22Z</time>
      </trkpt>
      <trkpt lat="42.91645" lon="1.31776">
        <ele>819</ele>
        <time>2020-07-27T10:12:23Z</time>
      </trkpt>
      <trkpt lat="42.91747" lon="1.31782">
        <ele>806</ele>
        <time>2020-07-27T10:12:42Z</time>
      </trkpt>
      <trkpt lat="42.91786" lon="1.31798">
        <ele>805</ele>
        <time>2020-07-27T10:12:49Z</time>
      </trkpt>
      <trkpt lat="42.91811" lon="1.31828">
        <ele>811</ele>
        <time>2020-07-27T10:12:55Z</time>
      </trkpt>
      <trkpt lat="42.91841" lon="1.31857">
        <ele>811</ele>
        <time>2020-07-27T10:13:01Z</time>
      </trkpt>
      <trkpt lat="42.91855" lon="1.31888">
        <ele>812</ele>
        <time>2020-07-27T10:13:06Z</time>
      </trkpt>
      <trkpt lat="42.91859" lon="1.31937">
        <ele>823</ele>
        <time>2020-07-27T10:13:12Z</time>
      </trkpt>
      <trkpt lat="42.91873" lon="1.31988">
        <ele>830</ele>
        <time>2020-07-27T10:13:20Z</time>
      </trkpt>
      <trkpt lat="42.91903" lon="1.32018">
        <ele>823</ele>
        <time>2020-07-27T10:13:26Z</time>
      </trkpt>
      <trkpt lat="42.91927" lon="1.3205">
        <ele>826</ele>
        <time>2020-07-27T10:13:32Z</time>
      </trkpt>
      <trkpt lat="42.91957" lon="1.32076">
        <ele>827</ele>
        <time>2020-07-27T10:13:38Z</time>
      </trkpt>
      <trkpt lat="42.9201" lon="1.32097">
        <ele>817</ele>
        <time>2020-07-27T10:13:48Z</time>
      </trkpt>
      <trkpt lat="42.92029" lon="1.32124">
        <ele>816</ele>
        <time>2020-07-27T10:13:53Z</time>
      </trkpt>
      <trkpt lat="42.92039" lon="1.32233">
        <ele>831</ele>
        <time>2020-07-27T10:14:07Z</time>
      </trkpt>
      <trkpt lat="42.92038" lon="1.32316">
        <ele>837</ele>
        <time>2020-07-27T10:14:18Z</time>
      </trkpt>
      <trkpt lat="42.92046" lon="1.32398">
        <ele>835</ele>
        <time>2020-07-27T10:14:29Z</time>
      </trkpt>
      <trkpt lat="42.92049" lon="1.32447">
        <ele>834</ele>
        <time>2020-07-27T10:14:35Z</time>
      </trkpt>
      <trkpt lat="42.92039" lon="1.3248">
        <ele>839</ele>
        <time>2020-07-27T10:14:40Z</time>
      </trkpt>
      <trkpt lat="42.92012" lon="1.32537">
        <ele>849</ele>
        <time>2020-07-27T10:14:49Z</time>
      </trkpt>
      <trkpt lat="42.92026" lon="1.32593">
        <ele>842</ele>
        <time>2020-07-27T10:14:57Z</time>
      </trkpt>
      <trkpt lat="42.92041" lon="1.32662">
        <ele>841</ele>
        <time>2020-07-27T10:15:06Z</time>
      </trkpt>
      <trkpt lat="42.92058" lon="1.32721">
        <ele>842</ele>
        <time>2020-07-27T10:15:14Z</time>
      </trkpt>
      <trkpt lat="42.92032" lon="1.32834">
        <ele>866</ele>
        <time>2020-07-27T10:15:30Z</time>
      </trkpt>
      <trkpt lat="42.92043" lon="1.32844">
        <ele>863</ele>
        <time>2020-07-27T10:15:32Z</time>
      </trkpt>
      <trkpt lat="42.92061" lon="1.32822">
        <ele>854</ele>
        <time>2020-07-27T10:15:36Z</time>
      </trkpt>
      <trkpt lat="42.92096" lon="1.32807">
        <ele>843</ele>
        <time>2020-07-27T10:15:43Z</time>
      </trkpt>
      <trkpt lat="42.92126" lon="1.32833">
        <ele>842</ele>
        <time>2020-07-27T10:15:49Z</time>
      </trkpt>
      <trkpt lat="42.92143" lon="1.32886">
        <ele>844</ele>
        <time>2020-07-27T10:15:57Z</time>
      </trkpt>
      <trkpt lat="42.92151" lon="1.3294">
        <ele>846</ele>
        <time>2020-07-27T10:16:04Z</time>
      </trkpt>
      <trkpt lat="42.92136" lon="1.32985">
        <ele>854</ele>
        <time>2020-07-27T10:16:10Z</time>
      </trkpt>
      <trkpt lat="42.92146" lon="1.33056">
        <ele>860</ele>
        <time>2020-07-27T10:16:20Z</time>
      </trkpt>
      <trkpt lat="42.92173" lon="1.33135">
        <ele>856</ele>
        <time>2020-07-27T10:16:31Z</time>
      </trkpt>
      <trkpt lat="42.92143" lon="1.33207">
        <ele>871</ele>
        <time>2020-07-27T10:16:42Z</time>
      </trkpt>
      <trkpt lat="42.92118" lon="1.33248">
        <ele>880</ele>
        <time>2020-07-27T10:16:49Z</time>
      </trkpt>
      <trkpt lat="42.9211" lon="1.33263">
        <ele>883</ele>
        <time>2020-07-27T10:16:51Z</time>
      </trkpt>
      <trkpt lat="42.92111" lon="1.33271">
        <ele>883</ele>
        <time>2020-07-27T10:16:52Z</time>
      </trkpt>
      <trkpt lat="42.92121" lon="1.33285">
        <ele>882</ele>
        <time>2020-07-27T10:16:55Z</time>
      </trkpt>
      <trkpt lat="42.9213" lon="1.33284">
        <ele>880</ele>
        <time>2020-07-27T10:16:57Z</time>
      </trkpt>
      <trkpt lat="42.9214" lon="1.33279">
        <ele>878</ele>
        <time>2020-07-27T10:16:58Z</time>
      </trkpt>
      <trkpt lat="42.92151" lon="1.3327">
        <ele>874</ele>
        <time>2020-07-27T10:17:01Z</time>
      </trkpt>
      <trkpt lat="42.9218" lon="1.33241">
        <ele>868</ele>
        <time>2020-07-27T10:17:07Z</time>
      </trkpt>
      <trkpt lat="42.9221" lon="1.33218">
        <ele>872</ele>
        <time>2020-07-27T10:17:13Z</time>
      </trkpt>
      <trkpt lat="42.92226" lon="1.33201">
        <ele>872</ele>
        <time>2020-07-27T10:17:17Z</time>
      </trkpt>
      <trkpt lat="42.92241" lon="1.33177">
        <ele>868</ele>
        <time>2020-07-27T10:17:21Z</time>
      </trkpt>
      <trkpt lat="42.92247" lon="1.33164">
        <ele>865</ele>
        <time>2020-07-27T10:17:23Z</time>
      </trkpt>
      <trkpt lat="42.92257" lon="1.3313">
        <ele>858</ele>
        <time>2020-07-27T10:17:28Z</time>
      </trkpt>
      <trkpt lat="42.92262" lon="1.33122">
        <ele>857</ele>
        <time>2020-07-27T10:17:29Z</time>
      </trkpt>
      <trkpt lat="42.92272" lon="1.33122">
        <ele>859</ele>
        <time>2020-07-27T10:17:31Z</time>
      </trkpt>
      <trkpt lat="42.92301" lon="1.33137">
        <ele>868</ele>
        <time>2020-07-27T10:17:36Z</time>
      </trkpt>
      <trkpt lat="42.92393" lon="1.33164">
        <ele>884</ele>
        <time>2020-07-27T10:17:53Z</time>
      </trkpt>
      <trkpt lat="42.92427" lon="1.33168">
        <ele>886</ele>
        <time>2020-07-27T10:17:59Z</time>
      </trkpt>
      <trkpt lat="42.92476" lon="1.33184">
        <ele>898</ele>
        <time>2020-07-27T10:18:08Z</time>
      </trkpt>
      <trkpt lat="42.92505" lon="1.33183">
        <ele>900</ele>
        <time>2020-07-27T10:18:13Z</time>
      </trkpt>
      <trkpt lat="42.9253" lon="1.33178">
        <ele>904</ele>
        <time>2020-07-27T10:18:18Z</time>
      </trkpt>
      <trkpt lat="42.92576" lon="1.33151">
        <ele>912</ele>
        <time>2020-07-27T10:18:27Z</time>
      </trkpt>
      <trkpt lat="42.92611" lon="1.33162">
        <ele>919</ele>
        <time>2020-07-27T10:18:33Z</time>
      </trkpt>
      <trkpt lat="42.92624" lon="1.33158">
        <ele>924</ele>
        <time>2020-07-27T10:18:36Z</time>
      </trkpt>
      <trkpt lat="42.92629" lon="1.33152">
        <ele>926</ele>
        <time>2020-07-27T10:18:37Z</time>
      </trkpt>
      <trkpt lat="42.92629" lon="1.33147">
        <ele>927</ele>
        <time>2020-07-27T10:18:37Z</time>
      </trkpt>
      <trkpt lat="42.92606" lon="1.33099">
        <ele>928</ele>
        <time>2020-07-27T10:18:45Z</time>
      </trkpt>
      <trkpt lat="42.92591" lon="1.33077">
        <ele>927</ele>
        <time>2020-07-27T10:18:49Z</time>
      </trkpt>
      <trkpt lat="42.92577" lon="1.33064">
        <ele>928</ele>
        <time>2020-07-27T10:18:52Z</time>
      </trkpt>
      <trkpt lat="42.92558" lon="1.33064">
        <ele>925</ele>
        <time>2020-07-27T10:18:55Z</time>
      </trkpt>
      <trkpt lat="42.92524" lon="1.33056">
        <ele>923</ele>
        <time>2020-07-27T10:19:01Z</time>
      </trkpt>
      <trkpt lat="42.92505" lon="1.33045">
        <ele>926</ele>
        <time>2020-07-27T10:19:05Z</time>
      </trkpt>
      <trkpt lat="42.92445" lon="1.32989">
        <ele>935</ele>
        <time>2020-07-27T10:19:18Z</time>
      </trkpt>
      <trkpt lat="42.92401" lon="1.3294">
        <ele>938</ele>
        <time>2020-07-27T10:19:28Z</time>
      </trkpt>
      <trkpt lat="42.92379" lon="1.32907">
        <ele>939</ele>
        <time>2020-07-27T10:19:34Z</time>
      </trkpt>
      <trkpt lat="42.92367" lon="1.3286">
        <ele>940</ele>
        <time>2020-07-27T10:19:40Z</time>
      </trkpt>
      <trkpt lat="42.92367" lon="1.32825">
        <ele>945</ele>
        <time>2020-07-27T10:19:45Z</time>
      </trkpt>
      <trkpt lat="42.92378" lon="1.3278">
        <ele>954</ele>
        <time>2020-07-27T10:19:51Z</time>
      </trkpt>
      <trkpt lat="42.92389" lon="1.32706">
        <ele>965</ele>
        <time>2020-07-27T10:20:01Z</time>
      </trkpt>
      <trkpt lat="42.92363" lon="1.32665">
        <ele>957</ele>
        <time>2020-07-27T10:20:08Z</time>
      </trkpt>
      <trkpt lat="42.92361" lon="1.32653">
        <ele>956</ele>
        <time>2020-07-27T10:20:10Z</time>
      </trkpt>
      <trkpt lat="42.92376" lon="1.32596">
        <ele>962</ele>
        <time>2020-07-27T10:20:17Z</time>
      </trkpt>
      <trkpt lat="42.92405" lon="1.32515">
        <ele>967</ele>
        <time>2020-07-27T10:20:29Z</time>
      </trkpt>
      <trkpt lat="42.9242" lon="1.32495">
        <ele>970</ele>
        <time>2020-07-27T10:20:33Z</time>
      </trkpt>
      <trkpt lat="42.92436" lon="1.32491">
        <ele>972</ele>
        <time>2020-07-27T10:20:36Z</time>
      </trkpt>
      <trkpt lat="42.92463" lon="1.32497">
        <ele>977</ele>
        <time>2020-07-27T10:20:41Z</time>
      </trkpt>
      <trkpt lat="42.92508" lon="1.32513">
        <ele>987</ele>
        <time>2020-07-27T10:20:49Z</time>
      </trkpt>
      <trkpt lat="42.92571" lon="1.32541">
        <ele>1001</ele>
        <time>2020-07-27T10:21:01Z</time>
      </trkpt>
      <trkpt lat="42.92605" lon="1.32541">
        <ele>1007</ele>
        <time>2020-07-27T10:21:07Z</time>
      </trkpt>
      <trkpt lat="42.9267" lon="1.3253">
        <ele>1014</ele>
        <time>2020-07-27T10:21:18Z</time>
      </trkpt>
      <trkpt lat="42.92722" lon="1.32526">
        <ele>1019</ele>
        <time>2020-07-27T10:21:28Z</time>
      </trkpt>
      <trkpt lat="42.92819" lon="1.32551">
        <ele>1042</ele>
        <time>2020-07-27T10:21:45Z</time>
      </trkpt>
      <trkpt lat="42.92852" lon="1.32553">
        <ele>1050</ele>
        <time>2020-07-27T10:21:51Z</time>
      </trkpt>
      <trkpt lat="42.92874" lon="1.32546">
        <ele>1054</ele>
        <time>2020-07-27T10:21:55Z</time>
      </trkpt>
      <trkpt lat="42.9288" lon="1.32547">
        <ele>1057</ele>
        <time>2020-07-27T10:21:56Z</time>
      </trkpt>
      <trkpt lat="42.92883" lon="1.32553">
        <ele>1060</ele>
        <time>2020-07-27T10:21:57Z</time>
      </trkpt>
      <trkpt lat="42.9288" lon="1.3256">
        <ele>1061</ele>
        <time>2020-07-27T10:21:58Z</time>
      </trkpt>
      <trkpt lat="42.92872" lon="1.32568">
        <ele>1062</ele>
        <time>2020-07-27T10:22:00Z</time>
      </trkpt>
      <trkpt lat="42.92853" lon="1.3257">
        <ele>1057</ele>
        <time>2020-07-27T10:22:03Z</time>
      </trkpt>
      <trkpt lat="42.92798" lon="1.32598">
        <ele>1060</ele>
        <time>2020-07-27T10:22:14Z</time>
      </trkpt>
      <trkpt lat="42.92746" lon="1.32638">
        <ele>1068</ele>
        <time>2020-07-27T10:22:24Z</time>
      </trkpt>
      <trkpt lat="42.92725" lon="1.32648">
        <ele>1068</ele>
        <time>2020-07-27T10:22:28Z</time>
      </trkpt>
      <trkpt lat="42.92688" lon="1.32664">
        <ele>1067</ele>
        <time>2020-07-27T10:22:35Z</time>
      </trkpt>
      <trkpt lat="42.92649" lon="1.32715">
        <ele>1066</ele>
        <time>2020-07-27T10:22:45Z</time>
      </trkpt>
      <trkpt lat="42.92647" lon="1.32726">
        <ele>1066</ele>
        <time>2020-07-27T10:22:46Z</time>
      </trkpt>
      <trkpt lat="42.9265" lon="1.32735">
        <ele>1068</ele>
        <time>2020-07-27T10:22:48Z</time>
      </trkpt>
      <trkpt lat="42.92655" lon="1.32737">
        <ele>1070</ele>
        <time>2020-07-27T10:22:49Z</time>
      </trkpt>
      <trkpt lat="42.92662" lon="1.32737">
        <ele>1072</ele>
        <time>2020-07-27T10:22:50Z</time>
      </trkpt>
      <trkpt lat="42.92706" lon="1.32719">
        <ele>1081</ele>
        <time>2020-07-27T10:22:58Z</time>
      </trkpt>
      <trkpt lat="42.92737" lon="1.32714">
        <ele>1087</ele>
        <time>2020-07-27T10:23:04Z</time>
      </trkpt>
      <trkpt lat="42.92821" lon="1.32708">
        <ele>1105</ele>
        <time>2020-07-27T10:23:19Z</time>
      </trkpt>
      <trkpt lat="42.92851" lon="1.327">
        <ele>1109</ele>
        <time>2020-07-27T10:23:24Z</time>
      </trkpt>
      <trkpt lat="42.92878" lon="1.32689">
        <ele>1111</ele>
        <time>2020-07-27T10:23:29Z</time>
      </trkpt>
      <trkpt lat="42.92909" lon="1.32684">
        <ele>1116</ele>
        <time>2020-07-27T10:23:35Z</time>
      </trkpt>
      <trkpt lat="42.92925" lon="1.3269">
        <ele>1123</ele>
        <time>2020-07-27T10:23:38Z</time>
      </trkpt>
      <trkpt lat="42.92939" lon="1.32693">
        <ele>1129</ele>
        <time>2020-07-27T10:23:40Z</time>
      </trkpt>
      <trkpt lat="42.92956" lon="1.32692">
        <ele>1134</ele>
        <time>2020-07-27T10:23:43Z</time>
      </trkpt>
      <trkpt lat="42.92973" lon="1.32689">
        <ele>1138</ele>
        <time>2020-07-27T10:23:46Z</time>
      </trkpt>
      <trkpt lat="42.92985" lon="1.32682">
        <ele>1140</ele>
        <time>2020-07-27T10:23:48Z</time>
      </trkpt>
      <trkpt lat="42.92994" lon="1.32646">
        <ele>1133</ele>
        <time>2020-07-27T10:23:53Z</time>
      </trkpt>
      <trkpt lat="42.93006" lon="1.32623">
        <ele>1132</ele>
        <time>2020-07-27T10:23:57Z</time>
      </trkpt>
      <trkpt lat="42.93068" lon="1.32578">
        <ele>1150</ele>
        <time>2020-07-27T10:24:10Z</time>
      </trkpt>
      <trkpt lat="42.93082" lon="1.32553">
        <ele>1153</ele>
        <time>2020-07-27T10:24:14Z</time>
      </trkpt>
      <trkpt lat="42.93084" lon="1.32524">
        <ele>1151</ele>
        <time>2020-07-27T10:24:17Z</time>
      </trkpt>
      <trkpt lat="42.93095" lon="1.32504">
        <ele>1154</ele>
        <time>2020-07-27T10:24:21Z</time>
      </trkpt>
      <trkpt lat="42.93115" lon="1.32485">
        <ele>1161</ele>
        <time>2020-07-27T10:24:25Z</time>
      </trkpt>
      <trkpt lat="42.93127" lon="1.32467">
        <ele>1165</ele>
        <time>2020-07-27T10:24:28Z</time>
      </trkpt>
      <trkpt lat="42.93135" lon="1.32435">
        <ele>1165</ele>
        <time>2020-07-27T10:24:33Z</time>
      </trkpt>
      <trkpt lat="42.93158" lon="1.32398">
        <ele>1172</ele>
        <time>2020-07-27T10:24:39Z</time>
      </trkpt>
      <trkpt lat="42.93195" lon="1.32345">
        <ele>1186</ele>
        <time>2020-07-27T10:24:48Z</time>
      </trkpt>
      <trkpt lat="42.93202" lon="1.3232">
        <ele>1189</ele>
        <time>2020-07-27T10:24:52Z</time>
      </trkpt>
      <trkpt lat="42.932" lon="1.32239">
        <ele>1193</ele>
        <time>2020-07-27T10:25:03Z</time>
      </trkpt>
      <trkpt lat="42.93201" lon="1.32191">
        <ele>1194</ele>
        <time>2020-07-27T10:25:09Z</time>
      </trkpt>
      <trkpt lat="42.93204" lon="1.32155">
        <ele>1196</ele>
        <time>2020-07-27T10:25:14Z</time>
      </trkpt>
      <trkpt lat="42.93218" lon="1.32082">
        <ele>1203</ele>
        <time>2020-07-27T10:25:23Z</time>
      </trkpt>
      <trkpt lat="42.93222" lon="1.32066">
        <ele>1205</ele>
        <time>2020-07-27T10:25:26Z</time>
      </trkpt>
      <trkpt lat="42.93226" lon="1.32057">
        <ele>1208</ele>
        <time>2020-07-27T10:25:27Z</time>
      </trkpt>
      <trkpt lat="42.93235" lon="1.32053">
        <ele>1213</ele>
        <time>2020-07-27T10:25:29Z</time>
      </trkpt>
      <trkpt lat="42.93241" lon="1.32059">
        <ele>1216</ele>
        <time>2020-07-27T10:25:30Z</time>
      </trkpt>
      <trkpt lat="42.93244" lon="1.32071">
        <ele>1218</ele>
        <time>2020-07-27T10:25:32Z</time>
      </trkpt>
      <trkpt lat="42.93234" lon="1.3214">
        <ele>1212</ele>
        <time>2020-07-27T10:25:41Z</time>
      </trkpt>
      <trkpt lat="42.93237" lon="1.32209">
        <ele>1213</ele>
        <time>2020-07-27T10:25:50Z</time>
      </trkpt>
      <trkpt lat="42.93262" lon="1.32284">
        <ele>1220</ele>
        <time>2020-07-27T10:26:00Z</time>
      </trkpt>
      <trkpt lat="42.93274" lon="1.32335">
        <ele>1220</ele>
        <time>2020-07-27T10:26:07Z</time>
      </trkpt>
      <trkpt lat="42.93278" lon="1.3237">
        <ele>1224</ele>
        <time>2020-07-27T10:26:12Z</time>
      </trkpt>
      <trkpt lat="42.93274" lon="1.32468">
        <ele>1229</ele>
        <time>2020-07-27T10:26:25Z</time>
      </trkpt>
      <trkpt lat="42.93275" lon="1.32503">
        <ele>1231</ele>
        <time>2020-07-27T10:26:29Z</time>
      </trkpt>
      <trkpt lat="42.93271" lon="1.3252">
        <ele>1232</ele>
        <time>2020-07-27T10:26:32Z</time>
      </trkpt>
      <trkpt lat="42.9327" lon="1.32542">
        <ele>1233</ele>
        <time>2020-07-27T10:26:35Z</time>
      </trkpt>
      <trkpt lat="42.93281" lon="1.32614">
        <ele>1240</ele>
        <time>2020-07-27T10:26:44Z</time>
      </trkpt>
      <trkpt lat="42.93278" lon="1.32644">
        <ele>1245</ele>
        <time>2020-07-27T10:26:48Z</time>
      </trkpt>
      <trkpt lat="42.93252" lon="1.32708">
        <ele>1260</ele>
        <time>2020-07-27T10:26:58Z</time>
      </trkpt>
      <trkpt lat="42.93182" lon="1.32839">
        <ele>1266</ele>
        <time>2020-07-27T10:27:19Z</time>
      </trkpt>
      <trkpt lat="42.93161" lon="1.32895">
        <ele>1271</ele>
        <time>2020-07-27T10:27:27Z</time>
      </trkpt>
      <trkpt lat="42.93147" lon="1.32957">
        <ele>1273</ele>
        <time>2020-07-27T10:27:35Z</time>
      </trkpt>
      <trkpt lat="42.93142" lon="1.33004">
        <ele>1274</ele>
        <time>2020-07-27T10:27:42Z</time>
      </trkpt>
      <trkpt lat="42.93144" lon="1.33026">
        <ele>1272</ele>
        <time>2020-07-27T10:27:45Z</time>
      </trkpt>
      <trkpt lat="42.9315" lon="1.33038">
        <ele>1273</ele>
        <time>2020-07-27T10:27:46Z</time>
      </trkpt>
      <trkpt lat="42.93163" lon="1.33044">
        <ele>1278</ele>
        <time>2020-07-27T10:27:49Z</time>
      </trkpt>
      <trkpt lat="42.93205" lon="1.33037">
        <ele>1293</ele>
        <time>2020-07-27T10:27:56Z</time>
      </trkpt>
      <trkpt lat="42.93215" lon="1.33041">
        <ele>1296</ele>
        <time>2020-07-27T10:27:58Z</time>
      </trkpt>
      <trkpt lat="42.93224" lon="1.33052">
        <ele>1298</ele>
        <time>2020-07-27T10:28:00Z</time>
      </trkpt>
      <trkpt lat="42.93241" lon="1.3311">
        <ele>1298</ele>
        <time>2020-07-27T10:28:09Z</time>
      </trkpt>
      <trkpt lat="42.93245" lon="1.33127">
        <ele>1299</ele>
        <time>2020-07-27T10:28:11Z</time>
      </trkpt>
      <trkpt lat="42.93244" lon="1.33148">
        <ele>1297</ele>
        <time>2020-07-27T10:28:14Z</time>
      </trkpt>
      <trkpt lat="42.9324" lon="1.3318">
        <ele>1295</ele>
        <time>2020-07-27T10:28:18Z</time>
      </trkpt>
      <trkpt lat="42.93234" lon="1.33206">
        <ele>1294</ele>
        <time>2020-07-27T10:28:21Z</time>
      </trkpt>
      <trkpt lat="42.93188" lon="1.33357">
        <ele>1281</ele>
        <time>2020-07-27T10:28:43Z</time>
      </trkpt>
      <trkpt lat="42.93187" lon="1.33372">
        <ele>1281</ele>
        <time>2020-07-27T10:28:45Z</time>
      </trkpt>
      <trkpt lat="42.93191" lon="1.33386">
        <ele>1282</ele>
        <time>2020-07-27T10:28:47Z</time>
      </trkpt>
      <trkpt lat="42.93234" lon="1.33437">
        <ele>1298</ele>
        <time>2020-07-27T10:28:57Z</time>
      </trkpt>
      <trkpt lat="42.93254" lon="1.33457">
        <ele>1304</ele>
        <time>2020-07-27T10:29:01Z</time>
      </trkpt>
      <trkpt lat="42.93258" lon="1.33465">
        <ele>1305</ele>
        <time>2020-07-27T10:29:02Z</time>
      </trkpt>
      <trkpt lat="42.93261" lon="1.33477">
        <ele>1305</ele>
        <time>2020-07-27T10:29:04Z</time>
      </trkpt>
      <trkpt lat="42.9326" lon="1.33523">
        <ele>1300</ele>
        <time>2020-07-27T10:29:10Z</time>
      </trkpt>
      <trkpt lat="42.93271" lon="1.33587">
        <ele>1301</ele>
        <time>2020-07-27T10:29:19Z</time>
      </trkpt>
      <trkpt lat="42.93274" lon="1.33641">
        <ele>1304</ele>
        <time>2020-07-27T10:29:26Z</time>
      </trkpt>
      <trkpt lat="42.93272" lon="1.33657">
        <ele>1303</ele>
        <time>2020-07-27T10:29:28Z</time>
      </trkpt>
      <trkpt lat="42.93261" lon="1.33696">
        <ele>1298</ele>
        <time>2020-07-27T10:29:33Z</time>
      </trkpt>
      <trkpt lat="42.93259" lon="1.33714">
        <ele>1297</ele>
        <time>2020-07-27T10:29:36Z</time>
      </trkpt>
      <trkpt lat="42.93259" lon="1.33742">
        <ele>1298</ele>
        <time>2020-07-27T10:29:39Z</time>
      </trkpt>
      <trkpt lat="42.93259" lon="1.33746">
        <ele>1298</ele>
        <time>2020-07-27T10:29:40Z</time>
      </trkpt>
      <trkpt lat="42.93257" lon="1.33765">
        <ele>1299</ele>
        <time>2020-07-27T10:29:42Z</time>
      </trkpt>
      <trkpt lat="42.9324" lon="1.33818">
        <ele>1298</ele>
        <time>2020-07-27T10:29:50Z</time>
      </trkpt>
      <trkpt lat="42.93239" lon="1.33839">
        <ele>1299</ele>
        <time>2020-07-27T10:29:53Z</time>
      </trkpt>
      <trkpt lat="42.93239" lon="1.33856">
        <ele>1300</ele>
        <time>2020-07-27T10:29:55Z</time>
      </trkpt>
      <trkpt lat="42.93235" lon="1.33874">
        <ele>1300</ele>
        <time>2020-07-27T10:29:57Z</time>
      </trkpt>
      <trkpt lat="42.93219" lon="1.3392">
        <ele>1299</ele>
        <time>2020-07-27T10:30:04Z</time>
      </trkpt>
      <trkpt lat="42.93214" lon="1.33943">
        <ele>1300</ele>
        <time>2020-07-27T10:30:07Z</time>
      </trkpt>
      <trkpt lat="42.93211" lon="1.33965">
        <ele>1301</ele>
        <time>2020-07-27T10:30:10Z</time>
      </trkpt>
      <trkpt lat="42.93203" lon="1.33988">
        <ele>1302</ele>
        <time>2020-07-27T10:30:13Z</time>
      </trkpt>
      <trkpt lat="42.93189" lon="1.33999">
        <ele>1301</ele>
        <time>2020-07-27T10:30:16Z</time>
      </trkpt>
      <trkpt lat="42.9316" lon="1.34001">
        <ele>1296</ele>
        <time>2020-07-27T10:30:21Z</time>
      </trkpt>
      <trkpt lat="42.93147" lon="1.3401">
        <ele>1292</ele>
        <time>2020-07-27T10:30:24Z</time>
      </trkpt>
      <trkpt lat="42.93127" lon="1.34055">
        <ele>1290</ele>
        <time>2020-07-27T10:30:31Z</time>
      </trkpt>
      <trkpt lat="42.93125" lon="1.34072">
        <ele>1291</ele>
        <time>2020-07-27T10:30:33Z</time>
      </trkpt>
      <trkpt lat="42.93134" lon="1.34152">
        <ele>1295</ele>
        <time>2020-07-27T10:30:43Z</time>
      </trkpt>
      <trkpt lat="42.93141" lon="1.34168">
        <ele>1295</ele>
        <time>2020-07-27T10:30:46Z</time>
      </trkpt>
      <trkpt lat="42.93159" lon="1.34179">
        <ele>1296</ele>
        <time>2020-07-27T10:30:49Z</time>
      </trkpt>
      <trkpt lat="42.93165" lon="1.34183">
        <ele>1296</ele>
        <time>2020-07-27T10:30:51Z</time>
      </trkpt>
      <trkpt lat="42.93173" lon="1.34193">
        <ele>1294</ele>
        <time>2020-07-27T10:30:53Z</time>
      </trkpt>
      <trkpt lat="42.93177" lon="1.34209">
        <ele>1292</ele>
        <time>2020-07-27T10:30:55Z</time>
      </trkpt>
      <trkpt lat="42.93171" lon="1.34242">
        <ele>1291</ele>
        <time>2020-07-27T10:30:59Z</time>
      </trkpt>
      <trkpt lat="42.93162" lon="1.3427">
        <ele>1294</ele>
        <time>2020-07-27T10:31:03Z</time>
      </trkpt>
      <trkpt lat="42.93159" lon="1.34278">
        <ele>1295</ele>
        <time>2020-07-27T10:31:04Z</time>
      </trkpt>
      <trkpt lat="42.93155" lon="1.34287">
        <ele>1296</ele>
        <time>2020-07-27T10:31:06Z</time>
      </trkpt>
      <trkpt lat="42.93137" lon="1.34303">
        <ele>1299</ele>
        <time>2020-07-27T10:31:10Z</time>
      </trkpt>
      <trkpt lat="42.9312" lon="1.34305">
        <ele>1301</ele>
        <time>2020-07-27T10:31:13Z</time>
      </trkpt>
      <trkpt lat="42.93107" lon="1.34305">
        <ele>1303</ele>
        <time>2020-07-27T10:31:15Z</time>
      </trkpt>
      <trkpt lat="42.9309" lon="1.34294">
        <ele>1304</ele>
        <time>2020-07-27T10:31:18Z</time>
      </trkpt>
      <trkpt lat="42.93057" lon="1.34262">
        <ele>1297</ele>
        <time>2020-07-27T10:31:25Z</time>
      </trkpt>
      <trkpt lat="42.93043" lon="1.34255">
        <ele>1294</ele>
        <time>2020-07-27T10:31:28Z</time>
      </trkpt>
      <trkpt lat="42.9303" lon="1.3426">
        <ele>1292</ele>
        <time>2020-07-27T10:31:30Z</time>
      </trkpt>
      <trkpt lat="42.9302" lon="1.34274">
        <ele>1290</ele>
        <time>2020-07-27T10:31:33Z</time>
      </trkpt>
      <trkpt lat="42.93019" lon="1.34292">
        <ele>1291</ele>
        <time>2020-07-27T10:31:35Z</time>
      </trkpt>
      <trkpt lat="42.93023" lon="1.34335">
        <ele>1294</ele>
        <time>2020-07-27T10:31:41Z</time>
      </trkpt>
      <trkpt lat="42.93025" lon="1.3437">
        <ele>1299</ele>
        <time>2020-07-27T10:31:46Z</time>
      </trkpt>
      <trkpt lat="42.93023" lon="1.34404">
        <ele>1303</ele>
        <time>2020-07-27T10:31:50Z</time>
      </trkpt>
      <trkpt lat="42.93017" lon="1.34441">
        <ele>1310</ele>
        <time>2020-07-27T10:31:55Z</time>
      </trkpt>
      <trkpt lat="42.93004" lon="1.34485">
        <ele>1320</ele>
        <time>2020-07-27T10:32:01Z</time>
      </trkpt>
      <trkpt lat="42.9293" lon="1.34609">
        <ele>1326</ele>
        <time>2020-07-27T10:32:22Z</time>
      </trkpt>
      <trkpt lat="42.9292" lon="1.34633">
        <ele>1328</ele>
        <time>2020-07-27T10:32:26Z</time>
      </trkpt>
      <trkpt lat="42.92914" lon="1.34658">
        <ele>1330</ele>
        <time>2020-07-27T10:32:29Z</time>
      </trkpt>
      <trkpt lat="42.92914" lon="1.34676">
        <ele>1330</ele>
        <time>2020-07-27T10:32:31Z</time>
      </trkpt>
      <trkpt lat="42.92917" lon="1.34689">
        <ele>1330</ele>
        <time>2020-07-27T10:32:33Z</time>
      </trkpt>
      <trkpt lat="42.92923" lon="1.34697">
        <ele>1331</ele>
        <time>2020-07-27T10:32:35Z</time>
      </trkpt>
      <trkpt lat="42.92955" lon="1.34718">
        <ele>1338</ele>
        <time>2020-07-27T10:32:41Z</time>
      </trkpt>
      <trkpt lat="42.92963" lon="1.34728">
        <ele>1340</ele>
        <time>2020-07-27T10:32:43Z</time>
      </trkpt>
      <trkpt lat="42.92967" lon="1.34741">
        <ele>1341</ele>
        <time>2020-07-27T10:32:45Z</time>
      </trkpt>
      <trkpt lat="42.9298" lon="1.34885">
        <ele>1350</ele>
        <time>2020-07-27T10:33:04Z</time>
      </trkpt>
      <trkpt lat="42.9298" lon="1.34903">
        <ele>1351</ele>
        <time>2020-07-27T10:33:06Z</time>
      </trkpt>
      <trkpt lat="42.92974" lon="1.34944">
        <ele>1354</ele>
        <time>2020-07-27T10:33:11Z</time>
      </trkpt>
      <trkpt lat="42.92947" lon="1.35068">
        <ele>1365</ele>
        <time>2020-07-27T10:33:28Z</time>
      </trkpt>
      <trkpt lat="42.92928" lon="1.3514">
        <ele>1366</ele>
        <time>2020-07-27T10:33:38Z</time>
      </trkpt>
      <trkpt lat="42.92927" lon="1.35166">
        <ele>1369</ele>
        <time>2020-07-27T10:33:42Z</time>
      </trkpt>
      <trkpt lat="42.92948" lon="1.35271">
        <ele>1382</ele>
        <time>2020-07-27T10:33:56Z</time>
      </trkpt>
      <trkpt lat="42.92952" lon="1.35306">
        <ele>1385</ele>
        <time>2020-07-27T10:34:00Z</time>
      </trkpt>
      <trkpt lat="42.92951" lon="1.35343">
        <ele>1386</ele>
        <time>2020-07-27T10:34:05Z</time>
      </trkpt>
      <trkpt lat="42.9295" lon="1.35371">
        <ele>1389</ele>
        <time>2020-07-27T10:34:09Z</time>
      </trkpt>
      <trkpt lat="42.92942" lon="1.35421">
        <ele>1390</ele>
        <time>2020-07-27T10:34:16Z</time>
      </trkpt>
      <trkpt lat="42.92932" lon="1.35473">
        <ele>1393</ele>
        <time>2020-07-27T10:34:23Z</time>
      </trkpt>
      <trkpt lat="42.92915" lon="1.35535">
        <ele>1395</ele>
        <time>2020-07-27T10:34:31Z</time>
      </trkpt>
      <trkpt lat="42.92912" lon="1.3555">
        <ele>1395</ele>
        <time>2020-07-27T10:34:33Z</time>
      </trkpt>
      <trkpt lat="42.92912" lon="1.35567">
        <ele>1397</ele>
        <time>2020-07-27T10:34:35Z</time>
      </trkpt>
      <trkpt lat="42.92918" lon="1.35624">
        <ele>1405</ele>
        <time>2020-07-27T10:34:43Z</time>
      </trkpt>
      <trkpt lat="42.92917" lon="1.35647">
        <ele>1407</ele>
        <time>2020-07-27T10:34:46Z</time>
      </trkpt>
      <trkpt lat="42.92913" lon="1.35666">
        <ele>1408</ele>
        <time>2020-07-27T10:34:49Z</time>
      </trkpt>
      <trkpt lat="42.92897" lon="1.35703">
        <ele>1410</ele>
        <time>2020-07-27T10:34:54Z</time>
      </trkpt>
      <trkpt lat="42.92885" lon="1.35724">
        <ele>1412</ele>
        <time>2020-07-27T10:34:58Z</time>
      </trkpt>
      <trkpt lat="42.92851" lon="1.35771">
        <ele>1415</ele>
        <time>2020-07-27T10:35:06Z</time>
      </trkpt>
      <trkpt lat="42.92819" lon="1.35804">
        <ele>1417</ele>
        <time>2020-07-27T10:35:13Z</time>
      </trkpt>
      <trkpt lat="42.92819" lon="1.35814">
        <ele>1419</ele>
        <time>2020-07-27T10:35:15Z</time>
      </trkpt>
      <trkpt lat="42.92823" lon="1.35818">
        <ele>1421</ele>
        <time>2020-07-27T10:35:16Z</time>
      </trkpt>
      <trkpt lat="42.92831" lon="1.35815">
        <ele>1422</ele>
        <time>2020-07-27T10:35:17Z</time>
      </trkpt>
      <trkpt lat="42.92954" lon="1.35726">
        <ele>1424</ele>
        <time>2020-07-27T10:35:42Z</time>
      </trkpt>
      <trkpt lat="42.92983" lon="1.35695">
        <ele>1428</ele>
        <time>2020-07-27T10:35:48Z</time>
      </trkpt>
      <trkpt lat="42.92989" lon="1.35696">
        <ele>1429</ele>
        <time>2020-07-27T10:35:49Z</time>
      </trkpt>
      <trkpt lat="42.92994" lon="1.35699">
        <ele>1430</ele>
        <time>2020-07-27T10:35:50Z</time>
      </trkpt>
      <trkpt lat="42.92995" lon="1.35712">
        <ele>1430</ele>
        <time>2020-07-27T10:35:52Z</time>
      </trkpt>
      <trkpt lat="42.92964" lon="1.35787">
        <ele>1428</ele>
        <time>2020-07-27T10:36:03Z</time>
      </trkpt>
      <trkpt lat="42.9295" lon="1.35823">
        <ele>1432</ele>
        <time>2020-07-27T10:36:09Z</time>
      </trkpt>
      <trkpt lat="42.92945" lon="1.35834">
        <ele>1434</ele>
        <time>2020-07-27T10:36:10Z</time>
      </trkpt>
      <trkpt lat="42.9294" lon="1.35856">
        <ele>1436</ele>
        <time>2020-07-27T10:36:13Z</time>
      </trkpt>
      <trkpt lat="42.92933" lon="1.35887">
        <ele>1440</ele>
        <time>2020-07-27T10:36:18Z</time>
      </trkpt>
      <trkpt lat="42.92931" lon="1.35908">
        <ele>1442</ele>
        <time>2020-07-27T10:36:20Z</time>
      </trkpt>
      <trkpt lat="42.92935" lon="1.35957">
        <ele>1446</ele>
        <time>2020-07-27T10:36:27Z</time>
      </trkpt>
      <trkpt lat="42.9295" lon="1.36024">
        <ele>1447</ele>
        <time>2020-07-27T10:36:36Z</time>
      </trkpt>
      <trkpt lat="42.92984" lon="1.36095">
        <ele>1442</ele>
        <time>2020-07-27T10:36:47Z</time>
      </trkpt>
      <trkpt lat="42.9301" lon="1.36161">
        <ele>1436</ele>
        <time>2020-07-27T10:36:57Z</time>
      </trkpt>
      <trkpt lat="42.93038" lon="1.36294">
        <ele>1433</ele>
        <time>2020-07-27T10:37:15Z</time>
      </trkpt>
      <trkpt lat="42.93042" lon="1.36361">
        <ele>1431</ele>
        <time>2020-07-27T10:37:23Z</time>
      </trkpt>
      <trkpt lat="42.93042" lon="1.36475">
        <ele>1430</ele>
        <time>2020-07-27T10:37:38Z</time>
      </trkpt>
      <trkpt lat="42.93048" lon="1.36502">
        <ele>1427</ele>
        <time>2020-07-27T10:37:42Z</time>
      </trkpt>
      <trkpt lat="42.93066" lon="1.36582">
        <ele>1423</ele>
        <time>2020-07-27T10:37:53Z</time>
      </trkpt>
      <trkpt lat="42.93107" lon="1.36683">
        <ele>1416</ele>
        <time>2020-07-27T10:38:08Z</time>
      </trkpt>
      <trkpt lat="42.93139" lon="1.3679">
        <ele>1411</ele>
        <time>2020-07-27T10:38:23Z</time>
      </trkpt>
      <trkpt lat="42.93145" lon="1.36835">
        <ele>1409</ele>
        <time>2020-07-27T10:38:29Z</time>
      </trkpt>
      <trkpt lat="42.93145" lon="1.36872">
        <ele>1406</ele>
        <time>2020-07-27T10:38:34Z</time>
      </trkpt>
      <trkpt lat="42.93141" lon="1.36889">
        <ele>1404</ele>
        <time>2020-07-27T10:38:36Z</time>
      </trkpt>
      <trkpt lat="42.93126" lon="1.36904">
        <ele>1403</ele>
        <time>2020-07-27T10:38:39Z</time>
      </trkpt>
      <trkpt lat="42.93096" lon="1.36891">
        <ele>1405</ele>
        <time>2020-07-27T10:38:45Z</time>
      </trkpt>
      <trkpt lat="42.93064" lon="1.36887">
        <ele>1408</ele>
        <time>2020-07-27T10:38:51Z</time>
      </trkpt>
      <trkpt lat="42.9303" lon="1.36904">
        <ele>1407</ele>
        <time>2020-07-27T10:38:57Z</time>
      </trkpt>
      <trkpt lat="42.92987" lon="1.36938">
        <ele>1404</ele>
        <time>2020-07-27T10:39:06Z</time>
      </trkpt>
      <trkpt lat="42.9289" lon="1.37045">
        <ele>1394</ele>
        <time>2020-07-27T10:39:28Z</time>
      </trkpt>
      <trkpt lat="42.92815" lon="1.37101">
        <ele>1388</ele>
        <time>2020-07-27T10:39:43Z</time>
      </trkpt>
      <trkpt lat="42.92738" lon="1.37129">
        <ele>1388</ele>
        <time>2020-07-27T10:39:58Z</time>
      </trkpt>
      <trkpt lat="42.92688" lon="1.37155">
        <ele>1387</ele>
        <time>2020-07-27T10:40:07Z</time>
      </trkpt>
      <trkpt lat="42.92652" lon="1.37181">
        <ele>1384</ele>
        <time>2020-07-27T10:40:14Z</time>
      </trkpt>
      <trkpt lat="42.92578" lon="1.37263">
        <ele>1378</ele>
        <time>2020-07-27T10:40:31Z</time>
      </trkpt>
      <trkpt lat="42.92547" lon="1.37305">
        <ele>1373</ele>
        <time>2020-07-27T10:40:39Z</time>
      </trkpt>
      <trkpt lat="42.9254" lon="1.37347">
        <ele>1371</ele>
        <time>2020-07-27T10:40:45Z</time>
      </trkpt>
      <trkpt lat="42.92538" lon="1.37386">
        <ele>1365</ele>
        <time>2020-07-27T10:40:50Z</time>
      </trkpt>
      <trkpt lat="42.92529" lon="1.37417">
        <ele>1363</ele>
        <time>2020-07-27T10:40:54Z</time>
      </trkpt>
      <trkpt lat="42.92509" lon="1.37428">
        <ele>1364</ele>
        <time>2020-07-27T10:40:58Z</time>
      </trkpt>
      <trkpt lat="42.9248" lon="1.37419">
        <ele>1366</ele>
        <time>2020-07-27T10:41:03Z</time>
      </trkpt>
      <trkpt lat="42.92433" lon="1.37399">
        <ele>1362</ele>
        <time>2020-07-27T10:41:12Z</time>
      </trkpt>
      <trkpt lat="42.92411" lon="1.37395">
        <ele>1359</ele>
        <time>2020-07-27T10:41:16Z</time>
      </trkpt>
      <trkpt lat="42.92334" lon="1.37378">
        <ele>1355</ele>
        <time>2020-07-27T10:41:30Z</time>
      </trkpt>
      <trkpt lat="42.92296" lon="1.3738">
        <ele>1353</ele>
        <time>2020-07-27T10:41:37Z</time>
      </trkpt>
      <trkpt lat="42.92263" lon="1.37385">
        <ele>1352</ele>
        <time>2020-07-27T10:41:42Z</time>
      </trkpt>
      <trkpt lat="42.9224" lon="1.37397">
        <ele>1351</ele>
        <time>2020-07-27T10:41:47Z</time>
      </trkpt>
      <trkpt lat="42.92208" lon="1.3743">
        <ele>1347</ele>
        <time>2020-07-27T10:41:54Z</time>
      </trkpt>
      <trkpt lat="42.92179" lon="1.37489">
        <ele>1348</ele>
        <time>2020-07-27T10:42:03Z</time>
      </trkpt>
      <trkpt lat="42.92124" lon="1.37624">
        <ele>1343</ele>
        <time>2020-07-27T10:42:23Z</time>
      </trkpt>
      <trkpt lat="42.9206" lon="1.37695">
        <ele>1346</ele>
        <time>2020-07-27T10:42:38Z</time>
      </trkpt>
      <trkpt lat="42.92032" lon="1.37734">
        <ele>1346</ele>
        <time>2020-07-27T10:42:45Z</time>
      </trkpt>
      <trkpt lat="42.9201" lon="1.37773">
        <ele>1348</ele>
        <time>2020-07-27T10:42:52Z</time>
      </trkpt>
      <trkpt lat="42.91982" lon="1.37839">
        <ele>1352</ele>
        <time>2020-07-27T10:43:02Z</time>
      </trkpt>
      <trkpt lat="42.91948" lon="1.37884">
        <ele>1352</ele>
        <time>2020-07-27T10:43:10Z</time>
      </trkpt>
      <trkpt lat="42.91914" lon="1.37942">
        <ele>1357</ele>
        <time>2020-07-27T10:43:20Z</time>
      </trkpt>
      <trkpt lat="42.91901" lon="1.38004">
        <ele>1357</ele>
        <time>2020-07-27T10:43:28Z</time>
      </trkpt>
      <trkpt lat="42.91905" lon="1.38082">
        <ele>1358</ele>
        <time>2020-07-27T10:43:38Z</time>
      </trkpt>
      <trkpt lat="42.91901" lon="1.38172">
        <ele>1353</ele>
        <time>2020-07-27T10:43:50Z</time>
      </trkpt>
      <trkpt lat="42.91911" lon="1.38273">
        <ele>1348</ele>
        <time>2020-07-27T10:44:03Z</time>
      </trkpt>
      <trkpt lat="42.91912" lon="1.38279">
        <ele>1348</ele>
        <time>2020-07-27T10:44:04Z</time>
      </trkpt>
      <trkpt lat="42.91912" lon="1.38334">
        <ele>1344</ele>
        <time>2020-07-27T10:44:11Z</time>
      </trkpt>
      <trkpt lat="42.91912" lon="1.38488">
        <ele>1348</ele>
        <time>2020-07-27T10:44:31Z</time>
      </trkpt>
      <trkpt lat="42.91917" lon="1.38637">
        <ele>1363</ele>
        <time>2020-07-27T10:44:51Z</time>
      </trkpt>
      <trkpt lat="42.91915" lon="1.38669">
        <ele>1364</ele>
        <time>2020-07-27T10:44:55Z</time>
      </trkpt>
      <trkpt lat="42.91911" lon="1.38691">
        <ele>1365</ele>
        <time>2020-07-27T10:44:58Z</time>
      </trkpt>
      <trkpt lat="42.9187" lon="1.38796">
        <ele>1361</ele>
        <time>2020-07-27T10:45:13Z</time>
      </trkpt>
      <trkpt lat="42.91864" lon="1.38809">
        <ele>1361</ele>
        <time>2020-07-27T10:45:15Z</time>
      </trkpt>
      <trkpt lat="42.91854" lon="1.38853">
        <ele>1362</ele>
        <time>2020-07-27T10:45:21Z</time>
      </trkpt>
      <trkpt lat="42.91842" lon="1.389">
        <ele>1363</ele>
        <time>2020-07-27T10:45:28Z</time>
      </trkpt>
      <trkpt lat="42.91835" lon="1.38908">
        <ele>1364</ele>
        <time>2020-07-27T10:45:29Z</time>
      </trkpt>
      <trkpt lat="42.91833" lon="1.38887">
        <ele>1363</ele>
        <time>2020-07-27T10:45:32Z</time>
      </trkpt>
      <trkpt lat="42.91837" lon="1.38855">
        <ele>1361</ele>
        <time>2020-07-27T10:45:36Z</time>
      </trkpt>
      <trkpt lat="42.91851" lon="1.38781">
        <ele>1355</ele>
        <time>2020-07-27T10:45:46Z</time>
      </trkpt>
      <trkpt lat="42.91864" lon="1.38734">
        <ele>1353</ele>
        <time>2020-07-27T10:45:53Z</time>
      </trkpt>
      <trkpt lat="42.91881" lon="1.38687">
        <ele>1352</ele>
        <time>2020-07-27T10:46:00Z</time>
      </trkpt>
      <trkpt lat="42.91885" lon="1.38641">
        <ele>1348</ele>
        <time>2020-07-27T10:46:06Z</time>
      </trkpt>
      <trkpt lat="42.91882" lon="1.38565">
        <ele>1340</ele>
        <time>2020-07-27T10:46:16Z</time>
      </trkpt>
      <trkpt lat="42.91885" lon="1.38486">
        <ele>1335</ele>
        <time>2020-07-27T10:46:26Z</time>
      </trkpt>
      <trkpt lat="42.9188" lon="1.38448">
        <ele>1333</ele>
        <time>2020-07-27T10:46:31Z</time>
      </trkpt>
      <trkpt lat="42.91868" lon="1.38403">
        <ele>1328</ele>
        <time>2020-07-27T10:46:37Z</time>
      </trkpt>
      <trkpt lat="42.91867" lon="1.38394">
        <ele>1327</ele>
        <time>2020-07-27T10:46:39Z</time>
      </trkpt>
      <trkpt lat="42.91872" lon="1.38362">
        <ele>1328</ele>
        <time>2020-07-27T10:46:43Z</time>
      </trkpt>
      <trkpt lat="42.9187" lon="1.38356">
        <ele>1328</ele>
        <time>2020-07-27T10:46:44Z</time>
      </trkpt>
      <trkpt lat="42.91868" lon="1.38353">
        <ele>1327</ele>
        <time>2020-07-27T10:46:44Z</time>
      </trkpt>
      <trkpt lat="42.91861" lon="1.38354">
        <ele>1324</ele>
        <time>2020-07-27T10:46:45Z</time>
      </trkpt>
      <trkpt lat="42.91858" lon="1.38359">
        <ele>1323</ele>
        <time>2020-07-27T10:46:46Z</time>
      </trkpt>
      <trkpt lat="42.91856" lon="1.3837">
        <ele>1322</ele>
        <time>2020-07-27T10:46:48Z</time>
      </trkpt>
      <trkpt lat="42.91853" lon="1.38406">
        <ele>1322</ele>
        <time>2020-07-27T10:46:52Z</time>
      </trkpt>
      <trkpt lat="42.91857" lon="1.38442">
        <ele>1323</ele>
        <time>2020-07-27T10:46:57Z</time>
      </trkpt>
      <trkpt lat="42.91857" lon="1.38451">
        <ele>1323</ele>
        <time>2020-07-27T10:46:58Z</time>
      </trkpt>
      <trkpt lat="42.9185" lon="1.38483">
        <ele>1320</ele>
        <time>2020-07-27T10:47:03Z</time>
      </trkpt>
      <trkpt lat="42.9183" lon="1.38537">
        <ele>1313</ele>
        <time>2020-07-27T10:47:11Z</time>
      </trkpt>
      <trkpt lat="42.91821" lon="1.38593">
        <ele>1311</ele>
        <time>2020-07-27T10:47:18Z</time>
      </trkpt>
      <trkpt lat="42.91817" lon="1.38608">
        <ele>1311</ele>
        <time>2020-07-27T10:47:20Z</time>
      </trkpt>
      <trkpt lat="42.91808" lon="1.38629">
        <ele>1308</ele>
        <time>2020-07-27T10:47:23Z</time>
      </trkpt>
      <trkpt lat="42.91781" lon="1.38676">
        <ele>1301</ele>
        <time>2020-07-27T10:47:31Z</time>
      </trkpt>
      <trkpt lat="42.91763" lon="1.38725">
        <ele>1303</ele>
        <time>2020-07-27T10:47:38Z</time>
      </trkpt>
      <trkpt lat="42.91753" lon="1.38735">
        <ele>1301</ele>
        <time>2020-07-27T10:47:40Z</time>
      </trkpt>
      <trkpt lat="42.91711" lon="1.38757">
        <ele>1286</ele>
        <time>2020-07-27T10:47:48Z</time>
      </trkpt>
      <trkpt lat="42.91699" lon="1.38768">
        <ele>1282</ele>
        <time>2020-07-27T10:47:51Z</time>
      </trkpt>
      <trkpt lat="42.91693" lon="1.38783">
        <ele>1282</ele>
        <time>2020-07-27T10:47:53Z</time>
      </trkpt>
      <trkpt lat="42.91693" lon="1.38833">
        <ele>1290</ele>
        <time>2020-07-27T10:48:00Z</time>
      </trkpt>
      <trkpt lat="42.91688" lon="1.38852">
        <ele>1292</ele>
        <time>2020-07-27T10:48:02Z</time>
      </trkpt>
      <trkpt lat="42.91683" lon="1.38858">
        <ele>1291</ele>
        <time>2020-07-27T10:48:04Z</time>
      </trkpt>
      <trkpt lat="42.9162" lon="1.38898">
        <ele>1272</ele>
        <time>2020-07-27T10:48:16Z</time>
      </trkpt>
      <trkpt lat="42.91604" lon="1.38912">
        <ele>1268</ele>
        <time>2020-07-27T10:48:19Z</time>
      </trkpt>
      <trkpt lat="42.91586" lon="1.38932">
        <ele>1263</ele>
        <time>2020-07-27T10:48:23Z</time>
      </trkpt>
      <trkpt lat="42.9158" lon="1.38939">
        <ele>1261</ele>
        <time>2020-07-27T10:48:25Z</time>
      </trkpt>
      <trkpt lat="42.91577" lon="1.38949">
        <ele>1261</ele>
        <time>2020-07-27T10:48:26Z</time>
      </trkpt>
      <trkpt lat="42.91575" lon="1.38957">
        <ele>1261</ele>
        <time>2020-07-27T10:48:27Z</time>
      </trkpt>
      <trkpt lat="42.91572" lon="1.39003">
        <ele>1266</ele>
        <time>2020-07-27T10:48:33Z</time>
      </trkpt>
      <trkpt lat="42.91566" lon="1.3902">
        <ele>1267</ele>
        <time>2020-07-27T10:48:36Z</time>
      </trkpt>
      <trkpt lat="42.9155" lon="1.3904">
        <ele>1263</ele>
        <time>2020-07-27T10:48:40Z</time>
      </trkpt>
      <trkpt lat="42.9153" lon="1.39057">
        <ele>1257</ele>
        <time>2020-07-27T10:48:44Z</time>
      </trkpt>
      <trkpt lat="42.91489" lon="1.39086">
        <ele>1244</ele>
        <time>2020-07-27T10:48:52Z</time>
      </trkpt>
      <trkpt lat="42.91466" lon="1.39116">
        <ele>1238</ele>
        <time>2020-07-27T10:48:58Z</time>
      </trkpt>
      <trkpt lat="42.91459" lon="1.39131">
        <ele>1237</ele>
        <time>2020-07-27T10:49:00Z</time>
      </trkpt>
      <trkpt lat="42.91456" lon="1.3914">
        <ele>1237</ele>
        <time>2020-07-27T10:49:01Z</time>
      </trkpt>
      <trkpt lat="42.91454" lon="1.39183">
        <ele>1241</ele>
        <time>2020-07-27T10:49:07Z</time>
      </trkpt>
      <trkpt lat="42.91439" lon="1.39225">
        <ele>1238</ele>
        <time>2020-07-27T10:49:13Z</time>
      </trkpt>
      <trkpt lat="42.91431" lon="1.39241">
        <ele>1235</ele>
        <time>2020-07-27T10:49:16Z</time>
      </trkpt>
      <trkpt lat="42.91414" lon="1.3926">
        <ele>1231</ele>
        <time>2020-07-27T10:49:20Z</time>
      </trkpt>
      <trkpt lat="42.91394" lon="1.39276">
        <ele>1229</ele>
        <time>2020-07-27T10:49:24Z</time>
      </trkpt>
      <trkpt lat="42.91361" lon="1.39296">
        <ele>1224</ele>
        <time>2020-07-27T10:49:30Z</time>
      </trkpt>
      <trkpt lat="42.91328" lon="1.3932">
        <ele>1218</ele>
        <time>2020-07-27T10:49:37Z</time>
      </trkpt>
      <trkpt lat="42.913" lon="1.39331">
        <ele>1208</ele>
        <time>2020-07-27T10:49:42Z</time>
      </trkpt>
      <trkpt lat="42.91284" lon="1.39346">
        <ele>1204</ele>
        <time>2020-07-27T10:49:45Z</time>
      </trkpt>
      <trkpt lat="42.91266" lon="1.3937">
        <ele>1200</ele>
        <time>2020-07-27T10:49:50Z</time>
      </trkpt>
      <trkpt lat="42.91247" lon="1.39408">
        <ele>1200</ele>
        <time>2020-07-27T10:49:56Z</time>
      </trkpt>
      <trkpt lat="42.91235" lon="1.39428">
        <ele>1200</ele>
        <time>2020-07-27T10:49:59Z</time>
      </trkpt>
      <trkpt lat="42.91214" lon="1.39446">
        <ele>1196</ele>
        <time>2020-07-27T10:50:04Z</time>
      </trkpt>
      <trkpt lat="42.91157" lon="1.39485">
        <ele>1184</ele>
        <time>2020-07-27T10:50:15Z</time>
      </trkpt>
      <trkpt lat="42.9109" lon="1.39519">
        <ele>1166</ele>
        <time>2020-07-27T10:50:28Z</time>
      </trkpt>
      <trkpt lat="42.91083" lon="1.39527">
        <ele>1164</ele>
        <time>2020-07-27T10:50:29Z</time>
      </trkpt>
      <trkpt lat="42.91075" lon="1.39538">
        <ele>1161</ele>
        <time>2020-07-27T10:50:31Z</time>
      </trkpt>
      <trkpt lat="42.91072" lon="1.39552">
        <ele>1160</ele>
        <time>2020-07-27T10:50:33Z</time>
      </trkpt>
      <trkpt lat="42.91074" lon="1.3958">
        <ele>1161</ele>
        <time>2020-07-27T10:50:37Z</time>
      </trkpt>
      <trkpt lat="42.91091" lon="1.39632">
        <ele>1164</ele>
        <time>2020-07-27T10:50:44Z</time>
      </trkpt>
      <trkpt lat="42.91102" lon="1.39695">
        <ele>1167</ele>
        <time>2020-07-27T10:50:53Z</time>
      </trkpt>
      <trkpt lat="42.91102" lon="1.39711">
        <ele>1167</ele>
        <time>2020-07-27T10:50:55Z</time>
      </trkpt>
      <trkpt lat="42.91098" lon="1.39724">
        <ele>1165</ele>
        <time>2020-07-27T10:50:57Z</time>
      </trkpt>
      <trkpt lat="42.9109" lon="1.39734">
        <ele>1161</ele>
        <time>2020-07-27T10:50:59Z</time>
      </trkpt>
      <trkpt lat="42.91075" lon="1.39744">
        <ele>1154</ele>
        <time>2020-07-27T10:51:02Z</time>
      </trkpt>
      <trkpt lat="42.91019" lon="1.39769">
        <ele>1138</ele>
        <time>2020-07-27T10:51:12Z</time>
      </trkpt>
      <trkpt lat="42.90999" lon="1.3978">
        <ele>1133</ele>
        <time>2020-07-27T10:51:16Z</time>
      </trkpt>
      <trkpt lat="42.90983" lon="1.39797">
        <ele>1130</ele>
        <time>2020-07-27T10:51:20Z</time>
      </trkpt>
      <trkpt lat="42.90967" lon="1.39821">
        <ele>1128</ele>
        <time>2020-07-27T10:51:24Z</time>
      </trkpt>
      <trkpt lat="42.90954" lon="1.39845">
        <ele>1126</ele>
        <time>2020-07-27T10:51:28Z</time>
      </trkpt>
      <trkpt lat="42.90938" lon="1.39878">
        <ele>1122</ele>
        <time>2020-07-27T10:51:33Z</time>
      </trkpt>
      <trkpt lat="42.90911" lon="1.39948">
        <ele>1116</ele>
        <time>2020-07-27T10:51:43Z</time>
      </trkpt>
      <trkpt lat="42.90886" lon="1.40047">
        <ele>1107</ele>
        <time>2020-07-27T10:51:57Z</time>
      </trkpt>
      <trkpt lat="42.90877" lon="1.4009">
        <ele>1101</ele>
        <time>2020-07-27T10:52:03Z</time>
      </trkpt>
      <trkpt lat="42.90889" lon="1.40146">
        <ele>1100</ele>
        <time>2020-07-27T10:52:10Z</time>
      </trkpt>
      <trkpt lat="42.90889" lon="1.40153">
        <ele>1099</ele>
        <time>2020-07-27T10:52:11Z</time>
      </trkpt>
      <trkpt lat="42.90886" lon="1.40158">
        <ele>1097</ele>
        <time>2020-07-27T10:52:12Z</time>
      </trkpt>
      <trkpt lat="42.90883" lon="1.40158">
        <ele>1095</ele>
        <time>2020-07-27T10:52:12Z</time>
      </trkpt>
      <trkpt lat="42.90875" lon="1.40154">
        <ele>1091</ele>
        <time>2020-07-27T10:52:14Z</time>
      </trkpt>
      <trkpt lat="42.9087" lon="1.40142">
        <ele>1090</ele>
        <time>2020-07-27T10:52:16Z</time>
      </trkpt>
      <trkpt lat="42.90851" lon="1.40067">
        <ele>1087</ele>
        <time>2020-07-27T10:52:26Z</time>
      </trkpt>
      <trkpt lat="42.90842" lon="1.40009">
        <ele>1082</ele>
        <time>2020-07-27T10:52:34Z</time>
      </trkpt>
      <trkpt lat="42.90839" lon="1.3997">
        <ele>1078</ele>
        <time>2020-07-27T10:52:39Z</time>
      </trkpt>
      <trkpt lat="42.90838" lon="1.39915">
        <ele>1072</ele>
        <time>2020-07-27T10:52:46Z</time>
      </trkpt>
      <trkpt lat="42.90843" lon="1.39875">
        <ele>1069</ele>
        <time>2020-07-27T10:52:51Z</time>
      </trkpt>
      <trkpt lat="42.90843" lon="1.39784">
        <ele>1055</ele>
        <time>2020-07-27T10:53:03Z</time>
      </trkpt>
      <trkpt lat="42.90842" lon="1.39764">
        <ele>1052</ele>
        <time>2020-07-27T10:53:06Z</time>
      </trkpt>
      <trkpt lat="42.90834" lon="1.39722">
        <ele>1040</ele>
        <time>2020-07-27T10:53:12Z</time>
      </trkpt>
      <trkpt lat="42.90842" lon="1.39689">
        <ele>1038</ele>
        <time>2020-07-27T10:53:16Z</time>
      </trkpt>
      <trkpt lat="42.90865" lon="1.39644">
        <ele>1044</ele>
        <time>2020-07-27T10:53:23Z</time>
      </trkpt>
      <trkpt lat="42.90864" lon="1.39619">
        <ele>1042</ele>
        <time>2020-07-27T10:53:26Z</time>
      </trkpt>
      <trkpt lat="42.9085" lon="1.3959">
        <ele>1032</ele>
        <time>2020-07-27T10:53:31Z</time>
      </trkpt>
      <trkpt lat="42.90835" lon="1.39545">
        <ele>1026</ele>
        <time>2020-07-27T10:53:37Z</time>
      </trkpt>
      <trkpt lat="42.90813" lon="1.39519">
        <ele>1015</ele>
        <time>2020-07-27T10:53:43Z</time>
      </trkpt>
      <trkpt lat="42.90797" lon="1.39466">
        <ele>1007</ele>
        <time>2020-07-27T10:53:50Z</time>
      </trkpt>
      <trkpt lat="42.90785" lon="1.39419">
        <ele>1001</ele>
        <time>2020-07-27T10:53:57Z</time>
      </trkpt>
      <trkpt lat="42.90783" lon="1.3939">
        <ele>999</ele>
        <time>2020-07-27T10:54:00Z</time>
      </trkpt>
      <trkpt lat="42.90791" lon="1.39359">
        <ele>1004</ele>
        <time>2020-07-27T10:54:05Z</time>
      </trkpt>
      <trkpt lat="42.90789" lon="1.39348">
        <ele>1003</ele>
        <time>2020-07-27T10:54:06Z</time>
      </trkpt>
      <trkpt lat="42.90786" lon="1.39336">
        <ele>1001</ele>
        <time>2020-07-27T10:54:08Z</time>
      </trkpt>
      <trkpt lat="42.90766" lon="1.39307">
        <ele>991</ele>
        <time>2020-07-27T10:54:13Z</time>
      </trkpt>
      <trkpt lat="42.90759" lon="1.39288">
        <ele>989</ele>
        <time>2020-07-27T10:54:16Z</time>
      </trkpt>
      <trkpt lat="42.90748" lon="1.39268">
        <ele>985</ele>
        <time>2020-07-27T10:54:19Z</time>
      </trkpt>
      <trkpt lat="42.90724" lon="1.39238">
        <ele>977</ele>
        <time>2020-07-27T10:54:25Z</time>
      </trkpt>
      <trkpt lat="42.90709" lon="1.39224">
        <ele>972</ele>
        <time>2020-07-27T10:54:28Z</time>
      </trkpt>
      <trkpt lat="42.90688" lon="1.3919">
        <ele>966</ele>
        <time>2020-07-27T10:54:34Z</time>
      </trkpt>
      <trkpt lat="42.9068" lon="1.3918">
        <ele>963</ele>
        <time>2020-07-27T10:54:36Z</time>
      </trkpt>
      <trkpt lat="42.90675" lon="1.39172">
        <ele>962</ele>
        <time>2020-07-27T10:54:37Z</time>
      </trkpt>
      <trkpt lat="42.90651" lon="1.39083">
        <ele>959</ele>
        <time>2020-07-27T10:54:49Z</time>
      </trkpt>
      <trkpt lat="42.90651" lon="1.39055">
        <ele>957</ele>
        <time>2020-07-27T10:54:53Z</time>
      </trkpt>
      <trkpt lat="42.90646" lon="1.3905">
        <ele>957</ele>
        <time>2020-07-27T10:54:54Z</time>
      </trkpt>
      <trkpt lat="42.90642" lon="1.39047">
        <ele>956</ele>
        <time>2020-07-27T10:54:55Z</time>
      </trkpt>
      <trkpt lat="42.9065" lon="1.39018">
        <ele>955</ele>
        <time>2020-07-27T10:54:59Z</time>
      </trkpt>
      <trkpt lat="42.9069" lon="1.38932">
        <ele>951</ele>
        <time>2020-07-27T10:55:12Z</time>
      </trkpt>
      <trkpt lat="42.90747" lon="1.38793">
        <ele>936</ele>
        <time>2020-07-27T10:55:33Z</time>
      </trkpt>
      <trkpt lat="42.9077" lon="1.38756">
        <ele>930</ele>
        <time>2020-07-27T10:55:39Z</time>
      </trkpt>
      <trkpt lat="42.90786" lon="1.38738">
        <ele>927</ele>
        <time>2020-07-27T10:55:43Z</time>
      </trkpt>
      <trkpt lat="42.90798" lon="1.38731">
        <ele>927</ele>
        <time>2020-07-27T10:55:45Z</time>
      </trkpt>
      <trkpt lat="42.90815" lon="1.38729">
        <ele>929</ele>
        <time>2020-07-27T10:55:49Z</time>
      </trkpt>
      <trkpt lat="42.90837" lon="1.38736">
        <ele>936</ele>
        <time>2020-07-27T10:55:53Z</time>
      </trkpt>
      <trkpt lat="42.9086" lon="1.38749">
        <ele>945</ele>
        <time>2020-07-27T10:55:57Z</time>
      </trkpt>
      <trkpt lat="42.9087" lon="1.38746">
        <ele>947</ele>
        <time>2020-07-27T10:55:59Z</time>
      </trkpt>
      <trkpt lat="42.90874" lon="1.38738">
        <ele>945</ele>
        <time>2020-07-27T10:56:00Z</time>
      </trkpt>
      <trkpt lat="42.90875" lon="1.38728">
        <ele>943</ele>
        <time>2020-07-27T10:56:01Z</time>
      </trkpt>
      <trkpt lat="42.90871" lon="1.38713">
        <ele>937</ele>
        <time>2020-07-27T10:56:03Z</time>
      </trkpt>
      <trkpt lat="42.90857" lon="1.38687">
        <ele>926</ele>
        <time>2020-07-27T10:56:08Z</time>
      </trkpt>
      <trkpt lat="42.90852" lon="1.38668">
        <ele>919</ele>
        <time>2020-07-27T10:56:10Z</time>
      </trkpt>
      <trkpt lat="42.90851" lon="1.38664">
        <ele>918</ele>
        <time>2020-07-27T10:56:11Z</time>
      </trkpt>
      <trkpt lat="42.9085" lon="1.38654">
        <ele>916</ele>
        <time>2020-07-27T10:56:12Z</time>
      </trkpt>
      <trkpt lat="42.90855" lon="1.38639">
        <ele>915</ele>
        <time>2020-07-27T10:56:14Z</time>
      </trkpt>
      <trkpt lat="42.90866" lon="1.3862">
        <ele>915</ele>
        <time>2020-07-27T10:56:17Z</time>
      </trkpt>
      <trkpt lat="42.90876" lon="1.38607">
        <ele>916</ele>
        <time>2020-07-27T10:56:20Z</time>
      </trkpt>
      <trkpt lat="42.90881" lon="1.38603">
        <ele>917</ele>
        <time>2020-07-27T10:56:21Z</time>
      </trkpt>
      <trkpt lat="42.90903" lon="1.38592">
        <ele>921</ele>
        <time>2020-07-27T10:56:25Z</time>
      </trkpt>
      <trkpt lat="42.90908" lon="1.38581">
        <ele>921</ele>
        <time>2020-07-27T10:56:27Z</time>
      </trkpt>
      <trkpt lat="42.90908" lon="1.38568">
        <ele>921</ele>
        <time>2020-07-27T10:56:28Z</time>
      </trkpt>
      <trkpt lat="42.90903" lon="1.38555">
        <ele>920</ele>
        <time>2020-07-27T10:56:30Z</time>
      </trkpt>
      <trkpt lat="42.90896" lon="1.38545">
        <ele>918</ele>
        <time>2020-07-27T10:56:32Z</time>
      </trkpt>
      <trkpt lat="42.90886" lon="1.38537">
        <ele>916</ele>
        <time>2020-07-27T10:56:34Z</time>
      </trkpt>
      <trkpt lat="42.90859" lon="1.38526">
        <ele>909</ele>
        <time>2020-07-27T10:56:39Z</time>
      </trkpt>
      <trkpt lat="42.9085" lon="1.38516">
        <ele>907</ele>
        <time>2020-07-27T10:56:41Z</time>
      </trkpt>
      <trkpt lat="42.90846" lon="1.38501">
        <ele>906</ele>
        <time>2020-07-27T10:56:43Z</time>
      </trkpt>
      <trkpt lat="42.90849" lon="1.38475">
        <ele>903</ele>
        <time>2020-07-27T10:56:47Z</time>
      </trkpt>
      <trkpt lat="42.90853" lon="1.38461">
        <ele>902</ele>
        <time>2020-07-27T10:56:49Z</time>
      </trkpt>
      <trkpt lat="42.9086" lon="1.3845">
        <ele>902</ele>
        <time>2020-07-27T10:56:51Z</time>
      </trkpt>
      <trkpt lat="42.90899" lon="1.3841">
        <ele>903</ele>
        <time>2020-07-27T10:56:59Z</time>
      </trkpt>
      <trkpt lat="42.90922" lon="1.38372">
        <ele>900</ele>
        <time>2020-07-27T10:57:06Z</time>
      </trkpt>
      <trkpt lat="42.90948" lon="1.38342">
        <ele>901</ele>
        <time>2020-07-27T10:57:12Z</time>
      </trkpt>
      <trkpt lat="42.90951" lon="1.38338">
        <ele>901</ele>
        <time>2020-07-27T10:57:13Z</time>
      </trkpt>
      <trkpt lat="42.90961" lon="1.38325">
        <ele>902</ele>
        <time>2020-07-27T10:57:15Z</time>
      </trkpt>
      <trkpt lat="42.90963" lon="1.38313">
        <ele>902</ele>
        <time>2020-07-27T10:57:17Z</time>
      </trkpt>
      <trkpt lat="42.90962" lon="1.38302">
        <ele>902</ele>
        <time>2020-07-27T10:57:18Z</time>
      </trkpt>
      <trkpt lat="42.9096" lon="1.38292">
        <ele>901</ele>
        <time>2020-07-27T10:57:19Z</time>
      </trkpt>
      <trkpt lat="42.90938" lon="1.38238">
        <ele>891</ele>
        <time>2020-07-27T10:57:28Z</time>
      </trkpt>
      <trkpt lat="42.90939" lon="1.38226">
        <ele>891</ele>
        <time>2020-07-27T10:57:29Z</time>
      </trkpt>
      <trkpt lat="42.9095" lon="1.38156">
        <ele>892</ele>
        <time>2020-07-27T10:57:38Z</time>
      </trkpt>
      <trkpt lat="42.90947" lon="1.38131">
        <ele>892</ele>
        <time>2020-07-27T10:57:42Z</time>
      </trkpt>
      <trkpt lat="42.9094" lon="1.38113">
        <ele>892</ele>
        <time>2020-07-27T10:57:44Z</time>
      </trkpt>
      <trkpt lat="42.90927" lon="1.38107">
        <ele>890</ele>
        <time>2020-07-27T10:57:47Z</time>
      </trkpt>
      <trkpt lat="42.9088" lon="1.38104">
        <ele>883</ele>
        <time>2020-07-27T10:57:55Z</time>
      </trkpt>
      <trkpt lat="42.90826" lon="1.38086">
        <ele>877</ele>
        <time>2020-07-27T10:58:05Z</time>
      </trkpt>
      <trkpt lat="42.9076" lon="1.38079">
        <ele>870</ele>
        <time>2020-07-27T10:58:17Z</time>
      </trkpt>
      <trkpt lat="42.90741" lon="1.38066">
        <ele>868</ele>
        <time>2020-07-27T10:58:21Z</time>
      </trkpt>
      <trkpt lat="42.9073" lon="1.38055">
        <ele>866</ele>
        <time>2020-07-27T10:58:23Z</time>
      </trkpt>
      <trkpt lat="42.90719" lon="1.38042">
        <ele>865</ele>
        <time>2020-07-27T10:58:26Z</time>
      </trkpt>
      <trkpt lat="42.90714" lon="1.38026">
        <ele>865</ele>
        <time>2020-07-27T10:58:28Z</time>
      </trkpt>
      <trkpt lat="42.90713" lon="1.38012">
        <ele>865</ele>
        <time>2020-07-27T10:58:30Z</time>
      </trkpt>
      <trkpt lat="42.90713" lon="1.38009">
        <ele>866</ele>
        <time>2020-07-27T10:58:30Z</time>
      </trkpt>
      <trkpt lat="42.90718" lon="1.37939">
        <ele>862</ele>
        <time>2020-07-27T10:58:39Z</time>
      </trkpt>
      <trkpt lat="42.90727" lon="1.37907">
        <ele>861</ele>
        <time>2020-07-27T10:58:44Z</time>
      </trkpt>
      <trkpt lat="42.9074" lon="1.3787">
        <ele>860</ele>
        <time>2020-07-27T10:58:49Z</time>
      </trkpt>
      <trkpt lat="42.90755" lon="1.37846">
        <ele>861</ele>
        <time>2020-07-27T10:58:53Z</time>
      </trkpt>
      <trkpt lat="42.90783" lon="1.37806">
        <ele>868</ele>
        <time>2020-07-27T10:59:00Z</time>
      </trkpt>
      <trkpt lat="42.90787" lon="1.37793">
        <ele>870</ele>
        <time>2020-07-27T10:59:02Z</time>
      </trkpt>
      <trkpt lat="42.90786" lon="1.37785">
        <ele>870</ele>
        <time>2020-07-27T10:59:03Z</time>
      </trkpt>
      <trkpt lat="42.90781" lon="1.37776">
        <ele>869</ele>
        <time>2020-07-27T10:59:05Z</time>
      </trkpt>
      <trkpt lat="42.9077" lon="1.37766">
        <ele>866</ele>
        <time>2020-07-27T10:59:07Z</time>
      </trkpt>
      <trkpt lat="42.90718" lon="1.3773">
        <ele>851</ele>
        <time>2020-07-27T10:59:18Z</time>
      </trkpt>
      <trkpt lat="42.90707" lon="1.37718">
        <ele>849</ele>
        <time>2020-07-27T10:59:20Z</time>
      </trkpt>
      <trkpt lat="42.90703" lon="1.37707">
        <ele>848</ele>
        <time>2020-07-27T10:59:22Z</time>
      </trkpt>
      <trkpt lat="42.90704" lon="1.37691">
        <ele>848</ele>
        <time>2020-07-27T10:59:24Z</time>
      </trkpt>
      <trkpt lat="42.90713" lon="1.37654">
        <ele>849</ele>
        <time>2020-07-27T10:59:29Z</time>
      </trkpt>
      <trkpt lat="42.90721" lon="1.37608">
        <ele>845</ele>
        <time>2020-07-27T10:59:35Z</time>
      </trkpt>
      <trkpt lat="42.90721" lon="1.37571">
        <ele>842</ele>
        <time>2020-07-27T10:59:40Z</time>
      </trkpt>
      <trkpt lat="42.90725" lon="1.37552">
        <ele>843</ele>
        <time>2020-07-27T10:59:42Z</time>
      </trkpt>
      <trkpt lat="42.90748" lon="1.37514">
        <ele>849</ele>
        <time>2020-07-27T10:59:49Z</time>
      </trkpt>
      <trkpt lat="42.90749" lon="1.37502">
        <ele>849</ele>
        <time>2020-07-27T10:59:50Z</time>
      </trkpt>
      <trkpt lat="42.90744" lon="1.37492">
        <ele>849</ele>
        <time>2020-07-27T10:59:52Z</time>
      </trkpt>
      <trkpt lat="42.90738" lon="1.37488">
        <ele>848</ele>
        <time>2020-07-27T10:59:53Z</time>
      </trkpt>
      <trkpt lat="42.90688" lon="1.37471">
        <ele>839</ele>
        <time>2020-07-27T11:00:02Z</time>
      </trkpt>
      <trkpt lat="42.90635" lon="1.3745">
        <ele>831</ele>
        <time>2020-07-27T11:00:12Z</time>
      </trkpt>
      <trkpt lat="42.90621" lon="1.3744">
        <ele>829</ele>
        <time>2020-07-27T11:00:15Z</time>
      </trkpt>
      <trkpt lat="42.90613" lon="1.3742">
        <ele>829</ele>
        <time>2020-07-27T11:00:18Z</time>
      </trkpt>
      <trkpt lat="42.90608" lon="1.37383">
        <ele>826</ele>
        <time>2020-07-27T11:00:23Z</time>
      </trkpt>
      <trkpt lat="42.90607" lon="1.3734">
        <ele>823</ele>
        <time>2020-07-27T11:00:28Z</time>
      </trkpt>
      <trkpt lat="42.90609" lon="1.37317">
        <ele>821</ele>
        <time>2020-07-27T11:00:31Z</time>
      </trkpt>
      <trkpt lat="42.90611" lon="1.37309">
        <ele>820</ele>
        <time>2020-07-27T11:00:33Z</time>
      </trkpt>
      <trkpt lat="42.90614" lon="1.37297">
        <ele>819</ele>
        <time>2020-07-27T11:00:34Z</time>
      </trkpt>
      <trkpt lat="42.90625" lon="1.37271">
        <ele>818</ele>
        <time>2020-07-27T11:00:38Z</time>
      </trkpt>
      <trkpt lat="42.90648" lon="1.37241">
        <ele>819</ele>
        <time>2020-07-27T11:00:44Z</time>
      </trkpt>
      <trkpt lat="42.90683" lon="1.37208">
        <ele>821</ele>
        <time>2020-07-27T11:00:51Z</time>
      </trkpt>
      <trkpt lat="42.90706" lon="1.372">
        <ele>825</ele>
        <time>2020-07-27T11:00:56Z</time>
      </trkpt>
      <trkpt lat="42.90711" lon="1.37196">
        <ele>826</ele>
        <time>2020-07-27T11:00:57Z</time>
      </trkpt>
      <trkpt lat="42.90712" lon="1.37189">
        <ele>825</ele>
        <time>2020-07-27T11:00:58Z</time>
      </trkpt>
      <trkpt lat="42.90709" lon="1.37171">
        <ele>821</ele>
        <time>2020-07-27T11:01:00Z</time>
      </trkpt>
      <trkpt lat="42.90702" lon="1.37149">
        <ele>817</ele>
        <time>2020-07-27T11:01:03Z</time>
      </trkpt>
      <trkpt lat="42.90704" lon="1.37126">
        <ele>816</ele>
        <time>2020-07-27T11:01:06Z</time>
      </trkpt>
      <trkpt lat="42.90712" lon="1.37106">
        <ele>816</ele>
        <time>2020-07-27T11:01:09Z</time>
      </trkpt>
      <trkpt lat="42.9072" lon="1.37096">
        <ele>817</ele>
        <time>2020-07-27T11:01:11Z</time>
      </trkpt>
      <trkpt lat="42.90759" lon="1.37081">
        <ele>823</ele>
        <time>2020-07-27T11:01:18Z</time>
      </trkpt>
      <trkpt lat="42.90768" lon="1.3707">
        <ele>828</ele>
        <time>2020-07-27T11:01:20Z</time>
      </trkpt>
      <trkpt lat="42.90771" lon="1.37061">
        <ele>830</ele>
        <time>2020-07-27T11:01:22Z</time>
      </trkpt>
      <trkpt lat="42.9077" lon="1.37051">
        <ele>832</ele>
        <time>2020-07-27T11:01:23Z</time>
      </trkpt>
      <trkpt lat="42.90767" lon="1.37043">
        <ele>833</ele>
        <time>2020-07-27T11:01:24Z</time>
      </trkpt>
      <trkpt lat="42.90757" lon="1.37037">
        <ele>833</ele>
        <time>2020-07-27T11:01:26Z</time>
      </trkpt>
      <trkpt lat="42.9074" lon="1.37044">
        <ele>828</ele>
        <time>2020-07-27T11:01:29Z</time>
      </trkpt>
      <trkpt lat="42.90701" lon="1.37031">
        <ele>824</ele>
        <time>2020-07-27T11:01:36Z</time>
      </trkpt>
      <trkpt lat="42.90671" lon="1.37034">
        <ele>818</ele>
        <time>2020-07-27T11:01:42Z</time>
      </trkpt>
      <trkpt lat="42.90657" lon="1.37031">
        <ele>816</ele>
        <time>2020-07-27T11:01:44Z</time>
      </trkpt>
      <trkpt lat="42.90598" lon="1.3701">
        <ele>807</ele>
        <time>2020-07-27T11:01:55Z</time>
      </trkpt>
      <trkpt lat="42.90576" lon="1.36993">
        <ele>804</ele>
        <time>2020-07-27T11:02:00Z</time>
      </trkpt>
      <trkpt lat="42.90544" lon="1.36956">
        <ele>803</ele>
        <time>2020-07-27T11:02:07Z</time>
      </trkpt>
      <trkpt lat="42.90533" lon="1.36936">
        <ele>803</ele>
        <time>2020-07-27T11:02:10Z</time>
      </trkpt>
      <trkpt lat="42.9052" lon="1.36888">
        <ele>806</ele>
        <time>2020-07-27T11:02:17Z</time>
      </trkpt>
      <trkpt lat="42.90511" lon="1.36879">
        <ele>806</ele>
        <time>2020-07-27T11:02:19Z</time>
      </trkpt>
      <trkpt lat="42.905" lon="1.3688">
        <ele>805</ele>
        <time>2020-07-27T11:02:21Z</time>
      </trkpt>
      <trkpt lat="42.90492" lon="1.36885">
        <ele>804</ele>
        <time>2020-07-27T11:02:22Z</time>
      </trkpt>
      <trkpt lat="42.90487" lon="1.36889">
        <ele>803</ele>
        <time>2020-07-27T11:02:24Z</time>
      </trkpt>
      <trkpt lat="42.90471" lon="1.36898">
        <ele>801</ele>
        <time>2020-07-27T11:02:27Z</time>
      </trkpt>
      <trkpt lat="42.90438" lon="1.36903">
        <ele>799</ele>
        <time>2020-07-27T11:02:33Z</time>
      </trkpt>
      <trkpt lat="42.90415" lon="1.36903">
        <ele>798</ele>
        <time>2020-07-27T11:02:37Z</time>
      </trkpt>
      <trkpt lat="42.904" lon="1.36898">
        <ele>799</ele>
        <time>2020-07-27T11:02:39Z</time>
      </trkpt>
      <trkpt lat="42.90387" lon="1.36889">
        <ele>799</ele>
        <time>2020-07-27T11:02:42Z</time>
      </trkpt>
      <trkpt lat="42.90374" lon="1.36874">
        <ele>798</ele>
        <time>2020-07-27T11:02:45Z</time>
      </trkpt>
      <trkpt lat="42.90371" lon="1.36853">
        <ele>798</ele>
        <time>2020-07-27T11:02:48Z</time>
      </trkpt>
      <trkpt lat="42.90368" lon="1.36815">
        <ele>798</ele>
        <time>2020-07-27T11:02:53Z</time>
      </trkpt>
      <trkpt lat="42.9036" lon="1.36786">
        <ele>796</ele>
        <time>2020-07-27T11:02:57Z</time>
      </trkpt>
      <trkpt lat="42.90353" lon="1.36767">
        <ele>795</ele>
        <time>2020-07-27T11:03:00Z</time>
      </trkpt>
      <trkpt lat="42.90334" lon="1.36738">
        <ele>789</ele>
        <time>2020-07-27T11:03:05Z</time>
      </trkpt>
      <trkpt lat="42.90322" lon="1.3671">
        <ele>787</ele>
        <time>2020-07-27T11:03:09Z</time>
      </trkpt>
      <trkpt lat="42.90322" lon="1.36685">
        <ele>786</ele>
        <time>2020-07-27T11:03:12Z</time>
      </trkpt>
      <trkpt lat="42.90331" lon="1.36624">
        <ele>784</ele>
        <time>2020-07-27T11:03:20Z</time>
      </trkpt>
      <trkpt lat="42.9034" lon="1.366">
        <ele>785</ele>
        <time>2020-07-27T11:03:24Z</time>
      </trkpt>
      <trkpt lat="42.90355" lon="1.36566">
        <ele>787</ele>
        <time>2020-07-27T11:03:29Z</time>
      </trkpt>
      <trkpt lat="42.90356" lon="1.36554">
        <ele>788</ele>
        <time>2020-07-27T11:03:30Z</time>
      </trkpt>
      <trkpt lat="42.90351" lon="1.36542">
        <ele>787</ele>
        <time>2020-07-27T11:03:32Z</time>
      </trkpt>
      <trkpt lat="42.9034" lon="1.36539">
        <ele>785</ele>
        <time>2020-07-27T11:03:34Z</time>
      </trkpt>
      <trkpt lat="42.90313" lon="1.36536">
        <ele>781</ele>
        <time>2020-07-27T11:03:39Z</time>
      </trkpt>
      <trkpt lat="42.90288" lon="1.36525">
        <ele>777</ele>
        <time>2020-07-27T11:03:44Z</time>
      </trkpt>
      <trkpt lat="42.90283" lon="1.36523">
        <ele>776</ele>
        <time>2020-07-27T11:03:45Z</time>
      </trkpt>
      <trkpt lat="42.90276" lon="1.36516">
        <ele>775</ele>
        <time>2020-07-27T11:03:46Z</time>
      </trkpt>
      <trkpt lat="42.90271" lon="1.36501">
        <ele>774</ele>
        <time>2020-07-27T11:03:48Z</time>
      </trkpt>
      <trkpt lat="42.90266" lon="1.36458">
        <ele>776</ele>
        <time>2020-07-27T11:03:54Z</time>
      </trkpt>
      <trkpt lat="42.90258" lon="1.36432">
        <ele>776</ele>
        <time>2020-07-27T11:03:58Z</time>
      </trkpt>
      <trkpt lat="42.90246" lon="1.36418">
        <ele>775</ele>
        <time>2020-07-27T11:04:01Z</time>
      </trkpt>
      <trkpt lat="42.90229" lon="1.36411">
        <ele>772</ele>
        <time>2020-07-27T11:04:04Z</time>
      </trkpt>
      <trkpt lat="42.90208" lon="1.36407">
        <ele>768</ele>
        <time>2020-07-27T11:04:07Z</time>
      </trkpt>
      <trkpt lat="42.90189" lon="1.36398">
        <ele>765</ele>
        <time>2020-07-27T11:04:11Z</time>
      </trkpt>
      <trkpt lat="42.90185" lon="1.36388">
        <ele>764</ele>
        <time>2020-07-27T11:04:13Z</time>
      </trkpt>
      <trkpt lat="42.90185" lon="1.36377">
        <ele>764</ele>
        <time>2020-07-27T11:04:14Z</time>
      </trkpt>
      <trkpt lat="42.90205" lon="1.363">
        <ele>769</ele>
        <time>2020-07-27T11:04:25Z</time>
      </trkpt>
      <trkpt lat="42.90202" lon="1.36287">
        <ele>769</ele>
        <time>2020-07-27T11:04:26Z</time>
      </trkpt>
      <trkpt lat="42.90197" lon="1.36281">
        <ele>769</ele>
        <time>2020-07-27T11:04:28Z</time>
      </trkpt>
      <trkpt lat="42.9019" lon="1.36281">
        <ele>768</ele>
        <time>2020-07-27T11:04:29Z</time>
      </trkpt>
      <trkpt lat="42.90156" lon="1.36299">
        <ele>764</ele>
        <time>2020-07-27T11:04:35Z</time>
      </trkpt>
      <trkpt lat="42.90087" lon="1.36309">
        <ele>759</ele>
        <time>2020-07-27T11:04:48Z</time>
      </trkpt>
      <trkpt lat="42.90069" lon="1.36307">
        <ele>757</ele>
        <time>2020-07-27T11:04:51Z</time>
      </trkpt>
      <trkpt lat="42.90052" lon="1.36302">
        <ele>755</ele>
        <time>2020-07-27T11:04:54Z</time>
      </trkpt>
      <trkpt lat="42.90011" lon="1.36267">
        <ele>752</ele>
        <time>2020-07-27T11:05:03Z</time>
      </trkpt>
      <trkpt lat="42.89964" lon="1.36238">
        <ele>748</ele>
        <time>2020-07-27T11:05:12Z</time>
      </trkpt>
      <trkpt lat="42.89925" lon="1.36218">
        <ele>743</ele>
        <time>2020-07-27T11:05:19Z</time>
      </trkpt>
      <trkpt lat="42.8992" lon="1.36208">
        <ele>743</ele>
        <time>2020-07-27T11:05:21Z</time>
      </trkpt>
      <trkpt lat="42.89918" lon="1.36194">
        <ele>743</ele>
        <time>2020-07-27T11:05:23Z</time>
      </trkpt>
      <trkpt lat="42.89923" lon="1.36179">
        <ele>744</ele>
        <time>2020-07-27T11:05:25Z</time>
      </trkpt>
      <trkpt lat="42.8993" lon="1.36167">
        <ele>745</ele>
        <time>2020-07-27T11:05:27Z</time>
      </trkpt>
      <trkpt lat="42.89971" lon="1.36116">
        <ele>750</ele>
        <time>2020-07-27T11:05:37Z</time>
      </trkpt>
      <trkpt lat="42.89975" lon="1.36088">
        <ele>750</ele>
        <time>2020-07-27T11:05:40Z</time>
      </trkpt>
      <trkpt lat="42.89973" lon="1.36071">
        <ele>750</ele>
        <time>2020-07-27T11:05:43Z</time>
      </trkpt>
      <trkpt lat="42.89969" lon="1.36063">
        <ele>751</ele>
        <time>2020-07-27T11:05:44Z</time>
      </trkpt>
      <trkpt lat="42.8996" lon="1.36059">
        <ele>751</ele>
        <time>2020-07-27T11:05:46Z</time>
      </trkpt>
      <trkpt lat="42.89951" lon="1.36067">
        <ele>750</ele>
        <time>2020-07-27T11:05:47Z</time>
      </trkpt>
      <trkpt lat="42.8994" lon="1.36089">
        <ele>747</ele>
        <time>2020-07-27T11:05:51Z</time>
      </trkpt>
      <trkpt lat="42.89927" lon="1.36102">
        <ele>746</ele>
        <time>2020-07-27T11:05:54Z</time>
      </trkpt>
      <trkpt lat="42.89872" lon="1.36135">
        <ele>740</ele>
        <time>2020-07-27T11:06:04Z</time>
      </trkpt>
      <trkpt lat="42.89852" lon="1.36142">
        <ele>737</ele>
        <time>2020-07-27T11:06:08Z</time>
      </trkpt>
      <trkpt lat="42.89816" lon="1.36139">
        <ele>734</ele>
        <time>2020-07-27T11:06:15Z</time>
      </trkpt>
      <trkpt lat="42.89803" lon="1.36136">
        <ele>734</ele>
        <time>2020-07-27T11:06:17Z</time>
      </trkpt>
      <trkpt lat="42.89793" lon="1.36124">
        <ele>734</ele>
        <time>2020-07-27T11:06:19Z</time>
      </trkpt>
      <trkpt lat="42.89764" lon="1.36083">
        <ele>734</ele>
        <time>2020-07-27T11:06:27Z</time>
      </trkpt>
      <trkpt lat="42.89737" lon="1.36065">
        <ele>734</ele>
        <time>2020-07-27T11:06:32Z</time>
      </trkpt>
      <trkpt lat="42.89714" lon="1.36037">
        <ele>735</ele>
        <time>2020-07-27T11:06:38Z</time>
      </trkpt>
      <trkpt lat="42.89694" lon="1.36024">
        <ele>734</ele>
        <time>2020-07-27T11:06:41Z</time>
      </trkpt>
      <trkpt lat="42.89671" lon="1.36017">
        <ele>730</ele>
        <time>2020-07-27T11:06:46Z</time>
      </trkpt>
      <trkpt lat="42.89647" lon="1.36019">
        <ele>724</ele>
        <time>2020-07-27T11:06:50Z</time>
      </trkpt>
      <trkpt lat="42.89576" lon="1.36037">
        <ele>709</ele>
        <time>2020-07-27T11:07:03Z</time>
      </trkpt>
      <trkpt lat="42.89563" lon="1.36035">
        <ele>707</ele>
        <time>2020-07-27T11:07:05Z</time>
      </trkpt>
      <trkpt lat="42.8955" lon="1.3602">
        <ele>705</ele>
        <time>2020-07-27T11:07:08Z</time>
      </trkpt>
      <trkpt lat="42.89541" lon="1.36003">
        <ele>704</ele>
        <time>2020-07-27T11:07:11Z</time>
      </trkpt>
      <trkpt lat="42.89539" lon="1.35983">
        <ele>704</ele>
        <time>2020-07-27T11:07:14Z</time>
      </trkpt>
      <trkpt lat="42.89544" lon="1.35952">
        <ele>706</ele>
        <time>2020-07-27T11:07:18Z</time>
      </trkpt>
      <trkpt lat="42.89557" lon="1.35903">
        <ele>710</ele>
        <time>2020-07-27T11:07:24Z</time>
      </trkpt>
      <trkpt lat="42.89558" lon="1.35869">
        <ele>709</ele>
        <time>2020-07-27T11:07:29Z</time>
      </trkpt>
      <trkpt lat="42.89554" lon="1.35842">
        <ele>706</ele>
        <time>2020-07-27T11:07:32Z</time>
      </trkpt>
      <trkpt lat="42.89552" lon="1.35793">
        <ele>704</ele>
        <time>2020-07-27T11:07:39Z</time>
      </trkpt>
      <trkpt lat="42.89557" lon="1.35704">
        <ele>703</ele>
        <time>2020-07-27T11:07:51Z</time>
      </trkpt>
      <trkpt lat="42.89552" lon="1.35578">
        <ele>691</ele>
        <time>2020-07-27T11:08:07Z</time>
      </trkpt>
      <trkpt lat="42.89549" lon="1.35541">
        <ele>687</ele>
        <time>2020-07-27T11:08:12Z</time>
      </trkpt>
      <trkpt lat="42.89543" lon="1.35508">
        <ele>682</ele>
        <time>2020-07-27T11:08:16Z</time>
      </trkpt>
      <trkpt lat="42.89531" lon="1.35478">
        <ele>678</ele>
        <time>2020-07-27T11:08:21Z</time>
      </trkpt>
      <trkpt lat="42.89514" lon="1.35442">
        <ele>674</ele>
        <time>2020-07-27T11:08:26Z</time>
      </trkpt>
      <trkpt lat="42.89508" lon="1.35413">
        <ele>674</ele>
        <time>2020-07-27T11:08:30Z</time>
      </trkpt>
      <trkpt lat="42.89495" lon="1.35371">
        <ele>674</ele>
        <time>2020-07-27T11:08:36Z</time>
      </trkpt>
      <trkpt lat="42.89456" lon="1.35323">
        <ele>669</ele>
        <time>2020-07-27T11:08:45Z</time>
      </trkpt>
      <trkpt lat="42.89433" lon="1.35248">
        <ele>663</ele>
        <time>2020-07-27T11:08:56Z</time>
      </trkpt>
      <trkpt lat="42.89392" lon="1.35209">
        <ele>658</ele>
        <time>2020-07-27T11:09:05Z</time>
      </trkpt>
      <trkpt lat="42.89383" lon="1.35195">
        <ele>657</ele>
        <time>2020-07-27T11:09:07Z</time>
      </trkpt>
      <trkpt lat="42.89381" lon="1.35179">
        <ele>656</ele>
        <time>2020-07-27T11:09:10Z</time>
      </trkpt>
      <trkpt lat="42.89389" lon="1.35167">
        <ele>656</ele>
        <time>2020-07-27T11:09:12Z</time>
      </trkpt>
      <trkpt lat="42.89403" lon="1.35164">
        <ele>657</ele>
        <time>2020-07-27T11:09:14Z</time>
      </trkpt>
      <trkpt lat="42.89417" lon="1.35164">
        <ele>658</ele>
        <time>2020-07-27T11:09:17Z</time>
      </trkpt>
      <trkpt lat="42.8943" lon="1.35173">
        <ele>659</ele>
        <time>2020-07-27T11:09:19Z</time>
      </trkpt>
      <trkpt lat="42.89447" lon="1.3521">
        <ele>662</ele>
        <time>2020-07-27T11:09:25Z</time>
      </trkpt>
      <trkpt lat="42.89455" lon="1.35219">
        <ele>664</ele>
        <time>2020-07-27T11:09:27Z</time>
      </trkpt>
      <trkpt lat="42.89464" lon="1.35218">
        <ele>664</ele>
        <time>2020-07-27T11:09:28Z</time>
      </trkpt>
      <trkpt lat="42.89471" lon="1.35212">
        <ele>664</ele>
        <time>2020-07-27T11:09:30Z</time>
      </trkpt>
      <trkpt lat="42.89474" lon="1.35204">
        <ele>664</ele>
        <time>2020-07-27T11:09:31Z</time>
      </trkpt>
      <trkpt lat="42.89473" lon="1.35141">
        <ele>661</ele>
        <time>2020-07-27T11:09:39Z</time>
      </trkpt>
      <trkpt lat="42.89466" lon="1.35129">
        <ele>661</ele>
        <time>2020-07-27T11:09:41Z</time>
      </trkpt>
      <trkpt lat="42.89416" lon="1.35121">
        <ele>657</ele>
        <time>2020-07-27T11:09:50Z</time>
      </trkpt>
      <trkpt lat="42.89378" lon="1.35108">
        <ele>651</ele>
        <time>2020-07-27T11:09:57Z</time>
      </trkpt>
      <trkpt lat="42.89358" lon="1.35094">
        <ele>647</ele>
        <time>2020-07-27T11:10:01Z</time>
      </trkpt>
      <trkpt lat="42.8934" lon="1.35077">
        <ele>643</ele>
        <time>2020-07-27T11:10:05Z</time>
      </trkpt>
      <trkpt lat="42.89322" lon="1.35053">
        <ele>641</ele>
        <time>2020-07-27T11:10:10Z</time>
      </trkpt>
      <trkpt lat="42.89317" lon="1.35039">
        <ele>640</ele>
        <time>2020-07-27T11:10:12Z</time>
      </trkpt>
      <trkpt lat="42.89318" lon="1.34998">
        <ele>640</ele>
        <time>2020-07-27T11:10:17Z</time>
      </trkpt>
      <trkpt lat="42.89312" lon="1.34985">
        <ele>638</ele>
        <time>2020-07-27T11:10:19Z</time>
      </trkpt>
      <trkpt lat="42.89294" lon="1.34969">
        <ele>635</ele>
        <time>2020-07-27T11:10:23Z</time>
      </trkpt>
      <trkpt lat="42.89238" lon="1.34935">
        <ele>628</ele>
        <time>2020-07-27T11:10:34Z</time>
      </trkpt>
      <trkpt lat="42.89215" lon="1.3492">
        <ele>629</ele>
        <time>2020-07-27T11:10:38Z</time>
      </trkpt>
      <trkpt lat="42.88992" lon="1.34778">
        <ele>649</ele>
        <time>2020-07-27T11:11:22Z</time>
      </trkpt>
      <trkpt lat="42.88955" lon="1.34757">
        <ele>652</ele>
        <time>2020-07-27T11:11:29Z</time>
      </trkpt>
      <trkpt lat="42.8894" lon="1.34745">
        <ele>654</ele>
        <time>2020-07-27T11:11:32Z</time>
      </trkpt>
      <trkpt lat="42.88938" lon="1.3474">
        <ele>654</ele>
        <time>2020-07-27T11:11:33Z</time>
      </trkpt>
      <trkpt lat="42.88938" lon="1.34693">
        <ele>654</ele>
        <time>2020-07-27T11:11:39Z</time>
      </trkpt>
      <trkpt lat="42.88902" lon="1.34719">
        <ele>657</ele>
        <time>2020-07-27T11:11:46Z</time>
      </trkpt>
      <trkpt lat="42.88885" lon="1.34721">
        <ele>658</ele>
        <time>2020-07-27T11:11:49Z</time>
      </trkpt>
      <trkpt lat="42.8887" lon="1.34725">
        <ele>659</ele>
        <time>2020-07-27T11:11:52Z</time>
      </trkpt>
      <trkpt lat="42.88843" lon="1.34749">
        <ele>660</ele>
        <time>2020-07-27T11:11:58Z</time>
      </trkpt>
      <trkpt lat="42.88805" lon="1.34746">
        <ele>662</ele>
        <time>2020-07-27T11:12:05Z</time>
      </trkpt>
      <trkpt lat="42.88793" lon="1.34747">
        <ele>663</ele>
        <time>2020-07-27T11:12:07Z</time>
      </trkpt>
      <trkpt lat="42.88788" lon="1.34749">
        <ele>663</ele>
        <time>2020-07-27T11:12:08Z</time>
      </trkpt>
      <trkpt lat="42.88774" lon="1.34761">
        <ele>664</ele>
        <time>2020-07-27T11:12:11Z</time>
      </trkpt>
      <trkpt lat="42.88767" lon="1.3478">
        <ele>664</ele>
        <time>2020-07-27T11:12:13Z</time>
      </trkpt>
      <trkpt lat="42.88769" lon="1.34788">
        <ele>664</ele>
        <time>2020-07-27T11:12:14Z</time>
      </trkpt>
      <trkpt lat="42.88776" lon="1.34795">
        <ele>663</ele>
        <time>2020-07-27T11:12:16Z</time>
      </trkpt>
      <trkpt lat="42.88776" lon="1.348">
        <ele>663</ele>
        <time>2020-07-27T11:12:17Z</time>
      </trkpt>
      <trkpt lat="42.88761" lon="1.34857">
        <ele>662</ele>
        <time>2020-07-27T11:12:25Z</time>
      </trkpt>
      <trkpt lat="42.88736" lon="1.34929">
        <ele>661</ele>
        <time>2020-07-27T11:12:35Z</time>
      </trkpt>
      <trkpt lat="42.88704" lon="1.34991">
        <ele>660</ele>
        <time>2020-07-27T11:12:45Z</time>
      </trkpt>
      <trkpt lat="42.88648" lon="1.35072">
        <ele>660</ele>
        <time>2020-07-27T11:12:59Z</time>
      </trkpt>
      <trkpt lat="42.88615" lon="1.35114">
        <ele>660</ele>
        <time>2020-07-27T11:13:07Z</time>
      </trkpt>
      <trkpt lat="42.88604" lon="1.35123">
        <ele>660</ele>
        <time>2020-07-27T11:13:10Z</time>
      </trkpt>
      <trkpt lat="42.88578" lon="1.35135">
        <ele>660</ele>
        <time>2020-07-27T11:13:15Z</time>
      </trkpt>
      <trkpt lat="42.88557" lon="1.35162">
        <ele>663</ele>
        <time>2020-07-27T11:13:20Z</time>
      </trkpt>
      <trkpt lat="42.88555" lon="1.35177">
        <ele>662</ele>
        <time>2020-07-27T11:13:22Z</time>
      </trkpt>
      <trkpt lat="42.88579" lon="1.35269">
        <ele>657</ele>
        <time>2020-07-27T11:13:34Z</time>
      </trkpt>
      <trkpt lat="42.8858" lon="1.35291">
        <ele>657</ele>
        <time>2020-07-27T11:13:37Z</time>
      </trkpt>
      <trkpt lat="42.88576" lon="1.35312">
        <ele>658</ele>
        <time>2020-07-27T11:13:40Z</time>
      </trkpt>
      <trkpt lat="42.88516" lon="1.35551">
        <ele>661</ele>
        <time>2020-07-27T11:14:13Z</time>
      </trkpt>
      <trkpt lat="42.88481" lon="1.35646">
        <ele>660</ele>
        <time>2020-07-27T11:14:27Z</time>
      </trkpt>
      <trkpt lat="42.88476" lon="1.3567">
        <ele>659</ele>
        <time>2020-07-27T11:14:30Z</time>
      </trkpt>
      <trkpt lat="42.88484" lon="1.35744">
        <ele>652</ele>
        <time>2020-07-27T11:14:40Z</time>
      </trkpt>
      <trkpt lat="42.88484" lon="1.35761">
        <ele>651</ele>
        <time>2020-07-27T11:14:42Z</time>
      </trkpt>
      <trkpt lat="42.8848" lon="1.35788">
        <ele>651</ele>
        <time>2020-07-27T11:14:46Z</time>
      </trkpt>
      <trkpt lat="42.88474" lon="1.35808">
        <ele>651</ele>
        <time>2020-07-27T11:14:49Z</time>
      </trkpt>
      <trkpt lat="42.88465" lon="1.35818">
        <ele>652</ele>
        <time>2020-07-27T11:14:51Z</time>
      </trkpt>
      <trkpt lat="42.88456" lon="1.35823">
        <ele>652</ele>
        <time>2020-07-27T11:14:52Z</time>
      </trkpt>
      <trkpt lat="42.88367" lon="1.35834">
        <ele>658</ele>
        <time>2020-07-27T11:15:08Z</time>
      </trkpt>
      <trkpt lat="42.88335" lon="1.35841">
        <ele>662</ele>
        <time>2020-07-27T11:15:14Z</time>
      </trkpt>
      <trkpt lat="42.88317" lon="1.35841">
        <ele>666</ele>
        <time>2020-07-27T11:15:17Z</time>
      </trkpt>
      <trkpt lat="42.88296" lon="1.35838">
        <ele>671</ele>
        <time>2020-07-27T11:15:21Z</time>
      </trkpt>
      <trkpt lat="42.88235" lon="1.35826">
        <ele>679</ele>
        <time>2020-07-27T11:15:32Z</time>
      </trkpt>
      <trkpt lat="42.88188" lon="1.35806">
        <ele>676</ele>
        <time>2020-07-27T11:15:41Z</time>
      </trkpt>
      <trkpt lat="42.88153" lon="1.35804">
        <ele>675</ele>
        <time>2020-07-27T11:15:47Z</time>
      </trkpt>
      <trkpt lat="42.88091" lon="1.35848">
        <ele>679</ele>
        <time>2020-07-27T11:15:59Z</time>
      </trkpt>
      <trkpt lat="42.88076" lon="1.35863">
        <ele>682</ele>
        <time>2020-07-27T11:16:03Z</time>
      </trkpt>
      <trkpt lat="42.88062" lon="1.35865">
        <ele>682</ele>
        <time>2020-07-27T11:16:05Z</time>
      </trkpt>
      <trkpt lat="42.88032" lon="1.35843">
        <ele>678</ele>
        <time>2020-07-27T11:16:11Z</time>
      </trkpt>
      <trkpt lat="42.87999" lon="1.35842">
        <ele>678</ele>
        <time>2020-07-27T11:16:17Z</time>
      </trkpt>
      <trkpt lat="42.87991" lon="1.35844">
        <ele>678</ele>
        <time>2020-07-27T11:16:19Z</time>
      </trkpt>
      <trkpt lat="42.87985" lon="1.35849">
        <ele>678</ele>
        <time>2020-07-27T11:16:20Z</time>
      </trkpt>
      <trkpt lat="42.87973" lon="1.3589">
        <ele>683</ele>
        <time>2020-07-27T11:16:26Z</time>
      </trkpt>
      <trkpt lat="42.87956" lon="1.35924">
        <ele>685</ele>
        <time>2020-07-27T11:16:31Z</time>
      </trkpt>
      <trkpt lat="42.87926" lon="1.35968">
        <ele>692</ele>
        <time>2020-07-27T11:16:39Z</time>
      </trkpt>
      <trkpt lat="42.87889" lon="1.35996">
        <ele>692</ele>
        <time>2020-07-27T11:16:46Z</time>
      </trkpt>
      <trkpt lat="42.87858" lon="1.36029">
        <ele>692</ele>
        <time>2020-07-27T11:16:53Z</time>
      </trkpt>
      <trkpt lat="42.87838" lon="1.36061">
        <ele>694</ele>
        <time>2020-07-27T11:16:59Z</time>
      </trkpt>
      <trkpt lat="42.87816" lon="1.36108">
        <ele>698</ele>
        <time>2020-07-27T11:17:06Z</time>
      </trkpt>
      <trkpt lat="42.878" lon="1.36172">
        <ele>701</ele>
        <time>2020-07-27T11:17:15Z</time>
      </trkpt>
      <trkpt lat="42.8779" lon="1.36222">
        <ele>700</ele>
        <time>2020-07-27T11:17:22Z</time>
      </trkpt>
      <trkpt lat="42.87787" lon="1.36272">
        <ele>702</ele>
        <time>2020-07-27T11:17:28Z</time>
      </trkpt>
      <trkpt lat="42.87787" lon="1.36328">
        <ele>707</ele>
        <time>2020-07-27T11:17:35Z</time>
      </trkpt>
      <trkpt lat="42.87779" lon="1.36357">
        <ele>711</ele>
        <time>2020-07-27T11:17:39Z</time>
      </trkpt>
      <trkpt lat="42.87764" lon="1.36384">
        <ele>713</ele>
        <time>2020-07-27T11:17:44Z</time>
      </trkpt>
      <trkpt lat="42.87743" lon="1.36406">
        <ele>712</ele>
        <time>2020-07-27T11:17:49Z</time>
      </trkpt>
      <trkpt lat="42.87723" lon="1.36418">
        <ele>711</ele>
        <time>2020-07-27T11:17:52Z</time>
      </trkpt>
      <trkpt lat="42.87606" lon="1.36446">
        <ele>700</ele>
        <time>2020-07-27T11:18:14Z</time>
      </trkpt>
      <trkpt lat="42.87587" lon="1.36462">
        <ele>702</ele>
        <time>2020-07-27T11:18:18Z</time>
      </trkpt>
      <trkpt lat="42.87542" lon="1.36524">
        <ele>706</ele>
        <time>2020-07-27T11:18:29Z</time>
      </trkpt>
      <trkpt lat="42.87519" lon="1.36565">
        <ele>705</ele>
        <time>2020-07-27T11:18:36Z</time>
      </trkpt>
      <trkpt lat="42.87501" lon="1.36613">
        <ele>705</ele>
        <time>2020-07-27T11:18:43Z</time>
      </trkpt>
      <trkpt lat="42.87492" lon="1.36631">
        <ele>706</ele>
        <time>2020-07-27T11:18:46Z</time>
      </trkpt>
      <trkpt lat="42.87466" lon="1.36656">
        <ele>705</ele>
        <time>2020-07-27T11:18:51Z</time>
      </trkpt>
      <trkpt lat="42.87447" lon="1.36678">
        <ele>703</ele>
        <time>2020-07-27T11:18:56Z</time>
      </trkpt>
      <trkpt lat="42.87427" lon="1.36714">
        <ele>702</ele>
        <time>2020-07-27T11:19:02Z</time>
      </trkpt>
      <trkpt lat="42.87369" lon="1.36809">
        <ele>706</ele>
        <time>2020-07-27T11:19:18Z</time>
      </trkpt>
      <trkpt lat="42.87216" lon="1.37129">
        <ele>709</ele>
        <time>2020-07-27T11:20:08Z</time>
      </trkpt>
      <trkpt lat="42.87183" lon="1.37183">
        <ele>710</ele>
        <time>2020-07-27T11:20:17Z</time>
      </trkpt>
      <trkpt lat="42.87169" lon="1.372">
        <ele>711</ele>
        <time>2020-07-27T11:20:20Z</time>
      </trkpt>
      <trkpt lat="42.87157" lon="1.37211">
        <ele>712</ele>
        <time>2020-07-27T11:20:23Z</time>
      </trkpt>
      <trkpt lat="42.87124" lon="1.37235">
        <ele>713</ele>
        <time>2020-07-27T11:20:29Z</time>
      </trkpt>
      <trkpt lat="42.87106" lon="1.37256">
        <ele>714</ele>
        <time>2020-07-27T11:20:33Z</time>
      </trkpt>
      <trkpt lat="42.87096" lon="1.37262">
        <ele>714</ele>
        <time>2020-07-27T11:20:35Z</time>
      </trkpt>
      <trkpt lat="42.87082" lon="1.37267">
        <ele>713</ele>
        <time>2020-07-27T11:20:38Z</time>
      </trkpt>
      <trkpt lat="42.87064" lon="1.37269">
        <ele>714</ele>
        <time>2020-07-27T11:20:41Z</time>
      </trkpt>
      <trkpt lat="42.87001" lon="1.37265">
        <ele>713</ele>
        <time>2020-07-27T11:20:52Z</time>
      </trkpt>
      <trkpt lat="42.86958" lon="1.37256">
        <ele>713</ele>
        <time>2020-07-27T11:21:00Z</time>
      </trkpt>
      <trkpt lat="42.86893" lon="1.37237">
        <ele>717</ele>
        <time>2020-07-27T11:21:12Z</time>
      </trkpt>
      <trkpt lat="42.86863" lon="1.37235">
        <ele>719</ele>
        <time>2020-07-27T11:21:17Z</time>
      </trkpt>
      <trkpt lat="42.86834" lon="1.37238">
        <ele>721</ele>
        <time>2020-07-27T11:21:22Z</time>
      </trkpt>
      <trkpt lat="42.86812" lon="1.37246">
        <ele>720</ele>
        <time>2020-07-27T11:21:27Z</time>
      </trkpt>
      <trkpt lat="42.86795" lon="1.37256">
        <ele>720</ele>
        <time>2020-07-27T11:21:30Z</time>
      </trkpt>
      <trkpt lat="42.86747" lon="1.37298">
        <ele>728</ele>
        <time>2020-07-27T11:21:40Z</time>
      </trkpt>
      <trkpt lat="42.86674" lon="1.37335">
        <ele>729</ele>
        <time>2020-07-27T11:21:54Z</time>
      </trkpt>
      <trkpt lat="42.86609" lon="1.37377">
        <ele>737</ele>
        <time>2020-07-27T11:22:07Z</time>
      </trkpt>
      <trkpt lat="42.86597" lon="1.37394">
        <ele>738</ele>
        <time>2020-07-27T11:22:10Z</time>
      </trkpt>
      <trkpt lat="42.86575" lon="1.37432">
        <ele>740</ele>
        <time>2020-07-27T11:22:16Z</time>
      </trkpt>
      <trkpt lat="42.86565" lon="1.37442">
        <ele>742</ele>
        <time>2020-07-27T11:22:18Z</time>
      </trkpt>
      <trkpt lat="42.86538" lon="1.3745">
        <ele>742</ele>
        <time>2020-07-27T11:22:23Z</time>
      </trkpt>
      <trkpt lat="42.86519" lon="1.37446">
        <ele>741</ele>
        <time>2020-07-27T11:22:27Z</time>
      </trkpt>
      <trkpt lat="42.86503" lon="1.37439">
        <ele>740</ele>
        <time>2020-07-27T11:22:30Z</time>
      </trkpt>
      <trkpt lat="42.86497" lon="1.37435">
        <ele>741</ele>
        <time>2020-07-27T11:22:31Z</time>
      </trkpt>
      <trkpt lat="42.86492" lon="1.37426">
        <ele>742</ele>
        <time>2020-07-27T11:22:32Z</time>
      </trkpt>
      <trkpt lat="42.86475" lon="1.3738">
        <ele>745</ele>
        <time>2020-07-27T11:22:39Z</time>
      </trkpt>
      <trkpt lat="42.86472" lon="1.37365">
        <ele>745</ele>
        <time>2020-07-27T11:22:41Z</time>
      </trkpt>
      <trkpt lat="42.86474" lon="1.37342">
        <ele>743</ele>
        <time>2020-07-27T11:22:44Z</time>
      </trkpt>
      <trkpt lat="42.86493" lon="1.3728">
        <ele>736</ele>
        <time>2020-07-27T11:22:53Z</time>
      </trkpt>
      <trkpt lat="42.86496" lon="1.37267">
        <ele>735</ele>
        <time>2020-07-27T11:22:55Z</time>
      </trkpt>
      <trkpt lat="42.86493" lon="1.37246">
        <ele>736</ele>
        <time>2020-07-27T11:22:57Z</time>
      </trkpt>
      <trkpt lat="42.86488" lon="1.37234">
        <ele>738</ele>
        <time>2020-07-27T11:22:59Z</time>
      </trkpt>
      <trkpt lat="42.86461" lon="1.37197">
        <ele>744</ele>
        <time>2020-07-27T11:23:06Z</time>
      </trkpt>
      <trkpt lat="42.86445" lon="1.37179">
        <ele>744</ele>
        <time>2020-07-27T11:23:10Z</time>
      </trkpt>
      <trkpt lat="42.86408" lon="1.37155">
        <ele>747</ele>
        <time>2020-07-27T11:23:17Z</time>
      </trkpt>
      <trkpt lat="42.86386" lon="1.37151">
        <ele>747</ele>
        <time>2020-07-27T11:23:21Z</time>
      </trkpt>
      <trkpt lat="42.86368" lon="1.37154">
        <ele>747</ele>
        <time>2020-07-27T11:23:24Z</time>
      </trkpt>
      <trkpt lat="42.86324" lon="1.37171">
        <ele>748</ele>
        <time>2020-07-27T11:23:32Z</time>
      </trkpt>
      <trkpt lat="42.86312" lon="1.37173">
        <ele>751</ele>
        <time>2020-07-27T11:23:34Z</time>
      </trkpt>
      <trkpt lat="42.86302" lon="1.37172">
        <ele>752</ele>
        <time>2020-07-27T11:23:36Z</time>
      </trkpt>
      <trkpt lat="42.8628" lon="1.37163">
        <ele>754</ele>
        <time>2020-07-27T11:23:40Z</time>
      </trkpt>
      <trkpt lat="42.86271" lon="1.37156">
        <ele>755</ele>
        <time>2020-07-27T11:23:42Z</time>
      </trkpt>
      <trkpt lat="42.86263" lon="1.37145">
        <ele>755</ele>
        <time>2020-07-27T11:23:44Z</time>
      </trkpt>
      <trkpt lat="42.86256" lon="1.37133">
        <ele>755</ele>
        <time>2020-07-27T11:23:46Z</time>
      </trkpt>
      <trkpt lat="42.86235" lon="1.37077">
        <ele>753</ele>
        <time>2020-07-27T11:23:54Z</time>
      </trkpt>
      <trkpt lat="42.86219" lon="1.37046">
        <ele>757</ele>
        <time>2020-07-27T11:23:59Z</time>
      </trkpt>
      <trkpt lat="42.86192" lon="1.37012">
        <ele>755</ele>
        <time>2020-07-27T11:24:06Z</time>
      </trkpt>
      <trkpt lat="42.86182" lon="1.37003">
        <ele>754</ele>
        <time>2020-07-27T11:24:08Z</time>
      </trkpt>
      <trkpt lat="42.86171" lon="1.37002">
        <ele>752</ele>
        <time>2020-07-27T11:24:10Z</time>
      </trkpt>
      <trkpt lat="42.86159" lon="1.37003">
        <ele>752</ele>
        <time>2020-07-27T11:24:12Z</time>
      </trkpt>
      <trkpt lat="42.86139" lon="1.37011">
        <ele>754</ele>
        <time>2020-07-27T11:24:16Z</time>
      </trkpt>
      <trkpt lat="42.86132" lon="1.37017">
        <ele>755</ele>
        <time>2020-07-27T11:24:17Z</time>
      </trkpt>
      <trkpt lat="42.86106" lon="1.37055">
        <ele>758</ele>
        <time>2020-07-27T11:24:24Z</time>
      </trkpt>
      <trkpt lat="42.8607" lon="1.37099">
        <ele>764</ele>
        <time>2020-07-27T11:24:33Z</time>
      </trkpt>
      <trkpt lat="42.86047" lon="1.3711">
        <ele>767</ele>
        <time>2020-07-27T11:24:37Z</time>
      </trkpt>
      <trkpt lat="42.86014" lon="1.37111">
        <ele>764</ele>
        <time>2020-07-27T11:24:43Z</time>
      </trkpt>
      <trkpt lat="42.85973" lon="1.37104">
        <ele>761</ele>
        <time>2020-07-27T11:24:50Z</time>
      </trkpt>
      <trkpt lat="42.85938" lon="1.37116">
        <ele>765</ele>
        <time>2020-07-27T11:24:57Z</time>
      </trkpt>
      <trkpt lat="42.85903" lon="1.37133">
        <ele>771</ele>
        <time>2020-07-27T11:25:03Z</time>
      </trkpt>
      <trkpt lat="42.85878" lon="1.37137">
        <ele>772</ele>
        <time>2020-07-27T11:25:08Z</time>
      </trkpt>
      <trkpt lat="42.85823" lon="1.37135">
        <ele>772</ele>
        <time>2020-07-27T11:25:17Z</time>
      </trkpt>
      <trkpt lat="42.85782" lon="1.37125">
        <ele>773</ele>
        <time>2020-07-27T11:25:25Z</time>
      </trkpt>
      <trkpt lat="42.85758" lon="1.37115">
        <ele>773</ele>
        <time>2020-07-27T11:25:29Z</time>
      </trkpt>
      <trkpt lat="42.85683" lon="1.37105">
        <ele>782</ele>
        <time>2020-07-27T11:25:43Z</time>
      </trkpt>
      <trkpt lat="42.85671" lon="1.37097">
        <ele>781</ele>
        <time>2020-07-27T11:25:45Z</time>
      </trkpt>
      <trkpt lat="42.85654" lon="1.3708">
        <ele>783</ele>
        <time>2020-07-27T11:25:49Z</time>
      </trkpt>
      <trkpt lat="42.85627" lon="1.37031">
        <ele>784</ele>
        <time>2020-07-27T11:25:57Z</time>
      </trkpt>
      <trkpt lat="42.85598" lon="1.37002">
        <ele>782</ele>
        <time>2020-07-27T11:26:03Z</time>
      </trkpt>
      <trkpt lat="42.85574" lon="1.36983">
        <ele>781</ele>
        <time>2020-07-27T11:26:08Z</time>
      </trkpt>
      <trkpt lat="42.85552" lon="1.36978">
        <ele>781</ele>
        <time>2020-07-27T11:26:12Z</time>
      </trkpt>
      <trkpt lat="42.85538" lon="1.36977">
        <ele>782</ele>
        <time>2020-07-27T11:26:15Z</time>
      </trkpt>
      <trkpt lat="42.85521" lon="1.36986">
        <ele>785</ele>
        <time>2020-07-27T11:26:18Z</time>
      </trkpt>
      <trkpt lat="42.85497" lon="1.37007">
        <ele>791</ele>
        <time>2020-07-27T11:26:23Z</time>
      </trkpt>
      <trkpt lat="42.85478" lon="1.37026">
        <ele>798</ele>
        <time>2020-07-27T11:26:27Z</time>
      </trkpt>
      <trkpt lat="42.854" lon="1.37076">
        <ele>800</ele>
        <time>2020-07-27T11:26:42Z</time>
      </trkpt>
      <trkpt lat="42.85344" lon="1.37124">
        <ele>807</ele>
        <time>2020-07-27T11:26:54Z</time>
      </trkpt>
      <trkpt lat="42.85329" lon="1.37141">
        <ele>809</ele>
        <time>2020-07-27T11:26:58Z</time>
      </trkpt>
      <trkpt lat="42.85314" lon="1.37162">
        <ele>813</ele>
        <time>2020-07-27T11:27:02Z</time>
      </trkpt>
      <trkpt lat="42.85297" lon="1.37178">
        <ele>816</ele>
        <time>2020-07-27T11:27:05Z</time>
      </trkpt>
      <trkpt lat="42.85242" lon="1.37217">
        <ele>817</ele>
        <time>2020-07-27T11:27:16Z</time>
      </trkpt>
      <trkpt lat="42.85199" lon="1.37233">
        <ele>817</ele>
        <time>2020-07-27T11:27:24Z</time>
      </trkpt>
      <trkpt lat="42.85177" lon="1.37233">
        <ele>815</ele>
        <time>2020-07-27T11:27:28Z</time>
      </trkpt>
      <trkpt lat="42.85168" lon="1.37228">
        <ele>813</ele>
        <time>2020-07-27T11:27:30Z</time>
      </trkpt>
      <trkpt lat="42.85158" lon="1.37215">
        <ele>813</ele>
        <time>2020-07-27T11:27:32Z</time>
      </trkpt>
      <trkpt lat="42.85139" lon="1.37197">
        <ele>813</ele>
        <time>2020-07-27T11:27:36Z</time>
      </trkpt>
      <trkpt lat="42.85083" lon="1.37163">
        <ele>817</ele>
        <time>2020-07-27T11:27:47Z</time>
      </trkpt>
      <trkpt lat="42.85062" lon="1.37155">
        <ele>821</ele>
        <time>2020-07-27T11:27:51Z</time>
      </trkpt>
      <trkpt lat="42.84959" lon="1.37162">
        <ele>822</ele>
        <time>2020-07-27T11:28:10Z</time>
      </trkpt>
      <trkpt lat="42.84926" lon="1.37161">
        <ele>823</ele>
        <time>2020-07-27T11:28:15Z</time>
      </trkpt>
      <trkpt lat="42.84874" lon="1.37168">
        <ele>825</ele>
        <time>2020-07-27T11:28:25Z</time>
      </trkpt>
      <trkpt lat="42.84848" lon="1.37175">
        <ele>828</ele>
        <time>2020-07-27T11:28:29Z</time>
      </trkpt>
      <trkpt lat="42.848" lon="1.37191">
        <ele>832</ele>
        <time>2020-07-27T11:28:38Z</time>
      </trkpt>
      <trkpt lat="42.8471" lon="1.37211">
        <ele>839</ele>
        <time>2020-07-27T11:28:54Z</time>
      </trkpt>
      <trkpt lat="42.84671" lon="1.37242">
        <ele>839</ele>
        <time>2020-07-27T11:29:02Z</time>
      </trkpt>
      <trkpt lat="42.84632" lon="1.37267">
        <ele>847</ele>
        <time>2020-07-27T11:29:10Z</time>
      </trkpt>
      <trkpt lat="42.8462" lon="1.37283">
        <ele>849</ele>
        <time>2020-07-27T11:29:13Z</time>
      </trkpt>
      <trkpt lat="42.84596" lon="1.3733">
        <ele>848</ele>
        <time>2020-07-27T11:29:21Z</time>
      </trkpt>
      <trkpt lat="42.84566" lon="1.37371">
        <ele>852</ele>
        <time>2020-07-27T11:29:28Z</time>
      </trkpt>
      <trkpt lat="42.84552" lon="1.374">
        <ele>852</ele>
        <time>2020-07-27T11:29:33Z</time>
      </trkpt>
      <trkpt lat="42.84527" lon="1.37427">
        <ele>854</ele>
        <time>2020-07-27T11:29:38Z</time>
      </trkpt>
      <trkpt lat="42.84506" lon="1.37436">
        <ele>857</ele>
        <time>2020-07-27T11:29:42Z</time>
      </trkpt>
      <trkpt lat="42.84479" lon="1.37441">
        <ele>858</ele>
        <time>2020-07-27T11:29:47Z</time>
      </trkpt>
      <trkpt lat="42.84459" lon="1.37451">
        <ele>859</ele>
        <time>2020-07-27T11:29:51Z</time>
      </trkpt>
      <trkpt lat="42.84449" lon="1.3746">
        <ele>859</ele>
        <time>2020-07-27T11:29:53Z</time>
      </trkpt>
      <trkpt lat="42.84434" lon="1.37469">
        <ele>859</ele>
        <time>2020-07-27T11:29:56Z</time>
      </trkpt>
      <trkpt lat="42.84419" lon="1.37471">
        <ele>859</ele>
        <time>2020-07-27T11:29:59Z</time>
      </trkpt>
      <trkpt lat="42.84404" lon="1.37469">
        <ele>860</ele>
        <time>2020-07-27T11:30:01Z</time>
      </trkpt>
      <trkpt lat="42.84387" lon="1.37457">
        <ele>863</ele>
        <time>2020-07-27T11:30:05Z</time>
      </trkpt>
      <trkpt lat="42.84336" lon="1.37453">
        <ele>868</ele>
        <time>2020-07-27T11:30:14Z</time>
      </trkpt>
      <trkpt lat="42.84305" lon="1.3746">
        <ele>874</ele>
        <time>2020-07-27T11:30:19Z</time>
      </trkpt>
      <trkpt lat="42.84279" lon="1.3747">
        <ele>876</ele>
        <time>2020-07-27T11:30:24Z</time>
      </trkpt>
      <trkpt lat="42.8426" lon="1.37483">
        <ele>875</ele>
        <time>2020-07-27T11:30:28Z</time>
      </trkpt>
      <trkpt lat="42.84249" lon="1.37503">
        <ele>869</ele>
        <time>2020-07-27T11:30:31Z</time>
      </trkpt>
      <trkpt lat="42.84238" lon="1.3752">
        <ele>870</ele>
        <time>2020-07-27T11:30:34Z</time>
      </trkpt>
      <trkpt lat="42.84222" lon="1.3753">
        <ele>872</ele>
        <time>2020-07-27T11:30:37Z</time>
      </trkpt>
      <trkpt lat="42.8421" lon="1.37535">
        <ele>872</ele>
        <time>2020-07-27T11:30:40Z</time>
      </trkpt>
      <trkpt lat="42.84188" lon="1.37529">
        <ele>875</ele>
        <time>2020-07-27T11:30:44Z</time>
      </trkpt>
      <trkpt lat="42.84156" lon="1.37513">
        <ele>882</ele>
        <time>2020-07-27T11:30:50Z</time>
      </trkpt>
      <trkpt lat="42.84134" lon="1.3751">
        <ele>884</ele>
        <time>2020-07-27T11:30:54Z</time>
      </trkpt>
      <trkpt lat="42.84062" lon="1.37518">
        <ele>891</ele>
        <time>2020-07-27T11:31:06Z</time>
      </trkpt>
      <trkpt lat="42.83934" lon="1.37551">
        <ele>903</ele>
        <time>2020-07-27T11:31:30Z</time>
      </trkpt>
      <trkpt lat="42.83914" lon="1.3756">
        <ele>903</ele>
        <time>2020-07-27T11:31:33Z</time>
      </trkpt>
      <trkpt lat="42.83878" lon="1.37568">
        <ele>908</ele>
        <time>2020-07-27T11:31:40Z</time>
      </trkpt>
      <trkpt lat="42.83851" lon="1.37581">
        <ele>909</ele>
        <time>2020-07-27T11:31:45Z</time>
      </trkpt>
      <trkpt lat="42.83836" lon="1.37597">
        <ele>909</ele>
        <time>2020-07-27T11:31:48Z</time>
      </trkpt>
      <trkpt lat="42.83824" lon="1.37621">
        <ele>910</ele>
        <time>2020-07-27T11:31:52Z</time>
      </trkpt>
      <trkpt lat="42.83814" lon="1.37635">
        <ele>911</ele>
        <time>2020-07-27T11:31:55Z</time>
      </trkpt>
      <trkpt lat="42.838" lon="1.37641">
        <ele>914</ele>
        <time>2020-07-27T11:31:57Z</time>
      </trkpt>
      <trkpt lat="42.83782" lon="1.37644">
        <ele>917</ele>
        <time>2020-07-27T11:32:01Z</time>
      </trkpt>
      <trkpt lat="42.83761" lon="1.37644">
        <ele>922</ele>
        <time>2020-07-27T11:32:04Z</time>
      </trkpt>
      <trkpt lat="42.83739" lon="1.37649">
        <ele>927</ele>
        <time>2020-07-27T11:32:08Z</time>
      </trkpt>
      <trkpt lat="42.8372" lon="1.37663">
        <ele>928</ele>
        <time>2020-07-27T11:32:12Z</time>
      </trkpt>
      <trkpt lat="42.83697" lon="1.37684">
        <ele>931</ele>
        <time>2020-07-27T11:32:17Z</time>
      </trkpt>
      <trkpt lat="42.83677" lon="1.37707">
        <ele>932</ele>
        <time>2020-07-27T11:32:22Z</time>
      </trkpt>
      <trkpt lat="42.83654" lon="1.37728">
        <ele>931</ele>
        <time>2020-07-27T11:32:27Z</time>
      </trkpt>
      <trkpt lat="42.83635" lon="1.37733">
        <ele>932</ele>
        <time>2020-07-27T11:32:30Z</time>
      </trkpt>
      <trkpt lat="42.83597" lon="1.37746">
        <ele>932</ele>
        <time>2020-07-27T11:32:37Z</time>
      </trkpt>
      <trkpt lat="42.83586" lon="1.37747">
        <ele>933</ele>
        <time>2020-07-27T11:32:39Z</time>
      </trkpt>
      <trkpt lat="42.83579" lon="1.37744">
        <ele>934</ele>
        <time>2020-07-27T11:32:40Z</time>
      </trkpt>
      <trkpt lat="42.83552" lon="1.37713">
        <ele>946</ele>
        <time>2020-07-27T11:32:47Z</time>
      </trkpt>
      <trkpt lat="42.83536" lon="1.37706">
        <ele>949</ele>
        <time>2020-07-27T11:32:50Z</time>
      </trkpt>
      <trkpt lat="42.83501" lon="1.37705">
        <ele>952</ele>
        <time>2020-07-27T11:32:56Z</time>
      </trkpt>
      <trkpt lat="42.83491" lon="1.37707">
        <ele>952</ele>
        <time>2020-07-27T11:32:58Z</time>
      </trkpt>
      <trkpt lat="42.83428" lon="1.37777">
        <ele>950</ele>
        <time>2020-07-27T11:33:12Z</time>
      </trkpt>
      <trkpt lat="42.83322" lon="1.37867">
        <ele>958</ele>
        <time>2020-07-27T11:33:34Z</time>
      </trkpt>
      <trkpt lat="42.83307" lon="1.37884">
        <ele>959</ele>
        <time>2020-07-27T11:33:38Z</time>
      </trkpt>
      <trkpt lat="42.8329" lon="1.37911">
        <ele>961</ele>
        <time>2020-07-27T11:33:42Z</time>
      </trkpt>
      <trkpt lat="42.8327" lon="1.37933">
        <ele>965</ele>
        <time>2020-07-27T11:33:47Z</time>
      </trkpt>
      <trkpt lat="42.83174" lon="1.37982">
        <ele>973</ele>
        <time>2020-07-27T11:34:05Z</time>
      </trkpt>
      <trkpt lat="42.83152" lon="1.38">
        <ele>977</ele>
        <time>2020-07-27T11:34:10Z</time>
      </trkpt>
      <trkpt lat="42.83129" lon="1.38015">
        <ele>982</ele>
        <time>2020-07-27T11:34:14Z</time>
      </trkpt>
      <trkpt lat="42.83087" lon="1.38024">
        <ele>986</ele>
        <time>2020-07-27T11:34:22Z</time>
      </trkpt>
      <trkpt lat="42.83068" lon="1.3803">
        <ele>989</ele>
        <time>2020-07-27T11:34:25Z</time>
      </trkpt>
      <trkpt lat="42.83025" lon="1.38051">
        <ele>998</ele>
        <time>2020-07-27T11:34:33Z</time>
      </trkpt>
      <trkpt lat="42.82998" lon="1.38051">
        <ele>999</ele>
        <time>2020-07-27T11:34:38Z</time>
      </trkpt>
      <trkpt lat="42.82989" lon="1.38048">
        <ele>1000</ele>
        <time>2020-07-27T11:34:40Z</time>
      </trkpt>
      <trkpt lat="42.82964" lon="1.38013">
        <ele>996</ele>
        <time>2020-07-27T11:34:46Z</time>
      </trkpt>
      <trkpt lat="42.82951" lon="1.38006">
        <ele>996</ele>
        <time>2020-07-27T11:34:49Z</time>
      </trkpt>
      <trkpt lat="42.82934" lon="1.3801">
        <ele>998</ele>
        <time>2020-07-27T11:34:52Z</time>
      </trkpt>
      <trkpt lat="42.82924" lon="1.38016">
        <ele>999</ele>
        <time>2020-07-27T11:34:54Z</time>
      </trkpt>
      <trkpt lat="42.82911" lon="1.38018">
        <ele>1001</ele>
        <time>2020-07-27T11:34:56Z</time>
      </trkpt>
      <trkpt lat="42.82898" lon="1.3802">
        <ele>1002</ele>
        <time>2020-07-27T11:34:58Z</time>
      </trkpt>
      <trkpt lat="42.82877" lon="1.38019">
        <ele>1004</ele>
        <time>2020-07-27T11:35:02Z</time>
      </trkpt>
      <trkpt lat="42.82851" lon="1.38027">
        <ele>1009</ele>
        <time>2020-07-27T11:35:07Z</time>
      </trkpt>
      <trkpt lat="42.82833" lon="1.3803">
        <ele>1011</ele>
        <time>2020-07-27T11:35:10Z</time>
      </trkpt>
      <trkpt lat="42.82824" lon="1.38028">
        <ele>1011</ele>
        <time>2020-07-27T11:35:12Z</time>
      </trkpt>
      <trkpt lat="42.82805" lon="1.38009">
        <ele>1010</ele>
        <time>2020-07-27T11:35:16Z</time>
      </trkpt>
      <trkpt lat="42.8279" lon="1.37999">
        <ele>1009</ele>
        <time>2020-07-27T11:35:19Z</time>
      </trkpt>
      <trkpt lat="42.82752" lon="1.38002">
        <ele>1012</ele>
        <time>2020-07-27T11:35:26Z</time>
      </trkpt>
      <trkpt lat="42.82745" lon="1.37999">
        <ele>1013</ele>
        <time>2020-07-27T11:35:27Z</time>
      </trkpt>
      <trkpt lat="42.82739" lon="1.37995">
        <ele>1014</ele>
        <time>2020-07-27T11:35:28Z</time>
      </trkpt>
      <trkpt lat="42.82726" lon="1.37971">
        <ele>1016</ele>
        <time>2020-07-27T11:35:32Z</time>
      </trkpt>
      <trkpt lat="42.82719" lon="1.37965">
        <ele>1017</ele>
        <time>2020-07-27T11:35:34Z</time>
      </trkpt>
      <trkpt lat="42.82708" lon="1.37959">
        <ele>1018</ele>
        <time>2020-07-27T11:35:36Z</time>
      </trkpt>
      <trkpt lat="42.82657" lon="1.37948">
        <ele>1022</ele>
        <time>2020-07-27T11:35:45Z</time>
      </trkpt>
      <trkpt lat="42.82612" lon="1.37928">
        <ele>1021</ele>
        <time>2020-07-27T11:35:53Z</time>
      </trkpt>
      <trkpt lat="42.826" lon="1.37927">
        <ele>1021</ele>
        <time>2020-07-27T11:35:55Z</time>
      </trkpt>
      <trkpt lat="42.8258" lon="1.37939">
        <ele>1024</ele>
        <time>2020-07-27T11:35:59Z</time>
      </trkpt>
      <trkpt lat="42.82522" lon="1.37989">
        <ele>1028</ele>
        <time>2020-07-27T11:36:11Z</time>
      </trkpt>
      <trkpt lat="42.82455" lon="1.38052">
        <ele>1033</ele>
        <time>2020-07-27T11:36:26Z</time>
      </trkpt>
      <trkpt lat="42.82437" lon="1.38081">
        <ele>1035</ele>
        <time>2020-07-27T11:36:31Z</time>
      </trkpt>
      <trkpt lat="42.82423" lon="1.38098">
        <ele>1037</ele>
        <time>2020-07-27T11:36:34Z</time>
      </trkpt>
      <trkpt lat="42.82391" lon="1.38123">
        <ele>1042</ele>
        <time>2020-07-27T11:36:41Z</time>
      </trkpt>
      <trkpt lat="42.82352" lon="1.38136">
        <ele>1044</ele>
        <time>2020-07-27T11:36:48Z</time>
      </trkpt>
      <trkpt lat="42.8233" lon="1.38152">
        <ele>1047</ele>
        <time>2020-07-27T11:36:52Z</time>
      </trkpt>
      <trkpt lat="42.82312" lon="1.38176">
        <ele>1051</ele>
        <time>2020-07-27T11:36:57Z</time>
      </trkpt>
      <trkpt lat="42.82281" lon="1.38203">
        <ele>1058</ele>
        <time>2020-07-27T11:37:03Z</time>
      </trkpt>
      <trkpt lat="42.8223" lon="1.38226">
        <ele>1064</ele>
        <time>2020-07-27T11:37:13Z</time>
      </trkpt>
      <trkpt lat="42.82211" lon="1.38228">
        <ele>1065</ele>
        <time>2020-07-27T11:37:16Z</time>
      </trkpt>
      <trkpt lat="42.82159" lon="1.38249">
        <ele>1072</ele>
        <time>2020-07-27T11:37:26Z</time>
      </trkpt>
      <trkpt lat="42.82146" lon="1.38251">
        <ele>1075</ele>
        <time>2020-07-27T11:37:28Z</time>
      </trkpt>
      <trkpt lat="42.82123" lon="1.38249">
        <ele>1078</ele>
        <time>2020-07-27T11:37:32Z</time>
      </trkpt>
      <trkpt lat="42.82109" lon="1.38245">
        <ele>1079</ele>
        <time>2020-07-27T11:37:35Z</time>
      </trkpt>
      <trkpt lat="42.82099" lon="1.38238">
        <ele>1079</ele>
        <time>2020-07-27T11:37:37Z</time>
      </trkpt>
      <trkpt lat="42.82088" lon="1.38223">
        <ele>1078</ele>
        <time>2020-07-27T11:37:40Z</time>
      </trkpt>
      <trkpt lat="42.82074" lon="1.3821">
        <ele>1077</ele>
        <time>2020-07-27T11:37:43Z</time>
      </trkpt>
      <trkpt lat="42.82059" lon="1.38201">
        <ele>1076</ele>
        <time>2020-07-27T11:37:46Z</time>
      </trkpt>
      <trkpt lat="42.82045" lon="1.38197">
        <ele>1077</ele>
        <time>2020-07-27T11:37:48Z</time>
      </trkpt>
      <trkpt lat="42.81979" lon="1.382">
        <ele>1084</ele>
        <time>2020-07-27T11:38:00Z</time>
      </trkpt>
      <trkpt lat="42.8193" lon="1.3821">
        <ele>1089</ele>
        <time>2020-07-27T11:38:09Z</time>
      </trkpt>
      <trkpt lat="42.81914" lon="1.38219">
        <ele>1092</ele>
        <time>2020-07-27T11:38:12Z</time>
      </trkpt>
      <trkpt lat="42.81883" lon="1.3824">
        <ele>1096</ele>
        <time>2020-07-27T11:38:18Z</time>
      </trkpt>
      <trkpt lat="42.8184" lon="1.38259">
        <ele>1097</ele>
        <time>2020-07-27T11:38:26Z</time>
      </trkpt>
      <trkpt lat="42.81836" lon="1.38263">
        <ele>1098</ele>
        <time>2020-07-27T11:38:27Z</time>
      </trkpt>
      <trkpt lat="42.81834" lon="1.38274">
        <ele>1100</ele>
        <time>2020-07-27T11:38:28Z</time>
      </trkpt>
      <trkpt lat="42.81836" lon="1.38281">
        <ele>1101</ele>
        <time>2020-07-27T11:38:29Z</time>
      </trkpt>
      <trkpt lat="42.8184" lon="1.38285">
        <ele>1103</ele>
        <time>2020-07-27T11:38:30Z</time>
      </trkpt>
      <trkpt lat="42.81851" lon="1.38282">
        <ele>1103</ele>
        <time>2020-07-27T11:38:32Z</time>
      </trkpt>
      <trkpt lat="42.81866" lon="1.38272">
        <ele>1102</ele>
        <time>2020-07-27T11:38:35Z</time>
      </trkpt>
      <trkpt lat="42.81878" lon="1.38268">
        <ele>1101</ele>
        <time>2020-07-27T11:38:37Z</time>
      </trkpt>
      <trkpt lat="42.81891" lon="1.38268">
        <ele>1102</ele>
        <time>2020-07-27T11:38:40Z</time>
      </trkpt>
      <trkpt lat="42.81904" lon="1.38272">
        <ele>1104</ele>
        <time>2020-07-27T11:38:42Z</time>
      </trkpt>
      <trkpt lat="42.81927" lon="1.38284">
        <ele>1107</ele>
        <time>2020-07-27T11:38:47Z</time>
      </trkpt>
      <trkpt lat="42.81941" lon="1.38295">
        <ele>1108</ele>
        <time>2020-07-27T11:38:49Z</time>
      </trkpt>
      <trkpt lat="42.81952" lon="1.38311">
        <ele>1110</ele>
        <time>2020-07-27T11:38:52Z</time>
      </trkpt>
      <trkpt lat="42.81974" lon="1.38348">
        <ele>1117</ele>
        <time>2020-07-27T11:38:58Z</time>
      </trkpt>
      <trkpt lat="42.81984" lon="1.38358">
        <ele>1119</ele>
        <time>2020-07-27T11:39:01Z</time>
      </trkpt>
      <trkpt lat="42.81993" lon="1.38363">
        <ele>1119</ele>
        <time>2020-07-27T11:39:02Z</time>
      </trkpt>
      <trkpt lat="42.82009" lon="1.38366">
        <ele>1119</ele>
        <time>2020-07-27T11:39:05Z</time>
      </trkpt>
      <trkpt lat="42.82014" lon="1.38369">
        <ele>1120</ele>
        <time>2020-07-27T11:39:06Z</time>
      </trkpt>
      <trkpt lat="42.82016" lon="1.38375">
        <ele>1122</ele>
        <time>2020-07-27T11:39:07Z</time>
      </trkpt>
      <trkpt lat="42.82016" lon="1.38382">
        <ele>1124</ele>
        <time>2020-07-27T11:39:08Z</time>
      </trkpt>
      <trkpt lat="42.82013" lon="1.38387">
        <ele>1125</ele>
        <time>2020-07-27T11:39:09Z</time>
      </trkpt>
      <trkpt lat="42.82007" lon="1.38389">
        <ele>1126</ele>
        <time>2020-07-27T11:39:10Z</time>
      </trkpt>
      <trkpt lat="42.81987" lon="1.38388">
        <ele>1126</ele>
        <time>2020-07-27T11:39:14Z</time>
      </trkpt>
      <trkpt lat="42.81945" lon="1.38394">
        <ele>1129</ele>
        <time>2020-07-27T11:39:21Z</time>
      </trkpt>
      <trkpt lat="42.81939" lon="1.38392">
        <ele>1129</ele>
        <time>2020-07-27T11:39:22Z</time>
      </trkpt>
      <trkpt lat="42.81933" lon="1.38386">
        <ele>1128</ele>
        <time>2020-07-27T11:39:23Z</time>
      </trkpt>
      <trkpt lat="42.81921" lon="1.38364">
        <ele>1124</ele>
        <time>2020-07-27T11:39:27Z</time>
      </trkpt>
      <trkpt lat="42.81915" lon="1.38357">
        <ele>1123</ele>
        <time>2020-07-27T11:39:28Z</time>
      </trkpt>
      <trkpt lat="42.81908" lon="1.38355">
        <ele>1122</ele>
        <time>2020-07-27T11:39:30Z</time>
      </trkpt>
      <trkpt lat="42.81901" lon="1.38355">
        <ele>1121</ele>
        <time>2020-07-27T11:39:31Z</time>
      </trkpt>
      <trkpt lat="42.81891" lon="1.3836">
        <ele>1122</ele>
        <time>2020-07-27T11:39:33Z</time>
      </trkpt>
      <trkpt lat="42.81875" lon="1.38378">
        <ele>1124</ele>
        <time>2020-07-27T11:39:37Z</time>
      </trkpt>
      <trkpt lat="42.81866" lon="1.38393">
        <ele>1127</ele>
        <time>2020-07-27T11:39:39Z</time>
      </trkpt>
      <trkpt lat="42.8181" lon="1.38506">
        <ele>1144</ele>
        <time>2020-07-27T11:39:57Z</time>
      </trkpt>
      <trkpt lat="42.81736" lon="1.38622">
        <ele>1157</ele>
        <time>2020-07-27T11:40:17Z</time>
      </trkpt>
      <trkpt lat="42.81736" lon="1.38632">
        <ele>1159</ele>
        <time>2020-07-27T11:40:18Z</time>
      </trkpt>
      <trkpt lat="42.81739" lon="1.38637">
        <ele>1160</ele>
        <time>2020-07-27T11:40:19Z</time>
      </trkpt>
      <trkpt lat="42.81743" lon="1.38639">
        <ele>1161</ele>
        <time>2020-07-27T11:40:20Z</time>
      </trkpt>
      <trkpt lat="42.81748" lon="1.38637">
        <ele>1160</ele>
        <time>2020-07-27T11:40:21Z</time>
      </trkpt>
      <trkpt lat="42.81753" lon="1.38633">
        <ele>1160</ele>
        <time>2020-07-27T11:40:22Z</time>
      </trkpt>
      <trkpt lat="42.81763" lon="1.38617">
        <ele>1159</ele>
        <time>2020-07-27T11:40:25Z</time>
      </trkpt>
      <trkpt lat="42.81772" lon="1.38609">
        <ele>1158</ele>
        <time>2020-07-27T11:40:26Z</time>
      </trkpt>
      <trkpt lat="42.81781" lon="1.38604">
        <ele>1159</ele>
        <time>2020-07-27T11:40:28Z</time>
      </trkpt>
      <trkpt lat="42.81818" lon="1.38594">
        <ele>1163</ele>
        <time>2020-07-27T11:40:35Z</time>
      </trkpt>
      <trkpt lat="42.81887" lon="1.38557">
        <ele>1166</ele>
        <time>2020-07-27T11:40:48Z</time>
      </trkpt>
      <trkpt lat="42.81891" lon="1.38557">
        <ele>1166</ele>
        <time>2020-07-27T11:40:49Z</time>
      </trkpt>
      <trkpt lat="42.81895" lon="1.38559">
        <ele>1168</ele>
        <time>2020-07-27T11:40:50Z</time>
      </trkpt>
      <trkpt lat="42.81897" lon="1.38563">
        <ele>1169</ele>
        <time>2020-07-27T11:40:50Z</time>
      </trkpt>
      <trkpt lat="42.81897" lon="1.38568">
        <ele>1170</ele>
        <time>2020-07-27T11:40:51Z</time>
      </trkpt>
      <trkpt lat="42.81895" lon="1.38573">
        <ele>1171</ele>
        <time>2020-07-27T11:40:52Z</time>
      </trkpt>
      <trkpt lat="42.81891" lon="1.38576">
        <ele>1171</ele>
        <time>2020-07-27T11:40:52Z</time>
      </trkpt>
      <trkpt lat="42.81878" lon="1.38582">
        <ele>1171</ele>
        <time>2020-07-27T11:40:55Z</time>
      </trkpt>
      <trkpt lat="42.81864" lon="1.38592">
        <ele>1171</ele>
        <time>2020-07-27T11:40:58Z</time>
      </trkpt>
      <trkpt lat="42.81833" lon="1.38625">
        <ele>1173</ele>
        <time>2020-07-27T11:41:05Z</time>
      </trkpt>
      <trkpt lat="42.81806" lon="1.38656">
        <ele>1176</ele>
        <time>2020-07-27T11:41:11Z</time>
      </trkpt>
      <trkpt lat="42.81772" lon="1.38706">
        <ele>1181</ele>
        <time>2020-07-27T11:41:20Z</time>
      </trkpt>
      <trkpt lat="42.8173" lon="1.38781">
        <ele>1187</ele>
        <time>2020-07-27T11:41:32Z</time>
      </trkpt>
      <trkpt lat="42.81709" lon="1.38829">
        <ele>1190</ele>
        <time>2020-07-27T11:41:39Z</time>
      </trkpt>
      <trkpt lat="42.81692" lon="1.38861">
        <ele>1191</ele>
        <time>2020-07-27T11:41:45Z</time>
      </trkpt>
      <trkpt lat="42.81683" lon="1.38883">
        <ele>1192</ele>
        <time>2020-07-27T11:41:48Z</time>
      </trkpt>
      <trkpt lat="42.81677" lon="1.38904">
        <ele>1194</ele>
        <time>2020-07-27T11:41:51Z</time>
      </trkpt>
      <trkpt lat="42.81674" lon="1.38921">
        <ele>1196</ele>
        <time>2020-07-27T11:41:53Z</time>
      </trkpt>
      <trkpt lat="42.81674" lon="1.38941">
        <ele>1199</ele>
        <time>2020-07-27T11:41:56Z</time>
      </trkpt>
      <trkpt lat="42.81679" lon="1.3898">
        <ele>1206</ele>
        <time>2020-07-27T11:42:01Z</time>
      </trkpt>
      <trkpt lat="42.81679" lon="1.38986">
        <ele>1207</ele>
        <time>2020-07-27T11:42:02Z</time>
      </trkpt>
      <trkpt lat="42.81673" lon="1.38996">
        <ele>1207</ele>
        <time>2020-07-27T11:42:03Z</time>
      </trkpt>
      <trkpt lat="42.81666" lon="1.38999">
        <ele>1206</ele>
        <time>2020-07-27T11:42:05Z</time>
      </trkpt>
      <trkpt lat="42.81653" lon="1.39">
        <ele>1207</ele>
        <time>2020-07-27T11:42:07Z</time>
      </trkpt>
      <trkpt lat="42.81638" lon="1.38998">
        <ele>1208</ele>
        <time>2020-07-27T11:42:10Z</time>
      </trkpt>
      <trkpt lat="42.81547" lon="1.38965">
        <ele>1213</ele>
        <time>2020-07-27T11:42:26Z</time>
      </trkpt>
      <trkpt lat="42.81513" lon="1.38931">
        <ele>1212</ele>
        <time>2020-07-27T11:42:34Z</time>
      </trkpt>
      <trkpt lat="42.81499" lon="1.38922">
        <ele>1213</ele>
        <time>2020-07-27T11:42:37Z</time>
      </trkpt>
      <trkpt lat="42.81486" lon="1.38918">
        <ele>1215</ele>
        <time>2020-07-27T11:42:39Z</time>
      </trkpt>
      <trkpt lat="42.81442" lon="1.38919">
        <ele>1225</ele>
        <time>2020-07-27T11:42:47Z</time>
      </trkpt>
      <trkpt lat="42.81387" lon="1.38888">
        <ele>1231</ele>
        <time>2020-07-27T11:42:57Z</time>
      </trkpt>
      <trkpt lat="42.8132" lon="1.38836">
        <ele>1236</ele>
        <time>2020-07-27T11:43:11Z</time>
      </trkpt>
      <trkpt lat="42.81303" lon="1.3882">
        <ele>1238</ele>
        <time>2020-07-27T11:43:15Z</time>
      </trkpt>
      <trkpt lat="42.81247" lon="1.38786">
        <ele>1246</ele>
        <time>2020-07-27T11:43:26Z</time>
      </trkpt>
      <trkpt lat="42.81161" lon="1.38749">
        <ele>1253</ele>
        <time>2020-07-27T11:43:42Z</time>
      </trkpt>
      <trkpt lat="42.81126" lon="1.38744">
        <ele>1256</ele>
        <time>2020-07-27T11:43:48Z</time>
      </trkpt>
      <trkpt lat="42.81119" lon="1.38735">
        <ele>1257</ele>
        <time>2020-07-27T11:43:50Z</time>
      </trkpt>
      <trkpt lat="42.81119" lon="1.38724">
        <ele>1257</ele>
        <time>2020-07-27T11:43:51Z</time>
      </trkpt>
      <trkpt lat="42.81136" lon="1.38691">
        <ele>1255</ele>
        <time>2020-07-27T11:43:56Z</time>
      </trkpt>
      <trkpt lat="42.81139" lon="1.3867">
        <ele>1254</ele>
        <time>2020-07-27T11:43:59Z</time>
      </trkpt>
      <trkpt lat="42.81138" lon="1.38659">
        <ele>1256</ele>
        <time>2020-07-27T11:44:01Z</time>
      </trkpt>
      <trkpt lat="42.81124" lon="1.38639">
        <ele>1260</ele>
        <time>2020-07-27T11:44:04Z</time>
      </trkpt>
      <trkpt lat="42.8109" lon="1.38612">
        <ele>1265</ele>
        <time>2020-07-27T11:44:11Z</time>
      </trkpt>
      <trkpt lat="42.81048" lon="1.38594">
        <ele>1269</ele>
        <time>2020-07-27T11:44:19Z</time>
      </trkpt>
      <trkpt lat="42.81007" lon="1.38586">
        <ele>1271</ele>
        <time>2020-07-27T11:44:27Z</time>
      </trkpt>
      <trkpt lat="42.81004" lon="1.38578">
        <ele>1273</ele>
        <time>2020-07-27T11:44:28Z</time>
      </trkpt>
      <trkpt lat="42.81005" lon="1.38572">
        <ele>1274</ele>
        <time>2020-07-27T11:44:29Z</time>
      </trkpt>
      <trkpt lat="42.81009" lon="1.38566">
        <ele>1275</ele>
        <time>2020-07-27T11:44:30Z</time>
      </trkpt>
      <trkpt lat="42.81022" lon="1.38563">
        <ele>1275</ele>
        <time>2020-07-27T11:44:32Z</time>
      </trkpt>
      <trkpt lat="42.81076" lon="1.38557">
        <ele>1275</ele>
        <time>2020-07-27T11:44:42Z</time>
      </trkpt>
      <trkpt lat="42.81098" lon="1.38559">
        <ele>1275</ele>
        <time>2020-07-27T11:44:45Z</time>
      </trkpt>
      <trkpt lat="42.81117" lon="1.38564">
        <ele>1274</ele>
        <time>2020-07-27T11:44:49Z</time>
      </trkpt>
      <trkpt lat="42.81124" lon="1.38564">
        <ele>1274</ele>
        <time>2020-07-27T11:44:50Z</time>
      </trkpt>
      <trkpt lat="42.81128" lon="1.38559">
        <ele>1275</ele>
        <time>2020-07-27T11:44:51Z</time>
      </trkpt>
      <trkpt lat="42.81129" lon="1.38554">
        <ele>1276</ele>
        <time>2020-07-27T11:44:52Z</time>
      </trkpt>
      <trkpt lat="42.81127" lon="1.38547">
        <ele>1278</ele>
        <time>2020-07-27T11:44:53Z</time>
      </trkpt>
      <trkpt lat="42.8112" lon="1.38542">
        <ele>1280</ele>
        <time>2020-07-27T11:44:54Z</time>
      </trkpt>
      <trkpt lat="42.81084" lon="1.38533">
        <ele>1281</ele>
        <time>2020-07-27T11:45:01Z</time>
      </trkpt>
      <trkpt lat="42.81012" lon="1.38502">
        <ele>1285</ele>
        <time>2020-07-27T11:45:14Z</time>
      </trkpt>
      <trkpt lat="42.81003" lon="1.38493">
        <ele>1286</ele>
        <time>2020-07-27T11:45:16Z</time>
      </trkpt>
      <trkpt lat="42.80975" lon="1.38437">
        <ele>1290</ele>
        <time>2020-07-27T11:45:25Z</time>
      </trkpt>
      <trkpt lat="42.80959" lon="1.38415">
        <ele>1291</ele>
        <time>2020-07-27T11:45:29Z</time>
      </trkpt>
      <trkpt lat="42.80922" lon="1.38385">
        <ele>1296</ele>
        <time>2020-07-27T11:45:37Z</time>
      </trkpt>
      <trkpt lat="42.80893" lon="1.38366">
        <ele>1299</ele>
        <time>2020-07-27T11:45:42Z</time>
      </trkpt>
      <trkpt lat="42.80824" lon="1.38336">
        <ele>1301</ele>
        <time>2020-07-27T11:45:55Z</time>
      </trkpt>
      <trkpt lat="42.80818" lon="1.38315">
        <ele>1301</ele>
        <time>2020-07-27T11:45:58Z</time>
      </trkpt>
      <trkpt lat="42.80819" lon="1.38268">
        <ele>1303</ele>
        <time>2020-07-27T11:46:04Z</time>
      </trkpt>
      <trkpt lat="42.80823" lon="1.3823">
        <ele>1303</ele>
        <time>2020-07-27T11:46:09Z</time>
      </trkpt>
      <trkpt lat="42.80838" lon="1.38157">
        <ele>1303</ele>
        <time>2020-07-27T11:46:19Z</time>
      </trkpt>
      <trkpt lat="42.80847" lon="1.38122">
        <ele>1302</ele>
        <time>2020-07-27T11:46:24Z</time>
      </trkpt>
      <trkpt lat="42.80855" lon="1.38105">
        <ele>1302</ele>
        <time>2020-07-27T11:46:27Z</time>
      </trkpt>
      <trkpt lat="42.80882" lon="1.38061">
        <ele>1299</ele>
        <time>2020-07-27T11:46:34Z</time>
      </trkpt>
      <trkpt lat="42.80887" lon="1.38047">
        <ele>1297</ele>
        <time>2020-07-27T11:46:36Z</time>
      </trkpt>
      <trkpt lat="42.8089" lon="1.3803">
        <ele>1294</ele>
        <time>2020-07-27T11:46:39Z</time>
      </trkpt>
      <trkpt lat="42.8089" lon="1.38013">
        <ele>1292</ele>
        <time>2020-07-27T11:46:41Z</time>
      </trkpt>
      <trkpt lat="42.80883" lon="1.37917">
        <ele>1281</ele>
        <time>2020-07-27T11:46:53Z</time>
      </trkpt>
      <trkpt lat="42.80883" lon="1.37884">
        <ele>1280</ele>
        <time>2020-07-27T11:46:58Z</time>
      </trkpt>
      <trkpt lat="42.80885" lon="1.37854">
        <ele>1279</ele>
        <time>2020-07-27T11:47:02Z</time>
      </trkpt>
      <trkpt lat="42.80889" lon="1.37834">
        <ele>1278</ele>
        <time>2020-07-27T11:47:04Z</time>
      </trkpt>
      <trkpt lat="42.8091" lon="1.37787">
        <ele>1279</ele>
        <time>2020-07-27T11:47:12Z</time>
      </trkpt>
      <trkpt lat="42.80933" lon="1.37745">
        <ele>1278</ele>
        <time>2020-07-27T11:47:18Z</time>
      </trkpt>
      <trkpt lat="42.80955" lon="1.37717">
        <ele>1276</ele>
        <time>2020-07-27T11:47:24Z</time>
      </trkpt>
      <trkpt lat="42.80962" lon="1.37704">
        <ele>1275</ele>
        <time>2020-07-27T11:47:26Z</time>
      </trkpt>
      <trkpt lat="42.80966" lon="1.37685">
        <ele>1275</ele>
        <time>2020-07-27T11:47:28Z</time>
      </trkpt>
      <trkpt lat="42.8095" lon="1.37508">
        <ele>1277</ele>
        <time>2020-07-27T11:47:52Z</time>
      </trkpt>
      <trkpt lat="42.80934" lon="1.37474">
        <ele>1272</ele>
        <time>2020-07-27T11:47:57Z</time>
      </trkpt>
      <trkpt lat="42.80908" lon="1.37446">
        <ele>1269</ele>
        <time>2020-07-27T11:48:03Z</time>
      </trkpt>
      <trkpt lat="42.80897" lon="1.37441">
        <ele>1269</ele>
        <time>2020-07-27T11:48:05Z</time>
      </trkpt>
      <trkpt lat="42.8087" lon="1.37428">
        <ele>1269</ele>
        <time>2020-07-27T11:48:10Z</time>
      </trkpt>
      <trkpt lat="42.80835" lon="1.3742">
        <ele>1270</ele>
        <time>2020-07-27T11:48:16Z</time>
      </trkpt>
      <trkpt lat="42.808" lon="1.37408">
        <ele>1275</ele>
        <time>2020-07-27T11:48:23Z</time>
      </trkpt>
      <trkpt lat="42.80758" lon="1.37389">
        <ele>1280</ele>
        <time>2020-07-27T11:48:31Z</time>
      </trkpt>
      <trkpt lat="42.80739" lon="1.37375">
        <ele>1283</ele>
        <time>2020-07-27T11:48:34Z</time>
      </trkpt>
      <trkpt lat="42.80725" lon="1.37358">
        <ele>1286</ele>
        <time>2020-07-27T11:48:38Z</time>
      </trkpt>
      <trkpt lat="42.80717" lon="1.37339">
        <ele>1288</ele>
        <time>2020-07-27T11:48:41Z</time>
      </trkpt>
      <trkpt lat="42.80713" lon="1.37315">
        <ele>1290</ele>
        <time>2020-07-27T11:48:44Z</time>
      </trkpt>
      <trkpt lat="42.80712" lon="1.37286">
        <ele>1291</ele>
        <time>2020-07-27T11:48:48Z</time>
      </trkpt>
      <trkpt lat="42.80714" lon="1.37254">
        <ele>1292</ele>
        <time>2020-07-27T11:48:52Z</time>
      </trkpt>
      <trkpt lat="42.80718" lon="1.37232">
        <ele>1294</ele>
        <time>2020-07-27T11:48:55Z</time>
      </trkpt>
      <trkpt lat="42.80726" lon="1.3722">
        <ele>1295</ele>
        <time>2020-07-27T11:48:57Z</time>
      </trkpt>
      <trkpt lat="42.80757" lon="1.37192">
        <ele>1296</ele>
        <time>2020-07-27T11:49:04Z</time>
      </trkpt>
      <trkpt lat="42.80787" lon="1.37171">
        <ele>1296</ele>
        <time>2020-07-27T11:49:10Z</time>
      </trkpt>
      <trkpt lat="42.80791" lon="1.37153">
        <ele>1300</ele>
        <time>2020-07-27T11:49:12Z</time>
      </trkpt>
      <trkpt lat="42.80788" lon="1.37141">
        <ele>1304</ele>
        <time>2020-07-27T11:49:14Z</time>
      </trkpt>
      <trkpt lat="42.80774" lon="1.37129">
        <ele>1309</ele>
        <time>2020-07-27T11:49:17Z</time>
      </trkpt>
      <trkpt lat="42.80708" lon="1.37112">
        <ele>1319</ele>
        <time>2020-07-27T11:49:29Z</time>
      </trkpt>
      <trkpt lat="42.80682" lon="1.37109">
        <ele>1321</ele>
        <time>2020-07-27T11:49:33Z</time>
      </trkpt>
      <trkpt lat="42.80629" lon="1.37108">
        <ele>1326</ele>
        <time>2020-07-27T11:49:43Z</time>
      </trkpt>
      <trkpt lat="42.80579" lon="1.37134">
        <ele>1325</ele>
        <time>2020-07-27T11:49:52Z</time>
      </trkpt>
      <trkpt lat="42.80566" lon="1.37133">
        <ele>1326</ele>
        <time>2020-07-27T11:49:54Z</time>
      </trkpt>
      <trkpt lat="42.80515" lon="1.37106">
        <ele>1335</ele>
        <time>2020-07-27T11:50:04Z</time>
      </trkpt>
      <trkpt lat="42.80496" lon="1.37098">
        <ele>1339</ele>
        <time>2020-07-27T11:50:08Z</time>
      </trkpt>
      <trkpt lat="42.80475" lon="1.37101">
        <ele>1343</ele>
        <time>2020-07-27T11:50:11Z</time>
      </trkpt>
      <trkpt lat="42.8046" lon="1.3711">
        <ele>1344</ele>
        <time>2020-07-27T11:50:14Z</time>
      </trkpt>
      <trkpt lat="42.80401" lon="1.3716">
        <ele>1341</ele>
        <time>2020-07-27T11:50:27Z</time>
      </trkpt>
      <trkpt lat="42.80387" lon="1.3717">
        <ele>1342</ele>
        <time>2020-07-27T11:50:30Z</time>
      </trkpt>
      <trkpt lat="42.80369" lon="1.37179">
        <ele>1345</ele>
        <time>2020-07-27T11:50:33Z</time>
      </trkpt>
      <trkpt lat="42.80336" lon="1.37184">
        <ele>1352</ele>
        <time>2020-07-27T11:50:39Z</time>
      </trkpt>
      <trkpt lat="42.80316" lon="1.37194">
        <ele>1356</ele>
        <time>2020-07-27T11:50:43Z</time>
      </trkpt>
      <trkpt lat="42.80262" lon="1.37234">
        <ele>1365</ele>
        <time>2020-07-27T11:50:54Z</time>
      </trkpt>
      <trkpt lat="42.80246" lon="1.37256">
        <ele>1368</ele>
        <time>2020-07-27T11:50:58Z</time>
      </trkpt>
      <trkpt lat="42.80238" lon="1.37281">
        <ele>1372</ele>
        <time>2020-07-27T11:51:01Z</time>
      </trkpt>
      <trkpt lat="42.8024" lon="1.37308">
        <ele>1372</ele>
        <time>2020-07-27T11:51:05Z</time>
      </trkpt>
      <trkpt lat="42.80244" lon="1.37337">
        <ele>1371</ele>
        <time>2020-07-27T11:51:09Z</time>
      </trkpt>
      <trkpt lat="42.80258" lon="1.37358">
        <ele>1372</ele>
        <time>2020-07-27T11:51:12Z</time>
      </trkpt>
      <trkpt lat="42.80303" lon="1.37397">
        <ele>1369</ele>
        <time>2020-07-27T11:51:22Z</time>
      </trkpt>
      <trkpt lat="42.80324" lon="1.37411">
        <ele>1366</ele>
        <time>2020-07-27T11:51:26Z</time>
      </trkpt>
      <trkpt lat="42.80372" lon="1.3742">
        <ele>1363</ele>
        <time>2020-07-27T11:51:35Z</time>
      </trkpt>
      <trkpt lat="42.80387" lon="1.37427">
        <ele>1364</ele>
        <time>2020-07-27T11:51:37Z</time>
      </trkpt>
      <trkpt lat="42.80447" lon="1.37488">
        <ele>1373</ele>
        <time>2020-07-27T11:51:51Z</time>
      </trkpt>
      <trkpt lat="42.80451" lon="1.37499">
        <ele>1375</ele>
        <time>2020-07-27T11:51:52Z</time>
      </trkpt>
      <trkpt lat="42.80451" lon="1.37507">
        <ele>1376</ele>
        <time>2020-07-27T11:51:53Z</time>
      </trkpt>
      <trkpt lat="42.80446" lon="1.37514">
        <ele>1378</ele>
        <time>2020-07-27T11:51:55Z</time>
      </trkpt>
      <trkpt lat="42.80437" lon="1.37518">
        <ele>1380</ele>
        <time>2020-07-27T11:51:56Z</time>
      </trkpt>
      <trkpt lat="42.80425" lon="1.37517">
        <ele>1381</ele>
        <time>2020-07-27T11:51:58Z</time>
      </trkpt>
      <trkpt lat="42.80383" lon="1.37485">
        <ele>1376</ele>
        <time>2020-07-27T11:52:07Z</time>
      </trkpt>
      <trkpt lat="42.80371" lon="1.37484">
        <ele>1376</ele>
        <time>2020-07-27T11:52:09Z</time>
      </trkpt>
      <trkpt lat="42.80361" lon="1.37492">
        <ele>1378</ele>
        <time>2020-07-27T11:52:11Z</time>
      </trkpt>
      <trkpt lat="42.80352" lon="1.37509">
        <ele>1380</ele>
        <time>2020-07-27T11:52:14Z</time>
      </trkpt>
      <trkpt lat="42.80313" lon="1.37609">
        <ele>1394</ele>
        <time>2020-07-27T11:52:29Z</time>
      </trkpt>
      <trkpt lat="42.80304" lon="1.37622">
        <ele>1397</ele>
        <time>2020-07-27T11:52:31Z</time>
      </trkpt>
      <trkpt lat="42.80292" lon="1.37626">
        <ele>1399</ele>
        <time>2020-07-27T11:52:33Z</time>
      </trkpt>
      <trkpt lat="42.8028" lon="1.37621">
        <ele>1400</ele>
        <time>2020-07-27T11:52:36Z</time>
      </trkpt>
      <trkpt lat="42.80273" lon="1.37609">
        <ele>1399</ele>
        <time>2020-07-27T11:52:38Z</time>
      </trkpt>
      <trkpt lat="42.80263" lon="1.37568">
        <ele>1396</ele>
        <time>2020-07-27T11:52:43Z</time>
      </trkpt>
      <trkpt lat="42.80245" lon="1.37514">
        <ele>1397</ele>
        <time>2020-07-27T11:52:51Z</time>
      </trkpt>
      <trkpt lat="42.80232" lon="1.37483">
        <ele>1399</ele>
        <time>2020-07-27T11:52:56Z</time>
      </trkpt>
      <trkpt lat="42.8018" lon="1.37405">
        <ele>1402</ele>
        <time>2020-07-27T11:53:09Z</time>
      </trkpt>
      <trkpt lat="42.80139" lon="1.3735">
        <ele>1409</ele>
        <time>2020-07-27T11:53:20Z</time>
      </trkpt>
      <trkpt lat="42.80107" lon="1.3732">
        <ele>1414</ele>
        <time>2020-07-27T11:53:26Z</time>
      </trkpt>
      <trkpt lat="42.80092" lon="1.37312">
        <ele>1417</ele>
        <time>2020-07-27T11:53:29Z</time>
      </trkpt>
      <trkpt lat="42.80059" lon="1.373">
        <ele>1423</ele>
        <time>2020-07-27T11:53:35Z</time>
      </trkpt>
      <trkpt lat="42.79908" lon="1.3727">
        <ele>1444</ele>
        <time>2020-07-27T11:54:03Z</time>
      </trkpt>
      <trkpt lat="42.7986" lon="1.37258">
        <ele>1448</ele>
        <time>2020-07-27T11:54:11Z</time>
      </trkpt>
      <trkpt lat="42.79837" lon="1.37248">
        <ele>1448</ele>
        <time>2020-07-27T11:54:16Z</time>
      </trkpt>
      <trkpt lat="42.79819" lon="1.37234">
        <ele>1452</ele>
        <time>2020-07-27T11:54:19Z</time>
      </trkpt>
      <trkpt lat="42.79809" lon="1.3722">
        <ele>1453</ele>
        <time>2020-07-27T11:54:22Z</time>
      </trkpt>
      <trkpt lat="42.79801" lon="1.372">
        <ele>1452</ele>
        <time>2020-07-27T11:54:25Z</time>
      </trkpt>
      <trkpt lat="42.79795" lon="1.37166">
        <ele>1448</ele>
        <time>2020-07-27T11:54:29Z</time>
      </trkpt>
      <trkpt lat="42.79792" lon="1.37127">
        <ele>1451</ele>
        <time>2020-07-27T11:54:34Z</time>
      </trkpt>
      <trkpt lat="42.79795" lon="1.37069">
        <ele>1455</ele>
        <time>2020-07-27T11:54:42Z</time>
      </trkpt>
      <trkpt lat="42.79794" lon="1.37032">
        <ele>1460</ele>
        <time>2020-07-27T11:54:47Z</time>
      </trkpt>
      <trkpt lat="42.7979" lon="1.36998">
        <ele>1465</ele>
        <time>2020-07-27T11:54:51Z</time>
      </trkpt>
      <trkpt lat="42.79791" lon="1.36984">
        <ele>1467</ele>
        <time>2020-07-27T11:54:53Z</time>
      </trkpt>
      <trkpt lat="42.79796" lon="1.36967">
        <ele>1471</ele>
        <time>2020-07-27T11:54:56Z</time>
      </trkpt>
      <trkpt lat="42.79805" lon="1.36953">
        <ele>1474</ele>
        <time>2020-07-27T11:54:58Z</time>
      </trkpt>
      <trkpt lat="42.79817" lon="1.36946">
        <ele>1476</ele>
        <time>2020-07-27T11:55:00Z</time>
      </trkpt>
      <trkpt lat="42.7983" lon="1.36945">
        <ele>1477</ele>
        <time>2020-07-27T11:55:03Z</time>
      </trkpt>
      <trkpt lat="42.79848" lon="1.3695">
        <ele>1477</ele>
        <time>2020-07-27T11:55:06Z</time>
      </trkpt>
      <trkpt lat="42.79878" lon="1.36964">
        <ele>1477</ele>
        <time>2020-07-27T11:55:12Z</time>
      </trkpt>
      <trkpt lat="42.79894" lon="1.36975">
        <ele>1474</ele>
        <time>2020-07-27T11:55:15Z</time>
      </trkpt>
      <trkpt lat="42.79906" lon="1.36979">
        <ele>1474</ele>
        <time>2020-07-27T11:55:17Z</time>
      </trkpt>
      <trkpt lat="42.79918" lon="1.36979">
        <ele>1475</ele>
        <time>2020-07-27T11:55:19Z</time>
      </trkpt>
      <trkpt lat="42.79969" lon="1.36956">
        <ele>1479</ele>
        <time>2020-07-27T11:55:29Z</time>
      </trkpt>
      <trkpt lat="42.79977" lon="1.36942">
        <ele>1483</ele>
        <time>2020-07-27T11:55:31Z</time>
      </trkpt>
      <trkpt lat="42.79978" lon="1.36933">
        <ele>1486</ele>
        <time>2020-07-27T11:55:32Z</time>
      </trkpt>
      <trkpt lat="42.79972" lon="1.36921">
        <ele>1491</ele>
        <time>2020-07-27T11:55:34Z</time>
      </trkpt>
      <trkpt lat="42.79964" lon="1.36917">
        <ele>1493</ele>
        <time>2020-07-27T11:55:36Z</time>
      </trkpt>
      <trkpt lat="42.79932" lon="1.3692">
        <ele>1497</ele>
        <time>2020-07-27T11:55:41Z</time>
      </trkpt>
      <trkpt lat="42.79913" lon="1.36919">
        <ele>1499</ele>
        <time>2020-07-27T11:55:45Z</time>
      </trkpt>
      <trkpt lat="42.79891" lon="1.3691">
        <ele>1499</ele>
        <time>2020-07-27T11:55:49Z</time>
      </trkpt>
      <trkpt lat="42.79869" lon="1.36897">
        <ele>1499</ele>
        <time>2020-07-27T11:55:53Z</time>
      </trkpt>
      <trkpt lat="42.79762" lon="1.36787">
        <ele>1508</ele>
        <time>2020-07-27T11:56:17Z</time>
      </trkpt>
      <trkpt lat="42.79736" lon="1.36756">
        <ele>1519</ele>
        <time>2020-07-27T11:56:23Z</time>
      </trkpt>
      <trkpt lat="42.79726" lon="1.36749">
        <ele>1526</ele>
        <time>2020-07-27T11:56:25Z</time>
      </trkpt>
      <trkpt lat="42.79707" lon="1.36755">
        <ele>1534</ele>
        <time>2020-07-27T11:56:28Z</time>
      </trkpt>
      <trkpt lat="42.79692" lon="1.36776">
        <ele>1537</ele>
        <time>2020-07-27T11:56:32Z</time>
      </trkpt>
      <trkpt lat="42.79686" lon="1.36796">
        <ele>1535</ele>
        <time>2020-07-27T11:56:35Z</time>
      </trkpt>
      <trkpt lat="42.7968" lon="1.36861">
        <ele>1520</ele>
        <time>2020-07-27T11:56:44Z</time>
      </trkpt>
      <trkpt lat="42.79669" lon="1.36886">
        <ele>1518</ele>
        <time>2020-07-27T11:56:47Z</time>
      </trkpt>
      <trkpt lat="42.79651" lon="1.36905">
        <ele>1520</ele>
        <time>2020-07-27T11:56:52Z</time>
      </trkpt>
      <trkpt lat="42.79628" lon="1.36923">
        <ele>1523</ele>
        <time>2020-07-27T11:56:56Z</time>
      </trkpt>
      <trkpt lat="42.79611" lon="1.36933">
        <ele>1526</ele>
        <time>2020-07-27T11:57:00Z</time>
      </trkpt>
      <trkpt lat="42.79564" lon="1.36938">
        <ele>1544</ele>
        <time>2020-07-27T11:57:08Z</time>
      </trkpt>
      <trkpt lat="42.79544" lon="1.36938">
        <ele>1553</ele>
        <time>2020-07-27T11:57:11Z</time>
      </trkpt>
      <trkpt lat="42.79523" lon="1.36946">
        <ele>1560</ele>
        <time>2020-07-27T11:57:15Z</time>
      </trkpt>
      <trkpt lat="42.79499" lon="1.36966">
        <ele>1566</ele>
        <time>2020-07-27T11:57:20Z</time>
      </trkpt>
      <trkpt lat="42.79485" lon="1.36983">
        <ele>1563</ele>
        <time>2020-07-27T11:57:24Z</time>
      </trkpt>
      <trkpt lat="42.79463" lon="1.3703">
        <ele>1560</ele>
        <time>2020-07-27T11:57:31Z</time>
      </trkpt>
      <trkpt lat="42.79449" lon="1.37099">
        <ele>1561</ele>
        <time>2020-07-27T11:57:40Z</time>
      </trkpt>
      <trkpt lat="42.79451" lon="1.37147">
        <ele>1553</ele>
        <time>2020-07-27T11:57:47Z</time>
      </trkpt>
      <trkpt lat="42.79457" lon="1.37204">
        <ele>1553</ele>
        <time>2020-07-27T11:57:54Z</time>
      </trkpt>
      <trkpt lat="42.79458" lon="1.3723">
        <ele>1557</ele>
        <time>2020-07-27T11:57:58Z</time>
      </trkpt>
      <trkpt lat="42.79455" lon="1.37259">
        <ele>1562</ele>
        <time>2020-07-27T11:58:01Z</time>
      </trkpt>
      <trkpt lat="42.79456" lon="1.37271">
        <ele>1562</ele>
        <time>2020-07-27T11:58:03Z</time>
      </trkpt>
      <trkpt lat="42.7946" lon="1.37285">
        <ele>1562</ele>
        <time>2020-07-27T11:58:05Z</time>
      </trkpt>
      <trkpt lat="42.79468" lon="1.37295">
        <ele>1561</ele>
        <time>2020-07-27T11:58:07Z</time>
      </trkpt>
      <trkpt lat="42.79483" lon="1.37299">
        <ele>1560</ele>
        <time>2020-07-27T11:58:10Z</time>
      </trkpt>
      <trkpt lat="42.79497" lon="1.37295">
        <ele>1558</ele>
        <time>2020-07-27T11:58:12Z</time>
      </trkpt>
      <trkpt lat="42.79519" lon="1.37295">
        <ele>1558</ele>
        <time>2020-07-27T11:58:16Z</time>
      </trkpt>
      <trkpt lat="42.79527" lon="1.37298">
        <ele>1559</ele>
        <time>2020-07-27T11:58:17Z</time>
      </trkpt>
      <trkpt lat="42.79533" lon="1.37307">
        <ele>1562</ele>
        <time>2020-07-27T11:58:19Z</time>
      </trkpt>
      <trkpt lat="42.79534" lon="1.37317">
        <ele>1564</ele>
        <time>2020-07-27T11:58:20Z</time>
      </trkpt>
      <trkpt lat="42.79531" lon="1.37328">
        <ele>1566</ele>
        <time>2020-07-27T11:58:22Z</time>
      </trkpt>
      <trkpt lat="42.79524" lon="1.37335">
        <ele>1567</ele>
        <time>2020-07-27T11:58:23Z</time>
      </trkpt>
      <trkpt lat="42.79516" lon="1.37338">
        <ele>1567</ele>
        <time>2020-07-27T11:58:25Z</time>
      </trkpt>
      <trkpt lat="42.79491" lon="1.37341">
        <ele>1566</ele>
        <time>2020-07-27T11:58:29Z</time>
      </trkpt>
      <trkpt lat="42.79466" lon="1.37349">
        <ele>1566</ele>
        <time>2020-07-27T11:58:34Z</time>
      </trkpt>
      <trkpt lat="42.7944" lon="1.37361">
        <ele>1566</ele>
        <time>2020-07-27T11:58:39Z</time>
      </trkpt>
      <trkpt lat="42.79427" lon="1.37369">
        <ele>1565</ele>
        <time>2020-07-27T11:58:41Z</time>
      </trkpt>
      <trkpt lat="42.79417" lon="1.3738">
        <ele>1564</ele>
        <time>2020-07-27T11:58:44Z</time>
      </trkpt>
      <trkpt lat="42.79405" lon="1.37397">
        <ele>1566</ele>
        <time>2020-07-27T11:58:47Z</time>
      </trkpt>
      <trkpt lat="42.79397" lon="1.37416">
        <ele>1568</ele>
        <time>2020-07-27T11:58:50Z</time>
      </trkpt>
      <trkpt lat="42.79392" lon="1.37435">
        <ele>1568</ele>
        <time>2020-07-27T11:58:52Z</time>
      </trkpt>
      <trkpt lat="42.79392" lon="1.37501">
        <ele>1568</ele>
        <time>2020-07-27T11:59:01Z</time>
      </trkpt>
      <trkpt lat="42.7939" lon="1.37515">
        <ele>1568</ele>
        <time>2020-07-27T11:59:03Z</time>
      </trkpt>
      <trkpt lat="42.79382" lon="1.3756">
        <ele>1564</ele>
        <time>2020-07-27T11:59:09Z</time>
      </trkpt>
      <trkpt lat="42.79368" lon="1.37608">
        <ele>1561</ele>
        <time>2020-07-27T11:59:16Z</time>
      </trkpt>
      <trkpt lat="42.79353" lon="1.37638">
        <ele>1558</ele>
        <time>2020-07-27T11:59:20Z</time>
      </trkpt>
      <trkpt lat="42.79339" lon="1.37657">
        <ele>1555</ele>
        <time>2020-07-27T11:59:24Z</time>
      </trkpt>
      <trkpt lat="42.79306" lon="1.3768">
        <ele>1544</ele>
        <time>2020-07-27T11:59:30Z</time>
      </trkpt>
      <trkpt lat="42.79298" lon="1.37697">
        <ele>1543</ele>
        <time>2020-07-27T11:59:33Z</time>
      </trkpt>
      <trkpt lat="42.7929" lon="1.37757">
        <ele>1547</ele>
        <time>2020-07-27T11:59:41Z</time>
      </trkpt>
      <trkpt lat="42.79284" lon="1.37786">
        <ele>1551</ele>
        <time>2020-07-27T11:59:45Z</time>
      </trkpt>
      <trkpt lat="42.79272" lon="1.37822">
        <ele>1555</ele>
        <time>2020-07-27T11:59:50Z</time>
      </trkpt>
      <trkpt lat="42.79268" lon="1.37828">
        <ele>1555</ele>
        <time>2020-07-27T11:59:51Z</time>
      </trkpt>
      <trkpt lat="42.79262" lon="1.37833">
        <ele>1554</ele>
        <time>2020-07-27T11:59:52Z</time>
      </trkpt>
      <trkpt lat="42.79257" lon="1.37832">
        <ele>1552</ele>
        <time>2020-07-27T11:59:53Z</time>
      </trkpt>
      <trkpt lat="42.79254" lon="1.37824">
        <ele>1549</ele>
        <time>2020-07-27T11:59:54Z</time>
      </trkpt>
      <trkpt lat="42.79256" lon="1.37813">
        <ele>1547</ele>
        <time>2020-07-27T11:59:56Z</time>
      </trkpt>
      <trkpt lat="42.79267" lon="1.37789">
        <ele>1545</ele>
        <time>2020-07-27T12:00:00Z</time>
      </trkpt>
      <trkpt lat="42.79269" lon="1.37777">
        <ele>1542</ele>
        <time>2020-07-27T12:00:01Z</time>
      </trkpt>
      <trkpt lat="42.79269" lon="1.37722">
        <ele>1533</ele>
        <time>2020-07-27T12:00:08Z</time>
      </trkpt>
      <trkpt lat="42.79286" lon="1.37638">
        <ele>1535</ele>
        <time>2020-07-27T12:00:20Z</time>
      </trkpt>
      <trkpt lat="42.79297" lon="1.37602">
        <ele>1539</ele>
        <time>2020-07-27T12:00:25Z</time>
      </trkpt>
      <trkpt lat="42.79296" lon="1.37593">
        <ele>1539</ele>
        <time>2020-07-27T12:00:26Z</time>
      </trkpt>
      <trkpt lat="42.7929" lon="1.37591">
        <ele>1538</ele>
        <time>2020-07-27T12:00:27Z</time>
      </trkpt>
      <trkpt lat="42.79284" lon="1.37591">
        <ele>1536</ele>
        <time>2020-07-27T12:00:28Z</time>
      </trkpt>
      <trkpt lat="42.79279" lon="1.37599">
        <ele>1535</ele>
        <time>2020-07-27T12:00:30Z</time>
      </trkpt>
      <trkpt lat="42.79263" lon="1.37671">
        <ele>1526</ele>
        <time>2020-07-27T12:00:39Z</time>
      </trkpt>
      <trkpt lat="42.7924" lon="1.37739">
        <ele>1521</ele>
        <time>2020-07-27T12:00:49Z</time>
      </trkpt>
      <trkpt lat="42.79227" lon="1.37775">
        <ele>1523</ele>
        <time>2020-07-27T12:00:54Z</time>
      </trkpt>
      <trkpt lat="42.79213" lon="1.37792">
        <ele>1522</ele>
        <time>2020-07-27T12:00:58Z</time>
      </trkpt>
      <trkpt lat="42.79166" lon="1.37831">
        <ele>1515</ele>
        <time>2020-07-27T12:01:08Z</time>
      </trkpt>
      <trkpt lat="42.79091" lon="1.37873">
        <ele>1501</ele>
        <time>2020-07-27T12:01:22Z</time>
      </trkpt>
      <trkpt lat="42.79074" lon="1.37892">
        <ele>1500</ele>
        <time>2020-07-27T12:01:26Z</time>
      </trkpt>
      <trkpt lat="42.7904" lon="1.37961">
        <ele>1501</ele>
        <time>2020-07-27T12:01:37Z</time>
      </trkpt>
      <trkpt lat="42.79029" lon="1.37978">
        <ele>1499</ele>
        <time>2020-07-27T12:01:40Z</time>
      </trkpt>
      <trkpt lat="42.79008" lon="1.37994">
        <ele>1490</ele>
        <time>2020-07-27T12:01:44Z</time>
      </trkpt>
      <trkpt lat="42.79001" lon="1.38001">
        <ele>1487</ele>
        <time>2020-07-27T12:01:46Z</time>
      </trkpt>
      <trkpt lat="42.78998" lon="1.38016">
        <ele>1485</ele>
        <time>2020-07-27T12:01:48Z</time>
      </trkpt>
      <trkpt lat="42.78998" lon="1.38037">
        <ele>1486</ele>
        <time>2020-07-27T12:01:50Z</time>
      </trkpt>
      <trkpt lat="42.79006" lon="1.38118">
        <ele>1494</ele>
        <time>2020-07-27T12:02:01Z</time>
      </trkpt>
      <trkpt lat="42.79006" lon="1.38134">
        <ele>1495</ele>
        <time>2020-07-27T12:02:03Z</time>
      </trkpt>
      <trkpt lat="42.79003" lon="1.3815">
        <ele>1493</ele>
        <time>2020-07-27T12:02:05Z</time>
      </trkpt>
      <trkpt lat="42.78988" lon="1.3818">
        <ele>1488</ele>
        <time>2020-07-27T12:02:10Z</time>
      </trkpt>
      <trkpt lat="42.78949" lon="1.38225">
        <ele>1477</ele>
        <time>2020-07-27T12:02:19Z</time>
      </trkpt>
      <trkpt lat="42.78922" lon="1.38277">
        <ele>1474</ele>
        <time>2020-07-27T12:02:27Z</time>
      </trkpt>
      <trkpt lat="42.78912" lon="1.3829">
        <ele>1471</ele>
        <time>2020-07-27T12:02:30Z</time>
      </trkpt>
      <trkpt lat="42.7889" lon="1.3831">
        <ele>1465</ele>
        <time>2020-07-27T12:02:35Z</time>
      </trkpt>
      <trkpt lat="42.78863" lon="1.38347">
        <ele>1462</ele>
        <time>2020-07-27T12:02:41Z</time>
      </trkpt>
      <trkpt lat="42.78837" lon="1.38394">
        <ele>1467</ele>
        <time>2020-07-27T12:02:49Z</time>
      </trkpt>
      <trkpt lat="42.78825" lon="1.38409">
        <ele>1468</ele>
        <time>2020-07-27T12:02:52Z</time>
      </trkpt>
      <trkpt lat="42.78778" lon="1.38438">
        <ele>1461</ele>
        <time>2020-07-27T12:03:01Z</time>
      </trkpt>
      <trkpt lat="42.78694" lon="1.38486">
        <ele>1457</ele>
        <time>2020-07-27T12:03:17Z</time>
      </trkpt>
      <trkpt lat="42.78671" lon="1.38489">
        <ele>1452</ele>
        <time>2020-07-27T12:03:21Z</time>
      </trkpt>
      <trkpt lat="42.78613" lon="1.38477">
        <ele>1436</ele>
        <time>2020-07-27T12:03:32Z</time>
      </trkpt>
      <trkpt lat="42.78598" lon="1.38479">
        <ele>1433</ele>
        <time>2020-07-27T12:03:35Z</time>
      </trkpt>
      <trkpt lat="42.78586" lon="1.38486">
        <ele>1433</ele>
        <time>2020-07-27T12:03:37Z</time>
      </trkpt>
      <trkpt lat="42.78548" lon="1.38531">
        <ele>1429</ele>
        <time>2020-07-27T12:03:46Z</time>
      </trkpt>
      <trkpt lat="42.78537" lon="1.38554">
        <ele>1429</ele>
        <time>2020-07-27T12:03:49Z</time>
      </trkpt>
      <trkpt lat="42.78519" lon="1.38602">
        <ele>1429</ele>
        <time>2020-07-27T12:03:56Z</time>
      </trkpt>
      <trkpt lat="42.78496" lon="1.38641">
        <ele>1424</ele>
        <time>2020-07-27T12:04:03Z</time>
      </trkpt>
      <trkpt lat="42.7849" lon="1.38673">
        <ele>1425</ele>
        <time>2020-07-27T12:04:07Z</time>
      </trkpt>
      <trkpt lat="42.78487" lon="1.38715">
        <ele>1429</ele>
        <time>2020-07-27T12:04:13Z</time>
      </trkpt>
      <trkpt lat="42.7848" lon="1.38736">
        <ele>1429</ele>
        <time>2020-07-27T12:04:16Z</time>
      </trkpt>
      <trkpt lat="42.78435" lon="1.38808">
        <ele>1427</ele>
        <time>2020-07-27T12:04:28Z</time>
      </trkpt>
      <trkpt lat="42.78411" lon="1.38839">
        <ele>1425</ele>
        <time>2020-07-27T12:04:34Z</time>
      </trkpt>
      <trkpt lat="42.78399" lon="1.38858">
        <ele>1427</ele>
        <time>2020-07-27T12:04:37Z</time>
      </trkpt>
      <trkpt lat="42.78392" lon="1.38878">
        <ele>1430</ele>
        <time>2020-07-27T12:04:40Z</time>
      </trkpt>
      <trkpt lat="42.78381" lon="1.38933">
        <ele>1437</ele>
        <time>2020-07-27T12:04:48Z</time>
      </trkpt>
      <trkpt lat="42.7837" lon="1.38953">
        <ele>1436</ele>
        <time>2020-07-27T12:04:51Z</time>
      </trkpt>
      <trkpt lat="42.78356" lon="1.38966">
        <ele>1433</ele>
        <time>2020-07-27T12:04:54Z</time>
      </trkpt>
      <trkpt lat="42.78344" lon="1.38972">
        <ele>1430</ele>
        <time>2020-07-27T12:04:56Z</time>
      </trkpt>
      <trkpt lat="42.78328" lon="1.38967">
        <ele>1425</ele>
        <time>2020-07-27T12:04:59Z</time>
      </trkpt>
      <trkpt lat="42.78314" lon="1.38947">
        <ele>1424</ele>
        <time>2020-07-27T12:05:03Z</time>
      </trkpt>
      <trkpt lat="42.78303" lon="1.38914">
        <ele>1421</ele>
        <time>2020-07-27T12:05:08Z</time>
      </trkpt>
      <trkpt lat="42.78296" lon="1.38856">
        <ele>1417</ele>
        <time>2020-07-27T12:05:15Z</time>
      </trkpt>
      <trkpt lat="42.78302" lon="1.38814">
        <ele>1414</ele>
        <time>2020-07-27T12:05:21Z</time>
      </trkpt>
      <trkpt lat="42.78332" lon="1.38722">
        <ele>1407</ele>
        <time>2020-07-27T12:05:34Z</time>
      </trkpt>
      <trkpt lat="42.78332" lon="1.38696">
        <ele>1406</ele>
        <time>2020-07-27T12:05:37Z</time>
      </trkpt>
      <trkpt lat="42.78308" lon="1.38642">
        <ele>1401</ele>
        <time>2020-07-27T12:05:46Z</time>
      </trkpt>
      <trkpt lat="42.78277" lon="1.38582">
        <ele>1398</ele>
        <time>2020-07-27T12:05:55Z</time>
      </trkpt>
      <trkpt lat="42.78265" lon="1.38554">
        <ele>1396</ele>
        <time>2020-07-27T12:05:59Z</time>
      </trkpt>
      <trkpt lat="42.78235" lon="1.38437">
        <ele>1393</ele>
        <time>2020-07-27T12:06:16Z</time>
      </trkpt>
      <trkpt lat="42.7821" lon="1.38389">
        <ele>1388</ele>
        <time>2020-07-27T12:06:23Z</time>
      </trkpt>
      <trkpt lat="42.78181" lon="1.38311">
        <ele>1376</ele>
        <time>2020-07-27T12:06:35Z</time>
      </trkpt>
      <trkpt lat="42.78166" lon="1.38297">
        <ele>1373</ele>
        <time>2020-07-27T12:06:38Z</time>
      </trkpt>
      <trkpt lat="42.7815" lon="1.38295">
        <ele>1374</ele>
        <time>2020-07-27T12:06:41Z</time>
      </trkpt>
      <trkpt lat="42.7813" lon="1.383">
        <ele>1376</ele>
        <time>2020-07-27T12:06:44Z</time>
      </trkpt>
      <trkpt lat="42.78112" lon="1.38309">
        <ele>1378</ele>
        <time>2020-07-27T12:06:48Z</time>
      </trkpt>
      <trkpt lat="42.78105" lon="1.38308">
        <ele>1378</ele>
        <time>2020-07-27T12:06:49Z</time>
      </trkpt>
      <trkpt lat="42.78099" lon="1.38303">
        <ele>1378</ele>
        <time>2020-07-27T12:06:50Z</time>
      </trkpt>
      <trkpt lat="42.78095" lon="1.38293">
        <ele>1377</ele>
        <time>2020-07-27T12:06:52Z</time>
      </trkpt>
      <trkpt lat="42.78095" lon="1.38268">
        <ele>1375</ele>
        <time>2020-07-27T12:06:55Z</time>
      </trkpt>
      <trkpt lat="42.78104" lon="1.38199">
        <ele>1366</ele>
        <time>2020-07-27T12:07:04Z</time>
      </trkpt>
      <trkpt lat="42.78105" lon="1.38179">
        <ele>1364</ele>
        <time>2020-07-27T12:07:07Z</time>
      </trkpt>
      <trkpt lat="42.78092" lon="1.38097">
        <ele>1351</ele>
        <time>2020-07-27T12:07:18Z</time>
      </trkpt>
      <trkpt lat="42.78087" lon="1.3808">
        <ele>1349</ele>
        <time>2020-07-27T12:07:20Z</time>
      </trkpt>
      <trkpt lat="42.78079" lon="1.38069">
        <ele>1346</ele>
        <time>2020-07-27T12:07:22Z</time>
      </trkpt>
      <trkpt lat="42.7806" lon="1.38065">
        <ele>1342</ele>
        <time>2020-07-27T12:07:26Z</time>
      </trkpt>
      <trkpt lat="42.78023" lon="1.38069">
        <ele>1340</ele>
        <time>2020-07-27T12:07:32Z</time>
      </trkpt>
      <trkpt lat="42.7797" lon="1.38092">
        <ele>1345</ele>
        <time>2020-07-27T12:07:42Z</time>
      </trkpt>
      <trkpt lat="42.77947" lon="1.38096">
        <ele>1344</ele>
        <time>2020-07-27T12:07:46Z</time>
      </trkpt>
      <trkpt lat="42.77934" lon="1.38095">
        <ele>1342</ele>
        <time>2020-07-27T12:07:49Z</time>
      </trkpt>
      <trkpt lat="42.77912" lon="1.38082">
        <ele>1333</ele>
        <time>2020-07-27T12:07:53Z</time>
      </trkpt>
      <trkpt lat="42.77904" lon="1.38081">
        <ele>1333</ele>
        <time>2020-07-27T12:07:54Z</time>
      </trkpt>
      <trkpt lat="42.77875" lon="1.38093">
        <ele>1338</ele>
        <time>2020-07-27T12:08:00Z</time>
      </trkpt>
      <trkpt lat="42.77834" lon="1.381">
        <ele>1342</ele>
        <time>2020-07-27T12:08:07Z</time>
      </trkpt>
      <trkpt lat="42.77824" lon="1.38095">
        <ele>1338</ele>
        <time>2020-07-27T12:08:09Z</time>
      </trkpt>
      <trkpt lat="42.77825" lon="1.38078">
        <ele>1329</ele>
        <time>2020-07-27T12:08:11Z</time>
      </trkpt>
      <trkpt lat="42.77829" lon="1.38073">
        <ele>1327</ele>
        <time>2020-07-27T12:08:12Z</time>
      </trkpt>
      <trkpt lat="42.7784" lon="1.38071">
        <ele>1327</ele>
        <time>2020-07-27T12:08:14Z</time>
      </trkpt>
      <trkpt lat="42.77866" lon="1.38073">
        <ele>1328</ele>
        <time>2020-07-27T12:08:19Z</time>
      </trkpt>
      <trkpt lat="42.77888" lon="1.38067">
        <ele>1326</ele>
        <time>2020-07-27T12:08:23Z</time>
      </trkpt>
      <trkpt lat="42.7794" lon="1.38042">
        <ele>1319</ele>
        <time>2020-07-27T12:08:32Z</time>
      </trkpt>
      <trkpt lat="42.77981" lon="1.38011">
        <ele>1312</ele>
        <time>2020-07-27T12:08:41Z</time>
      </trkpt>
      <trkpt lat="42.78051" lon="1.37979">
        <ele>1308</ele>
        <time>2020-07-27T12:08:54Z</time>
      </trkpt>
      <trkpt lat="42.78067" lon="1.37966">
        <ele>1303</ele>
        <time>2020-07-27T12:08:57Z</time>
      </trkpt>
      <trkpt lat="42.78091" lon="1.37935">
        <ele>1289</ele>
        <time>2020-07-27T12:09:03Z</time>
      </trkpt>
      <trkpt lat="42.78111" lon="1.37916">
        <ele>1281</ele>
        <time>2020-07-27T12:09:08Z</time>
      </trkpt>
      <trkpt lat="42.78125" lon="1.37912">
        <ele>1280</ele>
        <time>2020-07-27T12:09:10Z</time>
      </trkpt>
      <trkpt lat="42.78147" lon="1.37918">
        <ele>1284</ele>
        <time>2020-07-27T12:09:14Z</time>
      </trkpt>
      <trkpt lat="42.78153" lon="1.37916">
        <ele>1284</ele>
        <time>2020-07-27T12:09:15Z</time>
      </trkpt>
      <trkpt lat="42.78157" lon="1.37907">
        <ele>1281</ele>
        <time>2020-07-27T12:09:17Z</time>
      </trkpt>
      <trkpt lat="42.78155" lon="1.37898">
        <ele>1277</ele>
        <time>2020-07-27T12:09:18Z</time>
      </trkpt>
      <trkpt lat="42.7815" lon="1.37894">
        <ele>1276</ele>
        <time>2020-07-27T12:09:19Z</time>
      </trkpt>
      <trkpt lat="42.78134" lon="1.37892">
        <ele>1274</ele>
        <time>2020-07-27T12:09:22Z</time>
      </trkpt>
      <trkpt lat="42.78114" lon="1.37898">
        <ele>1274</ele>
        <time>2020-07-27T12:09:25Z</time>
      </trkpt>
      <trkpt lat="42.78051" lon="1.37936">
        <ele>1288</ele>
        <time>2020-07-27T12:09:38Z</time>
      </trkpt>
      <trkpt lat="42.78041" lon="1.37936">
        <ele>1287</ele>
        <time>2020-07-27T12:09:39Z</time>
      </trkpt>
      <trkpt lat="42.78031" lon="1.37932">
        <ele>1285</ele>
        <time>2020-07-27T12:09:41Z</time>
      </trkpt>
      <trkpt lat="42.78019" lon="1.37916">
        <ele>1278</ele>
        <time>2020-07-27T12:09:44Z</time>
      </trkpt>
      <trkpt lat="42.78002" lon="1.37888">
        <ele>1266</ele>
        <time>2020-07-27T12:09:49Z</time>
      </trkpt>
      <trkpt lat="42.77993" lon="1.37883">
        <ele>1263</ele>
        <time>2020-07-27T12:09:51Z</time>
      </trkpt>
      <trkpt lat="42.77982" lon="1.37883">
        <ele>1261</ele>
        <time>2020-07-27T12:09:53Z</time>
      </trkpt>
      <trkpt lat="42.77974" lon="1.37887">
        <ele>1262</ele>
        <time>2020-07-27T12:09:54Z</time>
      </trkpt>
      <trkpt lat="42.77955" lon="1.37909">
        <ele>1268</ele>
        <time>2020-07-27T12:09:59Z</time>
      </trkpt>
      <trkpt lat="42.77938" lon="1.37926">
        <ele>1272</ele>
        <time>2020-07-27T12:10:02Z</time>
      </trkpt>
      <trkpt lat="42.77918" lon="1.37935">
        <ele>1272</ele>
        <time>2020-07-27T12:10:06Z</time>
      </trkpt>
      <trkpt lat="42.77901" lon="1.37938">
        <ele>1272</ele>
        <time>2020-07-27T12:10:09Z</time>
      </trkpt>
      <trkpt lat="42.77885" lon="1.37936">
        <ele>1270</ele>
        <time>2020-07-27T12:10:12Z</time>
      </trkpt>
      <trkpt lat="42.77846" lon="1.37923">
        <ele>1261</ele>
        <time>2020-07-27T12:10:19Z</time>
      </trkpt>
      <trkpt lat="42.77833" lon="1.3792">
        <ele>1259</ele>
        <time>2020-07-27T12:10:21Z</time>
      </trkpt>
      <trkpt lat="42.77826" lon="1.37911">
        <ele>1254</ele>
        <time>2020-07-27T12:10:23Z</time>
      </trkpt>
      <trkpt lat="42.77824" lon="1.37901">
        <ele>1249</ele>
        <time>2020-07-27T12:10:25Z</time>
      </trkpt>
      <trkpt lat="42.77828" lon="1.37893">
        <ele>1247</ele>
        <time>2020-07-27T12:10:26Z</time>
      </trkpt>
      <trkpt lat="42.77834" lon="1.3789">
        <ele>1247</ele>
        <time>2020-07-27T12:10:27Z</time>
      </trkpt>
      <trkpt lat="42.77847" lon="1.37894">
        <ele>1250</ele>
        <time>2020-07-27T12:10:29Z</time>
      </trkpt>
      <trkpt lat="42.77872" lon="1.37906">
        <ele>1257</ele>
        <time>2020-07-27T12:10:34Z</time>
      </trkpt>
      <trkpt lat="42.7789" lon="1.37906">
        <ele>1258</ele>
        <time>2020-07-27T12:10:37Z</time>
      </trkpt>
      <trkpt lat="42.7791" lon="1.37893">
        <ele>1255</ele>
        <time>2020-07-27T12:10:41Z</time>
      </trkpt>
      <trkpt lat="42.77922" lon="1.37877">
        <ele>1250</ele>
        <time>2020-07-27T12:10:44Z</time>
      </trkpt>
      <trkpt lat="42.77942" lon="1.37843">
        <ele>1239</ele>
        <time>2020-07-27T12:10:50Z</time>
      </trkpt>
      <trkpt lat="42.77949" lon="1.37837">
        <ele>1238</ele>
        <time>2020-07-27T12:10:51Z</time>
      </trkpt>
      <trkpt lat="42.77976" lon="1.3784">
        <ele>1243</ele>
        <time>2020-07-27T12:10:56Z</time>
      </trkpt>
      <trkpt lat="42.77986" lon="1.37836">
        <ele>1242</ele>
        <time>2020-07-27T12:10:58Z</time>
      </trkpt>
      <trkpt lat="42.7799" lon="1.37828">
        <ele>1239</ele>
        <time>2020-07-27T12:10:59Z</time>
      </trkpt>
      <trkpt lat="42.77987" lon="1.37815">
        <ele>1232</ele>
        <time>2020-07-27T12:11:01Z</time>
      </trkpt>
      <trkpt lat="42.77978" lon="1.3781">
        <ele>1228</ele>
        <time>2020-07-27T12:11:03Z</time>
      </trkpt>
      <trkpt lat="42.7796" lon="1.37809">
        <ele>1226</ele>
        <time>2020-07-27T12:11:06Z</time>
      </trkpt>
      <trkpt lat="42.77939" lon="1.37818">
        <ele>1227</ele>
        <time>2020-07-27T12:11:10Z</time>
      </trkpt>
      <trkpt lat="42.77911" lon="1.37837">
        <ele>1233</ele>
        <time>2020-07-27T12:11:15Z</time>
      </trkpt>
      <trkpt lat="42.77897" lon="1.37839">
        <ele>1233</ele>
        <time>2020-07-27T12:11:18Z</time>
      </trkpt>
      <trkpt lat="42.77875" lon="1.37827">
        <ele>1225</ele>
        <time>2020-07-27T12:11:22Z</time>
      </trkpt>
      <trkpt lat="42.77855" lon="1.37825">
        <ele>1222</ele>
        <time>2020-07-27T12:11:26Z</time>
      </trkpt>
      <trkpt lat="42.77822" lon="1.37833">
        <ele>1221</ele>
        <time>2020-07-27T12:11:32Z</time>
      </trkpt>
      <trkpt lat="42.77771" lon="1.37859">
        <ele>1217</ele>
        <time>2020-07-27T12:11:41Z</time>
      </trkpt>
      <trkpt lat="42.77761" lon="1.37862">
        <ele>1215</ele>
        <time>2020-07-27T12:11:43Z</time>
      </trkpt>
      <trkpt lat="42.77753" lon="1.37858">
        <ele>1211</ele>
        <time>2020-07-27T12:11:45Z</time>
      </trkpt>
      <trkpt lat="42.77752" lon="1.37848">
        <ele>1205</ele>
        <time>2020-07-27T12:11:46Z</time>
      </trkpt>
      <trkpt lat="42.77754" lon="1.37838">
        <ele>1200</ele>
        <time>2020-07-27T12:11:47Z</time>
      </trkpt>
      <trkpt lat="42.77762" lon="1.37833">
        <ele>1200</ele>
        <time>2020-07-27T12:11:49Z</time>
      </trkpt>
      <trkpt lat="42.77777" lon="1.37831">
        <ele>1204</ele>
        <time>2020-07-27T12:11:52Z</time>
      </trkpt>
      <trkpt lat="42.77807" lon="1.37811">
        <ele>1204</ele>
        <time>2020-07-27T12:11:58Z</time>
      </trkpt>
      <trkpt lat="42.77846" lon="1.37796">
        <ele>1205</ele>
        <time>2020-07-27T12:12:05Z</time>
      </trkpt>
      <trkpt lat="42.77864" lon="1.37785">
        <ele>1202</ele>
        <time>2020-07-27T12:12:08Z</time>
      </trkpt>
      <trkpt lat="42.77879" lon="1.37779">
        <ele>1201</ele>
        <time>2020-07-27T12:12:11Z</time>
      </trkpt>
      <trkpt lat="42.77896" lon="1.37779">
        <ele>1203</ele>
        <time>2020-07-27T12:12:14Z</time>
      </trkpt>
      <trkpt lat="42.77906" lon="1.37783">
        <ele>1206</ele>
        <time>2020-07-27T12:12:16Z</time>
      </trkpt>
      <trkpt lat="42.77913" lon="1.37777">
        <ele>1204</ele>
        <time>2020-07-27T12:12:17Z</time>
      </trkpt>
      <trkpt lat="42.77914" lon="1.37766">
        <ele>1199</ele>
        <time>2020-07-27T12:12:19Z</time>
      </trkpt>
      <trkpt lat="42.77911" lon="1.37759">
        <ele>1195</ele>
        <time>2020-07-27T12:12:20Z</time>
      </trkpt>
      <trkpt lat="42.77904" lon="1.37755">
        <ele>1192</ele>
        <time>2020-07-27T12:12:21Z</time>
      </trkpt>
      <trkpt lat="42.77892" lon="1.37756">
        <ele>1191</ele>
        <time>2020-07-27T12:12:23Z</time>
      </trkpt>
      <trkpt lat="42.77847" lon="1.37772">
        <ele>1192</ele>
        <time>2020-07-27T12:12:32Z</time>
      </trkpt>
      <trkpt lat="42.77833" lon="1.3777">
        <ele>1189</ele>
        <time>2020-07-27T12:12:34Z</time>
      </trkpt>
      <trkpt lat="42.77815" lon="1.37754">
        <ele>1176</ele>
        <time>2020-07-27T12:12:38Z</time>
      </trkpt>
      <trkpt lat="42.77806" lon="1.3775">
        <ele>1172</ele>
        <time>2020-07-27T12:12:40Z</time>
      </trkpt>
      <trkpt lat="42.77792" lon="1.37755">
        <ele>1172</ele>
        <time>2020-07-27T12:12:42Z</time>
      </trkpt>
      <trkpt lat="42.7777" lon="1.37782">
        <ele>1180</ele>
        <time>2020-07-27T12:12:48Z</time>
      </trkpt>
      <trkpt lat="42.77757" lon="1.37788">
        <ele>1179</ele>
        <time>2020-07-27T12:12:50Z</time>
      </trkpt>
      <trkpt lat="42.77724" lon="1.37784">
        <ele>1163</ele>
        <time>2020-07-27T12:12:56Z</time>
      </trkpt>
      <trkpt lat="42.77717" lon="1.37786">
        <ele>1161</ele>
        <time>2020-07-27T12:12:57Z</time>
      </trkpt>
      <trkpt lat="42.77712" lon="1.37792">
        <ele>1161</ele>
        <time>2020-07-27T12:12:58Z</time>
      </trkpt>
      <trkpt lat="42.77693" lon="1.37831">
        <ele>1164</ele>
        <time>2020-07-27T12:13:04Z</time>
      </trkpt>
      <trkpt lat="42.7765" lon="1.37889">
        <ele>1171</ele>
        <time>2020-07-27T12:13:15Z</time>
      </trkpt>
      <trkpt lat="42.77629" lon="1.37906">
        <ele>1168</ele>
        <time>2020-07-27T12:13:20Z</time>
      </trkpt>
      <trkpt lat="42.77568" lon="1.3795">
        <ele>1156</ele>
        <time>2020-07-27T12:13:32Z</time>
      </trkpt>
      <trkpt lat="42.77528" lon="1.38017">
        <ele>1165</ele>
        <time>2020-07-27T12:13:43Z</time>
      </trkpt>
      <trkpt lat="42.77512" lon="1.38032">
        <ele>1165</ele>
        <time>2020-07-27T12:13:47Z</time>
      </trkpt>
      <trkpt lat="42.77488" lon="1.38048">
        <ele>1163</ele>
        <time>2020-07-27T12:13:51Z</time>
      </trkpt>
      <trkpt lat="42.77437" lon="1.38076">
        <ele>1161</ele>
        <time>2020-07-27T12:14:01Z</time>
      </trkpt>
      <trkpt lat="42.77425" lon="1.38076">
        <ele>1158</ele>
        <time>2020-07-27T12:14:03Z</time>
      </trkpt>
      <trkpt lat="42.7742" lon="1.38071">
        <ele>1154</ele>
        <time>2020-07-27T12:14:04Z</time>
      </trkpt>
      <trkpt lat="42.77417" lon="1.38064">
        <ele>1151</ele>
        <time>2020-07-27T12:14:05Z</time>
      </trkpt>
      <trkpt lat="42.77421" lon="1.38052">
        <ele>1148</ele>
        <time>2020-07-27T12:14:07Z</time>
      </trkpt>
      <trkpt lat="42.77431" lon="1.38047">
        <ele>1148</ele>
        <time>2020-07-27T12:14:09Z</time>
      </trkpt>
      <trkpt lat="42.77462" lon="1.38038">
        <ele>1152</ele>
        <time>2020-07-27T12:14:15Z</time>
      </trkpt>
      <trkpt lat="42.77483" lon="1.38024">
        <ele>1151</ele>
        <time>2020-07-27T12:14:19Z</time>
      </trkpt>
      <trkpt lat="42.77502" lon="1.38">
        <ele>1144</ele>
        <time>2020-07-27T12:14:23Z</time>
      </trkpt>
      <trkpt lat="42.77515" lon="1.37978">
        <ele>1143</ele>
        <time>2020-07-27T12:14:27Z</time>
      </trkpt>
      <trkpt lat="42.77532" lon="1.37925">
        <ele>1132</ele>
        <time>2020-07-27T12:14:35Z</time>
      </trkpt>
      <trkpt lat="42.77544" lon="1.37904">
        <ele>1130</ele>
        <time>2020-07-27T12:14:38Z</time>
      </trkpt>
      <trkpt lat="42.77586" lon="1.37863">
        <ele>1128</ele>
        <time>2020-07-27T12:14:47Z</time>
      </trkpt>
      <trkpt lat="42.77605" lon="1.37837">
        <ele>1126</ele>
        <time>2020-07-27T12:14:52Z</time>
      </trkpt>
      <trkpt lat="42.77633" lon="1.37782">
        <ele>1123</ele>
        <time>2020-07-27T12:15:01Z</time>
      </trkpt>
      <trkpt lat="42.77644" lon="1.37755">
        <ele>1121</ele>
        <time>2020-07-27T12:15:05Z</time>
      </trkpt>
      <trkpt lat="42.77654" lon="1.37731">
        <ele>1118</ele>
        <time>2020-07-27T12:15:09Z</time>
      </trkpt>
      <trkpt lat="42.77665" lon="1.37694">
        <ele>1110</ele>
        <time>2020-07-27T12:15:14Z</time>
      </trkpt>
      <trkpt lat="42.77672" lon="1.37677">
        <ele>1107</ele>
        <time>2020-07-27T12:15:16Z</time>
      </trkpt>
      <trkpt lat="42.77682" lon="1.37668">
        <ele>1106</ele>
        <time>2020-07-27T12:15:18Z</time>
      </trkpt>
      <trkpt lat="42.77715" lon="1.37658">
        <ele>1112</ele>
        <time>2020-07-27T12:15:24Z</time>
      </trkpt>
      <trkpt lat="42.77737" lon="1.37641">
        <ele>1112</ele>
        <time>2020-07-27T12:15:29Z</time>
      </trkpt>
      <trkpt lat="42.77759" lon="1.37618">
        <ele>1108</ele>
        <time>2020-07-27T12:15:34Z</time>
      </trkpt>
      <trkpt lat="42.77788" lon="1.37602">
        <ele>1103</ele>
        <time>2020-07-27T12:15:39Z</time>
      </trkpt>
      <trkpt lat="42.77821" lon="1.37589">
        <ele>1097</ele>
        <time>2020-07-27T12:15:46Z</time>
      </trkpt>
      <trkpt lat="42.77877" lon="1.37581">
        <ele>1089</ele>
        <time>2020-07-27T12:15:56Z</time>
      </trkpt>
      <trkpt lat="42.77921" lon="1.37581">
        <ele>1086</ele>
        <time>2020-07-27T12:16:03Z</time>
      </trkpt>
      <trkpt lat="42.77953" lon="1.37567">
        <ele>1090</ele>
        <time>2020-07-27T12:16:09Z</time>
      </trkpt>
      <trkpt lat="42.77979" lon="1.3755">
        <ele>1088</ele>
        <time>2020-07-27T12:16:15Z</time>
      </trkpt>
      <trkpt lat="42.77991" lon="1.37535">
        <ele>1084</ele>
        <time>2020-07-27T12:16:17Z</time>
      </trkpt>
      <trkpt lat="42.78054" lon="1.37394">
        <ele>1051</ele>
        <time>2020-07-27T12:16:39Z</time>
      </trkpt>
      <trkpt lat="42.78059" lon="1.37391">
        <ele>1052</ele>
        <time>2020-07-27T12:16:40Z</time>
      </trkpt>
      <trkpt lat="42.78065" lon="1.37393">
        <ele>1053</ele>
        <time>2020-07-27T12:16:41Z</time>
      </trkpt>
      <trkpt lat="42.78074" lon="1.374">
        <ele>1057</ele>
        <time>2020-07-27T12:16:43Z</time>
      </trkpt>
      <trkpt lat="42.78083" lon="1.37402">
        <ele>1060</ele>
        <time>2020-07-27T12:16:44Z</time>
      </trkpt>
      <trkpt lat="42.78092" lon="1.37401">
        <ele>1061</ele>
        <time>2020-07-27T12:16:46Z</time>
      </trkpt>
      <trkpt lat="42.78102" lon="1.37393">
        <ele>1061</ele>
        <time>2020-07-27T12:16:48Z</time>
      </trkpt>
      <trkpt lat="42.78122" lon="1.37364">
        <ele>1057</ele>
        <time>2020-07-27T12:16:53Z</time>
      </trkpt>
      <trkpt lat="42.78146" lon="1.37322">
        <ele>1049</ele>
        <time>2020-07-27T12:17:00Z</time>
      </trkpt>
      <trkpt lat="42.78159" lon="1.37312">
        <ele>1048</ele>
        <time>2020-07-27T12:17:03Z</time>
      </trkpt>
      <trkpt lat="42.7817" lon="1.37307">
        <ele>1049</ele>
        <time>2020-07-27T12:17:05Z</time>
      </trkpt>
      <trkpt lat="42.78183" lon="1.37304">
        <ele>1051</ele>
        <time>2020-07-27T12:17:07Z</time>
      </trkpt>
      <trkpt lat="42.7821" lon="1.37296">
        <ele>1054</ele>
        <time>2020-07-27T12:17:12Z</time>
      </trkpt>
      <trkpt lat="42.78225" lon="1.37281">
        <ele>1052</ele>
        <time>2020-07-27T12:17:16Z</time>
      </trkpt>
      <trkpt lat="42.78264" lon="1.37201">
        <ele>1043</ele>
        <time>2020-07-27T12:17:28Z</time>
      </trkpt>
      <trkpt lat="42.78313" lon="1.37108">
        <ele>1037</ele>
        <time>2020-07-27T12:17:43Z</time>
      </trkpt>
      <trkpt lat="42.78335" lon="1.37081">
        <ele>1036</ele>
        <time>2020-07-27T12:17:48Z</time>
      </trkpt>
      <trkpt lat="42.78351" lon="1.37052">
        <ele>1038</ele>
        <time>2020-07-27T12:17:53Z</time>
      </trkpt>
      <trkpt lat="42.78362" lon="1.37014">
        <ele>1034</ele>
        <time>2020-07-27T12:17:58Z</time>
      </trkpt>
      <trkpt lat="42.78373" lon="1.36958">
        <ele>1030</ele>
        <time>2020-07-27T12:18:06Z</time>
      </trkpt>
      <trkpt lat="42.78382" lon="1.36892">
        <ele>1025</ele>
        <time>2020-07-27T12:18:15Z</time>
      </trkpt>
      <trkpt lat="42.78381" lon="1.36832">
        <ele>1018</ele>
        <time>2020-07-27T12:18:23Z</time>
      </trkpt>
      <trkpt lat="42.78391" lon="1.36748">
        <ele>1012</ele>
        <time>2020-07-27T12:18:34Z</time>
      </trkpt>
      <trkpt lat="42.78394" lon="1.36681">
        <ele>1005</ele>
        <time>2020-07-27T12:18:42Z</time>
      </trkpt>
      <trkpt lat="42.78411" lon="1.36564">
        <ele>998</ele>
        <time>2020-07-27T12:18:58Z</time>
      </trkpt>
      <trkpt lat="42.78413" lon="1.36527">
        <ele>994</ele>
        <time>2020-07-27T12:19:03Z</time>
      </trkpt>
      <trkpt lat="42.78405" lon="1.36426">
        <ele>980</ele>
        <time>2020-07-27T12:19:16Z</time>
      </trkpt>
      <trkpt lat="42.78403" lon="1.36375">
        <ele>973</ele>
        <time>2020-07-27T12:19:23Z</time>
      </trkpt>
      <trkpt lat="42.78407" lon="1.36347">
        <ele>971</ele>
        <time>2020-07-27T12:19:27Z</time>
      </trkpt>
      <trkpt lat="42.7842" lon="1.36298">
        <ele>971</ele>
        <time>2020-07-27T12:19:33Z</time>
      </trkpt>
      <trkpt lat="42.78421" lon="1.36278">
        <ele>970</ele>
        <time>2020-07-27T12:19:36Z</time>
      </trkpt>
      <trkpt lat="42.7841" lon="1.36176">
        <ele>957</ele>
        <time>2020-07-27T12:19:49Z</time>
      </trkpt>
      <trkpt lat="42.78411" lon="1.36152">
        <ele>955</ele>
        <time>2020-07-27T12:19:53Z</time>
      </trkpt>
      <trkpt lat="42.78426" lon="1.36082">
        <ele>949</ele>
        <time>2020-07-27T12:20:02Z</time>
      </trkpt>
      <trkpt lat="42.78436" lon="1.35998">
        <ele>940</ele>
        <time>2020-07-27T12:20:13Z</time>
      </trkpt>
      <trkpt lat="42.78431" lon="1.35967">
        <ele>937</ele>
        <time>2020-07-27T12:20:17Z</time>
      </trkpt>
      <trkpt lat="42.78416" lon="1.35938">
        <ele>931</ele>
        <time>2020-07-27T12:20:22Z</time>
      </trkpt>
      <trkpt lat="42.78408" lon="1.35913">
        <ele>927</ele>
        <time>2020-07-27T12:20:26Z</time>
      </trkpt>
      <trkpt lat="42.78407" lon="1.35889">
        <ele>924</ele>
        <time>2020-07-27T12:20:29Z</time>
      </trkpt>
      <trkpt lat="42.78411" lon="1.35852">
        <ele>920</ele>
        <time>2020-07-27T12:20:34Z</time>
      </trkpt>
      <trkpt lat="42.78453" lon="1.35743">
        <ele>913</ele>
        <time>2020-07-27T12:20:50Z</time>
      </trkpt>
      <trkpt lat="42.7847" lon="1.35706">
        <ele>910</ele>
        <time>2020-07-27T12:20:55Z</time>
      </trkpt>
      <trkpt lat="42.78514" lon="1.3563">
        <ele>905</ele>
        <time>2020-07-27T12:21:08Z</time>
      </trkpt>
      <trkpt lat="42.78532" lon="1.35594">
        <ele>901</ele>
        <time>2020-07-27T12:21:14Z</time>
      </trkpt>
      <trkpt lat="42.78554" lon="1.35537">
        <ele>894</ele>
        <time>2020-07-27T12:21:22Z</time>
      </trkpt>
      <trkpt lat="42.78588" lon="1.35463">
        <ele>886</ele>
        <time>2020-07-27T12:21:34Z</time>
      </trkpt>
      <trkpt lat="42.7861" lon="1.35424">
        <ele>883</ele>
        <time>2020-07-27T12:21:40Z</time>
      </trkpt>
      <trkpt lat="42.78657" lon="1.35363">
        <ele>880</ele>
        <time>2020-07-27T12:21:51Z</time>
      </trkpt>
      <trkpt lat="42.78686" lon="1.35306">
        <ele>874</ele>
        <time>2020-07-27T12:22:01Z</time>
      </trkpt>
      <trkpt lat="42.78697" lon="1.35268">
        <ele>868</ele>
        <time>2020-07-27T12:22:06Z</time>
      </trkpt>
      <trkpt lat="42.78724" lon="1.35207">
        <ele>861</ele>
        <time>2020-07-27T12:22:15Z</time>
      </trkpt>
      <trkpt lat="42.78761" lon="1.35148">
        <ele>857</ele>
        <time>2020-07-27T12:22:25Z</time>
      </trkpt>
      <trkpt lat="42.78768" lon="1.35118">
        <ele>855</ele>
        <time>2020-07-27T12:22:29Z</time>
      </trkpt>
      <trkpt lat="42.78773" lon="1.35013">
        <ele>844</ele>
        <time>2020-07-27T12:22:43Z</time>
      </trkpt>
      <trkpt lat="42.78778" lon="1.34991">
        <ele>842</ele>
        <time>2020-07-27T12:22:46Z</time>
      </trkpt>
      <trkpt lat="42.78807" lon="1.34929">
        <ele>836</ele>
        <time>2020-07-27T12:22:56Z</time>
      </trkpt>
      <trkpt lat="42.78827" lon="1.349">
        <ele>833</ele>
        <time>2020-07-27T12:23:01Z</time>
      </trkpt>
      <trkpt lat="42.78894" lon="1.34835">
        <ele>829</ele>
        <time>2020-07-27T12:23:16Z</time>
      </trkpt>
      <trkpt lat="42.78903" lon="1.34826">
        <ele>828</ele>
        <time>2020-07-27T12:23:18Z</time>
      </trkpt>
      <trkpt lat="42.78913" lon="1.34811">
        <ele>827</ele>
        <time>2020-07-27T12:23:20Z</time>
      </trkpt>
      <trkpt lat="42.78928" lon="1.34782">
        <ele>825</ele>
        <time>2020-07-27T12:23:25Z</time>
      </trkpt>
      <trkpt lat="42.78951" lon="1.34687">
        <ele>814</ele>
        <time>2020-07-27T12:23:38Z</time>
      </trkpt>
      <trkpt lat="42.78952" lon="1.34663">
        <ele>810</ele>
        <time>2020-07-27T12:23:41Z</time>
      </trkpt>
      <trkpt lat="42.78943" lon="1.34624">
        <ele>805</ele>
        <time>2020-07-27T12:23:46Z</time>
      </trkpt>
      <trkpt lat="42.78926" lon="1.34476">
        <ele>791</ele>
        <time>2020-07-27T12:24:06Z</time>
      </trkpt>
      <trkpt lat="42.78924" lon="1.34443">
        <ele>787</ele>
        <time>2020-07-27T12:24:10Z</time>
      </trkpt>
      <trkpt lat="42.78924" lon="1.34409">
        <ele>784</ele>
        <time>2020-07-27T12:24:15Z</time>
      </trkpt>
      <trkpt lat="42.78928" lon="1.34368">
        <ele>779</ele>
        <time>2020-07-27T12:24:20Z</time>
      </trkpt>
      <trkpt lat="42.78936" lon="1.34327">
        <ele>776</ele>
        <time>2020-07-27T12:24:26Z</time>
      </trkpt>
      <trkpt lat="42.78943" lon="1.34299">
        <ele>774</ele>
        <time>2020-07-27T12:24:30Z</time>
      </trkpt>
      <trkpt lat="42.78953" lon="1.34273">
        <ele>773</ele>
        <time>2020-07-27T12:24:33Z</time>
      </trkpt>
      <trkpt lat="42.78983" lon="1.34208">
        <ele>770</ele>
        <time>2020-07-27T12:24:43Z</time>
      </trkpt>
      <trkpt lat="42.78986" lon="1.34189">
        <ele>768</ele>
        <time>2020-07-27T12:24:46Z</time>
      </trkpt>
      <trkpt lat="42.78983" lon="1.34177">
        <ele>767</ele>
        <time>2020-07-27T12:24:48Z</time>
      </trkpt>
      <trkpt lat="42.78978" lon="1.34164">
        <ele>766</ele>
        <time>2020-07-27T12:24:49Z</time>
      </trkpt>
      <trkpt lat="42.78955" lon="1.34132">
        <ele>762</ele>
        <time>2020-07-27T12:24:55Z</time>
      </trkpt>
      <trkpt lat="42.78913" lon="1.3408">
        <ele>758</ele>
        <time>2020-07-27T12:25:05Z</time>
      </trkpt>
      <trkpt lat="42.78905" lon="1.34063">
        <ele>757</ele>
        <time>2020-07-27T12:25:08Z</time>
      </trkpt>
      <trkpt lat="42.78902" lon="1.34048">
        <ele>756</ele>
        <time>2020-07-27T12:25:10Z</time>
      </trkpt>
      <trkpt lat="42.789" lon="1.34033">
        <ele>755</ele>
        <time>2020-07-27T12:25:12Z</time>
      </trkpt>
      <trkpt lat="42.78903" lon="1.33971">
        <ele>753</ele>
        <time>2020-07-27T12:25:20Z</time>
      </trkpt>
      <trkpt lat="42.78902" lon="1.33956">
        <ele>753</ele>
        <time>2020-07-27T12:25:22Z</time>
      </trkpt>
      <trkpt lat="42.78892" lon="1.33912">
        <ele>751</ele>
        <time>2020-07-27T12:25:28Z</time>
      </trkpt>
      <trkpt lat="42.78892" lon="1.33885">
        <ele>750</ele>
        <time>2020-07-27T12:25:32Z</time>
      </trkpt>
      <trkpt lat="42.78898" lon="1.33833">
        <ele>749</ele>
        <time>2020-07-27T12:25:39Z</time>
      </trkpt>
      <trkpt lat="42.78917" lon="1.33759">
        <ele>749</ele>
        <time>2020-07-27T12:25:49Z</time>
      </trkpt>
      <trkpt lat="42.78929" lon="1.33717">
        <ele>749</ele>
        <time>2020-07-27T12:25:55Z</time>
      </trkpt>
      <trkpt lat="42.7895" lon="1.33681">
        <ele>748</ele>
        <time>2020-07-27T12:26:01Z</time>
      </trkpt>
      <trkpt lat="42.78979" lon="1.33644">
        <ele>746</ele>
        <time>2020-07-27T12:26:08Z</time>
      </trkpt>
      <trkpt lat="42.78991" lon="1.3364">
        <ele>745</ele>
        <time>2020-07-27T12:26:10Z</time>
      </trkpt>
      <trkpt lat="42.78996" lon="1.33644">
        <ele>744</ele>
        <time>2020-07-27T12:26:11Z</time>
      </trkpt>
      <trkpt lat="42.79003" lon="1.33645">
        <ele>744</ele>
        <time>2020-07-27T12:26:12Z</time>
      </trkpt>
      <trkpt lat="42.79006" lon="1.33644">
        <ele>744</ele>
        <time>2020-07-27T12:26:13Z</time>
      </trkpt>
      <trkpt lat="42.7901" lon="1.33639">
        <ele>744</ele>
        <time>2020-07-27T12:26:14Z</time>
      </trkpt>
      <trkpt lat="42.7901" lon="1.33628">
        <ele>743</ele>
        <time>2020-07-27T12:26:15Z</time>
      </trkpt>
      <trkpt lat="42.79008" lon="1.33625">
        <ele>743</ele>
        <time>2020-07-27T12:26:16Z</time>
      </trkpt>
      <trkpt lat="42.78999" lon="1.33623">
        <ele>744</ele>
        <time>2020-07-27T12:26:17Z</time>
      </trkpt>
      <trkpt lat="42.78991" lon="1.33628">
        <ele>744</ele>
        <time>2020-07-27T12:26:19Z</time>
      </trkpt>
      <trkpt lat="42.78989" lon="1.33625">
        <ele>744</ele>
        <time>2020-07-27T12:26:19Z</time>
      </trkpt>
      <trkpt lat="42.78976" lon="1.33607">
        <ele>745</ele>
        <time>2020-07-27T12:26:23Z</time>
      </trkpt>
      <trkpt lat="42.78957" lon="1.33591">
        <ele>747</ele>
        <time>2020-07-27T12:26:27Z</time>
      </trkpt>
      <trkpt lat="42.78949" lon="1.33589">
        <ele>748</ele>
        <time>2020-07-27T12:26:28Z</time>
      </trkpt>
      <trkpt lat="42.78942" lon="1.3359">
        <ele>748</ele>
        <time>2020-07-27T12:26:29Z</time>
      </trkpt>
      <trkpt lat="42.7892" lon="1.33606">
        <ele>750</ele>
        <time>2020-07-27T12:26:34Z</time>
      </trkpt>
      <trkpt lat="42.78882" lon="1.33642">
        <ele>759</ele>
        <time>2020-07-27T12:26:42Z</time>
      </trkpt>
      <trkpt lat="42.78848" lon="1.3367">
        <ele>764</ele>
        <time>2020-07-27T12:26:49Z</time>
      </trkpt>
      <trkpt lat="42.78833" lon="1.33686">
        <ele>765</ele>
        <time>2020-07-27T12:26:53Z</time>
      </trkpt>
      <trkpt lat="42.788" lon="1.33732">
        <ele>775</ele>
        <time>2020-07-27T12:27:01Z</time>
      </trkpt>
      <trkpt lat="42.78779" lon="1.33771">
        <ele>778</ele>
        <time>2020-07-27T12:27:07Z</time>
      </trkpt>
      <trkpt lat="42.7876" lon="1.33823">
        <ele>777</ele>
        <time>2020-07-27T12:27:15Z</time>
      </trkpt>
      <trkpt lat="42.78757" lon="1.33827">
        <ele>778</ele>
        <time>2020-07-27T12:27:16Z</time>
      </trkpt>
      <trkpt lat="42.78751" lon="1.3383">
        <ele>779</ele>
        <time>2020-07-27T12:27:17Z</time>
      </trkpt>
      <trkpt lat="42.78744" lon="1.33827">
        <ele>784</ele>
        <time>2020-07-27T12:27:18Z</time>
      </trkpt>
      <trkpt lat="42.78742" lon="1.33822">
        <ele>786</ele>
        <time>2020-07-27T12:27:19Z</time>
      </trkpt>
      <trkpt lat="42.78742" lon="1.33815">
        <ele>787</ele>
        <time>2020-07-27T12:27:20Z</time>
      </trkpt>
      <trkpt lat="42.78744" lon="1.33805">
        <ele>788</ele>
        <time>2020-07-27T12:27:21Z</time>
      </trkpt>
      <trkpt lat="42.78764" lon="1.33749">
        <ele>788</ele>
        <time>2020-07-27T12:27:29Z</time>
      </trkpt>
      <trkpt lat="42.78779" lon="1.33701">
        <ele>791</ele>
        <time>2020-07-27T12:27:36Z</time>
      </trkpt>
      <trkpt lat="42.78825" lon="1.33526">
        <ele>797</ele>
        <time>2020-07-27T12:28:00Z</time>
      </trkpt>
      <trkpt lat="42.78832" lon="1.33477">
        <ele>801</ele>
        <time>2020-07-27T12:28:07Z</time>
      </trkpt>
      <trkpt lat="42.78842" lon="1.33339">
        <ele>818</ele>
        <time>2020-07-27T12:28:25Z</time>
      </trkpt>
      <trkpt lat="42.78849" lon="1.33288">
        <ele>825</ele>
        <time>2020-07-27T12:28:32Z</time>
      </trkpt>
      <trkpt lat="42.78856" lon="1.33255">
        <ele>827</ele>
        <time>2020-07-27T12:28:36Z</time>
      </trkpt>
      <trkpt lat="42.78862" lon="1.33233">
        <ele>829</ele>
        <time>2020-07-27T12:28:39Z</time>
      </trkpt>
      <trkpt lat="42.78897" lon="1.33084">
        <ele>841</ele>
        <time>2020-07-27T12:29:00Z</time>
      </trkpt>
      <trkpt lat="42.7892" lon="1.33019">
        <ele>833</ele>
        <time>2020-07-27T12:29:09Z</time>
      </trkpt>
      <trkpt lat="42.78923" lon="1.33006">
        <ele>833</ele>
        <time>2020-07-27T12:29:11Z</time>
      </trkpt>
      <trkpt lat="42.78921" lon="1.32982">
        <ele>833</ele>
        <time>2020-07-27T12:29:14Z</time>
      </trkpt>
      <trkpt lat="42.78918" lon="1.32969">
        <ele>834</ele>
        <time>2020-07-27T12:29:16Z</time>
      </trkpt>
      <trkpt lat="42.78889" lon="1.32899">
        <ele>850</ele>
        <time>2020-07-27T12:29:26Z</time>
      </trkpt>
      <trkpt lat="42.78866" lon="1.3285">
        <ele>859</ele>
        <time>2020-07-27T12:29:34Z</time>
      </trkpt>
      <trkpt lat="42.7884" lon="1.32801">
        <ele>864</ele>
        <time>2020-07-27T12:29:42Z</time>
      </trkpt>
      <trkpt lat="42.78819" lon="1.32766">
        <ele>864</ele>
        <time>2020-07-27T12:29:48Z</time>
      </trkpt>
      <trkpt lat="42.78721" lon="1.32668">
        <ele>881</ele>
        <time>2020-07-27T12:30:09Z</time>
      </trkpt>
      <trkpt lat="42.78716" lon="1.32659">
        <ele>883</ele>
        <time>2020-07-27T12:30:11Z</time>
      </trkpt>
      <trkpt lat="42.78715" lon="1.32642">
        <ele>887</ele>
        <time>2020-07-27T12:30:13Z</time>
      </trkpt>
      <trkpt lat="42.78721" lon="1.32629">
        <ele>889</ele>
        <time>2020-07-27T12:30:15Z</time>
      </trkpt>
      <trkpt lat="42.78732" lon="1.32622">
        <ele>888</ele>
        <time>2020-07-27T12:30:17Z</time>
      </trkpt>
      <trkpt lat="42.78769" lon="1.32609">
        <ele>884</ele>
        <time>2020-07-27T12:30:24Z</time>
      </trkpt>
      <trkpt lat="42.78794" lon="1.32608">
        <ele>881</ele>
        <time>2020-07-27T12:30:28Z</time>
      </trkpt>
      <trkpt lat="42.78822" lon="1.32613">
        <ele>876</ele>
        <time>2020-07-27T12:30:33Z</time>
      </trkpt>
      <trkpt lat="42.7883" lon="1.32609">
        <ele>877</ele>
        <time>2020-07-27T12:30:35Z</time>
      </trkpt>
      <trkpt lat="42.78847" lon="1.3259">
        <ele>881</ele>
        <time>2020-07-27T12:30:39Z</time>
      </trkpt>
      <trkpt lat="42.78851" lon="1.32586">
        <ele>882</ele>
        <time>2020-07-27T12:30:40Z</time>
      </trkpt>
      <trkpt lat="42.78869" lon="1.32581">
        <ele>881</ele>
        <time>2020-07-27T12:30:43Z</time>
      </trkpt>
      <trkpt lat="42.7888" lon="1.32571">
        <ele>883</ele>
        <time>2020-07-27T12:30:45Z</time>
      </trkpt>
      <trkpt lat="42.78944" lon="1.32479">
        <ele>903</ele>
        <time>2020-07-27T12:31:02Z</time>
      </trkpt>
      <trkpt lat="42.78979" lon="1.32436">
        <ele>909</ele>
        <time>2020-07-27T12:31:10Z</time>
      </trkpt>
      <trkpt lat="42.78994" lon="1.32421">
        <ele>910</ele>
        <time>2020-07-27T12:31:14Z</time>
      </trkpt>
      <trkpt lat="42.79008" lon="1.32412">
        <ele>911</ele>
        <time>2020-07-27T12:31:16Z</time>
      </trkpt>
      <trkpt lat="42.79075" lon="1.32382">
        <ele>908</ele>
        <time>2020-07-27T12:31:29Z</time>
      </trkpt>
      <trkpt lat="42.79079" lon="1.32376">
        <ele>909</ele>
        <time>2020-07-27T12:31:30Z</time>
      </trkpt>
      <trkpt lat="42.7908" lon="1.3237">
        <ele>911</ele>
        <time>2020-07-27T12:31:31Z</time>
      </trkpt>
      <trkpt lat="42.79079" lon="1.32364">
        <ele>912</ele>
        <time>2020-07-27T12:31:32Z</time>
      </trkpt>
      <trkpt lat="42.79075" lon="1.32361">
        <ele>914</ele>
        <time>2020-07-27T12:31:32Z</time>
      </trkpt>
      <trkpt lat="42.79069" lon="1.32361">
        <ele>915</ele>
        <time>2020-07-27T12:31:33Z</time>
      </trkpt>
      <trkpt lat="42.79016" lon="1.32384">
        <ele>920</ele>
        <time>2020-07-27T12:31:43Z</time>
      </trkpt>
      <trkpt lat="42.78991" lon="1.32391">
        <ele>922</ele>
        <time>2020-07-27T12:31:48Z</time>
      </trkpt>
      <trkpt lat="42.78923" lon="1.32425">
        <ele>926</ele>
        <time>2020-07-27T12:32:01Z</time>
      </trkpt>
      <trkpt lat="42.78857" lon="1.32465">
        <ele>928</ele>
        <time>2020-07-27T12:32:14Z</time>
      </trkpt>
      <trkpt lat="42.78837" lon="1.32474">
        <ele>929</ele>
        <time>2020-07-27T12:32:17Z</time>
      </trkpt>
      <trkpt lat="42.78767" lon="1.32471">
        <ele>941</ele>
        <time>2020-07-27T12:32:30Z</time>
      </trkpt>
      <trkpt lat="42.78726" lon="1.32479">
        <ele>946</ele>
        <time>2020-07-27T12:32:37Z</time>
      </trkpt>
      <trkpt lat="42.78695" lon="1.32493">
        <ele>946</ele>
        <time>2020-07-27T12:32:43Z</time>
      </trkpt>
      <trkpt lat="42.78646" lon="1.32528">
        <ele>941</ele>
        <time>2020-07-27T12:32:53Z</time>
      </trkpt>
      <trkpt lat="42.78634" lon="1.32535">
        <ele>941</ele>
        <time>2020-07-27T12:32:55Z</time>
      </trkpt>
      <trkpt lat="42.78593" lon="1.32542">
        <ele>948</ele>
        <time>2020-07-27T12:33:03Z</time>
      </trkpt>
      <trkpt lat="42.78589" lon="1.32539">
        <ele>950</ele>
        <time>2020-07-27T12:33:03Z</time>
      </trkpt>
      <trkpt lat="42.78587" lon="1.32534">
        <ele>952</ele>
        <time>2020-07-27T12:33:04Z</time>
      </trkpt>
      <trkpt lat="42.78588" lon="1.32527">
        <ele>955</ele>
        <time>2020-07-27T12:33:05Z</time>
      </trkpt>
      <trkpt lat="42.78593" lon="1.32522">
        <ele>956</ele>
        <time>2020-07-27T12:33:06Z</time>
      </trkpt>
      <trkpt lat="42.78635" lon="1.32512">
        <ele>950</ele>
        <time>2020-07-27T12:33:14Z</time>
      </trkpt>
      <trkpt lat="42.78644" lon="1.32507">
        <ele>951</ele>
        <time>2020-07-27T12:33:15Z</time>
      </trkpt>
      <trkpt lat="42.78671" lon="1.32477">
        <ele>964</ele>
        <time>2020-07-27T12:33:22Z</time>
      </trkpt>
      <trkpt lat="42.78703" lon="1.32436">
        <ele>981</ele>
        <time>2020-07-27T12:33:29Z</time>
      </trkpt>
      <trkpt lat="42.78754" lon="1.32419">
        <ele>974</ele>
        <time>2020-07-27T12:33:39Z</time>
      </trkpt>
      <trkpt lat="42.7878" lon="1.32405">
        <ele>975</ele>
        <time>2020-07-27T12:33:44Z</time>
      </trkpt>
      <trkpt lat="42.78802" lon="1.32389">
        <ele>977</ele>
        <time>2020-07-27T12:33:48Z</time>
      </trkpt>
      <trkpt lat="42.78847" lon="1.32348">
        <ele>981</ele>
        <time>2020-07-27T12:33:58Z</time>
      </trkpt>
      <trkpt lat="42.78872" lon="1.32316">
        <ele>985</ele>
        <time>2020-07-27T12:34:04Z</time>
      </trkpt>
      <trkpt lat="42.78888" lon="1.32301">
        <ele>985</ele>
        <time>2020-07-27T12:34:07Z</time>
      </trkpt>
      <trkpt lat="42.78955" lon="1.32248">
        <ele>983</ele>
        <time>2020-07-27T12:34:21Z</time>
      </trkpt>
      <trkpt lat="42.78984" lon="1.32197">
        <ele>991</ele>
        <time>2020-07-27T12:34:30Z</time>
      </trkpt>
      <trkpt lat="42.78996" lon="1.32172">
        <ele>995</ele>
        <time>2020-07-27T12:34:34Z</time>
      </trkpt>
      <trkpt lat="42.79003" lon="1.32139">
        <ele>997</ele>
        <time>2020-07-27T12:34:38Z</time>
      </trkpt>
      <trkpt lat="42.79007" lon="1.32089">
        <ele>1000</ele>
        <time>2020-07-27T12:34:45Z</time>
      </trkpt>
      <trkpt lat="42.79006" lon="1.32069">
        <ele>1002</ele>
        <time>2020-07-27T12:34:47Z</time>
      </trkpt>
      <trkpt lat="42.78994" lon="1.32038">
        <ele>1007</ele>
        <time>2020-07-27T12:34:52Z</time>
      </trkpt>
      <trkpt lat="42.78992" lon="1.32023">
        <ele>1009</ele>
        <time>2020-07-27T12:34:54Z</time>
      </trkpt>
      <trkpt lat="42.78993" lon="1.32015">
        <ele>1010</ele>
        <time>2020-07-27T12:34:55Z</time>
      </trkpt>
      <trkpt lat="42.78998" lon="1.32007">
        <ele>1008</ele>
        <time>2020-07-27T12:34:56Z</time>
      </trkpt>
      <trkpt lat="42.79015" lon="1.31998">
        <ele>1012</ele>
        <time>2020-07-27T12:34:59Z</time>
      </trkpt>
      <trkpt lat="42.79033" lon="1.31995">
        <ele>1016</ele>
        <time>2020-07-27T12:35:03Z</time>
      </trkpt>
      <trkpt lat="42.79043" lon="1.31996">
        <ele>1018</ele>
        <time>2020-07-27T12:35:04Z</time>
      </trkpt>
      <trkpt lat="42.79054" lon="1.32002">
        <ele>1017</ele>
        <time>2020-07-27T12:35:07Z</time>
      </trkpt>
      <trkpt lat="42.79064" lon="1.32011">
        <ele>1016</ele>
        <time>2020-07-27T12:35:09Z</time>
      </trkpt>
      <trkpt lat="42.79074" lon="1.32026">
        <ele>1013</ele>
        <time>2020-07-27T12:35:11Z</time>
      </trkpt>
      <trkpt lat="42.79082" lon="1.3204">
        <ele>1009</ele>
        <time>2020-07-27T12:35:14Z</time>
      </trkpt>
      <trkpt lat="42.79099" lon="1.32097">
        <ele>992</ele>
        <time>2020-07-27T12:35:22Z</time>
      </trkpt>
      <trkpt lat="42.79107" lon="1.32108">
        <ele>991</ele>
        <time>2020-07-27T12:35:24Z</time>
      </trkpt>
      <trkpt lat="42.79114" lon="1.32113">
        <ele>990</ele>
        <time>2020-07-27T12:35:25Z</time>
      </trkpt>
      <trkpt lat="42.79123" lon="1.32111">
        <ele>992</ele>
        <time>2020-07-27T12:35:27Z</time>
      </trkpt>
      <trkpt lat="42.7913" lon="1.32105">
        <ele>995</ele>
        <time>2020-07-27T12:35:28Z</time>
      </trkpt>
      <trkpt lat="42.79168" lon="1.32052">
        <ele>1021</ele>
        <time>2020-07-27T12:35:38Z</time>
      </trkpt>
      <trkpt lat="42.79182" lon="1.32041">
        <ele>1024</ele>
        <time>2020-07-27T12:35:41Z</time>
      </trkpt>
      <trkpt lat="42.79219" lon="1.32028">
        <ele>1028</ele>
        <time>2020-07-27T12:35:48Z</time>
      </trkpt>
      <trkpt lat="42.79237" lon="1.32031">
        <ele>1026</ele>
        <time>2020-07-27T12:35:51Z</time>
      </trkpt>
      <trkpt lat="42.79279" lon="1.32048">
        <ele>1018</ele>
        <time>2020-07-27T12:35:59Z</time>
      </trkpt>
      <trkpt lat="42.79289" lon="1.32048">
        <ele>1018</ele>
        <time>2020-07-27T12:36:00Z</time>
      </trkpt>
      <trkpt lat="42.79302" lon="1.32043">
        <ele>1020</ele>
        <time>2020-07-27T12:36:03Z</time>
      </trkpt>
      <trkpt lat="42.79361" lon="1.32002">
        <ele>1034</ele>
        <time>2020-07-27T12:36:15Z</time>
      </trkpt>
      <trkpt lat="42.79419" lon="1.31969">
        <ele>1039</ele>
        <time>2020-07-27T12:36:26Z</time>
      </trkpt>
      <trkpt lat="42.7944" lon="1.31955">
        <ele>1039</ele>
        <time>2020-07-27T12:36:30Z</time>
      </trkpt>
      <trkpt lat="42.79491" lon="1.31911">
        <ele>1040</ele>
        <time>2020-07-27T12:36:41Z</time>
      </trkpt>
      <trkpt lat="42.79494" lon="1.31907">
        <ele>1041</ele>
        <time>2020-07-27T12:36:41Z</time>
      </trkpt>
      <trkpt lat="42.79495" lon="1.319">
        <ele>1043</ele>
        <time>2020-07-27T12:36:42Z</time>
      </trkpt>
      <trkpt lat="42.79494" lon="1.31894">
        <ele>1045</ele>
        <time>2020-07-27T12:36:43Z</time>
      </trkpt>
      <trkpt lat="42.7949" lon="1.31891">
        <ele>1047</ele>
        <time>2020-07-27T12:36:44Z</time>
      </trkpt>
      <trkpt lat="42.79484" lon="1.31891">
        <ele>1049</ele>
        <time>2020-07-27T12:36:45Z</time>
      </trkpt>
      <trkpt lat="42.79454" lon="1.31923">
        <ele>1047</ele>
        <time>2020-07-27T12:36:52Z</time>
      </trkpt>
      <trkpt lat="42.7943" lon="1.31937">
        <ele>1049</ele>
        <time>2020-07-27T12:36:56Z</time>
      </trkpt>
      <trkpt lat="42.79345" lon="1.31955">
        <ele>1054</ele>
        <time>2020-07-27T12:37:12Z</time>
      </trkpt>
      <trkpt lat="42.79289" lon="1.31956">
        <ele>1055</ele>
        <time>2020-07-27T12:37:22Z</time>
      </trkpt>
      <trkpt lat="42.79266" lon="1.31953">
        <ele>1057</ele>
        <time>2020-07-27T12:37:26Z</time>
      </trkpt>
      <trkpt lat="42.79232" lon="1.31929">
        <ele>1067</ele>
        <time>2020-07-27T12:37:33Z</time>
      </trkpt>
      <trkpt lat="42.79221" lon="1.31924">
        <ele>1069</ele>
        <time>2020-07-27T12:37:35Z</time>
      </trkpt>
      <trkpt lat="42.79209" lon="1.31923">
        <ele>1070</ele>
        <time>2020-07-27T12:37:37Z</time>
      </trkpt>
      <trkpt lat="42.79189" lon="1.31923">
        <ele>1071</ele>
        <time>2020-07-27T12:37:40Z</time>
      </trkpt>
      <trkpt lat="42.79165" lon="1.31928">
        <ele>1069</ele>
        <time>2020-07-27T12:37:45Z</time>
      </trkpt>
      <trkpt lat="42.79131" lon="1.3195">
        <ele>1056</ele>
        <time>2020-07-27T12:37:51Z</time>
      </trkpt>
      <trkpt lat="42.79124" lon="1.31952">
        <ele>1054</ele>
        <time>2020-07-27T12:37:53Z</time>
      </trkpt>
      <trkpt lat="42.79119" lon="1.3195">
        <ele>1054</ele>
        <time>2020-07-27T12:37:54Z</time>
      </trkpt>
      <trkpt lat="42.79117" lon="1.31944">
        <ele>1057</ele>
        <time>2020-07-27T12:37:54Z</time>
      </trkpt>
      <trkpt lat="42.79117" lon="1.31938">
        <ele>1060</ele>
        <time>2020-07-27T12:37:55Z</time>
      </trkpt>
      <trkpt lat="42.7912" lon="1.31932">
        <ele>1063</ele>
        <time>2020-07-27T12:37:56Z</time>
      </trkpt>
      <trkpt lat="42.79149" lon="1.31913">
        <ele>1074</ele>
        <time>2020-07-27T12:38:02Z</time>
      </trkpt>
      <trkpt lat="42.7917" lon="1.31904">
        <ele>1079</ele>
        <time>2020-07-27T12:38:06Z</time>
      </trkpt>
      <trkpt lat="42.79214" lon="1.31892">
        <ele>1083</ele>
        <time>2020-07-27T12:38:14Z</time>
      </trkpt>
      <trkpt lat="42.79236" lon="1.31889">
        <ele>1083</ele>
        <time>2020-07-27T12:38:18Z</time>
      </trkpt>
      <trkpt lat="42.79256" lon="1.31891">
        <ele>1081</ele>
        <time>2020-07-27T12:38:21Z</time>
      </trkpt>
      <trkpt lat="42.79281" lon="1.31891">
        <ele>1081</ele>
        <time>2020-07-27T12:38:26Z</time>
      </trkpt>
      <trkpt lat="42.79295" lon="1.31887">
        <ele>1083</ele>
        <time>2020-07-27T12:38:28Z</time>
      </trkpt>
      <trkpt lat="42.79364" lon="1.31846">
        <ele>1092</ele>
        <time>2020-07-27T12:38:42Z</time>
      </trkpt>
      <trkpt lat="42.79388" lon="1.31822">
        <ele>1095</ele>
        <time>2020-07-27T12:38:47Z</time>
      </trkpt>
      <trkpt lat="42.79402" lon="1.31805">
        <ele>1096</ele>
        <time>2020-07-27T12:38:50Z</time>
      </trkpt>
      <trkpt lat="42.79429" lon="1.3177">
        <ele>1099</ele>
        <time>2020-07-27T12:38:57Z</time>
      </trkpt>
      <trkpt lat="42.79463" lon="1.3172">
        <ele>1102</ele>
        <time>2020-07-27T12:39:06Z</time>
      </trkpt>
      <trkpt lat="42.79512" lon="1.31633">
        <ele>1108</ele>
        <time>2020-07-27T12:39:20Z</time>
      </trkpt>
      <trkpt lat="42.7954" lon="1.3158">
        <ele>1110</ele>
        <time>2020-07-27T12:39:29Z</time>
      </trkpt>
      <trkpt lat="42.79546" lon="1.31563">
        <ele>1111</ele>
        <time>2020-07-27T12:39:31Z</time>
      </trkpt>
      <trkpt lat="42.7955" lon="1.31544">
        <ele>1111</ele>
        <time>2020-07-27T12:39:34Z</time>
      </trkpt>
      <trkpt lat="42.79555" lon="1.31229">
        <ele>1119</ele>
        <time>2020-07-27T12:40:15Z</time>
      </trkpt>
      <trkpt lat="42.79558" lon="1.31202">
        <ele>1117</ele>
        <time>2020-07-27T12:40:18Z</time>
      </trkpt>
      <trkpt lat="42.79569" lon="1.31165">
        <ele>1113</ele>
        <time>2020-07-27T12:40:24Z</time>
      </trkpt>
      <trkpt lat="42.79582" lon="1.31141">
        <ele>1110</ele>
        <time>2020-07-27T12:40:28Z</time>
      </trkpt>
      <trkpt lat="42.7962" lon="1.31092">
        <ele>1116</ele>
        <time>2020-07-27T12:40:37Z</time>
      </trkpt>
      <trkpt lat="42.79626" lon="1.31078">
        <ele>1116</ele>
        <time>2020-07-27T12:40:39Z</time>
      </trkpt>
      <trkpt lat="42.7963" lon="1.31064">
        <ele>1116</ele>
        <time>2020-07-27T12:40:41Z</time>
      </trkpt>
      <trkpt lat="42.79697" lon="1.30809">
        <ele>1109</ele>
        <time>2020-07-27T12:41:16Z</time>
      </trkpt>
      <trkpt lat="42.79706" lon="1.30786">
        <ele>1107</ele>
        <time>2020-07-27T12:41:20Z</time>
      </trkpt>
      <trkpt lat="42.79715" lon="1.30774">
        <ele>1106</ele>
        <time>2020-07-27T12:41:22Z</time>
      </trkpt>
      <trkpt lat="42.7973" lon="1.3076">
        <ele>1104</ele>
        <time>2020-07-27T12:41:25Z</time>
      </trkpt>
      <trkpt lat="42.7974" lon="1.30746">
        <ele>1100</ele>
        <time>2020-07-27T12:41:28Z</time>
      </trkpt>
      <trkpt lat="42.79765" lon="1.30684">
        <ele>1094</ele>
        <time>2020-07-27T12:41:37Z</time>
      </trkpt>
      <trkpt lat="42.79818" lon="1.3058">
        <ele>1087</ele>
        <time>2020-07-27T12:41:54Z</time>
      </trkpt>
      <trkpt lat="42.7983" lon="1.30554">
        <ele>1083</ele>
        <time>2020-07-27T12:41:58Z</time>
      </trkpt>
      <trkpt lat="42.79859" lon="1.30471">
        <ele>1078</ele>
        <time>2020-07-27T12:42:10Z</time>
      </trkpt>
      <trkpt lat="42.79869" lon="1.3045">
        <ele>1077</ele>
        <time>2020-07-27T12:42:13Z</time>
      </trkpt>
      <trkpt lat="42.79892" lon="1.30415">
        <ele>1075</ele>
        <time>2020-07-27T12:42:19Z</time>
      </trkpt>
      <trkpt lat="42.79904" lon="1.30389">
        <ele>1071</ele>
        <time>2020-07-27T12:42:23Z</time>
      </trkpt>
      <trkpt lat="42.79915" lon="1.30357">
        <ele>1064</ele>
        <time>2020-07-27T12:42:28Z</time>
      </trkpt>
      <trkpt lat="42.79927" lon="1.30329">
        <ele>1061</ele>
        <time>2020-07-27T12:42:32Z</time>
      </trkpt>
      <trkpt lat="42.7994" lon="1.30306">
        <ele>1061</ele>
        <time>2020-07-27T12:42:36Z</time>
      </trkpt>
      <trkpt lat="42.79983" lon="1.30243">
        <ele>1056</ele>
        <time>2020-07-27T12:42:47Z</time>
      </trkpt>
      <trkpt lat="42.80017" lon="1.30185">
        <ele>1052</ele>
        <time>2020-07-27T12:42:57Z</time>
      </trkpt>
      <trkpt lat="42.80027" lon="1.30163">
        <ele>1051</ele>
        <time>2020-07-27T12:43:00Z</time>
      </trkpt>
      <trkpt lat="42.80061" lon="1.3006">
        <ele>1042</ele>
        <time>2020-07-27T12:43:15Z</time>
      </trkpt>
      <trkpt lat="42.80092" lon="1.29934">
        <ele>1033</ele>
        <time>2020-07-27T12:43:32Z</time>
      </trkpt>
      <trkpt lat="42.8011" lon="1.29762">
        <ele>1026</ele>
        <time>2020-07-27T12:43:55Z</time>
      </trkpt>
      <trkpt lat="42.80126" lon="1.29653">
        <ele>1025</ele>
        <time>2020-07-27T12:44:09Z</time>
      </trkpt>
      <trkpt lat="42.80134" lon="1.29564">
        <ele>1021</ele>
        <time>2020-07-27T12:44:21Z</time>
      </trkpt>
      <trkpt lat="42.80132" lon="1.29506">
        <ele>1014</ele>
        <time>2020-07-27T12:44:28Z</time>
      </trkpt>
      <trkpt lat="42.80128" lon="1.2947">
        <ele>1009</ele>
        <time>2020-07-27T12:44:33Z</time>
      </trkpt>
      <trkpt lat="42.80126" lon="1.29364">
        <ele>997</ele>
        <time>2020-07-27T12:44:47Z</time>
      </trkpt>
      <trkpt lat="42.80131" lon="1.29273">
        <ele>990</ele>
        <time>2020-07-27T12:44:59Z</time>
      </trkpt>
      <trkpt lat="42.80142" lon="1.29203">
        <ele>983</ele>
        <time>2020-07-27T12:45:08Z</time>
      </trkpt>
      <trkpt lat="42.80155" lon="1.29147">
        <ele>978</ele>
        <time>2020-07-27T12:45:16Z</time>
      </trkpt>
      <trkpt lat="42.80162" lon="1.2909">
        <ele>972</ele>
        <time>2020-07-27T12:45:24Z</time>
      </trkpt>
      <trkpt lat="42.80164" lon="1.28996">
        <ele>965</ele>
        <time>2020-07-27T12:45:36Z</time>
      </trkpt>
      <trkpt lat="42.80167" lon="1.28961">
        <ele>962</ele>
        <time>2020-07-27T12:45:40Z</time>
      </trkpt>
      <trkpt lat="42.80188" lon="1.28857">
        <ele>960</ele>
        <time>2020-07-27T12:45:54Z</time>
      </trkpt>
      <trkpt lat="42.80191" lon="1.28827">
        <ele>958</ele>
        <time>2020-07-27T12:45:58Z</time>
      </trkpt>
      <trkpt lat="42.802" lon="1.28632">
        <ele>944</ele>
        <time>2020-07-27T12:46:24Z</time>
      </trkpt>
      <trkpt lat="42.80206" lon="1.28599">
        <ele>942</ele>
        <time>2020-07-27T12:46:28Z</time>
      </trkpt>
      <trkpt lat="42.80259" lon="1.2842">
        <ele>932</ele>
        <time>2020-07-27T12:46:54Z</time>
      </trkpt>
      <trkpt lat="42.80286" lon="1.28341">
        <ele>935</ele>
        <time>2020-07-27T12:47:05Z</time>
      </trkpt>
      <trkpt lat="42.80295" lon="1.28302">
        <ele>934</ele>
        <time>2020-07-27T12:47:10Z</time>
      </trkpt>
      <trkpt lat="42.80301" lon="1.28262">
        <ele>932</ele>
        <time>2020-07-27T12:47:16Z</time>
      </trkpt>
      <trkpt lat="42.80309" lon="1.28112">
        <ele>916</ele>
        <time>2020-07-27T12:47:35Z</time>
      </trkpt>
      <trkpt lat="42.80313" lon="1.2808">
        <ele>912</ele>
        <time>2020-07-27T12:47:39Z</time>
      </trkpt>
      <trkpt lat="42.8034" lon="1.27996">
        <ele>905</ele>
        <time>2020-07-27T12:47:51Z</time>
      </trkpt>
      <trkpt lat="42.80358" lon="1.27954">
        <ele>903</ele>
        <time>2020-07-27T12:47:58Z</time>
      </trkpt>
      <trkpt lat="42.80372" lon="1.27925">
        <ele>902</ele>
        <time>2020-07-27T12:48:02Z</time>
      </trkpt>
      <trkpt lat="42.80375" lon="1.2791">
        <ele>900</ele>
        <time>2020-07-27T12:48:04Z</time>
      </trkpt>
      <trkpt lat="42.80375" lon="1.27893">
        <ele>896</ele>
        <time>2020-07-27T12:48:07Z</time>
      </trkpt>
      <trkpt lat="42.80377" lon="1.27861">
        <ele>890</ele>
        <time>2020-07-27T12:48:11Z</time>
      </trkpt>
      <trkpt lat="42.80383" lon="1.27847">
        <ele>890</ele>
        <time>2020-07-27T12:48:13Z</time>
      </trkpt>
      <trkpt lat="42.80402" lon="1.27825">
        <ele>893</ele>
        <time>2020-07-27T12:48:17Z</time>
      </trkpt>
      <trkpt lat="42.80418" lon="1.27791">
        <ele>894</ele>
        <time>2020-07-27T12:48:23Z</time>
      </trkpt>
      <trkpt lat="42.80428" lon="1.27709">
        <ele>883</ele>
        <time>2020-07-27T12:48:33Z</time>
      </trkpt>
      <trkpt lat="42.80442" lon="1.27634">
        <ele>875</ele>
        <time>2020-07-27T12:48:44Z</time>
      </trkpt>
      <trkpt lat="42.80463" lon="1.27572">
        <ele>871</ele>
        <time>2020-07-27T12:48:52Z</time>
      </trkpt>
      <trkpt lat="42.80475" lon="1.27546">
        <ele>869</ele>
        <time>2020-07-27T12:48:56Z</time>
      </trkpt>
      <trkpt lat="42.80511" lon="1.27496">
        <ele>869</ele>
        <time>2020-07-27T12:49:06Z</time>
      </trkpt>
      <trkpt lat="42.80525" lon="1.27471">
        <ele>867</ele>
        <time>2020-07-27T12:49:10Z</time>
      </trkpt>
      <trkpt lat="42.80523" lon="1.27463">
        <ele>863</ele>
        <time>2020-07-27T12:49:11Z</time>
      </trkpt>
      <trkpt lat="42.80517" lon="1.27461">
        <ele>859</ele>
        <time>2020-07-27T12:49:12Z</time>
      </trkpt>
      <trkpt lat="42.80511" lon="1.27464">
        <ele>858</ele>
        <time>2020-07-27T12:49:13Z</time>
      </trkpt>
      <trkpt lat="42.80463" lon="1.27521">
        <ele>856</ele>
        <time>2020-07-27T12:49:24Z</time>
      </trkpt>
      <trkpt lat="42.80437" lon="1.2756">
        <ele>854</ele>
        <time>2020-07-27T12:49:31Z</time>
      </trkpt>
      <trkpt lat="42.80411" lon="1.27609">
        <ele>851</ele>
        <time>2020-07-27T12:49:39Z</time>
      </trkpt>
      <trkpt lat="42.8039" lon="1.27643">
        <ele>849</ele>
        <time>2020-07-27T12:49:45Z</time>
      </trkpt>
      <trkpt lat="42.80356" lon="1.27707">
        <ele>845</ele>
        <time>2020-07-27T12:49:55Z</time>
      </trkpt>
      <trkpt lat="42.80338" lon="1.27735">
        <ele>842</ele>
        <time>2020-07-27T12:50:00Z</time>
      </trkpt>
      <trkpt lat="42.80318" lon="1.27754">
        <ele>841</ele>
        <time>2020-07-27T12:50:05Z</time>
      </trkpt>
      <trkpt lat="42.80311" lon="1.27751">
        <ele>839</ele>
        <time>2020-07-27T12:50:06Z</time>
      </trkpt>
      <trkpt lat="42.80307" lon="1.27744">
        <ele>837</ele>
        <time>2020-07-27T12:50:07Z</time>
      </trkpt>
      <trkpt lat="42.80307" lon="1.27731">
        <ele>835</ele>
        <time>2020-07-27T12:50:09Z</time>
      </trkpt>
      <trkpt lat="42.80332" lon="1.27659">
        <ele>825</ele>
        <time>2020-07-27T12:50:19Z</time>
      </trkpt>
      <trkpt lat="42.80341" lon="1.27591">
        <ele>819</ele>
        <time>2020-07-27T12:50:28Z</time>
      </trkpt>
      <trkpt lat="42.80346" lon="1.27562">
        <ele>816</ele>
        <time>2020-07-27T12:50:32Z</time>
      </trkpt>
      <trkpt lat="42.80354" lon="1.27538">
        <ele>815</ele>
        <time>2020-07-27T12:50:35Z</time>
      </trkpt>
      <trkpt lat="42.8037" lon="1.27507">
        <ele>815</ele>
        <time>2020-07-27T12:50:40Z</time>
      </trkpt>
      <trkpt lat="42.80402" lon="1.27458">
        <ele>813</ele>
        <time>2020-07-27T12:50:49Z</time>
      </trkpt>
      <trkpt lat="42.80489" lon="1.27333">
        <ele>805</ele>
        <time>2020-07-27T12:51:11Z</time>
      </trkpt>
      <trkpt lat="42.80558" lon="1.2725">
        <ele>799</ele>
        <time>2020-07-27T12:51:28Z</time>
      </trkpt>
      <trkpt lat="42.80668" lon="1.2711">
        <ele>779</ele>
        <time>2020-07-27T12:51:55Z</time>
      </trkpt>
      <trkpt lat="42.80732" lon="1.27006">
        <ele>774</ele>
        <time>2020-07-27T12:52:12Z</time>
      </trkpt>
      <trkpt lat="42.80731" lon="1.26999">
        <ele>771</ele>
        <time>2020-07-27T12:52:13Z</time>
      </trkpt>
      <trkpt lat="42.80728" lon="1.26997">
        <ele>770</ele>
        <time>2020-07-27T12:52:14Z</time>
      </trkpt>
      <trkpt lat="42.80723" lon="1.26999">
        <ele>768</ele>
        <time>2020-07-27T12:52:15Z</time>
      </trkpt>
      <trkpt lat="42.80672" lon="1.27063">
        <ele>764</ele>
        <time>2020-07-27T12:52:27Z</time>
      </trkpt>
      <trkpt lat="42.80638" lon="1.27095">
        <ele>763</ele>
        <time>2020-07-27T12:52:34Z</time>
      </trkpt>
      <trkpt lat="42.80603" lon="1.27125">
        <ele>763</ele>
        <time>2020-07-27T12:52:42Z</time>
      </trkpt>
      <trkpt lat="42.80455" lon="1.27206">
        <ele>750</ele>
        <time>2020-07-27T12:53:10Z</time>
      </trkpt>
      <trkpt lat="42.80228" lon="1.27344">
        <ele>727</ele>
        <time>2020-07-27T12:53:54Z</time>
      </trkpt>
      <trkpt lat="42.80208" lon="1.27365">
        <ele>728</ele>
        <time>2020-07-27T12:53:59Z</time>
      </trkpt>
      <trkpt lat="42.80192" lon="1.2739">
        <ele>729</ele>
        <time>2020-07-27T12:54:03Z</time>
      </trkpt>
      <trkpt lat="42.80186" lon="1.27395">
        <ele>729</ele>
        <time>2020-07-27T12:54:04Z</time>
      </trkpt>
      <trkpt lat="42.8018" lon="1.27396">
        <ele>727</ele>
        <time>2020-07-27T12:54:06Z</time>
      </trkpt>
      <trkpt lat="42.80173" lon="1.27392">
        <ele>725</ele>
        <time>2020-07-27T12:54:07Z</time>
      </trkpt>
      <trkpt lat="42.8017" lon="1.27385">
        <ele>723</ele>
        <time>2020-07-27T12:54:08Z</time>
      </trkpt>
      <trkpt lat="42.80169" lon="1.27377">
        <ele>721</ele>
        <time>2020-07-27T12:54:09Z</time>
      </trkpt>
      <trkpt lat="42.80169" lon="1.27368">
        <ele>720</ele>
        <time>2020-07-27T12:54:10Z</time>
      </trkpt>
      <trkpt lat="42.80172" lon="1.27359">
        <ele>719</ele>
        <time>2020-07-27T12:54:11Z</time>
      </trkpt>
      <trkpt lat="42.80203" lon="1.27325">
        <ele>719</ele>
        <time>2020-07-27T12:54:19Z</time>
      </trkpt>
      <trkpt lat="42.80242" lon="1.2725">
        <ele>707</ele>
        <time>2020-07-27T12:54:31Z</time>
      </trkpt>
      <trkpt lat="42.80249" lon="1.27231">
        <ele>705</ele>
        <time>2020-07-27T12:54:33Z</time>
      </trkpt>
      <trkpt lat="42.80254" lon="1.27209">
        <ele>703</ele>
        <time>2020-07-27T12:54:36Z</time>
      </trkpt>
      <trkpt lat="42.80256" lon="1.27182">
        <ele>700</ele>
        <time>2020-07-27T12:54:40Z</time>
      </trkpt>
      <trkpt lat="42.8026" lon="1.27104">
        <ele>696</ele>
        <time>2020-07-27T12:54:50Z</time>
      </trkpt>
      <trkpt lat="42.80263" lon="1.2709">
        <ele>695</ele>
        <time>2020-07-27T12:54:52Z</time>
      </trkpt>
      <trkpt lat="42.80268" lon="1.2708">
        <ele>695</ele>
        <time>2020-07-27T12:54:54Z</time>
      </trkpt>
      <trkpt lat="42.8033" lon="1.27022">
        <ele>693</ele>
        <time>2020-07-27T12:55:07Z</time>
      </trkpt>
      <trkpt lat="42.80337" lon="1.27009">
        <ele>693</ele>
        <time>2020-07-27T12:55:09Z</time>
      </trkpt>
      <trkpt lat="42.80381" lon="1.269">
        <ele>690</ele>
        <time>2020-07-27T12:55:25Z</time>
      </trkpt>
      <trkpt lat="42.80386" lon="1.26884">
        <ele>689</ele>
        <time>2020-07-27T12:55:28Z</time>
      </trkpt>
      <trkpt lat="42.80387" lon="1.26868">
        <ele>689</ele>
        <time>2020-07-27T12:55:30Z</time>
      </trkpt>
      <trkpt lat="42.80389" lon="1.2683">
        <ele>688</ele>
        <time>2020-07-27T12:55:35Z</time>
      </trkpt>
      <trkpt lat="42.80394" lon="1.26752">
        <ele>692</ele>
        <time>2020-07-27T12:55:45Z</time>
      </trkpt>
      <trkpt lat="42.80398" lon="1.26729">
        <ele>695</ele>
        <time>2020-07-27T12:55:48Z</time>
      </trkpt>
      <trkpt lat="42.80402" lon="1.26712">
        <ele>697</ele>
        <time>2020-07-27T12:55:50Z</time>
      </trkpt>
      <trkpt lat="42.80409" lon="1.26697">
        <ele>697</ele>
        <time>2020-07-27T12:55:53Z</time>
      </trkpt>
      <trkpt lat="42.80468" lon="1.26604">
        <ele>699</ele>
        <time>2020-07-27T12:56:09Z</time>
      </trkpt>
      <trkpt lat="42.80531" lon="1.26497">
        <ele>699</ele>
        <time>2020-07-27T12:56:27Z</time>
      </trkpt>
      <trkpt lat="42.80537" lon="1.26483">
        <ele>701</ele>
        <time>2020-07-27T12:56:29Z</time>
      </trkpt>
      <trkpt lat="42.80561" lon="1.26407">
        <ele>707</ele>
        <time>2020-07-27T12:56:39Z</time>
      </trkpt>
      <trkpt lat="42.80589" lon="1.26344">
        <ele>708</ele>
        <time>2020-07-27T12:56:49Z</time>
      </trkpt>
      <trkpt lat="42.80615" lon="1.26298">
        <ele>711</ele>
        <time>2020-07-27T12:56:57Z</time>
      </trkpt>
      <trkpt lat="42.80631" lon="1.26275">
        <ele>711</ele>
        <time>2020-07-27T12:57:01Z</time>
      </trkpt>
      <trkpt lat="42.80648" lon="1.26254">
        <ele>708</ele>
        <time>2020-07-27T12:57:05Z</time>
      </trkpt>
      <trkpt lat="42.80671" lon="1.2623">
        <ele>705</ele>
        <time>2020-07-27T12:57:10Z</time>
      </trkpt>
      <trkpt lat="42.8068" lon="1.26214">
        <ele>706</ele>
        <time>2020-07-27T12:57:13Z</time>
      </trkpt>
      <trkpt lat="42.80704" lon="1.26156">
        <ele>710</ele>
        <time>2020-07-27T12:57:21Z</time>
      </trkpt>
      <trkpt lat="42.8078" lon="1.26011">
        <ele>697</ele>
        <time>2020-07-27T12:57:45Z</time>
      </trkpt>
      <trkpt lat="42.80805" lon="1.25953">
        <ele>694</ele>
        <time>2020-07-27T12:57:53Z</time>
      </trkpt>
      <trkpt lat="42.80817" lon="1.25931">
        <ele>691</ele>
        <time>2020-07-27T12:57:57Z</time>
      </trkpt>
      <trkpt lat="42.80827" lon="1.25917">
        <ele>689</ele>
        <time>2020-07-27T12:58:00Z</time>
      </trkpt>
      <trkpt lat="42.80855" lon="1.2589">
        <ele>687</ele>
        <time>2020-07-27T12:58:06Z</time>
      </trkpt>
      <trkpt lat="42.80863" lon="1.25882">
        <ele>687</ele>
        <time>2020-07-27T12:58:07Z</time>
      </trkpt>
      <trkpt lat="42.80907" lon="1.25831">
        <ele>687</ele>
        <time>2020-07-27T12:58:18Z</time>
      </trkpt>
      <trkpt lat="42.8098" lon="1.2577">
        <ele>684</ele>
        <time>2020-07-27T12:58:33Z</time>
      </trkpt>
      <trkpt lat="42.80999" lon="1.25759">
        <ele>683</ele>
        <time>2020-07-27T12:58:37Z</time>
      </trkpt>
      <trkpt lat="42.81004" lon="1.25751">
        <ele>683</ele>
        <time>2020-07-27T12:58:38Z</time>
      </trkpt>
      <trkpt lat="42.8101" lon="1.25742">
        <ele>682</ele>
        <time>2020-07-27T12:58:40Z</time>
      </trkpt>
      <trkpt lat="42.81027" lon="1.257">
        <ele>682</ele>
        <time>2020-07-27T12:58:46Z</time>
      </trkpt>
      <trkpt lat="42.81056" lon="1.2565">
        <ele>682</ele>
        <time>2020-07-27T12:58:54Z</time>
      </trkpt>
      <trkpt lat="42.81136" lon="1.25494">
        <ele>686</ele>
        <time>2020-07-27T12:59:19Z</time>
      </trkpt>
      <trkpt lat="42.81209" lon="1.25381">
        <ele>690</ele>
        <time>2020-07-27T12:59:39Z</time>
      </trkpt>
      <trkpt lat="42.81274" lon="1.25318">
        <ele>681</ele>
        <time>2020-07-27T12:59:53Z</time>
      </trkpt>
      <trkpt lat="42.81337" lon="1.25292">
        <ele>677</ele>
        <time>2020-07-27T13:00:05Z</time>
      </trkpt>
      <trkpt lat="42.81356" lon="1.25282">
        <ele>677</ele>
        <time>2020-07-27T13:00:08Z</time>
      </trkpt>
      <trkpt lat="42.81437" lon="1.25189">
        <ele>677</ele>
        <time>2020-07-27T13:00:27Z</time>
      </trkpt>
      <trkpt lat="42.8148" lon="1.25135">
        <ele>674</ele>
        <time>2020-07-27T13:00:37Z</time>
      </trkpt>
      <trkpt lat="42.81489" lon="1.25105">
        <ele>674</ele>
        <time>2020-07-27T13:00:42Z</time>
      </trkpt>
      <trkpt lat="42.81494" lon="1.25075">
        <ele>675</ele>
        <time>2020-07-27T13:00:46Z</time>
      </trkpt>
      <trkpt lat="42.81497" lon="1.25037">
        <ele>675</ele>
        <time>2020-07-27T13:00:51Z</time>
      </trkpt>
      <trkpt lat="42.81497" lon="1.2496">
        <ele>678</ele>
        <time>2020-07-27T13:01:01Z</time>
      </trkpt>
      <trkpt lat="42.81501" lon="1.24941">
        <ele>678</ele>
        <time>2020-07-27T13:01:03Z</time>
      </trkpt>
      <trkpt lat="42.8151" lon="1.24917">
        <ele>678</ele>
        <time>2020-07-27T13:01:07Z</time>
      </trkpt>
      <trkpt lat="42.81521" lon="1.249">
        <ele>677</ele>
        <time>2020-07-27T13:01:10Z</time>
      </trkpt>
      <trkpt lat="42.81546" lon="1.24869">
        <ele>675</ele>
        <time>2020-07-27T13:01:16Z</time>
      </trkpt>
      <trkpt lat="42.81572" lon="1.24849">
        <ele>671</ele>
        <time>2020-07-27T13:01:21Z</time>
      </trkpt>
      <trkpt lat="42.81587" lon="1.24831">
        <ele>670</ele>
        <time>2020-07-27T13:01:25Z</time>
      </trkpt>
      <trkpt lat="42.81596" lon="1.24799">
        <ele>671</ele>
        <time>2020-07-27T13:01:29Z</time>
      </trkpt>
      <trkpt lat="42.81628" lon="1.24631">
        <ele>673</ele>
        <time>2020-07-27T13:01:52Z</time>
      </trkpt>
      <trkpt lat="42.81645" lon="1.24566">
        <ele>674</ele>
        <time>2020-07-27T13:02:01Z</time>
      </trkpt>
      <trkpt lat="42.81672" lon="1.24508">
        <ele>674</ele>
        <time>2020-07-27T13:02:10Z</time>
      </trkpt>
      <trkpt lat="42.81738" lon="1.24401">
        <ele>669</ele>
        <time>2020-07-27T13:02:28Z</time>
      </trkpt>
      <trkpt lat="42.81829" lon="1.24259">
        <ele>664</ele>
        <time>2020-07-27T13:02:53Z</time>
      </trkpt>
      <trkpt lat="42.81995" lon="1.24068">
        <ele>658</ele>
        <time>2020-07-27T13:03:31Z</time>
      </trkpt>
      <trkpt lat="42.82055" lon="1.23985">
        <ele>657</ele>
        <time>2020-07-27T13:03:46Z</time>
      </trkpt>
      <trkpt lat="42.82084" lon="1.23924">
        <ele>654</ele>
        <time>2020-07-27T13:03:56Z</time>
      </trkpt>
      <trkpt lat="42.82136" lon="1.23798">
        <ele>656</ele>
        <time>2020-07-27T13:04:15Z</time>
      </trkpt>
      <trkpt lat="42.82226" lon="1.23596">
        <ele>660</ele>
        <time>2020-07-27T13:04:46Z</time>
      </trkpt>
      <trkpt lat="42.82281" lon="1.23538">
        <ele>658</ele>
        <time>2020-07-27T13:04:58Z</time>
      </trkpt>
      <trkpt lat="42.82354" lon="1.23474">
        <ele>654</ele>
        <time>2020-07-27T13:05:13Z</time>
      </trkpt>
      <trkpt lat="42.82383" lon="1.23434">
        <ele>653</ele>
        <time>2020-07-27T13:05:21Z</time>
      </trkpt>
      <trkpt lat="42.82408" lon="1.23393">
        <ele>649</ele>
        <time>2020-07-27T13:05:28Z</time>
      </trkpt>
      <trkpt lat="42.82446" lon="1.23321">
        <ele>648</ele>
        <time>2020-07-27T13:05:39Z</time>
      </trkpt>
      <trkpt lat="42.82494" lon="1.23222">
        <ele>650</ele>
        <time>2020-07-27T13:05:55Z</time>
      </trkpt>
      <trkpt lat="42.82505" lon="1.23209">
        <ele>651</ele>
        <time>2020-07-27T13:05:57Z</time>
      </trkpt>
      <trkpt lat="42.82515" lon="1.23203">
        <ele>651</ele>
        <time>2020-07-27T13:05:59Z</time>
      </trkpt>
      <trkpt lat="42.82525" lon="1.23201">
        <ele>651</ele>
        <time>2020-07-27T13:06:01Z</time>
      </trkpt>
      <trkpt lat="42.82565" lon="1.23205">
        <ele>649</ele>
        <time>2020-07-27T13:06:08Z</time>
      </trkpt>
      <trkpt lat="42.82578" lon="1.23202">
        <ele>649</ele>
        <time>2020-07-27T13:06:11Z</time>
      </trkpt>
      <trkpt lat="42.826" lon="1.23187">
        <ele>651</ele>
        <time>2020-07-27T13:06:15Z</time>
      </trkpt>
      <trkpt lat="42.82609" lon="1.23178">
        <ele>651</ele>
        <time>2020-07-27T13:06:17Z</time>
      </trkpt>
      <trkpt lat="42.82617" lon="1.23165">
        <ele>651</ele>
        <time>2020-07-27T13:06:19Z</time>
      </trkpt>
      <trkpt lat="42.82649" lon="1.231">
        <ele>649</ele>
        <time>2020-07-27T13:06:29Z</time>
      </trkpt>
      <trkpt lat="42.82661" lon="1.23083">
        <ele>647</ele>
        <time>2020-07-27T13:06:32Z</time>
      </trkpt>
      <trkpt lat="42.82672" lon="1.23072">
        <ele>647</ele>
        <time>2020-07-27T13:06:35Z</time>
      </trkpt>
      <trkpt lat="42.82702" lon="1.23052">
        <ele>648</ele>
        <time>2020-07-27T13:06:41Z</time>
      </trkpt>
      <trkpt lat="42.82715" lon="1.23041">
        <ele>648</ele>
        <time>2020-07-27T13:06:44Z</time>
      </trkpt>
      <trkpt lat="42.82726" lon="1.23027">
        <ele>646</ele>
        <time>2020-07-27T13:06:46Z</time>
      </trkpt>
      <trkpt lat="42.82737" lon="1.23009">
        <ele>643</ele>
        <time>2020-07-27T13:06:49Z</time>
      </trkpt>
      <trkpt lat="42.82745" lon="1.22992">
        <ele>640</ele>
        <time>2020-07-27T13:06:52Z</time>
      </trkpt>
      <trkpt lat="42.82751" lon="1.22969">
        <ele>639</ele>
        <time>2020-07-27T13:06:55Z</time>
      </trkpt>
      <trkpt lat="42.82767" lon="1.22881">
        <ele>640</ele>
        <time>2020-07-27T13:07:07Z</time>
      </trkpt>
      <trkpt lat="42.82781" lon="1.22835">
        <ele>640</ele>
        <time>2020-07-27T13:07:13Z</time>
      </trkpt>
      <trkpt lat="42.82794" lon="1.2282">
        <ele>640</ele>
        <time>2020-07-27T13:07:16Z</time>
      </trkpt>
      <trkpt lat="42.82807" lon="1.22809">
        <ele>639</ele>
        <time>2020-07-27T13:07:19Z</time>
      </trkpt>
      <trkpt lat="42.82843" lon="1.22785">
        <ele>638</ele>
        <time>2020-07-27T13:07:26Z</time>
      </trkpt>
      <trkpt lat="42.82866" lon="1.22749">
        <ele>638</ele>
        <time>2020-07-27T13:07:33Z</time>
      </trkpt>
      <trkpt lat="42.82926" lon="1.2264">
        <ele>635</ele>
        <time>2020-07-27T13:07:50Z</time>
      </trkpt>
      <trkpt lat="42.82933" lon="1.22632">
        <ele>637</ele>
        <time>2020-07-27T13:07:52Z</time>
      </trkpt>
      <trkpt lat="42.82958" lon="1.22601">
        <ele>640</ele>
        <time>2020-07-27T13:07:58Z</time>
      </trkpt>
      <trkpt lat="42.82968" lon="1.22582">
        <ele>640</ele>
        <time>2020-07-27T13:08:01Z</time>
      </trkpt>
      <trkpt lat="42.82976" lon="1.22558">
        <ele>640</ele>
        <time>2020-07-27T13:08:04Z</time>
      </trkpt>
      <trkpt lat="42.82981" lon="1.22536">
        <ele>639</ele>
        <time>2020-07-27T13:08:07Z</time>
      </trkpt>
      <trkpt lat="42.82983" lon="1.22516">
        <ele>638</ele>
        <time>2020-07-27T13:08:10Z</time>
      </trkpt>
      <trkpt lat="42.82982" lon="1.22479">
        <ele>636</ele>
        <time>2020-07-27T13:08:15Z</time>
      </trkpt>
      <trkpt lat="42.82968" lon="1.22309">
        <ele>638</ele>
        <time>2020-07-27T13:08:37Z</time>
      </trkpt>
      <trkpt lat="42.82974" lon="1.22282">
        <ele>636</ele>
        <time>2020-07-27T13:08:41Z</time>
      </trkpt>
      <trkpt lat="42.83002" lon="1.22217">
        <ele>624</ele>
        <time>2020-07-27T13:08:51Z</time>
      </trkpt>
      <trkpt lat="42.83007" lon="1.22178">
        <ele>623</ele>
        <time>2020-07-27T13:08:56Z</time>
      </trkpt>
      <trkpt lat="42.83011" lon="1.22073">
        <ele>629</ele>
        <time>2020-07-27T13:09:10Z</time>
      </trkpt>
      <trkpt lat="42.83019" lon="1.21977">
        <ele>641</ele>
        <time>2020-07-27T13:09:22Z</time>
      </trkpt>
      <trkpt lat="42.83028" lon="1.21951">
        <ele>646</ele>
        <time>2020-07-27T13:09:26Z</time>
      </trkpt>
      <trkpt lat="42.83039" lon="1.21932">
        <ele>646</ele>
        <time>2020-07-27T13:09:29Z</time>
      </trkpt>
      <trkpt lat="42.83048" lon="1.2192">
        <ele>645</ele>
        <time>2020-07-27T13:09:31Z</time>
      </trkpt>
      <trkpt lat="42.83062" lon="1.21916">
        <ele>638</ele>
        <time>2020-07-27T13:09:34Z</time>
      </trkpt>
      <trkpt lat="42.83074" lon="1.21917">
        <ele>631</ele>
        <time>2020-07-27T13:09:36Z</time>
      </trkpt>
      <trkpt lat="42.83099" lon="1.21925">
        <ele>622</ele>
        <time>2020-07-27T13:09:41Z</time>
      </trkpt>
      <trkpt lat="42.83113" lon="1.21925">
        <ele>620</ele>
        <time>2020-07-27T13:09:43Z</time>
      </trkpt>
      <trkpt lat="42.83126" lon="1.2192">
        <ele>617</ele>
        <time>2020-07-27T13:09:46Z</time>
      </trkpt>
      <trkpt lat="42.83136" lon="1.2191">
        <ele>617</ele>
        <time>2020-07-27T13:09:48Z</time>
      </trkpt>
      <trkpt lat="42.83144" lon="1.21898">
        <ele>617</ele>
        <time>2020-07-27T13:09:50Z</time>
      </trkpt>
      <trkpt lat="42.83149" lon="1.21881">
        <ele>619</ele>
        <time>2020-07-27T13:09:52Z</time>
      </trkpt>
      <trkpt lat="42.83158" lon="1.21831">
        <ele>622</ele>
        <time>2020-07-27T13:09:59Z</time>
      </trkpt>
      <trkpt lat="42.83164" lon="1.21811">
        <ele>622</ele>
        <time>2020-07-27T13:10:02Z</time>
      </trkpt>
      <trkpt lat="42.83172" lon="1.21794">
        <ele>623</ele>
        <time>2020-07-27T13:10:04Z</time>
      </trkpt>
      <trkpt lat="42.83194" lon="1.21765">
        <ele>624</ele>
        <time>2020-07-27T13:10:10Z</time>
      </trkpt>
      <trkpt lat="42.83202" lon="1.2175">
        <ele>623</ele>
        <time>2020-07-27T13:10:12Z</time>
      </trkpt>
      <trkpt lat="42.83207" lon="1.21735">
        <ele>623</ele>
        <time>2020-07-27T13:10:14Z</time>
      </trkpt>
      <trkpt lat="42.83208" lon="1.2172">
        <ele>623</ele>
        <time>2020-07-27T13:10:16Z</time>
      </trkpt>
      <trkpt lat="42.83208" lon="1.21704">
        <ele>623</ele>
        <time>2020-07-27T13:10:19Z</time>
      </trkpt>
      <trkpt lat="42.83204" lon="1.21688">
        <ele>625</ele>
        <time>2020-07-27T13:10:21Z</time>
      </trkpt>
      <trkpt lat="42.83197" lon="1.21667">
        <ele>628</ele>
        <time>2020-07-27T13:10:24Z</time>
      </trkpt>
      <trkpt lat="42.83179" lon="1.21605">
        <ele>631</ele>
        <time>2020-07-27T13:10:32Z</time>
      </trkpt>
      <trkpt lat="42.83177" lon="1.21557">
        <ele>627</ele>
        <time>2020-07-27T13:10:39Z</time>
      </trkpt>
      <trkpt lat="42.83179" lon="1.21531">
        <ele>624</ele>
        <time>2020-07-27T13:10:42Z</time>
      </trkpt>
      <trkpt lat="42.83189" lon="1.21484">
        <ele>618</ele>
        <time>2020-07-27T13:10:49Z</time>
      </trkpt>
      <trkpt lat="42.83229" lon="1.21389">
        <ele>608</ele>
        <time>2020-07-27T13:11:03Z</time>
      </trkpt>
      <trkpt lat="42.83241" lon="1.21368">
        <ele>603</ele>
        <time>2020-07-27T13:11:06Z</time>
      </trkpt>
      <trkpt lat="42.83262" lon="1.21345">
        <ele>604</ele>
        <time>2020-07-27T13:11:11Z</time>
      </trkpt>
      <trkpt lat="42.83266" lon="1.21339">
        <ele>605</ele>
        <time>2020-07-27T13:11:12Z</time>
      </trkpt>
      <trkpt lat="42.8327" lon="1.21325">
        <ele>605</ele>
        <time>2020-07-27T13:11:14Z</time>
      </trkpt>
      <trkpt lat="42.83269" lon="1.21176">
        <ele>596</ele>
        <time>2020-07-27T13:11:34Z</time>
      </trkpt>
      <trkpt lat="42.83271" lon="1.21108">
        <ele>599</ele>
        <time>2020-07-27T13:11:42Z</time>
      </trkpt>
      <trkpt lat="42.83281" lon="1.21044">
        <ele>606</ele>
        <time>2020-07-27T13:11:51Z</time>
      </trkpt>
      <trkpt lat="42.83303" lon="1.20964">
        <ele>610</ele>
        <time>2020-07-27T13:12:02Z</time>
      </trkpt>
      <trkpt lat="42.8333" lon="1.20932">
        <ele>599</ele>
        <time>2020-07-27T13:12:08Z</time>
      </trkpt>
      <trkpt lat="42.834" lon="1.20859">
        <ele>601</ele>
        <time>2020-07-27T13:12:24Z</time>
      </trkpt>
      <trkpt lat="42.83411" lon="1.20843">
        <ele>599</ele>
        <time>2020-07-27T13:12:27Z</time>
      </trkpt>
      <trkpt lat="42.83416" lon="1.20829">
        <ele>598</ele>
        <time>2020-07-27T13:12:29Z</time>
      </trkpt>
      <trkpt lat="42.8342" lon="1.20811">
        <ele>600</ele>
        <time>2020-07-27T13:12:32Z</time>
      </trkpt>
      <trkpt lat="42.83419" lon="1.20792">
        <ele>602</ele>
        <time>2020-07-27T13:12:34Z</time>
      </trkpt>
      <trkpt lat="42.83416" lon="1.20774">
        <ele>603</ele>
        <time>2020-07-27T13:12:36Z</time>
      </trkpt>
      <trkpt lat="42.8341" lon="1.2076">
        <ele>605</ele>
        <time>2020-07-27T13:12:39Z</time>
      </trkpt>
      <trkpt lat="42.83401" lon="1.20747">
        <ele>607</ele>
        <time>2020-07-27T13:12:41Z</time>
      </trkpt>
      <trkpt lat="42.83306" lon="1.2064">
        <ele>606</ele>
        <time>2020-07-27T13:13:03Z</time>
      </trkpt>
      <trkpt lat="42.83273" lon="1.20599">
        <ele>603</ele>
        <time>2020-07-27T13:13:11Z</time>
      </trkpt>
      <trkpt lat="42.83244" lon="1.20552">
        <ele>599</ele>
        <time>2020-07-27T13:13:19Z</time>
      </trkpt>
      <trkpt lat="42.8323" lon="1.20515">
        <ele>605</ele>
        <time>2020-07-27T13:13:24Z</time>
      </trkpt>
      <trkpt lat="42.83222" lon="1.20474">
        <ele>606</ele>
        <time>2020-07-27T13:13:30Z</time>
      </trkpt>
      <trkpt lat="42.83218" lon="1.20416">
        <ele>604</ele>
        <time>2020-07-27T13:13:37Z</time>
      </trkpt>
      <trkpt lat="42.83218" lon="1.20358">
        <ele>603</ele>
        <time>2020-07-27T13:13:45Z</time>
      </trkpt>
      <trkpt lat="42.8322" lon="1.20305">
        <ele>603</ele>
        <time>2020-07-27T13:13:52Z</time>
      </trkpt>
      <trkpt lat="42.83227" lon="1.20253">
        <ele>602</ele>
        <time>2020-07-27T13:13:59Z</time>
      </trkpt>
      <trkpt lat="42.83272" lon="1.20106">
        <ele>601</ele>
        <time>2020-07-27T13:14:19Z</time>
      </trkpt>
      <trkpt lat="42.83277" lon="1.20069">
        <ele>603</ele>
        <time>2020-07-27T13:14:24Z</time>
      </trkpt>
      <trkpt lat="42.83277" lon="1.2005">
        <ele>603</ele>
        <time>2020-07-27T13:14:27Z</time>
      </trkpt>
      <trkpt lat="42.83275" lon="1.20032">
        <ele>602</ele>
        <time>2020-07-27T13:14:29Z</time>
      </trkpt>
      <trkpt lat="42.83271" lon="1.20014">
        <ele>600</ele>
        <time>2020-07-27T13:14:32Z</time>
      </trkpt>
      <trkpt lat="42.83264" lon="1.19997">
        <ele>595</ele>
        <time>2020-07-27T13:14:34Z</time>
      </trkpt>
      <trkpt lat="42.83249" lon="1.19966">
        <ele>587</ele>
        <time>2020-07-27T13:14:39Z</time>
      </trkpt>
      <trkpt lat="42.83222" lon="1.19926">
        <ele>587</ele>
        <time>2020-07-27T13:14:46Z</time>
      </trkpt>
      <trkpt lat="42.83209" lon="1.19898">
        <ele>583</ele>
        <time>2020-07-27T13:14:51Z</time>
      </trkpt>
      <trkpt lat="42.83202" lon="1.19864">
        <ele>579</ele>
        <time>2020-07-27T13:14:55Z</time>
      </trkpt>
      <trkpt lat="42.83202" lon="1.19847">
        <ele>577</ele>
        <time>2020-07-27T13:14:57Z</time>
      </trkpt>
      <trkpt lat="42.83213" lon="1.19837">
        <ele>575</ele>
        <time>2020-07-27T13:15:00Z</time>
      </trkpt>
      <trkpt lat="42.83244" lon="1.19831">
        <ele>573</ele>
        <time>2020-07-27T13:15:05Z</time>
      </trkpt>
      <trkpt lat="42.83303" lon="1.19826">
        <ele>577</ele>
        <time>2020-07-27T13:15:16Z</time>
      </trkpt>
      <trkpt lat="42.83352" lon="1.19813">
        <ele>583</ele>
        <time>2020-07-27T13:15:25Z</time>
      </trkpt>
      <trkpt lat="42.83368" lon="1.19806">
        <ele>586</ele>
        <time>2020-07-27T13:15:28Z</time>
      </trkpt>
      <trkpt lat="42.834" lon="1.19784">
        <ele>584</ele>
        <time>2020-07-27T13:15:34Z</time>
      </trkpt>
      <trkpt lat="42.83417" lon="1.19766">
        <ele>578</ele>
        <time>2020-07-27T13:15:38Z</time>
      </trkpt>
      <trkpt lat="42.83432" lon="1.19738">
        <ele>575</ele>
        <time>2020-07-27T13:15:42Z</time>
      </trkpt>
      <trkpt lat="42.83446" lon="1.19706">
        <ele>576</ele>
        <time>2020-07-27T13:15:47Z</time>
      </trkpt>
      <trkpt lat="42.83466" lon="1.19647">
        <ele>574</ele>
        <time>2020-07-27T13:15:56Z</time>
      </trkpt>
      <trkpt lat="42.83474" lon="1.19633">
        <ele>575</ele>
        <time>2020-07-27T13:15:58Z</time>
      </trkpt>
      <trkpt lat="42.83485" lon="1.19621">
        <ele>573</ele>
        <time>2020-07-27T13:16:01Z</time>
      </trkpt>
      <trkpt lat="42.83499" lon="1.19616">
        <ele>570</ele>
        <time>2020-07-27T13:16:03Z</time>
      </trkpt>
      <trkpt lat="42.8355" lon="1.19607">
        <ele>572</ele>
        <time>2020-07-27T13:16:12Z</time>
      </trkpt>
      <trkpt lat="42.8356" lon="1.19607">
        <ele>572</ele>
        <time>2020-07-27T13:16:14Z</time>
      </trkpt>
      <trkpt lat="42.83568" lon="1.19613">
        <ele>573</ele>
        <time>2020-07-27T13:16:16Z</time>
      </trkpt>
      <trkpt lat="42.83574" lon="1.19626">
        <ele>574</ele>
        <time>2020-07-27T13:16:18Z</time>
      </trkpt>
      <trkpt lat="42.83579" lon="1.19642">
        <ele>574</ele>
        <time>2020-07-27T13:16:20Z</time>
      </trkpt>
      <trkpt lat="42.83579" lon="1.1966">
        <ele>575</ele>
        <time>2020-07-27T13:16:22Z</time>
      </trkpt>
      <trkpt lat="42.83572" lon="1.19753">
        <ele>584</ele>
        <time>2020-07-27T13:16:34Z</time>
      </trkpt>
      <trkpt lat="42.83573" lon="1.19773">
        <ele>589</ele>
        <time>2020-07-27T13:16:37Z</time>
      </trkpt>
      <trkpt lat="42.83577" lon="1.19795">
        <ele>593</ele>
        <time>2020-07-27T13:16:40Z</time>
      </trkpt>
      <trkpt lat="42.83583" lon="1.19809">
        <ele>594</ele>
        <time>2020-07-27T13:16:42Z</time>
      </trkpt>
      <trkpt lat="42.83602" lon="1.19827">
        <ele>592</ele>
        <time>2020-07-27T13:16:46Z</time>
      </trkpt>
      <trkpt lat="42.83615" lon="1.19832">
        <ele>589</ele>
        <time>2020-07-27T13:16:49Z</time>
      </trkpt>
      <trkpt lat="42.83631" lon="1.19831">
        <ele>584</ele>
        <time>2020-07-27T13:16:52Z</time>
      </trkpt>
      <trkpt lat="42.83746" lon="1.19806">
        <ele>573</ele>
        <time>2020-07-27T13:17:12Z</time>
      </trkpt>
      <trkpt lat="42.8376" lon="1.19806">
        <ele>572</ele>
        <time>2020-07-27T13:17:15Z</time>
      </trkpt>
      <trkpt lat="42.83771" lon="1.19809">
        <ele>570</ele>
        <time>2020-07-27T13:17:17Z</time>
      </trkpt>
      <trkpt lat="42.83807" lon="1.19831">
        <ele>563</ele>
        <time>2020-07-27T13:17:24Z</time>
      </trkpt>
      <trkpt lat="42.83842" lon="1.19844">
        <ele>565</ele>
        <time>2020-07-27T13:17:30Z</time>
      </trkpt>
      <trkpt lat="42.83856" lon="1.19839">
        <ele>565</ele>
        <time>2020-07-27T13:17:33Z</time>
      </trkpt>
      <trkpt lat="42.8387" lon="1.19814">
        <ele>565</ele>
        <time>2020-07-27T13:17:37Z</time>
      </trkpt>
      <trkpt lat="42.83878" lon="1.19794">
        <ele>566</ele>
        <time>2020-07-27T13:17:40Z</time>
      </trkpt>
      <trkpt lat="42.83892" lon="1.19739">
        <ele>564</ele>
        <time>2020-07-27T13:17:47Z</time>
      </trkpt>
      <trkpt lat="42.83914" lon="1.19642">
        <ele>560</ele>
        <time>2020-07-27T13:18:01Z</time>
      </trkpt>
      <trkpt lat="42.83922" lon="1.19618">
        <ele>561</ele>
        <time>2020-07-27T13:18:04Z</time>
      </trkpt>
      <trkpt lat="42.83944" lon="1.19588">
        <ele>563</ele>
        <time>2020-07-27T13:18:10Z</time>
      </trkpt>
      <trkpt lat="42.83971" lon="1.19557">
        <ele>565</ele>
        <time>2020-07-27T13:18:16Z</time>
      </trkpt>
      <trkpt lat="42.84146" lon="1.19334">
        <ele>566</ele>
        <time>2020-07-27T13:18:59Z</time>
      </trkpt>
      <trkpt lat="42.84163" lon="1.19307">
        <ele>565</ele>
        <time>2020-07-27T13:19:03Z</time>
      </trkpt>
      <trkpt lat="42.84175" lon="1.1928">
        <ele>563</ele>
        <time>2020-07-27T13:19:07Z</time>
      </trkpt>
      <trkpt lat="42.84224" lon="1.19143">
        <ele>556</ele>
        <time>2020-07-27T13:19:27Z</time>
      </trkpt>
      <trkpt lat="42.84235" lon="1.19125">
        <ele>554</ele>
        <time>2020-07-27T13:19:30Z</time>
      </trkpt>
      <trkpt lat="42.84246" lon="1.19116">
        <ele>550</ele>
        <time>2020-07-27T13:19:33Z</time>
      </trkpt>
      <trkpt lat="42.84266" lon="1.19106">
        <ele>548</ele>
        <time>2020-07-27T13:19:36Z</time>
      </trkpt>
      <trkpt lat="42.84279" lon="1.19104">
        <ele>547</ele>
        <time>2020-07-27T13:19:39Z</time>
      </trkpt>
      <trkpt lat="42.84287" lon="1.19105">
        <ele>547</ele>
        <time>2020-07-27T13:19:40Z</time>
      </trkpt>
      <trkpt lat="42.84294" lon="1.19109">
        <ele>547</ele>
        <time>2020-07-27T13:19:41Z</time>
      </trkpt>
      <trkpt lat="42.84332" lon="1.19143">
        <ele>549</ele>
        <time>2020-07-27T13:19:50Z</time>
      </trkpt>
      <trkpt lat="42.84362" lon="1.19162">
        <ele>547</ele>
        <time>2020-07-27T13:19:55Z</time>
      </trkpt>
      <trkpt lat="42.84437" lon="1.19201">
        <ele>548</ele>
        <time>2020-07-27T13:20:10Z</time>
      </trkpt>
      <trkpt lat="42.84456" lon="1.19205">
        <ele>549</ele>
        <time>2020-07-27T13:20:13Z</time>
      </trkpt>
      <trkpt lat="42.8451" lon="1.19201">
        <ele>548</ele>
        <time>2020-07-27T13:20:23Z</time>
      </trkpt>
      <trkpt lat="42.84533" lon="1.19202">
        <ele>548</ele>
        <time>2020-07-27T13:20:27Z</time>
      </trkpt>
      <trkpt lat="42.84567" lon="1.19208">
        <ele>549</ele>
        <time>2020-07-27T13:20:33Z</time>
      </trkpt>
      <trkpt lat="42.84601" lon="1.19217">
        <ele>549</ele>
        <time>2020-07-27T13:20:39Z</time>
      </trkpt>
      <trkpt lat="42.8462" lon="1.19227">
        <ele>550</ele>
        <time>2020-07-27T13:20:43Z</time>
      </trkpt>
      <trkpt lat="42.84678" lon="1.19264">
        <ele>555</ele>
        <time>2020-07-27T13:20:54Z</time>
      </trkpt>
      <trkpt lat="42.84689" lon="1.19268">
        <ele>557</ele>
        <time>2020-07-27T13:20:56Z</time>
      </trkpt>
      <trkpt lat="42.84712" lon="1.19271">
        <ele>558</ele>
        <time>2020-07-27T13:21:00Z</time>
      </trkpt>
      <trkpt lat="42.84727" lon="1.1927">
        <ele>557</ele>
        <time>2020-07-27T13:21:03Z</time>
      </trkpt>
      <trkpt lat="42.84742" lon="1.19266">
        <ele>554</ele>
        <time>2020-07-27T13:21:06Z</time>
      </trkpt>
      <trkpt lat="42.84751" lon="1.19259">
        <ele>550</ele>
        <time>2020-07-27T13:21:08Z</time>
      </trkpt>
      <trkpt lat="42.84759" lon="1.19254">
        <ele>548</ele>
        <time>2020-07-27T13:21:09Z</time>
      </trkpt>
      <trkpt lat="42.84835" lon="1.19189">
        <ele>544</ele>
        <time>2020-07-27T13:21:25Z</time>
      </trkpt>
      <trkpt lat="42.84872" lon="1.19157">
        <ele>543</ele>
        <time>2020-07-27T13:21:33Z</time>
      </trkpt>
      <trkpt lat="42.84888" lon="1.19148">
        <ele>545</ele>
        <time>2020-07-27T13:21:36Z</time>
      </trkpt>
      <trkpt lat="42.849" lon="1.19148">
        <ele>545</ele>
        <time>2020-07-27T13:21:38Z</time>
      </trkpt>
      <trkpt lat="42.84906" lon="1.19152">
        <ele>544</ele>
        <time>2020-07-27T13:21:39Z</time>
      </trkpt>
      <trkpt lat="42.84913" lon="1.19159">
        <ele>542</ele>
        <time>2020-07-27T13:21:41Z</time>
      </trkpt>
      <trkpt lat="42.8495" lon="1.19237">
        <ele>550</ele>
        <time>2020-07-27T13:21:53Z</time>
      </trkpt>
      <trkpt lat="42.8496" lon="1.19253">
        <ele>549</ele>
        <time>2020-07-27T13:21:56Z</time>
      </trkpt>
      <trkpt lat="42.84974" lon="1.19265">
        <ele>549</ele>
        <time>2020-07-27T13:21:59Z</time>
      </trkpt>
      <trkpt lat="42.8499" lon="1.19274">
        <ele>547</ele>
        <time>2020-07-27T13:22:02Z</time>
      </trkpt>
      <trkpt lat="42.85023" lon="1.19282">
        <ele>544</ele>
        <time>2020-07-27T13:22:08Z</time>
      </trkpt>
      <trkpt lat="42.85095" lon="1.19283">
        <ele>539</ele>
        <time>2020-07-27T13:22:20Z</time>
      </trkpt>
      <trkpt lat="42.85164" lon="1.19291">
        <ele>540</ele>
        <time>2020-07-27T13:22:33Z</time>
      </trkpt>
      <trkpt lat="42.85244" lon="1.19309">
        <ele>538</ele>
        <time>2020-07-27T13:22:47Z</time>
      </trkpt>
      <trkpt lat="42.85263" lon="1.19317">
        <ele>539</ele>
        <time>2020-07-27T13:22:51Z</time>
      </trkpt>
      <trkpt lat="42.85278" lon="1.19327">
        <ele>540</ele>
        <time>2020-07-27T13:22:54Z</time>
      </trkpt>
      <trkpt lat="42.85298" lon="1.19344">
        <ele>543</ele>
        <time>2020-07-27T13:22:58Z</time>
      </trkpt>
      <trkpt lat="42.85315" lon="1.19366">
        <ele>545</ele>
        <time>2020-07-27T13:23:02Z</time>
      </trkpt>
      <trkpt lat="42.85331" lon="1.19397">
        <ele>543</ele>
        <time>2020-07-27T13:23:07Z</time>
      </trkpt>
      <trkpt lat="42.85344" lon="1.19431">
        <ele>546</ele>
        <time>2020-07-27T13:23:12Z</time>
      </trkpt>
      <trkpt lat="42.85357" lon="1.19472">
        <ele>551</ele>
        <time>2020-07-27T13:23:18Z</time>
      </trkpt>
      <trkpt lat="42.85389" lon="1.19556">
        <ele>552</ele>
        <time>2020-07-27T13:23:30Z</time>
      </trkpt>
      <trkpt lat="42.85408" lon="1.19588">
        <ele>546</ele>
        <time>2020-07-27T13:23:36Z</time>
      </trkpt>
      <trkpt lat="42.85428" lon="1.19619">
        <ele>548</ele>
        <time>2020-07-27T13:23:41Z</time>
      </trkpt>
      <trkpt lat="42.85446" lon="1.19639">
        <ele>549</ele>
        <time>2020-07-27T13:23:45Z</time>
      </trkpt>
      <trkpt lat="42.85463" lon="1.19653">
        <ele>547</ele>
        <time>2020-07-27T13:23:49Z</time>
      </trkpt>
      <trkpt lat="42.85485" lon="1.19662">
        <ele>542</ele>
        <time>2020-07-27T13:23:53Z</time>
      </trkpt>
      <trkpt lat="42.85594" lon="1.19677">
        <ele>534</ele>
        <time>2020-07-27T13:24:12Z</time>
      </trkpt>
      <trkpt lat="42.85699" lon="1.197">
        <ele>536</ele>
        <time>2020-07-27T13:24:31Z</time>
      </trkpt>
      <trkpt lat="42.85718" lon="1.19706">
        <ele>536</ele>
        <time>2020-07-27T13:24:35Z</time>
      </trkpt>
      <trkpt lat="42.8585" lon="1.19765">
        <ele>527</ele>
        <time>2020-07-27T13:24:59Z</time>
      </trkpt>
      <trkpt lat="42.85898" lon="1.19777">
        <ele>527</ele>
        <time>2020-07-27T13:25:08Z</time>
      </trkpt>
      <trkpt lat="42.85928" lon="1.19787">
        <ele>527</ele>
        <time>2020-07-27T13:25:13Z</time>
      </trkpt>
      <trkpt lat="42.85962" lon="1.19803">
        <ele>526</ele>
        <time>2020-07-27T13:25:20Z</time>
      </trkpt>
      <trkpt lat="42.85976" lon="1.1981">
        <ele>525</ele>
        <time>2020-07-27T13:25:23Z</time>
      </trkpt>
      <trkpt lat="42.85977" lon="1.19811">
        <ele>525</ele>
        <time>2020-07-27T13:25:23Z</time>
      </trkpt>
      <trkpt lat="42.85993" lon="1.1982">
        <ele>523</ele>
        <time>2020-07-27T13:25:26Z</time>
      </trkpt>
      <trkpt lat="42.86128" lon="1.19924">
        <ele>513</ele>
        <time>2020-07-27T13:25:53Z</time>
      </trkpt>
      <trkpt lat="42.8625" lon="1.20047">
        <ele>512</ele>
        <time>2020-07-27T13:26:20Z</time>
      </trkpt>
      <trkpt lat="42.86292" lon="1.20093">
        <ele>513</ele>
        <time>2020-07-27T13:26:30Z</time>
      </trkpt>
      <trkpt lat="42.86334" lon="1.20147">
        <ele>512</ele>
        <time>2020-07-27T13:26:40Z</time>
      </trkpt>
      <trkpt lat="42.8634" lon="1.20158">
        <ele>512</ele>
        <time>2020-07-27T13:26:42Z</time>
      </trkpt>
      <trkpt lat="42.86341" lon="1.20161">
        <ele>512</ele>
        <time>2020-07-27T13:26:42Z</time>
      </trkpt>
      <trkpt lat="42.86345" lon="1.2017">
        <ele>512</ele>
        <time>2020-07-27T13:26:44Z</time>
      </trkpt>
      <trkpt lat="42.86346" lon="1.20172">
        <ele>512</ele>
        <time>2020-07-27T13:26:44Z</time>
      </trkpt>
      <trkpt lat="42.86352" lon="1.20184">
        <ele>512</ele>
        <time>2020-07-27T13:26:46Z</time>
      </trkpt>
      <trkpt lat="42.86355" lon="1.20193">
        <ele>512</ele>
        <time>2020-07-27T13:26:47Z</time>
      </trkpt>
      <trkpt lat="42.86382" lon="1.20258">
        <ele>511</ele>
        <time>2020-07-27T13:26:57Z</time>
      </trkpt>
      <trkpt lat="42.86404" lon="1.20303">
        <ele>511</ele>
        <time>2020-07-27T13:27:04Z</time>
      </trkpt>
      <trkpt lat="42.86432" lon="1.20351">
        <ele>511</ele>
        <time>2020-07-27T13:27:12Z</time>
      </trkpt>
      <trkpt lat="42.86433" lon="1.20352">
        <ele>511</ele>
        <time>2020-07-27T13:27:12Z</time>
      </trkpt>
      <trkpt lat="42.86474" lon="1.20412">
        <ele>511</ele>
        <time>2020-07-27T13:27:23Z</time>
      </trkpt>
      <trkpt lat="42.86495" lon="1.20443">
        <ele>511</ele>
        <time>2020-07-27T13:27:29Z</time>
      </trkpt>
      <trkpt lat="42.86544" lon="1.20494">
        <ele>510</ele>
        <time>2020-07-27T13:27:40Z</time>
      </trkpt>
      <trkpt lat="42.86567" lon="1.2052">
        <ele>509</ele>
        <time>2020-07-27T13:27:45Z</time>
      </trkpt>
      <trkpt lat="42.86591" lon="1.20552">
        <ele>509</ele>
        <time>2020-07-27T13:27:51Z</time>
      </trkpt>
      <trkpt lat="42.86637" lon="1.20611">
        <ele>507</ele>
        <time>2020-07-27T13:28:02Z</time>
      </trkpt>
      <trkpt lat="42.86672" lon="1.20656">
        <ele>506</ele>
        <time>2020-07-27T13:28:11Z</time>
      </trkpt>
      <trkpt lat="42.86715" lon="1.20714">
        <ele>508</ele>
        <time>2020-07-27T13:28:21Z</time>
      </trkpt>
      <trkpt lat="42.86755" lon="1.20766">
        <ele>508</ele>
        <time>2020-07-27T13:28:31Z</time>
      </trkpt>
      <trkpt lat="42.86764" lon="1.20777">
        <ele>509</ele>
        <time>2020-07-27T13:28:33Z</time>
      </trkpt>
      <trkpt lat="42.8676" lon="1.20794">
        <ele>511</ele>
        <time>2020-07-27T13:28:36Z</time>
      </trkpt>
      <trkpt lat="42.86764" lon="1.20777">
        <ele>509</ele>
        <time>2020-07-27T13:28:38Z</time>
      </trkpt>
      <trkpt lat="42.86798" lon="1.20818">
        <ele>510</ele>
        <time>2020-07-27T13:28:46Z</time>
      </trkpt>
      <trkpt lat="42.86814" lon="1.20831">
        <ele>510</ele>
        <time>2020-07-27T13:28:49Z</time>
      </trkpt>
      <trkpt lat="42.86812" lon="1.20837">
        <ele>511</ele>
        <time>2020-07-27T13:28:50Z</time>
      </trkpt>
      <trkpt lat="42.86813" lon="1.20846">
        <ele>512</ele>
        <time>2020-07-27T13:28:51Z</time>
      </trkpt>
      <trkpt lat="42.86817" lon="1.20853">
        <ele>513</ele>
        <time>2020-07-27T13:28:53Z</time>
      </trkpt>
      <trkpt lat="42.86826" lon="1.20855">
        <ele>512</ele>
        <time>2020-07-27T13:28:54Z</time>
      </trkpt>
      <trkpt lat="42.86832" lon="1.20849">
        <ele>511</ele>
        <time>2020-07-27T13:28:56Z</time>
      </trkpt>
      <trkpt lat="42.86834" lon="1.20844">
        <ele>510</ele>
        <time>2020-07-27T13:28:56Z</time>
      </trkpt>
      <trkpt lat="42.86834" lon="1.20837">
        <ele>509</ele>
        <time>2020-07-27T13:28:57Z</time>
      </trkpt>
      <trkpt lat="42.8683" lon="1.20828">
        <ele>509</ele>
        <time>2020-07-27T13:28:59Z</time>
      </trkpt>
      <trkpt lat="42.86834" lon="1.20815">
        <ele>508</ele>
        <time>2020-07-27T13:29:00Z</time>
      </trkpt>
      <trkpt lat="42.8686" lon="1.20757">
        <ele>504</ele>
        <time>2020-07-27T13:29:09Z</time>
      </trkpt>
      <trkpt lat="42.86889" lon="1.2069">
        <ele>505</ele>
        <time>2020-07-27T13:29:19Z</time>
      </trkpt>
    </trkseg>
  </trk>
</gpx>